<?xml version="1.0" encoding="UTF-8" standalone="no" ?>
<gpx xmlns="http://www.topografix.com/GPX/1/1" xmlns:xsi="http://www.w3.org/2001/XMLSchema-instance" xsi:schemaLocation="http://www.topografix.com/GPX/1/1 http://www.topografix.com/GPX/1/1/gpx.xsd" version="1.1" creator="VisuGPX - https://www.visugpx.com">
  <metadata>
    <name>De Boulogne/gesse à Lannemezan</name>
    <desc><![CDATA[Boucle de 73 km entre les rivières Gimone - Gesse - Save vers le plateau de lannemezan.]]></desc>
  </metadata>
  <trk>
    <name><![CDATA[27-JUIN-15 03:52:23 PM]]></name>
    <trkseg>
      <trkpt lat="43.28675" lon="0.65581">
        <ele>310.64</ele>
        <time>2015-06-27T06:40:51Z</time>
      </trkpt>
      <trkpt lat="43.28676" lon="0.65579">
        <ele>310.64</ele>
        <time>2015-06-27T06:40:58Z</time>
      </trkpt>
      <trkpt lat="43.28671" lon="0.65578">
        <ele>310.64</ele>
        <time>2015-06-27T06:41:03Z</time>
      </trkpt>
      <trkpt lat="43.2867" lon="0.65579">
        <ele>310.64</ele>
        <time>2015-06-27T06:41:04Z</time>
      </trkpt>
      <trkpt lat="43.28662" lon="0.65583">
        <ele>310.64</ele>
        <time>2015-06-27T06:41:12Z</time>
      </trkpt>
      <trkpt lat="43.28663" lon="0.65584">
        <ele>310.64</ele>
        <time>2015-06-27T06:41:19Z</time>
      </trkpt>
      <trkpt lat="43.28663" lon="0.65584">
        <ele>310.64</ele>
        <time>2015-06-27T06:41:20Z</time>
      </trkpt>
      <trkpt lat="43.28659" lon="0.65581">
        <ele>310.64</ele>
        <time>2015-06-27T06:41:23Z</time>
      </trkpt>
      <trkpt lat="43.28661" lon="0.65571">
        <ele>310.64</ele>
        <time>2015-06-27T06:41:28Z</time>
      </trkpt>
      <trkpt lat="43.28661" lon="0.65569">
        <ele>310.64</ele>
        <time>2015-06-27T06:41:29Z</time>
      </trkpt>
      <trkpt lat="43.2866" lon="0.65548">
        <ele>310.16</ele>
        <time>2015-06-27T06:41:39Z</time>
      </trkpt>
      <trkpt lat="43.28658" lon="0.65544">
        <ele>310.64</ele>
        <time>2015-06-27T06:41:41Z</time>
      </trkpt>
      <trkpt lat="43.28643" lon="0.65537">
        <ele>310.64</ele>
        <time>2015-06-27T06:41:49Z</time>
      </trkpt>
      <trkpt lat="43.28619" lon="0.65528">
        <ele>310.64</ele>
        <time>2015-06-27T06:42:00Z</time>
      </trkpt>
      <trkpt lat="43.28594" lon="0.65517">
        <ele>311.12</ele>
        <time>2015-06-27T06:42:11Z</time>
      </trkpt>
      <trkpt lat="43.28564" lon="0.65506">
        <ele>310.64</ele>
        <time>2015-06-27T06:42:22Z</time>
      </trkpt>
      <trkpt lat="43.28544" lon="0.65499">
        <ele>311.12</ele>
        <time>2015-06-27T06:42:30Z</time>
      </trkpt>
      <trkpt lat="43.28526" lon="0.6549">
        <ele>311.6</ele>
        <time>2015-06-27T06:42:38Z</time>
      </trkpt>
      <trkpt lat="43.28506" lon="0.65481">
        <ele>311.6</ele>
        <time>2015-06-27T06:42:46Z</time>
      </trkpt>
      <trkpt lat="43.28484" lon="0.65466">
        <ele>311.6</ele>
        <time>2015-06-27T06:42:54Z</time>
      </trkpt>
      <trkpt lat="43.28482" lon="0.65446">
        <ele>311.6</ele>
        <time>2015-06-27T06:42:59Z</time>
      </trkpt>
      <trkpt lat="43.28485" lon="0.65415">
        <ele>312.57</ele>
        <time>2015-06-27T06:43:09Z</time>
      </trkpt>
      <trkpt lat="43.28488" lon="0.65389">
        <ele>313.05</ele>
        <time>2015-06-27T06:43:18Z</time>
      </trkpt>
      <trkpt lat="43.28477" lon="0.65362">
        <ele>313.53</ele>
        <time>2015-06-27T06:43:28Z</time>
      </trkpt>
      <trkpt lat="43.28467" lon="0.65345">
        <ele>313.53</ele>
        <time>2015-06-27T06:43:35Z</time>
      </trkpt>
      <trkpt lat="43.28458" lon="0.65326">
        <ele>313.53</ele>
        <time>2015-06-27T06:43:43Z</time>
      </trkpt>
      <trkpt lat="43.28452" lon="0.65308">
        <ele>314.01</ele>
        <time>2015-06-27T06:43:49Z</time>
      </trkpt>
      <trkpt lat="43.2844" lon="0.65286">
        <ele>314.97</ele>
        <time>2015-06-27T06:43:56Z</time>
      </trkpt>
      <trkpt lat="43.28423" lon="0.65271">
        <ele>314.97</ele>
        <time>2015-06-27T06:44:03Z</time>
      </trkpt>
      <trkpt lat="43.28406" lon="0.65246">
        <ele>315.45</ele>
        <time>2015-06-27T06:44:12Z</time>
      </trkpt>
      <trkpt lat="43.28401" lon="0.65221">
        <ele>315.45</ele>
        <time>2015-06-27T06:44:20Z</time>
      </trkpt>
      <trkpt lat="43.28406" lon="0.65192">
        <ele>315.93</ele>
        <time>2015-06-27T06:44:30Z</time>
      </trkpt>
      <trkpt lat="43.28411" lon="0.65162">
        <ele>316.89</ele>
        <time>2015-06-27T06:44:41Z</time>
      </trkpt>
      <trkpt lat="43.28413" lon="0.65143">
        <ele>317.37</ele>
        <time>2015-06-27T06:44:49Z</time>
      </trkpt>
      <trkpt lat="43.28419" lon="0.65122">
        <ele>318.33</ele>
        <time>2015-06-27T06:44:58Z</time>
      </trkpt>
      <trkpt lat="43.28424" lon="0.651">
        <ele>318.33</ele>
        <time>2015-06-27T06:45:07Z</time>
      </trkpt>
      <trkpt lat="43.28427" lon="0.65075">
        <ele>319.3</ele>
        <time>2015-06-27T06:45:16Z</time>
      </trkpt>
      <trkpt lat="43.28432" lon="0.65052">
        <ele>320.26</ele>
        <time>2015-06-27T06:45:25Z</time>
      </trkpt>
      <trkpt lat="43.28439" lon="0.65022">
        <ele>321.7</ele>
        <time>2015-06-27T06:45:37Z</time>
      </trkpt>
      <trkpt lat="43.28443" lon="0.64998">
        <ele>322.66</ele>
        <time>2015-06-27T06:45:46Z</time>
      </trkpt>
      <trkpt lat="43.28447" lon="0.64975">
        <ele>323.14</ele>
        <time>2015-06-27T06:45:55Z</time>
      </trkpt>
      <trkpt lat="43.28453" lon="0.64949">
        <ele>324.1</ele>
        <time>2015-06-27T06:46:05Z</time>
      </trkpt>
      <trkpt lat="43.28458" lon="0.64927">
        <ele>325.06</ele>
        <time>2015-06-27T06:46:14Z</time>
      </trkpt>
      <trkpt lat="43.28464" lon="0.64902">
        <ele>326.02</ele>
        <time>2015-06-27T06:46:24Z</time>
      </trkpt>
      <trkpt lat="43.28467" lon="0.64896">
        <ele>326.02</ele>
        <time>2015-06-27T06:46:27Z</time>
      </trkpt>
      <trkpt lat="43.28474" lon="0.64878">
        <ele>326.5</ele>
        <time>2015-06-27T06:46:36Z</time>
      </trkpt>
      <trkpt lat="43.28481" lon="0.64858">
        <ele>326.5</ele>
        <time>2015-06-27T06:46:45Z</time>
      </trkpt>
      <trkpt lat="43.28488" lon="0.64836">
        <ele>327.95</ele>
        <time>2015-06-27T06:46:54Z</time>
      </trkpt>
      <trkpt lat="43.28498" lon="0.64813">
        <ele>328.91</ele>
        <time>2015-06-27T06:47:04Z</time>
      </trkpt>
      <trkpt lat="43.28506" lon="0.64794">
        <ele>329.39</ele>
        <time>2015-06-27T06:47:13Z</time>
      </trkpt>
      <trkpt lat="43.28515" lon="0.64775">
        <ele>330.35</ele>
        <time>2015-06-27T06:47:22Z</time>
      </trkpt>
      <trkpt lat="43.28527" lon="0.64751">
        <ele>331.31</ele>
        <time>2015-06-27T06:47:33Z</time>
      </trkpt>
      <trkpt lat="43.28537" lon="0.64731">
        <ele>332.27</ele>
        <time>2015-06-27T06:47:42Z</time>
      </trkpt>
      <trkpt lat="43.28545" lon="0.64714">
        <ele>332.75</ele>
        <time>2015-06-27T06:47:50Z</time>
      </trkpt>
      <trkpt lat="43.28554" lon="0.64696">
        <ele>333.71</ele>
        <time>2015-06-27T06:47:58Z</time>
      </trkpt>
      <trkpt lat="43.28567" lon="0.64675">
        <ele>334.2</ele>
        <time>2015-06-27T06:48:08Z</time>
      </trkpt>
      <trkpt lat="43.28577" lon="0.64658">
        <ele>334.68</ele>
        <time>2015-06-27T06:48:16Z</time>
      </trkpt>
      <trkpt lat="43.2859" lon="0.64641">
        <ele>335.16</ele>
        <time>2015-06-27T06:48:25Z</time>
      </trkpt>
      <trkpt lat="43.28608" lon="0.64619">
        <ele>335.16</ele>
        <time>2015-06-27T06:48:36Z</time>
      </trkpt>
      <trkpt lat="43.28625" lon="0.64599">
        <ele>335.16</ele>
        <time>2015-06-27T06:48:46Z</time>
      </trkpt>
      <trkpt lat="43.28648" lon="0.64577">
        <ele>335.16</ele>
        <time>2015-06-27T06:48:57Z</time>
      </trkpt>
      <trkpt lat="43.28667" lon="0.64558">
        <ele>336.6</ele>
        <time>2015-06-27T06:49:07Z</time>
      </trkpt>
      <trkpt lat="43.28686" lon="0.64545">
        <ele>337.08</ele>
        <time>2015-06-27T06:49:16Z</time>
      </trkpt>
      <trkpt lat="43.28704" lon="0.64532">
        <ele>337.56</ele>
        <time>2015-06-27T06:49:26Z</time>
      </trkpt>
      <trkpt lat="43.28721" lon="0.64516">
        <ele>338.04</ele>
        <time>2015-06-27T06:49:35Z</time>
      </trkpt>
      <trkpt lat="43.28738" lon="0.64492">
        <ele>338.52</ele>
        <time>2015-06-27T06:49:46Z</time>
      </trkpt>
      <trkpt lat="43.28748" lon="0.64472">
        <ele>339.48</ele>
        <time>2015-06-27T06:49:55Z</time>
      </trkpt>
      <trkpt lat="43.28761" lon="0.64452">
        <ele>339.96</ele>
        <time>2015-06-27T06:50:04Z</time>
      </trkpt>
      <trkpt lat="43.2877" lon="0.64434">
        <ele>340.44</ele>
        <time>2015-06-27T06:50:12Z</time>
      </trkpt>
      <trkpt lat="43.28783" lon="0.64414">
        <ele>341.41</ele>
        <time>2015-06-27T06:50:22Z</time>
      </trkpt>
      <trkpt lat="43.28793" lon="0.64395">
        <ele>342.37</ele>
        <time>2015-06-27T06:50:31Z</time>
      </trkpt>
      <trkpt lat="43.28804" lon="0.64377">
        <ele>342.85</ele>
        <time>2015-06-27T06:50:39Z</time>
      </trkpt>
      <trkpt lat="43.28811" lon="0.64364">
        <ele>342.85</ele>
        <time>2015-06-27T06:50:45Z</time>
      </trkpt>
      <trkpt lat="43.28822" lon="0.64348">
        <ele>343.81</ele>
        <time>2015-06-27T06:50:53Z</time>
      </trkpt>
      <trkpt lat="43.28836" lon="0.64326">
        <ele>344.77</ele>
        <time>2015-06-27T06:51:03Z</time>
      </trkpt>
      <trkpt lat="43.28846" lon="0.64307">
        <ele>345.25</ele>
        <time>2015-06-27T06:51:11Z</time>
      </trkpt>
      <trkpt lat="43.2886" lon="0.64286">
        <ele>345.73</ele>
        <time>2015-06-27T06:51:20Z</time>
      </trkpt>
      <trkpt lat="43.28875" lon="0.64259">
        <ele>345.73</ele>
        <time>2015-06-27T06:51:31Z</time>
      </trkpt>
      <trkpt lat="43.28888" lon="0.64237">
        <ele>346.21</ele>
        <time>2015-06-27T06:51:40Z</time>
      </trkpt>
      <trkpt lat="43.28903" lon="0.64223">
        <ele>346.69</ele>
        <time>2015-06-27T06:51:48Z</time>
      </trkpt>
      <trkpt lat="43.28905" lon="0.64197">
        <ele>346.69</ele>
        <time>2015-06-27T06:51:55Z</time>
      </trkpt>
      <trkpt lat="43.28903" lon="0.6416">
        <ele>345.73</ele>
        <time>2015-06-27T06:52:06Z</time>
      </trkpt>
      <trkpt lat="43.28903" lon="0.64122">
        <ele>345.25</ele>
        <time>2015-06-27T06:52:14Z</time>
      </trkpt>
      <trkpt lat="43.28903" lon="0.64089">
        <ele>344.29</ele>
        <time>2015-06-27T06:52:21Z</time>
      </trkpt>
      <trkpt lat="43.28902" lon="0.64045">
        <ele>343.33</ele>
        <time>2015-06-27T06:52:29Z</time>
      </trkpt>
      <trkpt lat="43.289" lon="0.63986">
        <ele>341.41</ele>
        <time>2015-06-27T06:52:38Z</time>
      </trkpt>
      <trkpt lat="43.28901" lon="0.63934">
        <ele>339.96</ele>
        <time>2015-06-27T06:52:45Z</time>
      </trkpt>
      <trkpt lat="43.28889" lon="0.63907">
        <ele>339.48</ele>
        <time>2015-06-27T06:52:50Z</time>
      </trkpt>
      <trkpt lat="43.28885" lon="0.63904">
        <ele>339.48</ele>
        <time>2015-06-27T06:52:51Z</time>
      </trkpt>
      <trkpt lat="43.28863" lon="0.63887">
        <ele>339.96</ele>
        <time>2015-06-27T06:53:00Z</time>
      </trkpt>
      <trkpt lat="43.28851" lon="0.63876">
        <ele>339.96</ele>
        <time>2015-06-27T06:53:06Z</time>
      </trkpt>
      <trkpt lat="43.28841" lon="0.6386">
        <ele>339.48</ele>
        <time>2015-06-27T06:53:12Z</time>
      </trkpt>
      <trkpt lat="43.28831" lon="0.63839">
        <ele>339</ele>
        <time>2015-06-27T06:53:17Z</time>
      </trkpt>
      <trkpt lat="43.2882" lon="0.63808">
        <ele>338.04</ele>
        <time>2015-06-27T06:53:23Z</time>
      </trkpt>
      <trkpt lat="43.28801" lon="0.63756">
        <ele>337.08</ele>
        <time>2015-06-27T06:53:32Z</time>
      </trkpt>
      <trkpt lat="43.28787" lon="0.6372">
        <ele>337.08</ele>
        <time>2015-06-27T06:53:39Z</time>
      </trkpt>
      <trkpt lat="43.28768" lon="0.6369">
        <ele>337.08</ele>
        <time>2015-06-27T06:53:47Z</time>
      </trkpt>
      <trkpt lat="43.28745" lon="0.63667">
        <ele>337.56</ele>
        <time>2015-06-27T06:53:56Z</time>
      </trkpt>
      <trkpt lat="43.2873" lon="0.63653">
        <ele>338.52</ele>
        <time>2015-06-27T06:54:03Z</time>
      </trkpt>
      <trkpt lat="43.28715" lon="0.63638">
        <ele>339.48</ele>
        <time>2015-06-27T06:54:11Z</time>
      </trkpt>
      <trkpt lat="43.28703" lon="0.63628">
        <ele>340.44</ele>
        <time>2015-06-27T06:54:18Z</time>
      </trkpt>
      <trkpt lat="43.28689" lon="0.63617">
        <ele>341.41</ele>
        <time>2015-06-27T06:54:26Z</time>
      </trkpt>
      <trkpt lat="43.28678" lon="0.63607">
        <ele>342.37</ele>
        <time>2015-06-27T06:54:33Z</time>
      </trkpt>
      <trkpt lat="43.28665" lon="0.63588">
        <ele>343.33</ele>
        <time>2015-06-27T06:54:42Z</time>
      </trkpt>
      <trkpt lat="43.28655" lon="0.63562">
        <ele>344.29</ele>
        <time>2015-06-27T06:54:52Z</time>
      </trkpt>
      <trkpt lat="43.28649" lon="0.63542">
        <ele>345.25</ele>
        <time>2015-06-27T06:55:00Z</time>
      </trkpt>
      <trkpt lat="43.28643" lon="0.63525">
        <ele>346.21</ele>
        <time>2015-06-27T06:55:07Z</time>
      </trkpt>
      <trkpt lat="43.28638" lon="0.63502">
        <ele>346.69</ele>
        <time>2015-06-27T06:55:15Z</time>
      </trkpt>
      <trkpt lat="43.28633" lon="0.63484">
        <ele>347.17</ele>
        <time>2015-06-27T06:55:22Z</time>
      </trkpt>
      <trkpt lat="43.28625" lon="0.63462">
        <ele>347.65</ele>
        <time>2015-06-27T06:55:30Z</time>
      </trkpt>
      <trkpt lat="43.28618" lon="0.63439">
        <ele>348.13</ele>
        <time>2015-06-27T06:55:38Z</time>
      </trkpt>
      <trkpt lat="43.28611" lon="0.63414">
        <ele>347.65</ele>
        <time>2015-06-27T06:55:47Z</time>
      </trkpt>
      <trkpt lat="43.28605" lon="0.63392">
        <ele>347.17</ele>
        <time>2015-06-27T06:55:54Z</time>
      </trkpt>
      <trkpt lat="43.28601" lon="0.6337">
        <ele>346.21</ele>
        <time>2015-06-27T06:56:01Z</time>
      </trkpt>
      <trkpt lat="43.28598" lon="0.63351">
        <ele>345.25</ele>
        <time>2015-06-27T06:56:07Z</time>
      </trkpt>
      <trkpt lat="43.28599" lon="0.63319">
        <ele>344.29</ele>
        <time>2015-06-27T06:56:15Z</time>
      </trkpt>
      <trkpt lat="43.28599" lon="0.63296">
        <ele>343.81</ele>
        <time>2015-06-27T06:56:21Z</time>
      </trkpt>
      <trkpt lat="43.286" lon="0.63268">
        <ele>341.89</ele>
        <time>2015-06-27T06:56:28Z</time>
      </trkpt>
      <trkpt lat="43.28599" lon="0.63241">
        <ele>340.92</ele>
        <time>2015-06-27T06:56:36Z</time>
      </trkpt>
      <trkpt lat="43.286" lon="0.63211">
        <ele>339.96</ele>
        <time>2015-06-27T06:56:43Z</time>
      </trkpt>
      <trkpt lat="43.28598" lon="0.63164">
        <ele>339</ele>
        <time>2015-06-27T06:56:53Z</time>
      </trkpt>
      <trkpt lat="43.28591" lon="0.63122">
        <ele>339</ele>
        <time>2015-06-27T06:57:02Z</time>
      </trkpt>
      <trkpt lat="43.28584" lon="0.63094">
        <ele>339</ele>
        <time>2015-06-27T06:57:10Z</time>
      </trkpt>
      <trkpt lat="43.28572" lon="0.63074">
        <ele>339</ele>
        <time>2015-06-27T06:57:17Z</time>
      </trkpt>
      <trkpt lat="43.28558" lon="0.6306">
        <ele>339</ele>
        <time>2015-06-27T06:57:23Z</time>
      </trkpt>
      <trkpt lat="43.28535" lon="0.63048">
        <ele>339.48</ele>
        <time>2015-06-27T06:57:31Z</time>
      </trkpt>
      <trkpt lat="43.2851" lon="0.63045">
        <ele>340.44</ele>
        <time>2015-06-27T06:57:40Z</time>
      </trkpt>
      <trkpt lat="43.28488" lon="0.63043">
        <ele>341.41</ele>
        <time>2015-06-27T06:57:50Z</time>
      </trkpt>
      <trkpt lat="43.28476" lon="0.6304">
        <ele>341.89</ele>
        <time>2015-06-27T06:57:56Z</time>
      </trkpt>
      <trkpt lat="43.28461" lon="0.63036">
        <ele>342.37</ele>
        <time>2015-06-27T06:58:04Z</time>
      </trkpt>
      <trkpt lat="43.28447" lon="0.63033">
        <ele>343.81</ele>
        <time>2015-06-27T06:58:13Z</time>
      </trkpt>
      <trkpt lat="43.28435" lon="0.63031">
        <ele>344.29</ele>
        <time>2015-06-27T06:58:21Z</time>
      </trkpt>
      <trkpt lat="43.28425" lon="0.63029">
        <ele>345.25</ele>
        <time>2015-06-27T06:58:28Z</time>
      </trkpt>
      <trkpt lat="43.2841" lon="0.63026">
        <ele>346.69</ele>
        <time>2015-06-27T06:58:38Z</time>
      </trkpt>
      <trkpt lat="43.28397" lon="0.63024">
        <ele>348.13</ele>
        <time>2015-06-27T06:58:48Z</time>
      </trkpt>
      <trkpt lat="43.28386" lon="0.63022">
        <ele>349.1</ele>
        <time>2015-06-27T06:58:56Z</time>
      </trkpt>
      <trkpt lat="43.28384" lon="0.63022">
        <ele>349.1</ele>
        <time>2015-06-27T06:58:58Z</time>
      </trkpt>
      <trkpt lat="43.28378" lon="0.63021">
        <ele>350.06</ele>
        <time>2015-06-27T06:59:02Z</time>
      </trkpt>
      <trkpt lat="43.28365" lon="0.63018">
        <ele>351.5</ele>
        <time>2015-06-27T06:59:10Z</time>
      </trkpt>
      <trkpt lat="43.28362" lon="0.63018">
        <ele>351.98</ele>
        <time>2015-06-27T06:59:13Z</time>
      </trkpt>
      <trkpt lat="43.28348" lon="0.63014">
        <ele>353.42</ele>
        <time>2015-06-27T06:59:23Z</time>
      </trkpt>
      <trkpt lat="43.28339" lon="0.63012">
        <ele>354.86</ele>
        <time>2015-06-27T06:59:30Z</time>
      </trkpt>
      <trkpt lat="43.28328" lon="0.63009">
        <ele>356.31</ele>
        <time>2015-06-27T06:59:39Z</time>
      </trkpt>
      <trkpt lat="43.2832" lon="0.63007">
        <ele>357.27</ele>
        <time>2015-06-27T06:59:46Z</time>
      </trkpt>
      <trkpt lat="43.28309" lon="0.63002">
        <ele>358.71</ele>
        <time>2015-06-27T06:59:56Z</time>
      </trkpt>
      <trkpt lat="43.28301" lon="0.62997">
        <ele>359.67</ele>
        <time>2015-06-27T07:00:03Z</time>
      </trkpt>
      <trkpt lat="43.283" lon="0.62996">
        <ele>359.67</ele>
        <time>2015-06-27T07:00:04Z</time>
      </trkpt>
      <trkpt lat="43.28294" lon="0.62993">
        <ele>360.15</ele>
        <time>2015-06-27T07:00:08Z</time>
      </trkpt>
      <trkpt lat="43.28279" lon="0.62986">
        <ele>361.11</ele>
        <time>2015-06-27T07:00:16Z</time>
      </trkpt>
      <trkpt lat="43.28263" lon="0.62975">
        <ele>361.11</ele>
        <time>2015-06-27T07:00:26Z</time>
      </trkpt>
      <trkpt lat="43.28248" lon="0.62965">
        <ele>360.63</ele>
        <time>2015-06-27T07:00:35Z</time>
      </trkpt>
      <trkpt lat="43.28229" lon="0.6295">
        <ele>359.67</ele>
        <time>2015-06-27T07:00:43Z</time>
      </trkpt>
      <trkpt lat="43.28215" lon="0.62938">
        <ele>358.71</ele>
        <time>2015-06-27T07:00:50Z</time>
      </trkpt>
      <trkpt lat="43.28205" lon="0.62923">
        <ele>358.23</ele>
        <time>2015-06-27T07:00:57Z</time>
      </trkpt>
      <trkpt lat="43.28192" lon="0.62903">
        <ele>356.79</ele>
        <time>2015-06-27T07:01:05Z</time>
      </trkpt>
      <trkpt lat="43.28179" lon="0.62887">
        <ele>355.83</ele>
        <time>2015-06-27T07:01:12Z</time>
      </trkpt>
      <trkpt lat="43.28174" lon="0.62863">
        <ele>354.86</ele>
        <time>2015-06-27T07:01:19Z</time>
      </trkpt>
      <trkpt lat="43.28168" lon="0.62814">
        <ele>353.42</ele>
        <time>2015-06-27T07:01:30Z</time>
      </trkpt>
      <trkpt lat="43.28162" lon="0.62772">
        <ele>352.46</ele>
        <time>2015-06-27T07:01:38Z</time>
      </trkpt>
      <trkpt lat="43.28154" lon="0.62723">
        <ele>351.5</ele>
        <time>2015-06-27T07:01:46Z</time>
      </trkpt>
      <trkpt lat="43.28139" lon="0.62683">
        <ele>351.02</ele>
        <time>2015-06-27T07:01:53Z</time>
      </trkpt>
      <trkpt lat="43.28117" lon="0.62641">
        <ele>350.54</ele>
        <time>2015-06-27T07:02:02Z</time>
      </trkpt>
      <trkpt lat="43.28097" lon="0.62603">
        <ele>350.06</ele>
        <time>2015-06-27T07:02:11Z</time>
      </trkpt>
      <trkpt lat="43.28079" lon="0.62578">
        <ele>350.06</ele>
        <time>2015-06-27T07:02:19Z</time>
      </trkpt>
      <trkpt lat="43.28055" lon="0.62548">
        <ele>350.54</ele>
        <time>2015-06-27T07:02:30Z</time>
      </trkpt>
      <trkpt lat="43.28032" lon="0.62529">
        <ele>351.5</ele>
        <time>2015-06-27T07:02:39Z</time>
      </trkpt>
      <trkpt lat="43.28009" lon="0.6251">
        <ele>352.94</ele>
        <time>2015-06-27T07:02:49Z</time>
      </trkpt>
      <trkpt lat="43.27991" lon="0.62493">
        <ele>353.42</ele>
        <time>2015-06-27T07:02:58Z</time>
      </trkpt>
      <trkpt lat="43.27977" lon="0.62473">
        <ele>354.86</ele>
        <time>2015-06-27T07:03:07Z</time>
      </trkpt>
      <trkpt lat="43.27968" lon="0.62443">
        <ele>356.79</ele>
        <time>2015-06-27T07:03:18Z</time>
      </trkpt>
      <trkpt lat="43.2796" lon="0.62416">
        <ele>357.75</ele>
        <time>2015-06-27T07:03:28Z</time>
      </trkpt>
      <trkpt lat="43.27953" lon="0.62396">
        <ele>358.23</ele>
        <time>2015-06-27T07:03:36Z</time>
      </trkpt>
      <trkpt lat="43.27945" lon="0.62377">
        <ele>357.75</ele>
        <time>2015-06-27T07:03:44Z</time>
      </trkpt>
      <trkpt lat="43.27936" lon="0.62354">
        <ele>357.27</ele>
        <time>2015-06-27T07:03:51Z</time>
      </trkpt>
      <trkpt lat="43.27928" lon="0.62334">
        <ele>356.31</ele>
        <time>2015-06-27T07:03:57Z</time>
      </trkpt>
      <trkpt lat="43.27913" lon="0.62294">
        <ele>354.86</ele>
        <time>2015-06-27T07:04:06Z</time>
      </trkpt>
      <trkpt lat="43.27897" lon="0.62265">
        <ele>353.9</ele>
        <time>2015-06-27T07:04:12Z</time>
      </trkpt>
      <trkpt lat="43.27867" lon="0.62226">
        <ele>353.42</ele>
        <time>2015-06-27T07:04:22Z</time>
      </trkpt>
      <trkpt lat="43.27865" lon="0.62223">
        <ele>353.42</ele>
        <time>2015-06-27T07:04:23Z</time>
      </trkpt>
      <trkpt lat="43.27835" lon="0.622">
        <ele>353.42</ele>
        <time>2015-06-27T07:04:32Z</time>
      </trkpt>
      <trkpt lat="43.27811" lon="0.6219">
        <ele>353.9</ele>
        <time>2015-06-27T07:04:40Z</time>
      </trkpt>
      <trkpt lat="43.27788" lon="0.62184">
        <ele>354.38</ele>
        <time>2015-06-27T07:04:48Z</time>
      </trkpt>
      <trkpt lat="43.27756" lon="0.62174">
        <ele>354.86</ele>
        <time>2015-06-27T07:04:59Z</time>
      </trkpt>
      <trkpt lat="43.27726" lon="0.62162">
        <ele>354.86</ele>
        <time>2015-06-27T07:05:09Z</time>
      </trkpt>
      <trkpt lat="43.27702" lon="0.62142">
        <ele>355.34</ele>
        <time>2015-06-27T07:05:18Z</time>
      </trkpt>
      <trkpt lat="43.27687" lon="0.62119">
        <ele>356.31</ele>
        <time>2015-06-27T07:05:26Z</time>
      </trkpt>
      <trkpt lat="43.27676" lon="0.62091">
        <ele>357.27</ele>
        <time>2015-06-27T07:05:35Z</time>
      </trkpt>
      <trkpt lat="43.27665" lon="0.62065">
        <ele>357.75</ele>
        <time>2015-06-27T07:05:44Z</time>
      </trkpt>
      <trkpt lat="43.27652" lon="0.62039">
        <ele>358.71</ele>
        <time>2015-06-27T07:05:53Z</time>
      </trkpt>
      <trkpt lat="43.27633" lon="0.62009">
        <ele>359.67</ele>
        <time>2015-06-27T07:06:05Z</time>
      </trkpt>
      <trkpt lat="43.27613" lon="0.61984">
        <ele>360.63</ele>
        <time>2015-06-27T07:06:17Z</time>
      </trkpt>
      <trkpt lat="43.27596" lon="0.61965">
        <ele>361.59</ele>
        <time>2015-06-27T07:06:27Z</time>
      </trkpt>
      <trkpt lat="43.27585" lon="0.61952">
        <ele>362.55</ele>
        <time>2015-06-27T07:06:34Z</time>
      </trkpt>
      <trkpt lat="43.27573" lon="0.61939">
        <ele>363.52</ele>
        <time>2015-06-27T07:06:42Z</time>
      </trkpt>
      <trkpt lat="43.27558" lon="0.61922">
        <ele>364.48</ele>
        <time>2015-06-27T07:06:51Z</time>
      </trkpt>
      <trkpt lat="43.27541" lon="0.61903">
        <ele>365.92</ele>
        <time>2015-06-27T07:07:01Z</time>
      </trkpt>
      <trkpt lat="43.27526" lon="0.61886">
        <ele>366.4</ele>
        <time>2015-06-27T07:07:10Z</time>
      </trkpt>
      <trkpt lat="43.2751" lon="0.61869">
        <ele>366.88</ele>
        <time>2015-06-27T07:07:20Z</time>
      </trkpt>
      <trkpt lat="43.27496" lon="0.61853">
        <ele>366.4</ele>
        <time>2015-06-27T07:07:28Z</time>
      </trkpt>
      <trkpt lat="43.27484" lon="0.61838">
        <ele>365.92</ele>
        <time>2015-06-27T07:07:36Z</time>
      </trkpt>
      <trkpt lat="43.27472" lon="0.61817">
        <ele>364.96</ele>
        <time>2015-06-27T07:07:43Z</time>
      </trkpt>
      <trkpt lat="43.27458" lon="0.61787">
        <ele>363.04</ele>
        <time>2015-06-27T07:07:51Z</time>
      </trkpt>
      <trkpt lat="43.27441" lon="0.6175">
        <ele>361.11</ele>
        <time>2015-06-27T07:07:59Z</time>
      </trkpt>
      <trkpt lat="43.27436" lon="0.6174">
        <ele>360.63</ele>
        <time>2015-06-27T07:08:01Z</time>
      </trkpt>
      <trkpt lat="43.27423" lon="0.61712">
        <ele>359.19</ele>
        <time>2015-06-27T07:08:06Z</time>
      </trkpt>
      <trkpt lat="43.27399" lon="0.61659">
        <ele>357.27</ele>
        <time>2015-06-27T07:08:16Z</time>
      </trkpt>
      <trkpt lat="43.27388" lon="0.6164">
        <ele>356.79</ele>
        <time>2015-06-27T07:08:20Z</time>
      </trkpt>
      <trkpt lat="43.27355" lon="0.6161">
        <ele>356.31</ele>
        <time>2015-06-27T07:08:30Z</time>
      </trkpt>
      <trkpt lat="43.2733" lon="0.61602">
        <ele>356.31</ele>
        <time>2015-06-27T07:08:37Z</time>
      </trkpt>
      <trkpt lat="43.27309" lon="0.61598">
        <ele>356.79</ele>
        <time>2015-06-27T07:08:45Z</time>
      </trkpt>
      <trkpt lat="43.27283" lon="0.61592">
        <ele>357.75</ele>
        <time>2015-06-27T07:08:55Z</time>
      </trkpt>
      <trkpt lat="43.27255" lon="0.61583">
        <ele>358.23</ele>
        <time>2015-06-27T07:09:06Z</time>
      </trkpt>
      <trkpt lat="43.27241" lon="0.61574">
        <ele>358.71</ele>
        <time>2015-06-27T07:09:14Z</time>
      </trkpt>
      <trkpt lat="43.27227" lon="0.61566">
        <ele>359.67</ele>
        <time>2015-06-27T07:09:20Z</time>
      </trkpt>
      <trkpt lat="43.27204" lon="0.61553">
        <ele>360.63</ele>
        <time>2015-06-27T07:09:30Z</time>
      </trkpt>
      <trkpt lat="43.27184" lon="0.6154">
        <ele>361.59</ele>
        <time>2015-06-27T07:09:40Z</time>
      </trkpt>
      <trkpt lat="43.27167" lon="0.6152">
        <ele>362.55</ele>
        <time>2015-06-27T07:09:51Z</time>
      </trkpt>
      <trkpt lat="43.27161" lon="0.61507">
        <ele>363.04</ele>
        <time>2015-06-27T07:09:58Z</time>
      </trkpt>
      <trkpt lat="43.27156" lon="0.61487">
        <ele>364</ele>
        <time>2015-06-27T07:10:06Z</time>
      </trkpt>
      <trkpt lat="43.27151" lon="0.61468">
        <ele>364.96</ele>
        <time>2015-06-27T07:10:14Z</time>
      </trkpt>
      <trkpt lat="43.27152" lon="0.61448">
        <ele>365.92</ele>
        <time>2015-06-27T07:10:23Z</time>
      </trkpt>
      <trkpt lat="43.27151" lon="0.61434">
        <ele>366.4</ele>
        <time>2015-06-27T07:10:29Z</time>
      </trkpt>
      <trkpt lat="43.27151" lon="0.6142">
        <ele>366.88</ele>
        <time>2015-06-27T07:10:35Z</time>
      </trkpt>
      <trkpt lat="43.27154" lon="0.61394">
        <ele>368.32</ele>
        <time>2015-06-27T07:10:45Z</time>
      </trkpt>
      <trkpt lat="43.27158" lon="0.61373">
        <ele>369.28</ele>
        <time>2015-06-27T07:10:53Z</time>
      </trkpt>
      <trkpt lat="43.2716" lon="0.61346">
        <ele>370.73</ele>
        <time>2015-06-27T07:11:03Z</time>
      </trkpt>
      <trkpt lat="43.27161" lon="0.61326">
        <ele>370.73</ele>
        <time>2015-06-27T07:11:11Z</time>
      </trkpt>
      <trkpt lat="43.2716" lon="0.61308">
        <ele>370.24</ele>
        <time>2015-06-27T07:11:18Z</time>
      </trkpt>
      <trkpt lat="43.2716" lon="0.6128">
        <ele>368.8</ele>
        <time>2015-06-27T07:11:26Z</time>
      </trkpt>
      <trkpt lat="43.27162" lon="0.61246">
        <ele>367.36</ele>
        <time>2015-06-27T07:11:34Z</time>
      </trkpt>
      <trkpt lat="43.27167" lon="0.61207">
        <ele>366.4</ele>
        <time>2015-06-27T07:11:42Z</time>
      </trkpt>
      <trkpt lat="43.27168" lon="0.61179">
        <ele>364.96</ele>
        <time>2015-06-27T07:11:47Z</time>
      </trkpt>
      <trkpt lat="43.27159" lon="0.61123">
        <ele>364</ele>
        <time>2015-06-27T07:11:56Z</time>
      </trkpt>
      <trkpt lat="43.27149" lon="0.61076">
        <ele>364</ele>
        <time>2015-06-27T07:12:05Z</time>
      </trkpt>
      <trkpt lat="43.27143" lon="0.61035">
        <ele>364.48</ele>
        <time>2015-06-27T07:12:15Z</time>
      </trkpt>
      <trkpt lat="43.27145" lon="0.61004">
        <ele>364.48</ele>
        <time>2015-06-27T07:12:23Z</time>
      </trkpt>
      <trkpt lat="43.27153" lon="0.60973">
        <ele>365.44</ele>
        <time>2015-06-27T07:12:32Z</time>
      </trkpt>
      <trkpt lat="43.27164" lon="0.60943">
        <ele>365.44</ele>
        <time>2015-06-27T07:12:41Z</time>
      </trkpt>
      <trkpt lat="43.27174" lon="0.60916">
        <ele>365.92</ele>
        <time>2015-06-27T07:12:50Z</time>
      </trkpt>
      <trkpt lat="43.27182" lon="0.60895">
        <ele>366.4</ele>
        <time>2015-06-27T07:12:57Z</time>
      </trkpt>
      <trkpt lat="43.27187" lon="0.60867">
        <ele>365.92</ele>
        <time>2015-06-27T07:13:05Z</time>
      </trkpt>
      <trkpt lat="43.27188" lon="0.60843">
        <ele>365.44</ele>
        <time>2015-06-27T07:13:12Z</time>
      </trkpt>
      <trkpt lat="43.27182" lon="0.60808">
        <ele>364.96</ele>
        <time>2015-06-27T07:13:22Z</time>
      </trkpt>
      <trkpt lat="43.27172" lon="0.60783">
        <ele>364.96</ele>
        <time>2015-06-27T07:13:29Z</time>
      </trkpt>
      <trkpt lat="43.27152" lon="0.60764">
        <ele>364.96</ele>
        <time>2015-06-27T07:13:37Z</time>
      </trkpt>
      <trkpt lat="43.27135" lon="0.60756">
        <ele>365.44</ele>
        <time>2015-06-27T07:13:43Z</time>
      </trkpt>
      <trkpt lat="43.27111" lon="0.6075">
        <ele>366.4</ele>
        <time>2015-06-27T07:13:52Z</time>
      </trkpt>
      <trkpt lat="43.27087" lon="0.6075">
        <ele>366.88</ele>
        <time>2015-06-27T07:14:02Z</time>
      </trkpt>
      <trkpt lat="43.27066" lon="0.60752">
        <ele>366.4</ele>
        <time>2015-06-27T07:14:09Z</time>
      </trkpt>
      <trkpt lat="43.27028" lon="0.60755">
        <ele>365.92</ele>
        <time>2015-06-27T07:14:19Z</time>
      </trkpt>
      <trkpt lat="43.27" lon="0.60756">
        <ele>365.92</ele>
        <time>2015-06-27T07:14:27Z</time>
      </trkpt>
      <trkpt lat="43.26977" lon="0.6075">
        <ele>366.88</ele>
        <time>2015-06-27T07:14:35Z</time>
      </trkpt>
      <trkpt lat="43.26956" lon="0.60734">
        <ele>368.8</ele>
        <time>2015-06-27T07:14:46Z</time>
      </trkpt>
      <trkpt lat="43.26946" lon="0.60722">
        <ele>369.28</ele>
        <time>2015-06-27T07:14:53Z</time>
      </trkpt>
      <trkpt lat="43.26936" lon="0.6071">
        <ele>370.24</ele>
        <time>2015-06-27T07:15:01Z</time>
      </trkpt>
      <trkpt lat="43.26924" lon="0.60694">
        <ele>371.69</ele>
        <time>2015-06-27T07:15:10Z</time>
      </trkpt>
      <trkpt lat="43.26914" lon="0.6068">
        <ele>372.65</ele>
        <time>2015-06-27T07:15:18Z</time>
      </trkpt>
      <trkpt lat="43.26904" lon="0.60666">
        <ele>373.61</ele>
        <time>2015-06-27T07:15:26Z</time>
      </trkpt>
      <trkpt lat="43.26897" lon="0.60649">
        <ele>373.61</ele>
        <time>2015-06-27T07:15:34Z</time>
      </trkpt>
      <trkpt lat="43.26893" lon="0.60635">
        <ele>373.61</ele>
        <time>2015-06-27T07:15:41Z</time>
      </trkpt>
      <trkpt lat="43.2689" lon="0.60617">
        <ele>373.13</ele>
        <time>2015-06-27T07:15:47Z</time>
      </trkpt>
      <trkpt lat="43.26884" lon="0.60588">
        <ele>371.69</ele>
        <time>2015-06-27T07:15:55Z</time>
      </trkpt>
      <trkpt lat="43.26878" lon="0.60558">
        <ele>370.24</ele>
        <time>2015-06-27T07:16:02Z</time>
      </trkpt>
      <trkpt lat="43.26871" lon="0.60529">
        <ele>369.28</ele>
        <time>2015-06-27T07:16:08Z</time>
      </trkpt>
      <trkpt lat="43.2686" lon="0.60477">
        <ele>366.88</ele>
        <time>2015-06-27T07:16:17Z</time>
      </trkpt>
      <trkpt lat="43.26855" lon="0.60451">
        <ele>365.92</ele>
        <time>2015-06-27T07:16:21Z</time>
      </trkpt>
      <trkpt lat="43.2685" lon="0.60436">
        <ele>364.96</ele>
        <time>2015-06-27T07:16:23Z</time>
      </trkpt>
      <trkpt lat="43.26835" lon="0.60407">
        <ele>363.52</ele>
        <time>2015-06-27T07:16:27Z</time>
      </trkpt>
      <trkpt lat="43.26786" lon="0.60356">
        <ele>361.59</ele>
        <time>2015-06-27T07:16:35Z</time>
      </trkpt>
      <trkpt lat="43.26749" lon="0.60323">
        <ele>363.04</ele>
        <time>2015-06-27T07:16:42Z</time>
      </trkpt>
      <trkpt lat="43.26728" lon="0.60307">
        <ele>364.96</ele>
        <time>2015-06-27T07:16:48Z</time>
      </trkpt>
      <trkpt lat="43.26717" lon="0.60298">
        <ele>365.92</ele>
        <time>2015-06-27T07:16:54Z</time>
      </trkpt>
      <trkpt lat="43.26714" lon="0.60295">
        <ele>365.92</ele>
        <time>2015-06-27T07:16:56Z</time>
      </trkpt>
      <trkpt lat="43.26699" lon="0.60288">
        <ele>366.88</ele>
        <time>2015-06-27T07:17:04Z</time>
      </trkpt>
      <trkpt lat="43.26682" lon="0.60284">
        <ele>367.84</ele>
        <time>2015-06-27T07:17:13Z</time>
      </trkpt>
      <trkpt lat="43.26661" lon="0.60277">
        <ele>368.8</ele>
        <time>2015-06-27T07:17:24Z</time>
      </trkpt>
      <trkpt lat="43.2665" lon="0.6027">
        <ele>369.28</ele>
        <time>2015-06-27T07:17:31Z</time>
      </trkpt>
      <trkpt lat="43.26637" lon="0.60259">
        <ele>370.73</ele>
        <time>2015-06-27T07:17:39Z</time>
      </trkpt>
      <trkpt lat="43.26628" lon="0.60247">
        <ele>371.21</ele>
        <time>2015-06-27T07:17:47Z</time>
      </trkpt>
      <trkpt lat="43.26621" lon="0.60232">
        <ele>372.17</ele>
        <time>2015-06-27T07:17:55Z</time>
      </trkpt>
      <trkpt lat="43.26609" lon="0.6021">
        <ele>373.61</ele>
        <time>2015-06-27T07:18:05Z</time>
      </trkpt>
      <trkpt lat="43.266" lon="0.6019">
        <ele>374.57</ele>
        <time>2015-06-27T07:18:15Z</time>
      </trkpt>
      <trkpt lat="43.26591" lon="0.60173">
        <ele>375.53</ele>
        <time>2015-06-27T07:18:24Z</time>
      </trkpt>
      <trkpt lat="43.26582" lon="0.60157">
        <ele>376.49</ele>
        <time>2015-06-27T07:18:33Z</time>
      </trkpt>
      <trkpt lat="43.26574" lon="0.60143">
        <ele>377.45</ele>
        <time>2015-06-27T07:18:40Z</time>
      </trkpt>
      <trkpt lat="43.26567" lon="0.60134">
        <ele>377.94</ele>
        <time>2015-06-27T07:18:46Z</time>
      </trkpt>
      <trkpt lat="43.26559" lon="0.60123">
        <ele>378.9</ele>
        <time>2015-06-27T07:18:53Z</time>
      </trkpt>
      <trkpt lat="43.26554" lon="0.60117">
        <ele>379.38</ele>
        <time>2015-06-27T07:18:57Z</time>
      </trkpt>
      <trkpt lat="43.26541" lon="0.60101">
        <ele>379.86</ele>
        <time>2015-06-27T07:19:07Z</time>
      </trkpt>
      <trkpt lat="43.2653" lon="0.60089">
        <ele>380.82</ele>
        <time>2015-06-27T07:19:16Z</time>
      </trkpt>
      <trkpt lat="43.26516" lon="0.60077">
        <ele>381.78</ele>
        <time>2015-06-27T07:19:27Z</time>
      </trkpt>
      <trkpt lat="43.26507" lon="0.60066">
        <ele>382.74</ele>
        <time>2015-06-27T07:19:35Z</time>
      </trkpt>
      <trkpt lat="43.26492" lon="0.60052">
        <ele>383.7</ele>
        <time>2015-06-27T07:19:46Z</time>
      </trkpt>
      <trkpt lat="43.26491" lon="0.60051">
        <ele>383.7</ele>
        <time>2015-06-27T07:19:47Z</time>
      </trkpt>
      <trkpt lat="43.26478" lon="0.6004">
        <ele>384.66</ele>
        <time>2015-06-27T07:19:56Z</time>
      </trkpt>
      <trkpt lat="43.26468" lon="0.60028">
        <ele>385.15</ele>
        <time>2015-06-27T07:20:05Z</time>
      </trkpt>
      <trkpt lat="43.26455" lon="0.60009">
        <ele>386.11</ele>
        <time>2015-06-27T07:20:15Z</time>
      </trkpt>
      <trkpt lat="43.26442" lon="0.59995">
        <ele>387.07</ele>
        <time>2015-06-27T07:20:25Z</time>
      </trkpt>
      <trkpt lat="43.26429" lon="0.59981">
        <ele>388.03</ele>
        <time>2015-06-27T07:20:35Z</time>
      </trkpt>
      <trkpt lat="43.26419" lon="0.59965">
        <ele>388.99</ele>
        <time>2015-06-27T07:20:44Z</time>
      </trkpt>
      <trkpt lat="43.26407" lon="0.59951">
        <ele>389.47</ele>
        <time>2015-06-27T07:20:53Z</time>
      </trkpt>
      <trkpt lat="43.26397" lon="0.59939">
        <ele>390.43</ele>
        <time>2015-06-27T07:21:01Z</time>
      </trkpt>
      <trkpt lat="43.26386" lon="0.59929">
        <ele>390.91</ele>
        <time>2015-06-27T07:21:09Z</time>
      </trkpt>
      <trkpt lat="43.26373" lon="0.59915">
        <ele>391.87</ele>
        <time>2015-06-27T07:21:19Z</time>
      </trkpt>
      <trkpt lat="43.26356" lon="0.59904">
        <ele>392.36</ele>
        <time>2015-06-27T07:21:28Z</time>
      </trkpt>
      <trkpt lat="43.26338" lon="0.59893">
        <ele>392.84</ele>
        <time>2015-06-27T07:21:37Z</time>
      </trkpt>
      <trkpt lat="43.26321" lon="0.59885">
        <ele>392.84</ele>
        <time>2015-06-27T07:21:45Z</time>
      </trkpt>
      <trkpt lat="43.26319" lon="0.59884">
        <ele>392.84</ele>
        <time>2015-06-27T07:21:46Z</time>
      </trkpt>
      <trkpt lat="43.26307" lon="0.59876">
        <ele>393.8</ele>
        <time>2015-06-27T07:21:53Z</time>
      </trkpt>
      <trkpt lat="43.26305" lon="0.59874">
        <ele>393.32</ele>
        <time>2015-06-27T07:21:55Z</time>
      </trkpt>
      <trkpt lat="43.26297" lon="0.59864">
        <ele>393.8</ele>
        <time>2015-06-27T07:22:02Z</time>
      </trkpt>
      <trkpt lat="43.26294" lon="0.59858">
        <ele>393.8</ele>
        <time>2015-06-27T07:22:05Z</time>
      </trkpt>
      <trkpt lat="43.26288" lon="0.59837">
        <ele>394.28</ele>
        <time>2015-06-27T07:22:13Z</time>
      </trkpt>
      <trkpt lat="43.26281" lon="0.59809">
        <ele>395.24</ele>
        <time>2015-06-27T07:22:22Z</time>
      </trkpt>
      <trkpt lat="43.26275" lon="0.59782">
        <ele>395.72</ele>
        <time>2015-06-27T07:22:31Z</time>
      </trkpt>
      <trkpt lat="43.26268" lon="0.59755">
        <ele>396.2</ele>
        <time>2015-06-27T07:22:41Z</time>
      </trkpt>
      <trkpt lat="43.2626" lon="0.59725">
        <ele>396.68</ele>
        <time>2015-06-27T07:22:51Z</time>
      </trkpt>
      <trkpt lat="43.26252" lon="0.59698">
        <ele>397.16</ele>
        <time>2015-06-27T07:23:00Z</time>
      </trkpt>
      <trkpt lat="43.26245" lon="0.59677">
        <ele>397.16</ele>
        <time>2015-06-27T07:23:08Z</time>
      </trkpt>
      <trkpt lat="43.26231" lon="0.59652">
        <ele>396.68</ele>
        <time>2015-06-27T07:23:17Z</time>
      </trkpt>
      <trkpt lat="43.26211" lon="0.59624">
        <ele>396.68</ele>
        <time>2015-06-27T07:23:27Z</time>
      </trkpt>
      <trkpt lat="43.26195" lon="0.59606">
        <ele>397.16</ele>
        <time>2015-06-27T07:23:36Z</time>
      </trkpt>
      <trkpt lat="43.26179" lon="0.5959">
        <ele>397.64</ele>
        <time>2015-06-27T07:23:45Z</time>
      </trkpt>
      <trkpt lat="43.26165" lon="0.59573">
        <ele>398.12</ele>
        <time>2015-06-27T07:23:53Z</time>
      </trkpt>
      <trkpt lat="43.2615" lon="0.5955">
        <ele>400.05</ele>
        <time>2015-06-27T07:24:04Z</time>
      </trkpt>
      <trkpt lat="43.26141" lon="0.5953">
        <ele>401.49</ele>
        <time>2015-06-27T07:24:13Z</time>
      </trkpt>
      <trkpt lat="43.2613" lon="0.59508">
        <ele>402.93</ele>
        <time>2015-06-27T07:24:23Z</time>
      </trkpt>
      <trkpt lat="43.26121" lon="0.59491">
        <ele>403.89</ele>
        <time>2015-06-27T07:24:31Z</time>
      </trkpt>
      <trkpt lat="43.26112" lon="0.59473">
        <ele>405.33</ele>
        <time>2015-06-27T07:24:41Z</time>
      </trkpt>
      <trkpt lat="43.26101" lon="0.59456">
        <ele>406.29</ele>
        <time>2015-06-27T07:24:51Z</time>
      </trkpt>
      <trkpt lat="43.26088" lon="0.59437">
        <ele>407.74</ele>
        <time>2015-06-27T07:25:00Z</time>
      </trkpt>
      <trkpt lat="43.26072" lon="0.59415">
        <ele>408.22</ele>
        <time>2015-06-27T07:25:11Z</time>
      </trkpt>
      <trkpt lat="43.26061" lon="0.59399">
        <ele>408.7</ele>
        <time>2015-06-27T07:25:19Z</time>
      </trkpt>
      <trkpt lat="43.26048" lon="0.59381">
        <ele>409.66</ele>
        <time>2015-06-27T07:25:28Z</time>
      </trkpt>
      <trkpt lat="43.26033" lon="0.5936">
        <ele>410.62</ele>
        <time>2015-06-27T07:25:37Z</time>
      </trkpt>
      <trkpt lat="43.26024" lon="0.59348">
        <ele>410.62</ele>
        <time>2015-06-27T07:25:42Z</time>
      </trkpt>
      <trkpt lat="43.26009" lon="0.59331">
        <ele>411.1</ele>
        <time>2015-06-27T07:25:51Z</time>
      </trkpt>
      <trkpt lat="43.25995" lon="0.59321">
        <ele>410.14</ele>
        <time>2015-06-27T07:25:57Z</time>
      </trkpt>
      <trkpt lat="43.25973" lon="0.59303">
        <ele>409.18</ele>
        <time>2015-06-27T07:26:05Z</time>
      </trkpt>
      <trkpt lat="43.25948" lon="0.59282">
        <ele>408.7</ele>
        <time>2015-06-27T07:26:12Z</time>
      </trkpt>
      <trkpt lat="43.25911" lon="0.59255">
        <ele>408.22</ele>
        <time>2015-06-27T07:26:21Z</time>
      </trkpt>
      <trkpt lat="43.25883" lon="0.59235">
        <ele>408.7</ele>
        <time>2015-06-27T07:26:30Z</time>
      </trkpt>
      <trkpt lat="43.25853" lon="0.5921">
        <ele>409.66</ele>
        <time>2015-06-27T07:26:41Z</time>
      </trkpt>
      <trkpt lat="43.25827" lon="0.5919">
        <ele>410.62</ele>
        <time>2015-06-27T07:26:51Z</time>
      </trkpt>
      <trkpt lat="43.258" lon="0.59169">
        <ele>411.1</ele>
        <time>2015-06-27T07:27:02Z</time>
      </trkpt>
      <trkpt lat="43.25787" lon="0.5916">
        <ele>411.58</ele>
        <time>2015-06-27T07:27:08Z</time>
      </trkpt>
      <trkpt lat="43.25769" lon="0.59145">
        <ele>412.06</ele>
        <time>2015-06-27T07:27:14Z</time>
      </trkpt>
      <trkpt lat="43.25747" lon="0.59124">
        <ele>412.54</ele>
        <time>2015-06-27T07:27:22Z</time>
      </trkpt>
      <trkpt lat="43.25716" lon="0.59091">
        <ele>413.02</ele>
        <time>2015-06-27T07:27:34Z</time>
      </trkpt>
      <trkpt lat="43.25695" lon="0.59062">
        <ele>413.5</ele>
        <time>2015-06-27T07:27:43Z</time>
      </trkpt>
      <trkpt lat="43.25671" lon="0.59029">
        <ele>413.5</ele>
        <time>2015-06-27T07:27:53Z</time>
      </trkpt>
      <trkpt lat="43.25648" lon="0.58995">
        <ele>413.98</ele>
        <time>2015-06-27T07:28:03Z</time>
      </trkpt>
      <trkpt lat="43.25631" lon="0.58966">
        <ele>413.98</ele>
        <time>2015-06-27T07:28:11Z</time>
      </trkpt>
      <trkpt lat="43.25611" lon="0.58934">
        <ele>414.95</ele>
        <time>2015-06-27T07:28:20Z</time>
      </trkpt>
      <trkpt lat="43.2559" lon="0.58898">
        <ele>415.43</ele>
        <time>2015-06-27T07:28:30Z</time>
      </trkpt>
      <trkpt lat="43.25575" lon="0.58867">
        <ele>415.91</ele>
        <time>2015-06-27T07:28:39Z</time>
      </trkpt>
      <trkpt lat="43.25561" lon="0.58837">
        <ele>416.39</ele>
        <time>2015-06-27T07:28:47Z</time>
      </trkpt>
      <trkpt lat="43.25541" lon="0.58794">
        <ele>416.87</ele>
        <time>2015-06-27T07:28:59Z</time>
      </trkpt>
      <trkpt lat="43.25524" lon="0.58764">
        <ele>417.35</ele>
        <time>2015-06-27T07:29:08Z</time>
      </trkpt>
      <trkpt lat="43.25508" lon="0.58733">
        <ele>418.31</ele>
        <time>2015-06-27T07:29:17Z</time>
      </trkpt>
      <trkpt lat="43.255" lon="0.58718">
        <ele>418.31</ele>
        <time>2015-06-27T07:29:23Z</time>
      </trkpt>
      <trkpt lat="43.25482" lon="0.58692">
        <ele>418.31</ele>
        <time>2015-06-27T07:29:31Z</time>
      </trkpt>
      <trkpt lat="43.25463" lon="0.5866">
        <ele>418.31</ele>
        <time>2015-06-27T07:29:41Z</time>
      </trkpt>
      <trkpt lat="43.25445" lon="0.58632">
        <ele>418.31</ele>
        <time>2015-06-27T07:29:50Z</time>
      </trkpt>
      <trkpt lat="43.25423" lon="0.58611">
        <ele>418.79</ele>
        <time>2015-06-27T07:29:59Z</time>
      </trkpt>
      <trkpt lat="43.25404" lon="0.58597">
        <ele>419.75</ele>
        <time>2015-06-27T07:30:07Z</time>
      </trkpt>
      <trkpt lat="43.25386" lon="0.58581">
        <ele>420.71</ele>
        <time>2015-06-27T07:30:16Z</time>
      </trkpt>
      <trkpt lat="43.25367" lon="0.58568">
        <ele>421.68</ele>
        <time>2015-06-27T07:30:24Z</time>
      </trkpt>
      <trkpt lat="43.25345" lon="0.58564">
        <ele>422.16</ele>
        <time>2015-06-27T07:30:32Z</time>
      </trkpt>
      <trkpt lat="43.25324" lon="0.58564">
        <ele>421.68</ele>
        <time>2015-06-27T07:30:40Z</time>
      </trkpt>
      <trkpt lat="43.25318" lon="0.5857">
        <ele>421.68</ele>
        <time>2015-06-27T07:30:42Z</time>
      </trkpt>
      <trkpt lat="43.25304" lon="0.58588">
        <ele>423.12</ele>
        <time>2015-06-27T07:30:47Z</time>
      </trkpt>
      <trkpt lat="43.25288" lon="0.58604">
        <ele>424.56</ele>
        <time>2015-06-27T07:30:55Z</time>
      </trkpt>
      <trkpt lat="43.25271" lon="0.58609">
        <ele>425.04</ele>
        <time>2015-06-27T07:31:02Z</time>
      </trkpt>
      <trkpt lat="43.2525" lon="0.58621">
        <ele>425.52</ele>
        <time>2015-06-27T07:31:11Z</time>
      </trkpt>
      <trkpt lat="43.25233" lon="0.5865">
        <ele>426.48</ele>
        <time>2015-06-27T07:31:21Z</time>
      </trkpt>
      <trkpt lat="43.25222" lon="0.58671">
        <ele>427.44</ele>
        <time>2015-06-27T07:31:30Z</time>
      </trkpt>
      <trkpt lat="43.25215" lon="0.58676">
        <ele>428.4</ele>
        <time>2015-06-27T07:31:37Z</time>
      </trkpt>
      <trkpt lat="43.25215" lon="0.58675">
        <ele>428.4</ele>
        <time>2015-06-27T07:31:43Z</time>
      </trkpt>
      <trkpt lat="43.25214" lon="0.58676">
        <ele>428.4</ele>
        <time>2015-06-27T07:31:51Z</time>
      </trkpt>
      <trkpt lat="43.25215" lon="0.58675">
        <ele>428.4</ele>
        <time>2015-06-27T07:32:07Z</time>
      </trkpt>
      <trkpt lat="43.25216" lon="0.58674">
        <ele>428.4</ele>
        <time>2015-06-27T07:32:23Z</time>
      </trkpt>
      <trkpt lat="43.25215" lon="0.58674">
        <ele>428.4</ele>
        <time>2015-06-27T07:32:39Z</time>
      </trkpt>
      <trkpt lat="43.25215" lon="0.58674">
        <ele>428.4</ele>
        <time>2015-06-27T07:32:56Z</time>
      </trkpt>
      <trkpt lat="43.25216" lon="0.58675">
        <ele>428.89</ele>
        <time>2015-06-27T07:33:14Z</time>
      </trkpt>
      <trkpt lat="43.25215" lon="0.58676">
        <ele>428.4</ele>
        <time>2015-06-27T07:33:29Z</time>
      </trkpt>
      <trkpt lat="43.25216" lon="0.58677">
        <ele>428.4</ele>
        <time>2015-06-27T07:33:48Z</time>
      </trkpt>
      <trkpt lat="43.25217" lon="0.58676">
        <ele>428.4</ele>
        <time>2015-06-27T07:34:06Z</time>
      </trkpt>
      <trkpt lat="43.25218" lon="0.58676">
        <ele>428.4</ele>
        <time>2015-06-27T07:34:26Z</time>
      </trkpt>
      <trkpt lat="43.25218" lon="0.58676">
        <ele>428.89</ele>
        <time>2015-06-27T07:34:43Z</time>
      </trkpt>
      <trkpt lat="43.25219" lon="0.58676">
        <ele>428.89</ele>
        <time>2015-06-27T07:34:59Z</time>
      </trkpt>
      <trkpt lat="43.25218" lon="0.58676">
        <ele>428.89</ele>
        <time>2015-06-27T07:35:20Z</time>
      </trkpt>
      <trkpt lat="43.25218" lon="0.58676">
        <ele>428.89</ele>
        <time>2015-06-27T07:35:40Z</time>
      </trkpt>
      <trkpt lat="43.25218" lon="0.58676">
        <ele>428.4</ele>
        <time>2015-06-27T07:36:00Z</time>
      </trkpt>
      <trkpt lat="43.25218" lon="0.58676">
        <ele>428.89</ele>
        <time>2015-06-27T07:36:19Z</time>
      </trkpt>
      <trkpt lat="43.25218" lon="0.58676">
        <ele>428.89</ele>
        <time>2015-06-27T07:36:36Z</time>
      </trkpt>
      <trkpt lat="43.25218" lon="0.58676">
        <ele>428.89</ele>
        <time>2015-06-27T07:36:51Z</time>
      </trkpt>
      <trkpt lat="43.25219" lon="0.58677">
        <ele>428.89</ele>
        <time>2015-06-27T07:37:08Z</time>
      </trkpt>
      <trkpt lat="43.25219" lon="0.58676">
        <ele>428.89</ele>
        <time>2015-06-27T07:37:25Z</time>
      </trkpt>
      <trkpt lat="43.25218" lon="0.58677">
        <ele>428.89</ele>
        <time>2015-06-27T07:37:45Z</time>
      </trkpt>
      <trkpt lat="43.25218" lon="0.58677">
        <ele>428.89</ele>
        <time>2015-06-27T07:38:05Z</time>
      </trkpt>
      <trkpt lat="43.25217" lon="0.58677">
        <ele>428.89</ele>
        <time>2015-06-27T07:38:24Z</time>
      </trkpt>
      <trkpt lat="43.25217" lon="0.58677">
        <ele>428.89</ele>
        <time>2015-06-27T07:38:42Z</time>
      </trkpt>
      <trkpt lat="43.25217" lon="0.58677">
        <ele>428.89</ele>
        <time>2015-06-27T07:39:00Z</time>
      </trkpt>
      <trkpt lat="43.25218" lon="0.58677">
        <ele>428.89</ele>
        <time>2015-06-27T07:39:17Z</time>
      </trkpt>
      <trkpt lat="43.25218" lon="0.58676">
        <ele>428.89</ele>
        <time>2015-06-27T07:39:37Z</time>
      </trkpt>
      <trkpt lat="43.25218" lon="0.58676">
        <ele>428.89</ele>
        <time>2015-06-27T07:39:56Z</time>
      </trkpt>
      <trkpt lat="43.25217" lon="0.58676">
        <ele>428.89</ele>
        <time>2015-06-27T07:40:16Z</time>
      </trkpt>
      <trkpt lat="43.25218" lon="0.58676">
        <ele>429.37</ele>
        <time>2015-06-27T07:40:32Z</time>
      </trkpt>
      <trkpt lat="43.25217" lon="0.58676">
        <ele>429.37</ele>
        <time>2015-06-27T07:40:49Z</time>
      </trkpt>
      <trkpt lat="43.25217" lon="0.58676">
        <ele>429.37</ele>
        <time>2015-06-27T07:41:06Z</time>
      </trkpt>
      <trkpt lat="43.25217" lon="0.58676">
        <ele>429.37</ele>
        <time>2015-06-27T07:41:16Z</time>
      </trkpt>
      <trkpt lat="43.25217" lon="0.58676">
        <ele>428.89</ele>
        <time>2015-06-27T07:41:22Z</time>
      </trkpt>
      <trkpt lat="43.25217" lon="0.58675">
        <ele>428.89</ele>
        <time>2015-06-27T07:41:23Z</time>
      </trkpt>
      <trkpt lat="43.25228" lon="0.58667">
        <ele>427.92</ele>
        <time>2015-06-27T07:41:29Z</time>
      </trkpt>
      <trkpt lat="43.25231" lon="0.58663">
        <ele>427.92</ele>
        <time>2015-06-27T07:41:30Z</time>
      </trkpt>
      <trkpt lat="43.25248" lon="0.58629">
        <ele>426.96</ele>
        <time>2015-06-27T07:41:39Z</time>
      </trkpt>
      <trkpt lat="43.25253" lon="0.58621">
        <ele>426.48</ele>
        <time>2015-06-27T07:41:41Z</time>
      </trkpt>
      <trkpt lat="43.25266" lon="0.58612">
        <ele>426</ele>
        <time>2015-06-27T07:41:45Z</time>
      </trkpt>
      <trkpt lat="43.25294" lon="0.58604">
        <ele>425.52</ele>
        <time>2015-06-27T07:41:53Z</time>
      </trkpt>
      <trkpt lat="43.25313" lon="0.58578">
        <ele>423.12</ele>
        <time>2015-06-27T07:42:00Z</time>
      </trkpt>
      <trkpt lat="43.25318" lon="0.5857">
        <ele>422.64</ele>
        <time>2015-06-27T07:42:03Z</time>
      </trkpt>
      <trkpt lat="43.25311" lon="0.58561">
        <ele>422.16</ele>
        <time>2015-06-27T07:42:08Z</time>
      </trkpt>
      <trkpt lat="43.25294" lon="0.58552">
        <ele>421.68</ele>
        <time>2015-06-27T07:42:13Z</time>
      </trkpt>
      <trkpt lat="43.25284" lon="0.58544">
        <ele>421.19</ele>
        <time>2015-06-27T07:42:16Z</time>
      </trkpt>
      <trkpt lat="43.25263" lon="0.58521">
        <ele>420.71</ele>
        <time>2015-06-27T07:42:23Z</time>
      </trkpt>
      <trkpt lat="43.25254" lon="0.58493">
        <ele>420.71</ele>
        <time>2015-06-27T07:42:29Z</time>
      </trkpt>
      <trkpt lat="43.25254" lon="0.58457">
        <ele>420.23</ele>
        <time>2015-06-27T07:42:36Z</time>
      </trkpt>
      <trkpt lat="43.25258" lon="0.58425">
        <ele>420.71</ele>
        <time>2015-06-27T07:42:43Z</time>
      </trkpt>
      <trkpt lat="43.25261" lon="0.58387">
        <ele>420.23</ele>
        <time>2015-06-27T07:42:51Z</time>
      </trkpt>
      <trkpt lat="43.25262" lon="0.58352">
        <ele>420.71</ele>
        <time>2015-06-27T07:42:58Z</time>
      </trkpt>
      <trkpt lat="43.25252" lon="0.58314">
        <ele>420.23</ele>
        <time>2015-06-27T07:43:06Z</time>
      </trkpt>
      <trkpt lat="43.25237" lon="0.58285">
        <ele>419.75</ele>
        <time>2015-06-27T07:43:12Z</time>
      </trkpt>
      <trkpt lat="43.25231" lon="0.58276">
        <ele>419.75</ele>
        <time>2015-06-27T07:43:14Z</time>
      </trkpt>
      <trkpt lat="43.25219" lon="0.58258">
        <ele>419.27</ele>
        <time>2015-06-27T07:43:18Z</time>
      </trkpt>
      <trkpt lat="43.2518" lon="0.58212">
        <ele>418.79</ele>
        <time>2015-06-27T07:43:30Z</time>
      </trkpt>
      <trkpt lat="43.25154" lon="0.58181">
        <ele>418.31</ele>
        <time>2015-06-27T07:43:37Z</time>
      </trkpt>
      <trkpt lat="43.25126" lon="0.58136">
        <ele>418.79</ele>
        <time>2015-06-27T07:43:47Z</time>
      </trkpt>
      <trkpt lat="43.25102" lon="0.58102">
        <ele>419.75</ele>
        <time>2015-06-27T07:43:56Z</time>
      </trkpt>
      <trkpt lat="43.2508" lon="0.58076">
        <ele>420.23</ele>
        <time>2015-06-27T07:44:04Z</time>
      </trkpt>
      <trkpt lat="43.25057" lon="0.58048">
        <ele>420.71</ele>
        <time>2015-06-27T07:44:13Z</time>
      </trkpt>
      <trkpt lat="43.25028" lon="0.58016">
        <ele>422.16</ele>
        <time>2015-06-27T07:44:24Z</time>
      </trkpt>
      <trkpt lat="43.25009" lon="0.57996">
        <ele>423.6</ele>
        <time>2015-06-27T07:44:32Z</time>
      </trkpt>
      <trkpt lat="43.24995" lon="0.5798">
        <ele>424.56</ele>
        <time>2015-06-27T07:44:39Z</time>
      </trkpt>
      <trkpt lat="43.24991" lon="0.57971">
        <ele>424.56</ele>
        <time>2015-06-27T07:44:45Z</time>
      </trkpt>
      <trkpt lat="43.2499" lon="0.5797">
        <ele>424.56</ele>
        <time>2015-06-27T07:44:58Z</time>
      </trkpt>
      <trkpt lat="43.24986" lon="0.57966">
        <ele>424.56</ele>
        <time>2015-06-27T07:45:09Z</time>
      </trkpt>
      <trkpt lat="43.24976" lon="0.57944">
        <ele>425.04</ele>
        <time>2015-06-27T07:45:17Z</time>
      </trkpt>
      <trkpt lat="43.24964" lon="0.57913">
        <ele>425.04</ele>
        <time>2015-06-27T07:45:26Z</time>
      </trkpt>
      <trkpt lat="43.24947" lon="0.5788">
        <ele>425.04</ele>
        <time>2015-06-27T07:45:35Z</time>
      </trkpt>
      <trkpt lat="43.24929" lon="0.57855">
        <ele>425.52</ele>
        <time>2015-06-27T07:45:43Z</time>
      </trkpt>
      <trkpt lat="43.24915" lon="0.57839">
        <ele>426</ele>
        <time>2015-06-27T07:45:49Z</time>
      </trkpt>
      <trkpt lat="43.24895" lon="0.57829">
        <ele>426.96</ele>
        <time>2015-06-27T07:45:56Z</time>
      </trkpt>
      <trkpt lat="43.24879" lon="0.57828">
        <ele>427.92</ele>
        <time>2015-06-27T07:46:02Z</time>
      </trkpt>
      <trkpt lat="43.24857" lon="0.57831">
        <ele>428.89</ele>
        <time>2015-06-27T07:46:10Z</time>
      </trkpt>
      <trkpt lat="43.24833" lon="0.57838">
        <ele>430.81</ele>
        <time>2015-06-27T07:46:19Z</time>
      </trkpt>
      <trkpt lat="43.2482" lon="0.5784">
        <ele>431.77</ele>
        <time>2015-06-27T07:46:25Z</time>
      </trkpt>
      <trkpt lat="43.24806" lon="0.57832">
        <ele>434.17</ele>
        <time>2015-06-27T07:46:33Z</time>
      </trkpt>
      <trkpt lat="43.24801" lon="0.57825">
        <ele>434.65</ele>
        <time>2015-06-27T07:46:37Z</time>
      </trkpt>
      <trkpt lat="43.248" lon="0.57801">
        <ele>436.1</ele>
        <time>2015-06-27T07:46:47Z</time>
      </trkpt>
      <trkpt lat="43.24801" lon="0.57784">
        <ele>436.58</ele>
        <time>2015-06-27T07:46:55Z</time>
      </trkpt>
      <trkpt lat="43.24801" lon="0.57775">
        <ele>436.58</ele>
        <time>2015-06-27T07:47:00Z</time>
      </trkpt>
      <trkpt lat="43.24803" lon="0.57765">
        <ele>437.06</ele>
        <time>2015-06-27T07:47:04Z</time>
      </trkpt>
      <trkpt lat="43.24806" lon="0.5774">
        <ele>436.58</ele>
        <time>2015-06-27T07:47:14Z</time>
      </trkpt>
      <trkpt lat="43.24809" lon="0.5772">
        <ele>436.58</ele>
        <time>2015-06-27T07:47:22Z</time>
      </trkpt>
      <trkpt lat="43.2481" lon="0.57714">
        <ele>437.06</ele>
        <time>2015-06-27T07:47:28Z</time>
      </trkpt>
      <trkpt lat="43.2481" lon="0.57714">
        <ele>436.58</ele>
        <time>2015-06-27T07:47:35Z</time>
      </trkpt>
      <trkpt lat="43.2481" lon="0.57712">
        <ele>436.58</ele>
        <time>2015-06-27T07:47:52Z</time>
      </trkpt>
      <trkpt lat="43.2481" lon="0.57712">
        <ele>437.06</ele>
        <time>2015-06-27T07:48:10Z</time>
      </trkpt>
      <trkpt lat="43.24812" lon="0.57707">
        <ele>437.06</ele>
        <time>2015-06-27T07:48:17Z</time>
      </trkpt>
      <trkpt lat="43.24816" lon="0.57682">
        <ele>437.06</ele>
        <time>2015-06-27T07:48:26Z</time>
      </trkpt>
      <trkpt lat="43.24821" lon="0.57652">
        <ele>436.1</ele>
        <time>2015-06-27T07:48:35Z</time>
      </trkpt>
      <trkpt lat="43.24827" lon="0.57609">
        <ele>435.13</ele>
        <time>2015-06-27T07:48:45Z</time>
      </trkpt>
      <trkpt lat="43.24833" lon="0.57564">
        <ele>434.65</ele>
        <time>2015-06-27T07:48:55Z</time>
      </trkpt>
      <trkpt lat="43.24834" lon="0.57527">
        <ele>433.21</ele>
        <time>2015-06-27T07:49:02Z</time>
      </trkpt>
      <trkpt lat="43.24835" lon="0.57514">
        <ele>432.73</ele>
        <time>2015-06-27T07:49:04Z</time>
      </trkpt>
      <trkpt lat="43.24833" lon="0.5746">
        <ele>430.33</ele>
        <time>2015-06-27T07:49:10Z</time>
      </trkpt>
      <trkpt lat="43.2483" lon="0.57414">
        <ele>428.4</ele>
        <time>2015-06-27T07:49:14Z</time>
      </trkpt>
      <trkpt lat="43.24805" lon="0.57333">
        <ele>426.96</ele>
        <time>2015-06-27T07:49:21Z</time>
      </trkpt>
      <trkpt lat="43.24773" lon="0.57258">
        <ele>426.96</ele>
        <time>2015-06-27T07:49:28Z</time>
      </trkpt>
      <trkpt lat="43.24766" lon="0.57238">
        <ele>427.44</ele>
        <time>2015-06-27T07:49:30Z</time>
      </trkpt>
      <trkpt lat="43.24766" lon="0.57204">
        <ele>429.37</ele>
        <time>2015-06-27T07:49:34Z</time>
      </trkpt>
      <trkpt lat="43.24772" lon="0.57183">
        <ele>430.81</ele>
        <time>2015-06-27T07:49:39Z</time>
      </trkpt>
      <trkpt lat="43.24783" lon="0.57152">
        <ele>432.73</ele>
        <time>2015-06-27T07:49:48Z</time>
      </trkpt>
      <trkpt lat="43.2479" lon="0.57133">
        <ele>433.69</ele>
        <time>2015-06-27T07:49:56Z</time>
      </trkpt>
      <trkpt lat="43.24797" lon="0.57114">
        <ele>434.65</ele>
        <time>2015-06-27T07:50:05Z</time>
      </trkpt>
      <trkpt lat="43.24804" lon="0.57096">
        <ele>435.61</ele>
        <time>2015-06-27T07:50:15Z</time>
      </trkpt>
      <trkpt lat="43.24811" lon="0.57082">
        <ele>436.58</ele>
        <time>2015-06-27T07:50:23Z</time>
      </trkpt>
      <trkpt lat="43.24818" lon="0.57067">
        <ele>437.54</ele>
        <time>2015-06-27T07:50:31Z</time>
      </trkpt>
      <trkpt lat="43.24821" lon="0.57058">
        <ele>437.54</ele>
        <time>2015-06-27T07:50:35Z</time>
      </trkpt>
      <trkpt lat="43.24824" lon="0.57051">
        <ele>438.02</ele>
        <time>2015-06-27T07:50:39Z</time>
      </trkpt>
      <trkpt lat="43.24827" lon="0.5703">
        <ele>438.98</ele>
        <time>2015-06-27T07:50:48Z</time>
      </trkpt>
      <trkpt lat="43.24836" lon="0.57015">
        <ele>439.46</ele>
        <time>2015-06-27T07:50:57Z</time>
      </trkpt>
      <trkpt lat="43.24851" lon="0.57002">
        <ele>440.42</ele>
        <time>2015-06-27T07:51:05Z</time>
      </trkpt>
      <trkpt lat="43.24867" lon="0.56978">
        <ele>441.38</ele>
        <time>2015-06-27T07:51:15Z</time>
      </trkpt>
      <trkpt lat="43.24874" lon="0.56952">
        <ele>442.34</ele>
        <time>2015-06-27T07:51:26Z</time>
      </trkpt>
      <trkpt lat="43.24874" lon="0.56932">
        <ele>442.82</ele>
        <time>2015-06-27T07:51:34Z</time>
      </trkpt>
      <trkpt lat="43.24868" lon="0.56911">
        <ele>443.31</ele>
        <time>2015-06-27T07:51:42Z</time>
      </trkpt>
      <trkpt lat="43.24853" lon="0.56899">
        <ele>443.79</ele>
        <time>2015-06-27T07:51:50Z</time>
      </trkpt>
      <trkpt lat="43.24837" lon="0.56897">
        <ele>444.27</ele>
        <time>2015-06-27T07:51:58Z</time>
      </trkpt>
      <trkpt lat="43.24821" lon="0.56899">
        <ele>445.23</ele>
        <time>2015-06-27T07:52:06Z</time>
      </trkpt>
      <trkpt lat="43.248" lon="0.56899">
        <ele>446.19</ele>
        <time>2015-06-27T07:52:16Z</time>
      </trkpt>
      <trkpt lat="43.24784" lon="0.56899">
        <ele>446.67</ele>
        <time>2015-06-27T07:52:23Z</time>
      </trkpt>
      <trkpt lat="43.24767" lon="0.56904">
        <ele>447.15</ele>
        <time>2015-06-27T07:52:31Z</time>
      </trkpt>
      <trkpt lat="43.24751" lon="0.5692">
        <ele>447.63</ele>
        <time>2015-06-27T07:52:40Z</time>
      </trkpt>
      <trkpt lat="43.24742" lon="0.56935">
        <ele>448.59</ele>
        <time>2015-06-27T07:52:47Z</time>
      </trkpt>
      <trkpt lat="43.24733" lon="0.56961">
        <ele>449.07</ele>
        <time>2015-06-27T07:52:57Z</time>
      </trkpt>
      <trkpt lat="43.24724" lon="0.5698">
        <ele>450.03</ele>
        <time>2015-06-27T07:53:05Z</time>
      </trkpt>
      <trkpt lat="43.24711" lon="0.56999">
        <ele>450.52</ele>
        <time>2015-06-27T07:53:13Z</time>
      </trkpt>
      <trkpt lat="43.247" lon="0.57012">
        <ele>451</ele>
        <time>2015-06-27T07:53:20Z</time>
      </trkpt>
      <trkpt lat="43.24691" lon="0.57019">
        <ele>451.48</ele>
        <time>2015-06-27T07:53:25Z</time>
      </trkpt>
      <trkpt lat="43.24677" lon="0.57029">
        <ele>451.48</ele>
        <time>2015-06-27T07:53:33Z</time>
      </trkpt>
      <trkpt lat="43.24662" lon="0.57032">
        <ele>451.96</ele>
        <time>2015-06-27T07:53:39Z</time>
      </trkpt>
      <trkpt lat="43.24642" lon="0.57032">
        <ele>452.44</ele>
        <time>2015-06-27T07:53:46Z</time>
      </trkpt>
      <trkpt lat="43.2462" lon="0.57027">
        <ele>451.96</ele>
        <time>2015-06-27T07:53:54Z</time>
      </trkpt>
      <trkpt lat="43.24596" lon="0.57012">
        <ele>451.48</ele>
        <time>2015-06-27T07:54:03Z</time>
      </trkpt>
      <trkpt lat="43.24575" lon="0.56987">
        <ele>451.48</ele>
        <time>2015-06-27T07:54:12Z</time>
      </trkpt>
      <trkpt lat="43.24561" lon="0.56957">
        <ele>451.48</ele>
        <time>2015-06-27T07:54:21Z</time>
      </trkpt>
      <trkpt lat="43.24552" lon="0.5693">
        <ele>451.48</ele>
        <time>2015-06-27T07:54:29Z</time>
      </trkpt>
      <trkpt lat="43.24545" lon="0.56901">
        <ele>451.96</ele>
        <time>2015-06-27T07:54:37Z</time>
      </trkpt>
      <trkpt lat="43.24533" lon="0.56865">
        <ele>452.44</ele>
        <time>2015-06-27T07:54:47Z</time>
      </trkpt>
      <trkpt lat="43.24526" lon="0.56847">
        <ele>453.4</ele>
        <time>2015-06-27T07:54:53Z</time>
      </trkpt>
      <trkpt lat="43.24517" lon="0.56826">
        <ele>453.88</ele>
        <time>2015-06-27T07:55:00Z</time>
      </trkpt>
      <trkpt lat="43.24509" lon="0.56811">
        <ele>454.84</ele>
        <time>2015-06-27T07:55:06Z</time>
      </trkpt>
      <trkpt lat="43.24501" lon="0.56797">
        <ele>455.32</ele>
        <time>2015-06-27T07:55:12Z</time>
      </trkpt>
      <trkpt lat="43.2449" lon="0.56778">
        <ele>456.28</ele>
        <time>2015-06-27T07:55:19Z</time>
      </trkpt>
      <trkpt lat="43.24484" lon="0.56771">
        <ele>456.28</ele>
        <time>2015-06-27T07:55:22Z</time>
      </trkpt>
      <trkpt lat="43.24473" lon="0.56749">
        <ele>457.24</ele>
        <time>2015-06-27T07:55:31Z</time>
      </trkpt>
      <trkpt lat="43.24464" lon="0.56732">
        <ele>458.21</ele>
        <time>2015-06-27T07:55:38Z</time>
      </trkpt>
      <trkpt lat="43.24448" lon="0.56707">
        <ele>459.17</ele>
        <time>2015-06-27T07:55:48Z</time>
      </trkpt>
      <trkpt lat="43.24439" lon="0.56691">
        <ele>459.65</ele>
        <time>2015-06-27T07:55:54Z</time>
      </trkpt>
      <trkpt lat="43.24428" lon="0.56667">
        <ele>460.61</ele>
        <time>2015-06-27T07:56:03Z</time>
      </trkpt>
      <trkpt lat="43.24417" lon="0.56642">
        <ele>461.09</ele>
        <time>2015-06-27T07:56:12Z</time>
      </trkpt>
      <trkpt lat="43.24408" lon="0.56616">
        <ele>461.09</ele>
        <time>2015-06-27T07:56:20Z</time>
      </trkpt>
      <trkpt lat="43.24394" lon="0.5658">
        <ele>461.57</ele>
        <time>2015-06-27T07:56:30Z</time>
      </trkpt>
      <trkpt lat="43.24381" lon="0.56549">
        <ele>461.57</ele>
        <time>2015-06-27T07:56:39Z</time>
      </trkpt>
      <trkpt lat="43.2436" lon="0.56514">
        <ele>462.05</ele>
        <time>2015-06-27T07:56:50Z</time>
      </trkpt>
      <trkpt lat="43.2434" lon="0.56479">
        <ele>462.53</ele>
        <time>2015-06-27T07:57:01Z</time>
      </trkpt>
      <trkpt lat="43.2432" lon="0.56453">
        <ele>463.01</ele>
        <time>2015-06-27T07:57:11Z</time>
      </trkpt>
      <trkpt lat="43.24298" lon="0.56434">
        <ele>462.53</ele>
        <time>2015-06-27T07:57:20Z</time>
      </trkpt>
      <trkpt lat="43.24276" lon="0.56413">
        <ele>461.57</ele>
        <time>2015-06-27T07:57:28Z</time>
      </trkpt>
      <trkpt lat="43.24246" lon="0.56384">
        <ele>460.61</ele>
        <time>2015-06-27T07:57:37Z</time>
      </trkpt>
      <trkpt lat="43.24238" lon="0.56378">
        <ele>460.13</ele>
        <time>2015-06-27T07:57:39Z</time>
      </trkpt>
      <trkpt lat="43.24198" lon="0.56336">
        <ele>457.24</ele>
        <time>2015-06-27T07:57:48Z</time>
      </trkpt>
      <trkpt lat="43.24165" lon="0.56289">
        <ele>454.84</ele>
        <time>2015-06-27T07:57:55Z</time>
      </trkpt>
      <trkpt lat="43.24118" lon="0.56219">
        <ele>451.96</ele>
        <time>2015-06-27T07:58:04Z</time>
      </trkpt>
      <trkpt lat="43.24088" lon="0.56173">
        <ele>452.92</ele>
        <time>2015-06-27T07:58:11Z</time>
      </trkpt>
      <trkpt lat="43.24065" lon="0.5614">
        <ele>453.88</ele>
        <time>2015-06-27T07:58:17Z</time>
      </trkpt>
      <trkpt lat="43.2405" lon="0.56115">
        <ele>455.32</ele>
        <time>2015-06-27T07:58:24Z</time>
      </trkpt>
      <trkpt lat="43.2403" lon="0.56082">
        <ele>457.72</ele>
        <time>2015-06-27T07:58:35Z</time>
      </trkpt>
      <trkpt lat="43.24013" lon="0.56052">
        <ele>459.17</ele>
        <time>2015-06-27T07:58:44Z</time>
      </trkpt>
      <trkpt lat="43.24001" lon="0.5603">
        <ele>459.65</ele>
        <time>2015-06-27T07:58:51Z</time>
      </trkpt>
      <trkpt lat="43.23986" lon="0.56005">
        <ele>459.65</ele>
        <time>2015-06-27T07:59:00Z</time>
      </trkpt>
      <trkpt lat="43.23977" lon="0.55986">
        <ele>459.65</ele>
        <time>2015-06-27T07:59:07Z</time>
      </trkpt>
      <trkpt lat="43.2397" lon="0.55968">
        <ele>459.65</ele>
        <time>2015-06-27T07:59:13Z</time>
      </trkpt>
      <trkpt lat="43.23954" lon="0.55936">
        <ele>459.65</ele>
        <time>2015-06-27T07:59:23Z</time>
      </trkpt>
      <trkpt lat="43.23938" lon="0.55904">
        <ele>459.65</ele>
        <time>2015-06-27T07:59:32Z</time>
      </trkpt>
      <trkpt lat="43.23923" lon="0.55871">
        <ele>459.65</ele>
        <time>2015-06-27T07:59:42Z</time>
      </trkpt>
      <trkpt lat="43.23913" lon="0.55842">
        <ele>459.65</ele>
        <time>2015-06-27T07:59:50Z</time>
      </trkpt>
      <trkpt lat="43.23893" lon="0.55804">
        <ele>459.65</ele>
        <time>2015-06-27T07:59:59Z</time>
      </trkpt>
      <trkpt lat="43.23876" lon="0.55768">
        <ele>460.13</ele>
        <time>2015-06-27T08:00:08Z</time>
      </trkpt>
      <trkpt lat="43.23864" lon="0.55743">
        <ele>460.13</ele>
        <time>2015-06-27T08:00:15Z</time>
      </trkpt>
      <trkpt lat="43.2385" lon="0.55711">
        <ele>460.61</ele>
        <time>2015-06-27T08:00:24Z</time>
      </trkpt>
      <trkpt lat="43.23842" lon="0.5569">
        <ele>460.61</ele>
        <time>2015-06-27T08:00:30Z</time>
      </trkpt>
      <trkpt lat="43.23829" lon="0.55665">
        <ele>461.09</ele>
        <time>2015-06-27T08:00:36Z</time>
      </trkpt>
      <trkpt lat="43.2381" lon="0.55628">
        <ele>461.57</ele>
        <time>2015-06-27T08:00:45Z</time>
      </trkpt>
      <trkpt lat="43.23788" lon="0.55586">
        <ele>461.57</ele>
        <time>2015-06-27T08:00:56Z</time>
      </trkpt>
      <trkpt lat="43.23766" lon="0.55549">
        <ele>461.57</ele>
        <time>2015-06-27T08:01:05Z</time>
      </trkpt>
      <trkpt lat="43.23744" lon="0.55511">
        <ele>462.05</ele>
        <time>2015-06-27T08:01:14Z</time>
      </trkpt>
      <trkpt lat="43.23721" lon="0.55463">
        <ele>462.05</ele>
        <time>2015-06-27T08:01:25Z</time>
      </trkpt>
      <trkpt lat="43.23706" lon="0.55427">
        <ele>462.53</ele>
        <time>2015-06-27T08:01:33Z</time>
      </trkpt>
      <trkpt lat="43.23687" lon="0.55377">
        <ele>463.49</ele>
        <time>2015-06-27T08:01:44Z</time>
      </trkpt>
      <trkpt lat="43.23671" lon="0.55319">
        <ele>463.97</ele>
        <time>2015-06-27T08:01:57Z</time>
      </trkpt>
      <trkpt lat="43.23657" lon="0.55262">
        <ele>465.42</ele>
        <time>2015-06-27T08:02:10Z</time>
      </trkpt>
      <trkpt lat="43.23646" lon="0.5522">
        <ele>465.42</ele>
        <time>2015-06-27T08:02:19Z</time>
      </trkpt>
      <trkpt lat="43.23637" lon="0.55179">
        <ele>465.9</ele>
        <time>2015-06-27T08:02:28Z</time>
      </trkpt>
      <trkpt lat="43.23628" lon="0.55144">
        <ele>466.38</ele>
        <time>2015-06-27T08:02:36Z</time>
      </trkpt>
      <trkpt lat="43.23615" lon="0.55095">
        <ele>467.34</ele>
        <time>2015-06-27T08:02:47Z</time>
      </trkpt>
      <trkpt lat="43.23607" lon="0.55056">
        <ele>468.3</ele>
        <time>2015-06-27T08:02:56Z</time>
      </trkpt>
      <trkpt lat="43.23598" lon="0.55017">
        <ele>469.74</ele>
        <time>2015-06-27T08:03:06Z</time>
      </trkpt>
      <trkpt lat="43.23589" lon="0.5498">
        <ele>471.66</ele>
        <time>2015-06-27T08:03:15Z</time>
      </trkpt>
      <trkpt lat="43.23579" lon="0.54942">
        <ele>473.11</ele>
        <time>2015-06-27T08:03:25Z</time>
      </trkpt>
      <trkpt lat="43.23567" lon="0.54904">
        <ele>474.55</ele>
        <time>2015-06-27T08:03:35Z</time>
      </trkpt>
      <trkpt lat="43.23559" lon="0.54883">
        <ele>474.55</ele>
        <time>2015-06-27T08:03:42Z</time>
      </trkpt>
      <trkpt lat="43.23545" lon="0.5485">
        <ele>473.59</ele>
        <time>2015-06-27T08:03:50Z</time>
      </trkpt>
      <trkpt lat="43.2354" lon="0.54836">
        <ele>473.59</ele>
        <time>2015-06-27T08:03:53Z</time>
      </trkpt>
      <trkpt lat="43.23517" lon="0.54784">
        <ele>471.18</ele>
        <time>2015-06-27T08:04:02Z</time>
      </trkpt>
      <trkpt lat="43.23493" lon="0.5473">
        <ele>468.78</ele>
        <time>2015-06-27T08:04:09Z</time>
      </trkpt>
      <trkpt lat="43.23472" lon="0.54679">
        <ele>466.86</ele>
        <time>2015-06-27T08:04:15Z</time>
      </trkpt>
      <trkpt lat="43.23442" lon="0.54606">
        <ele>464.93</ele>
        <time>2015-06-27T08:04:24Z</time>
      </trkpt>
      <trkpt lat="43.23435" lon="0.54591">
        <ele>464.45</ele>
        <time>2015-06-27T08:04:26Z</time>
      </trkpt>
      <trkpt lat="43.23411" lon="0.54558">
        <ele>464.45</ele>
        <time>2015-06-27T08:04:32Z</time>
      </trkpt>
      <trkpt lat="43.23398" lon="0.54549">
        <ele>464.93</ele>
        <time>2015-06-27T08:04:35Z</time>
      </trkpt>
      <trkpt lat="43.2337" lon="0.54531">
        <ele>465.42</ele>
        <time>2015-06-27T08:04:42Z</time>
      </trkpt>
      <trkpt lat="43.23357" lon="0.54517">
        <ele>465.42</ele>
        <time>2015-06-27T08:04:46Z</time>
      </trkpt>
      <trkpt lat="43.23346" lon="0.54498">
        <ele>464.93</ele>
        <time>2015-06-27T08:04:50Z</time>
      </trkpt>
      <trkpt lat="43.23334" lon="0.54468">
        <ele>463.49</ele>
        <time>2015-06-27T08:04:55Z</time>
      </trkpt>
      <trkpt lat="43.23316" lon="0.54398">
        <ele>460.61</ele>
        <time>2015-06-27T08:05:03Z</time>
      </trkpt>
      <trkpt lat="43.23308" lon="0.54367">
        <ele>459.17</ele>
        <time>2015-06-27T08:05:06Z</time>
      </trkpt>
      <trkpt lat="43.2329" lon="0.54298">
        <ele>457.72</ele>
        <time>2015-06-27T08:05:13Z</time>
      </trkpt>
      <trkpt lat="43.23287" lon="0.54289">
        <ele>457.72</ele>
        <time>2015-06-27T08:05:14Z</time>
      </trkpt>
      <trkpt lat="43.23274" lon="0.54262">
        <ele>458.21</ele>
        <time>2015-06-27T08:05:18Z</time>
      </trkpt>
      <trkpt lat="43.23252" lon="0.54234">
        <ele>460.13</ele>
        <time>2015-06-27T08:05:25Z</time>
      </trkpt>
      <trkpt lat="43.23242" lon="0.54224">
        <ele>461.09</ele>
        <time>2015-06-27T08:05:31Z</time>
      </trkpt>
      <trkpt lat="43.23228" lon="0.54214">
        <ele>462.53</ele>
        <time>2015-06-27T08:05:38Z</time>
      </trkpt>
      <trkpt lat="43.23213" lon="0.54199">
        <ele>464.93</ele>
        <time>2015-06-27T08:05:47Z</time>
      </trkpt>
      <trkpt lat="43.23211" lon="0.54197">
        <ele>464.93</ele>
        <time>2015-06-27T08:05:48Z</time>
      </trkpt>
      <trkpt lat="43.232" lon="0.54181">
        <ele>466.38</ele>
        <time>2015-06-27T08:05:58Z</time>
      </trkpt>
      <trkpt lat="43.2319" lon="0.54163">
        <ele>467.82</ele>
        <time>2015-06-27T08:06:06Z</time>
      </trkpt>
      <trkpt lat="43.2319" lon="0.54161">
        <ele>467.82</ele>
        <time>2015-06-27T08:06:07Z</time>
      </trkpt>
      <trkpt lat="43.23182" lon="0.54146">
        <ele>468.78</ele>
        <time>2015-06-27T08:06:14Z</time>
      </trkpt>
      <trkpt lat="43.23179" lon="0.54142">
        <ele>468.78</ele>
        <time>2015-06-27T08:06:16Z</time>
      </trkpt>
      <trkpt lat="43.23175" lon="0.54133">
        <ele>469.74</ele>
        <time>2015-06-27T08:06:20Z</time>
      </trkpt>
      <trkpt lat="43.23164" lon="0.54106">
        <ele>471.18</ele>
        <time>2015-06-27T08:06:30Z</time>
      </trkpt>
      <trkpt lat="43.23161" lon="0.54097">
        <ele>471.66</ele>
        <time>2015-06-27T08:06:37Z</time>
      </trkpt>
      <trkpt lat="43.23154" lon="0.54091">
        <ele>471.66</ele>
        <time>2015-06-27T08:06:47Z</time>
      </trkpt>
      <trkpt lat="43.23151" lon="0.54087">
        <ele>472.14</ele>
        <time>2015-06-27T08:07:03Z</time>
      </trkpt>
      <trkpt lat="43.2315" lon="0.54085">
        <ele>472.14</ele>
        <time>2015-06-27T08:07:17Z</time>
      </trkpt>
      <trkpt lat="43.2315" lon="0.54085">
        <ele>472.14</ele>
        <time>2015-06-27T08:07:28Z</time>
      </trkpt>
      <trkpt lat="43.23149" lon="0.54085">
        <ele>472.14</ele>
        <time>2015-06-27T08:07:40Z</time>
      </trkpt>
      <trkpt lat="43.23149" lon="0.54084">
        <ele>472.14</ele>
        <time>2015-06-27T08:07:53Z</time>
      </trkpt>
      <trkpt lat="43.23149" lon="0.54084">
        <ele>472.63</ele>
        <time>2015-06-27T08:08:06Z</time>
      </trkpt>
      <trkpt lat="43.23148" lon="0.54083">
        <ele>472.14</ele>
        <time>2015-06-27T08:08:17Z</time>
      </trkpt>
      <trkpt lat="43.23144" lon="0.54081">
        <ele>472.63</ele>
        <time>2015-06-27T08:08:21Z</time>
      </trkpt>
      <trkpt lat="43.23137" lon="0.54068">
        <ele>472.63</ele>
        <time>2015-06-27T08:08:28Z</time>
      </trkpt>
      <trkpt lat="43.23121" lon="0.54044">
        <ele>472.14</ele>
        <time>2015-06-27T08:08:38Z</time>
      </trkpt>
      <trkpt lat="43.23103" lon="0.54018">
        <ele>472.63</ele>
        <time>2015-06-27T08:08:48Z</time>
      </trkpt>
      <trkpt lat="43.23086" lon="0.53993">
        <ele>473.11</ele>
        <time>2015-06-27T08:08:57Z</time>
      </trkpt>
      <trkpt lat="43.23076" lon="0.53975">
        <ele>473.59</ele>
        <time>2015-06-27T08:09:04Z</time>
      </trkpt>
      <trkpt lat="43.23065" lon="0.53957">
        <ele>474.55</ele>
        <time>2015-06-27T08:09:11Z</time>
      </trkpt>
      <trkpt lat="43.23054" lon="0.53937">
        <ele>475.03</ele>
        <time>2015-06-27T08:09:19Z</time>
      </trkpt>
      <trkpt lat="43.23039" lon="0.5391">
        <ele>474.55</ele>
        <time>2015-06-27T08:09:27Z</time>
      </trkpt>
      <trkpt lat="43.23031" lon="0.53884">
        <ele>474.07</ele>
        <time>2015-06-27T08:09:33Z</time>
      </trkpt>
      <trkpt lat="43.23026" lon="0.53861">
        <ele>474.07</ele>
        <time>2015-06-27T08:09:39Z</time>
      </trkpt>
      <trkpt lat="43.2302" lon="0.53827">
        <ele>473.59</ele>
        <time>2015-06-27T08:09:46Z</time>
      </trkpt>
      <trkpt lat="43.23013" lon="0.53789">
        <ele>473.11</ele>
        <time>2015-06-27T08:09:54Z</time>
      </trkpt>
      <trkpt lat="43.22999" lon="0.53748">
        <ele>473.11</ele>
        <time>2015-06-27T08:10:03Z</time>
      </trkpt>
      <trkpt lat="43.22987" lon="0.53726">
        <ele>474.07</ele>
        <time>2015-06-27T08:10:10Z</time>
      </trkpt>
      <trkpt lat="43.22967" lon="0.53704">
        <ele>474.07</ele>
        <time>2015-06-27T08:10:19Z</time>
      </trkpt>
      <trkpt lat="43.22948" lon="0.53692">
        <ele>474.55</ele>
        <time>2015-06-27T08:10:26Z</time>
      </trkpt>
      <trkpt lat="43.22923" lon="0.53679">
        <ele>474.07</ele>
        <time>2015-06-27T08:10:32Z</time>
      </trkpt>
      <trkpt lat="43.22882" lon="0.53658">
        <ele>473.59</ele>
        <time>2015-06-27T08:10:42Z</time>
      </trkpt>
      <trkpt lat="43.22849" lon="0.53652">
        <ele>473.59</ele>
        <time>2015-06-27T08:10:50Z</time>
      </trkpt>
      <trkpt lat="43.2281" lon="0.5365">
        <ele>473.59</ele>
        <time>2015-06-27T08:10:59Z</time>
      </trkpt>
      <trkpt lat="43.22788" lon="0.53649">
        <ele>473.59</ele>
        <time>2015-06-27T08:11:04Z</time>
      </trkpt>
      <trkpt lat="43.22766" lon="0.53642">
        <ele>473.59</ele>
        <time>2015-06-27T08:11:09Z</time>
      </trkpt>
      <trkpt lat="43.22732" lon="0.53616">
        <ele>473.59</ele>
        <time>2015-06-27T08:11:19Z</time>
      </trkpt>
      <trkpt lat="43.22706" lon="0.53587">
        <ele>475.03</ele>
        <time>2015-06-27T08:11:29Z</time>
      </trkpt>
      <trkpt lat="43.22687" lon="0.53559">
        <ele>476.47</ele>
        <time>2015-06-27T08:11:39Z</time>
      </trkpt>
      <trkpt lat="43.22679" lon="0.53537">
        <ele>476.95</ele>
        <time>2015-06-27T08:11:47Z</time>
      </trkpt>
      <trkpt lat="43.22676" lon="0.53511">
        <ele>478.39</ele>
        <time>2015-06-27T08:11:56Z</time>
      </trkpt>
      <trkpt lat="43.22675" lon="0.53493">
        <ele>479.84</ele>
        <time>2015-06-27T08:12:04Z</time>
      </trkpt>
      <trkpt lat="43.22678" lon="0.53473">
        <ele>481.28</ele>
        <time>2015-06-27T08:12:13Z</time>
      </trkpt>
      <trkpt lat="43.2268" lon="0.53455">
        <ele>482.72</ele>
        <time>2015-06-27T08:12:21Z</time>
      </trkpt>
      <trkpt lat="43.22679" lon="0.53434">
        <ele>484.16</ele>
        <time>2015-06-27T08:12:30Z</time>
      </trkpt>
      <trkpt lat="43.22674" lon="0.53414">
        <ele>485.12</ele>
        <time>2015-06-27T08:12:39Z</time>
      </trkpt>
      <trkpt lat="43.22666" lon="0.534">
        <ele>486.56</ele>
        <time>2015-06-27T08:12:47Z</time>
      </trkpt>
      <trkpt lat="43.22657" lon="0.53384">
        <ele>487.53</ele>
        <time>2015-06-27T08:12:55Z</time>
      </trkpt>
      <trkpt lat="43.2265" lon="0.53367">
        <ele>488.49</ele>
        <time>2015-06-27T08:13:02Z</time>
      </trkpt>
      <trkpt lat="43.22641" lon="0.53339">
        <ele>489.45</ele>
        <time>2015-06-27T08:13:12Z</time>
      </trkpt>
      <trkpt lat="43.22636" lon="0.53317">
        <ele>489.93</ele>
        <time>2015-06-27T08:13:20Z</time>
      </trkpt>
      <trkpt lat="43.22633" lon="0.533">
        <ele>489.93</ele>
        <time>2015-06-27T08:13:26Z</time>
      </trkpt>
      <trkpt lat="43.22627" lon="0.53267">
        <ele>489.45</ele>
        <time>2015-06-27T08:13:37Z</time>
      </trkpt>
      <trkpt lat="43.22622" lon="0.53238">
        <ele>488.97</ele>
        <time>2015-06-27T08:13:45Z</time>
      </trkpt>
      <trkpt lat="43.2262" lon="0.53197">
        <ele>488.49</ele>
        <time>2015-06-27T08:13:55Z</time>
      </trkpt>
      <trkpt lat="43.22617" lon="0.53148">
        <ele>488.01</ele>
        <time>2015-06-27T08:14:05Z</time>
      </trkpt>
      <trkpt lat="43.22616" lon="0.531">
        <ele>487.53</ele>
        <time>2015-06-27T08:14:14Z</time>
      </trkpt>
      <trkpt lat="43.22614" lon="0.53045">
        <ele>487.53</ele>
        <time>2015-06-27T08:14:25Z</time>
      </trkpt>
      <trkpt lat="43.2261" lon="0.5298">
        <ele>487.53</ele>
        <time>2015-06-27T08:14:38Z</time>
      </trkpt>
      <trkpt lat="43.22602" lon="0.52932">
        <ele>487.53</ele>
        <time>2015-06-27T08:14:47Z</time>
      </trkpt>
      <trkpt lat="43.22589" lon="0.52883">
        <ele>487.05</ele>
        <time>2015-06-27T08:14:56Z</time>
      </trkpt>
      <trkpt lat="43.22572" lon="0.52843">
        <ele>487.05</ele>
        <time>2015-06-27T08:15:05Z</time>
      </trkpt>
      <trkpt lat="43.22545" lon="0.528">
        <ele>487.53</ele>
        <time>2015-06-27T08:15:16Z</time>
      </trkpt>
      <trkpt lat="43.22517" lon="0.5276">
        <ele>488.49</ele>
        <time>2015-06-27T08:15:27Z</time>
      </trkpt>
      <trkpt lat="43.22486" lon="0.52725">
        <ele>488.49</ele>
        <time>2015-06-27T08:15:38Z</time>
      </trkpt>
      <trkpt lat="43.22451" lon="0.52688">
        <ele>489.45</ele>
        <time>2015-06-27T08:15:50Z</time>
      </trkpt>
      <trkpt lat="43.22423" lon="0.52661">
        <ele>490.89</ele>
        <time>2015-06-27T08:16:01Z</time>
      </trkpt>
      <trkpt lat="43.22398" lon="0.52636">
        <ele>491.85</ele>
        <time>2015-06-27T08:16:11Z</time>
      </trkpt>
      <trkpt lat="43.22375" lon="0.52613">
        <ele>492.33</ele>
        <time>2015-06-27T08:16:21Z</time>
      </trkpt>
      <trkpt lat="43.22352" lon="0.52591">
        <ele>492.81</ele>
        <time>2015-06-27T08:16:31Z</time>
      </trkpt>
      <trkpt lat="43.22329" lon="0.52571">
        <ele>492.33</ele>
        <time>2015-06-27T08:16:39Z</time>
      </trkpt>
      <trkpt lat="43.22289" lon="0.52534">
        <ele>491.37</ele>
        <time>2015-06-27T08:16:51Z</time>
      </trkpt>
      <trkpt lat="43.22258" lon="0.52502">
        <ele>490.41</ele>
        <time>2015-06-27T08:16:59Z</time>
      </trkpt>
      <trkpt lat="43.22214" lon="0.52462">
        <ele>489.93</ele>
        <time>2015-06-27T08:17:10Z</time>
      </trkpt>
      <trkpt lat="43.22204" lon="0.52452">
        <ele>489.93</ele>
        <time>2015-06-27T08:17:13Z</time>
      </trkpt>
      <trkpt lat="43.22171" lon="0.5242">
        <ele>490.41</ele>
        <time>2015-06-27T08:17:22Z</time>
      </trkpt>
      <trkpt lat="43.22165" lon="0.52414">
        <ele>490.41</ele>
        <time>2015-06-27T08:17:24Z</time>
      </trkpt>
      <trkpt lat="43.22134" lon="0.5238">
        <ele>491.37</ele>
        <time>2015-06-27T08:17:34Z</time>
      </trkpt>
      <trkpt lat="43.22109" lon="0.52354">
        <ele>492.33</ele>
        <time>2015-06-27T08:17:43Z</time>
      </trkpt>
      <trkpt lat="43.22086" lon="0.52332">
        <ele>492.81</ele>
        <time>2015-06-27T08:17:51Z</time>
      </trkpt>
      <trkpt lat="43.22058" lon="0.52302">
        <ele>493.29</ele>
        <time>2015-06-27T08:18:01Z</time>
      </trkpt>
      <trkpt lat="43.22039" lon="0.52281">
        <ele>493.29</ele>
        <time>2015-06-27T08:18:08Z</time>
      </trkpt>
      <trkpt lat="43.2201" lon="0.52254">
        <ele>493.29</ele>
        <time>2015-06-27T08:18:17Z</time>
      </trkpt>
      <trkpt lat="43.21988" lon="0.52232">
        <ele>493.29</ele>
        <time>2015-06-27T08:18:24Z</time>
      </trkpt>
      <trkpt lat="43.21956" lon="0.522">
        <ele>492.81</ele>
        <time>2015-06-27T08:18:34Z</time>
      </trkpt>
      <trkpt lat="43.2193" lon="0.52175">
        <ele>492.81</ele>
        <time>2015-06-27T08:18:42Z</time>
      </trkpt>
      <trkpt lat="43.21904" lon="0.52152">
        <ele>492.81</ele>
        <time>2015-06-27T08:18:50Z</time>
      </trkpt>
      <trkpt lat="43.21873" lon="0.52124">
        <ele>492.33</ele>
        <time>2015-06-27T08:18:59Z</time>
      </trkpt>
      <trkpt lat="43.21849" lon="0.52103">
        <ele>492.33</ele>
        <time>2015-06-27T08:19:06Z</time>
      </trkpt>
      <trkpt lat="43.21822" lon="0.52079">
        <ele>492.33</ele>
        <time>2015-06-27T08:19:14Z</time>
      </trkpt>
      <trkpt lat="43.21794" lon="0.52051">
        <ele>492.33</ele>
        <time>2015-06-27T08:19:23Z</time>
      </trkpt>
      <trkpt lat="43.2177" lon="0.52027">
        <ele>492.81</ele>
        <time>2015-06-27T08:19:31Z</time>
      </trkpt>
      <trkpt lat="43.21745" lon="0.52006">
        <ele>493.29</ele>
        <time>2015-06-27T08:19:39Z</time>
      </trkpt>
      <trkpt lat="43.21723" lon="0.51986">
        <ele>493.29</ele>
        <time>2015-06-27T08:19:46Z</time>
      </trkpt>
      <trkpt lat="43.21693" lon="0.51962">
        <ele>493.29</ele>
        <time>2015-06-27T08:19:55Z</time>
      </trkpt>
      <trkpt lat="43.21666" lon="0.51944">
        <ele>493.77</ele>
        <time>2015-06-27T08:20:03Z</time>
      </trkpt>
      <trkpt lat="43.2163" lon="0.51925">
        <ele>493.29</ele>
        <time>2015-06-27T08:20:13Z</time>
      </trkpt>
      <trkpt lat="43.21604" lon="0.51914">
        <ele>493.29</ele>
        <time>2015-06-27T08:20:20Z</time>
      </trkpt>
      <trkpt lat="43.21577" lon="0.51905">
        <ele>493.29</ele>
        <time>2015-06-27T08:20:27Z</time>
      </trkpt>
      <trkpt lat="43.21544" lon="0.5189">
        <ele>493.29</ele>
        <time>2015-06-27T08:20:36Z</time>
      </trkpt>
      <trkpt lat="43.21515" lon="0.51876">
        <ele>493.29</ele>
        <time>2015-06-27T08:20:44Z</time>
      </trkpt>
      <trkpt lat="43.21479" lon="0.5186">
        <ele>493.77</ele>
        <time>2015-06-27T08:20:54Z</time>
      </trkpt>
      <trkpt lat="43.21443" lon="0.51845">
        <ele>494.26</ele>
        <time>2015-06-27T08:21:04Z</time>
      </trkpt>
      <trkpt lat="43.2141" lon="0.51832">
        <ele>494.26</ele>
        <time>2015-06-27T08:21:13Z</time>
      </trkpt>
      <trkpt lat="43.21377" lon="0.51817">
        <ele>494.26</ele>
        <time>2015-06-27T08:21:22Z</time>
      </trkpt>
      <trkpt lat="43.21331" lon="0.51796">
        <ele>494.26</ele>
        <time>2015-06-27T08:21:35Z</time>
      </trkpt>
      <trkpt lat="43.21287" lon="0.51776">
        <ele>495.22</ele>
        <time>2015-06-27T08:21:48Z</time>
      </trkpt>
      <trkpt lat="43.21241" lon="0.5175">
        <ele>495.7</ele>
        <time>2015-06-27T08:22:02Z</time>
      </trkpt>
      <trkpt lat="43.21204" lon="0.5173">
        <ele>495.7</ele>
        <time>2015-06-27T08:22:13Z</time>
      </trkpt>
      <trkpt lat="43.21157" lon="0.51705">
        <ele>495.7</ele>
        <time>2015-06-27T08:22:26Z</time>
      </trkpt>
      <trkpt lat="43.21118" lon="0.51683">
        <ele>495.7</ele>
        <time>2015-06-27T08:22:37Z</time>
      </trkpt>
      <trkpt lat="43.21085" lon="0.51665">
        <ele>496.18</ele>
        <time>2015-06-27T08:22:47Z</time>
      </trkpt>
      <trkpt lat="43.2105" lon="0.51646">
        <ele>496.66</ele>
        <time>2015-06-27T08:22:57Z</time>
      </trkpt>
      <trkpt lat="43.21003" lon="0.51621">
        <ele>496.66</ele>
        <time>2015-06-27T08:23:10Z</time>
      </trkpt>
      <trkpt lat="43.20964" lon="0.51601">
        <ele>497.14</ele>
        <time>2015-06-27T08:23:21Z</time>
      </trkpt>
      <trkpt lat="43.20929" lon="0.51585">
        <ele>497.62</ele>
        <time>2015-06-27T08:23:31Z</time>
      </trkpt>
      <trkpt lat="43.20899" lon="0.51567">
        <ele>497.62</ele>
        <time>2015-06-27T08:23:41Z</time>
      </trkpt>
      <trkpt lat="43.20877" lon="0.51556">
        <ele>497.62</ele>
        <time>2015-06-27T08:23:49Z</time>
      </trkpt>
      <trkpt lat="43.20839" lon="0.51535">
        <ele>497.62</ele>
        <time>2015-06-27T08:24:00Z</time>
      </trkpt>
      <trkpt lat="43.20805" lon="0.51518">
        <ele>497.62</ele>
        <time>2015-06-27T08:24:09Z</time>
      </trkpt>
      <trkpt lat="43.20764" lon="0.51496">
        <ele>498.1</ele>
        <time>2015-06-27T08:24:20Z</time>
      </trkpt>
      <trkpt lat="43.20743" lon="0.51486">
        <ele>498.1</ele>
        <time>2015-06-27T08:24:26Z</time>
      </trkpt>
      <trkpt lat="43.20717" lon="0.5147">
        <ele>498.58</ele>
        <time>2015-06-27T08:24:34Z</time>
      </trkpt>
      <trkpt lat="43.20691" lon="0.5145">
        <ele>499.06</ele>
        <time>2015-06-27T08:24:43Z</time>
      </trkpt>
      <trkpt lat="43.2066" lon="0.51426">
        <ele>500.02</ele>
        <time>2015-06-27T08:24:54Z</time>
      </trkpt>
      <trkpt lat="43.20632" lon="0.51406">
        <ele>500.5</ele>
        <time>2015-06-27T08:25:03Z</time>
      </trkpt>
      <trkpt lat="43.206" lon="0.51382">
        <ele>500.98</ele>
        <time>2015-06-27T08:25:13Z</time>
      </trkpt>
      <trkpt lat="43.20565" lon="0.51351">
        <ele>501.46</ele>
        <time>2015-06-27T08:25:25Z</time>
      </trkpt>
      <trkpt lat="43.20534" lon="0.51319">
        <ele>501.46</ele>
        <time>2015-06-27T08:25:36Z</time>
      </trkpt>
      <trkpt lat="43.20514" lon="0.51296">
        <ele>500.98</ele>
        <time>2015-06-27T08:25:43Z</time>
      </trkpt>
      <trkpt lat="43.20492" lon="0.51259">
        <ele>500.5</ele>
        <time>2015-06-27T08:25:52Z</time>
      </trkpt>
      <trkpt lat="43.20478" lon="0.51239">
        <ele>500.02</ele>
        <time>2015-06-27T08:25:57Z</time>
      </trkpt>
      <trkpt lat="43.20468" lon="0.51221">
        <ele>500.02</ele>
        <time>2015-06-27T08:26:01Z</time>
      </trkpt>
      <trkpt lat="43.20444" lon="0.51182">
        <ele>500.02</ele>
        <time>2015-06-27T08:26:10Z</time>
      </trkpt>
      <trkpt lat="43.20419" lon="0.51145">
        <ele>500.5</ele>
        <time>2015-06-27T08:26:19Z</time>
      </trkpt>
      <trkpt lat="43.20399" lon="0.51119">
        <ele>500.98</ele>
        <time>2015-06-27T08:26:26Z</time>
      </trkpt>
      <trkpt lat="43.20375" lon="0.51092">
        <ele>501.46</ele>
        <time>2015-06-27T08:26:34Z</time>
      </trkpt>
      <trkpt lat="43.20353" lon="0.51065">
        <ele>501.95</ele>
        <time>2015-06-27T08:26:42Z</time>
      </trkpt>
      <trkpt lat="43.20327" lon="0.5103">
        <ele>502.91</ele>
        <time>2015-06-27T08:26:52Z</time>
      </trkpt>
      <trkpt lat="43.20304" lon="0.51002">
        <ele>503.39</ele>
        <time>2015-06-27T08:27:01Z</time>
      </trkpt>
      <trkpt lat="43.20277" lon="0.5097">
        <ele>503.87</ele>
        <time>2015-06-27T08:27:11Z</time>
      </trkpt>
      <trkpt lat="43.20256" lon="0.50942">
        <ele>504.35</ele>
        <time>2015-06-27T08:27:19Z</time>
      </trkpt>
      <trkpt lat="43.20231" lon="0.50911">
        <ele>504.35</ele>
        <time>2015-06-27T08:27:29Z</time>
      </trkpt>
      <trkpt lat="43.20203" lon="0.50878">
        <ele>504.83</ele>
        <time>2015-06-27T08:27:39Z</time>
      </trkpt>
      <trkpt lat="43.20175" lon="0.50842">
        <ele>505.31</ele>
        <time>2015-06-27T08:27:50Z</time>
      </trkpt>
      <trkpt lat="43.20154" lon="0.50815">
        <ele>505.31</ele>
        <time>2015-06-27T08:27:58Z</time>
      </trkpt>
      <trkpt lat="43.20124" lon="0.50778">
        <ele>505.79</ele>
        <time>2015-06-27T08:28:09Z</time>
      </trkpt>
      <trkpt lat="43.20108" lon="0.50759">
        <ele>506.27</ele>
        <time>2015-06-27T08:28:16Z</time>
      </trkpt>
      <trkpt lat="43.20091" lon="0.5074">
        <ele>506.75</ele>
        <time>2015-06-27T08:28:23Z</time>
      </trkpt>
      <trkpt lat="43.2007" lon="0.50714">
        <ele>506.75</ele>
        <time>2015-06-27T08:28:32Z</time>
      </trkpt>
      <trkpt lat="43.20052" lon="0.50693">
        <ele>506.75</ele>
        <time>2015-06-27T08:28:39Z</time>
      </trkpt>
      <trkpt lat="43.20027" lon="0.5067">
        <ele>506.27</ele>
        <time>2015-06-27T08:28:48Z</time>
      </trkpt>
      <trkpt lat="43.20012" lon="0.50653">
        <ele>506.75</ele>
        <time>2015-06-27T08:28:55Z</time>
      </trkpt>
      <trkpt lat="43.19989" lon="0.50626">
        <ele>506.75</ele>
        <time>2015-06-27T08:29:05Z</time>
      </trkpt>
      <trkpt lat="43.19963" lon="0.50598">
        <ele>506.27</ele>
        <time>2015-06-27T08:29:15Z</time>
      </trkpt>
      <trkpt lat="43.19934" lon="0.5056">
        <ele>505.79</ele>
        <time>2015-06-27T08:29:26Z</time>
      </trkpt>
      <trkpt lat="43.19914" lon="0.50531">
        <ele>504.83</ele>
        <time>2015-06-27T08:29:32Z</time>
      </trkpt>
      <trkpt lat="43.19882" lon="0.5049">
        <ele>504.35</ele>
        <time>2015-06-27T08:29:40Z</time>
      </trkpt>
      <trkpt lat="43.19875" lon="0.50481">
        <ele>504.35</ele>
        <time>2015-06-27T08:29:42Z</time>
      </trkpt>
      <trkpt lat="43.19861" lon="0.50462">
        <ele>503.87</ele>
        <time>2015-06-27T08:29:46Z</time>
      </trkpt>
      <trkpt lat="43.19836" lon="0.50428">
        <ele>503.39</ele>
        <time>2015-06-27T08:29:54Z</time>
      </trkpt>
      <trkpt lat="43.19828" lon="0.50419">
        <ele>503.39</ele>
        <time>2015-06-27T08:29:56Z</time>
      </trkpt>
      <trkpt lat="43.19812" lon="0.50395">
        <ele>503.87</ele>
        <time>2015-06-27T08:30:01Z</time>
      </trkpt>
      <trkpt lat="43.19799" lon="0.50376">
        <ele>504.35</ele>
        <time>2015-06-27T08:30:05Z</time>
      </trkpt>
      <trkpt lat="43.1979" lon="0.50361">
        <ele>504.35</ele>
        <time>2015-06-27T08:30:08Z</time>
      </trkpt>
      <trkpt lat="43.19762" lon="0.50321">
        <ele>504.35</ele>
        <time>2015-06-27T08:30:16Z</time>
      </trkpt>
      <trkpt lat="43.19736" lon="0.5028">
        <ele>505.31</ele>
        <time>2015-06-27T08:30:24Z</time>
      </trkpt>
      <trkpt lat="43.19727" lon="0.50265">
        <ele>505.79</ele>
        <time>2015-06-27T08:30:27Z</time>
      </trkpt>
      <trkpt lat="43.19695" lon="0.50213">
        <ele>507.71</ele>
        <time>2015-06-27T08:30:37Z</time>
      </trkpt>
      <trkpt lat="43.19677" lon="0.50179">
        <ele>509.16</ele>
        <time>2015-06-27T08:30:45Z</time>
      </trkpt>
      <trkpt lat="43.19654" lon="0.50142">
        <ele>509.16</ele>
        <time>2015-06-27T08:30:54Z</time>
      </trkpt>
      <trkpt lat="43.19632" lon="0.50109">
        <ele>509.16</ele>
        <time>2015-06-27T08:31:02Z</time>
      </trkpt>
      <trkpt lat="43.19609" lon="0.50071">
        <ele>509.64</ele>
        <time>2015-06-27T08:31:11Z</time>
      </trkpt>
      <trkpt lat="43.1958" lon="0.50025">
        <ele>510.12</ele>
        <time>2015-06-27T08:31:22Z</time>
      </trkpt>
      <trkpt lat="43.19557" lon="0.49988">
        <ele>510.6</ele>
        <time>2015-06-27T08:31:31Z</time>
      </trkpt>
      <trkpt lat="43.19536" lon="0.4995">
        <ele>511.56</ele>
        <time>2015-06-27T08:31:41Z</time>
      </trkpt>
      <trkpt lat="43.1952" lon="0.49927">
        <ele>511.56</ele>
        <time>2015-06-27T08:31:47Z</time>
      </trkpt>
      <trkpt lat="43.19517" lon="0.49922">
        <ele>511.56</ele>
        <time>2015-06-27T08:31:48Z</time>
      </trkpt>
      <trkpt lat="43.19496" lon="0.49886">
        <ele>511.08</ele>
        <time>2015-06-27T08:31:56Z</time>
      </trkpt>
      <trkpt lat="43.19493" lon="0.49882">
        <ele>511.08</ele>
        <time>2015-06-27T08:31:57Z</time>
      </trkpt>
      <trkpt lat="43.19477" lon="0.49855">
        <ele>511.08</ele>
        <time>2015-06-27T08:32:04Z</time>
      </trkpt>
      <trkpt lat="43.19462" lon="0.49829">
        <ele>511.08</ele>
        <time>2015-06-27T08:32:11Z</time>
      </trkpt>
      <trkpt lat="43.1944" lon="0.49794">
        <ele>511.56</ele>
        <time>2015-06-27T08:32:20Z</time>
      </trkpt>
      <trkpt lat="43.19415" lon="0.49755">
        <ele>512.04</ele>
        <time>2015-06-27T08:32:30Z</time>
      </trkpt>
      <trkpt lat="43.19394" lon="0.49722">
        <ele>512.52</ele>
        <time>2015-06-27T08:32:39Z</time>
      </trkpt>
      <trkpt lat="43.19379" lon="0.49695">
        <ele>512.04</ele>
        <time>2015-06-27T08:32:47Z</time>
      </trkpt>
      <trkpt lat="43.19358" lon="0.49661">
        <ele>511.56</ele>
        <time>2015-06-27T08:32:57Z</time>
      </trkpt>
      <trkpt lat="43.19342" lon="0.49634">
        <ele>512.04</ele>
        <time>2015-06-27T08:33:04Z</time>
      </trkpt>
      <trkpt lat="43.19321" lon="0.49606">
        <ele>512.04</ele>
        <time>2015-06-27T08:33:12Z</time>
      </trkpt>
      <trkpt lat="43.19291" lon="0.49565">
        <ele>512.04</ele>
        <time>2015-06-27T08:33:22Z</time>
      </trkpt>
      <trkpt lat="43.19261" lon="0.49523">
        <ele>512.52</ele>
        <time>2015-06-27T08:33:32Z</time>
      </trkpt>
      <trkpt lat="43.1923" lon="0.49485">
        <ele>512.52</ele>
        <time>2015-06-27T08:33:42Z</time>
      </trkpt>
      <trkpt lat="43.1921" lon="0.49458">
        <ele>513</ele>
        <time>2015-06-27T08:33:49Z</time>
      </trkpt>
      <trkpt lat="43.19196" lon="0.4944">
        <ele>513.48</ele>
        <time>2015-06-27T08:33:56Z</time>
      </trkpt>
      <trkpt lat="43.19175" lon="0.49409">
        <ele>513.48</ele>
        <time>2015-06-27T08:34:07Z</time>
      </trkpt>
      <trkpt lat="43.19153" lon="0.49381">
        <ele>513.96</ele>
        <time>2015-06-27T08:34:17Z</time>
      </trkpt>
      <trkpt lat="43.19127" lon="0.49348">
        <ele>514.44</ele>
        <time>2015-06-27T08:34:27Z</time>
      </trkpt>
      <trkpt lat="43.19096" lon="0.49303">
        <ele>514.44</ele>
        <time>2015-06-27T08:34:39Z</time>
      </trkpt>
      <trkpt lat="43.19066" lon="0.49262">
        <ele>514.92</ele>
        <time>2015-06-27T08:34:51Z</time>
      </trkpt>
      <trkpt lat="43.19048" lon="0.49248">
        <ele>515.4</ele>
        <time>2015-06-27T08:34:58Z</time>
      </trkpt>
      <trkpt lat="43.19041" lon="0.49256">
        <ele>515.88</ele>
        <time>2015-06-27T08:35:02Z</time>
      </trkpt>
      <trkpt lat="43.19036" lon="0.4926">
        <ele>515.88</ele>
        <time>2015-06-27T08:35:08Z</time>
      </trkpt>
      <trkpt lat="43.19037" lon="0.4926">
        <ele>515.88</ele>
        <time>2015-06-27T08:35:14Z</time>
      </trkpt>
      <trkpt lat="43.19041" lon="0.49256">
        <ele>515.4</ele>
        <time>2015-06-27T08:35:18Z</time>
      </trkpt>
      <trkpt lat="43.19044" lon="0.49251">
        <ele>515.4</ele>
        <time>2015-06-27T08:35:20Z</time>
      </trkpt>
      <trkpt lat="43.1904" lon="0.4923">
        <ele>515.4</ele>
        <time>2015-06-27T08:35:26Z</time>
      </trkpt>
      <trkpt lat="43.1902" lon="0.49207">
        <ele>515.88</ele>
        <time>2015-06-27T08:35:33Z</time>
      </trkpt>
      <trkpt lat="43.19002" lon="0.49181">
        <ele>516.37</ele>
        <time>2015-06-27T08:35:40Z</time>
      </trkpt>
      <trkpt lat="43.18979" lon="0.4915">
        <ele>516.85</ele>
        <time>2015-06-27T08:35:48Z</time>
      </trkpt>
      <trkpt lat="43.1895" lon="0.49116">
        <ele>517.33</ele>
        <time>2015-06-27T08:35:58Z</time>
      </trkpt>
      <trkpt lat="43.18937" lon="0.491">
        <ele>517.81</ele>
        <time>2015-06-27T08:36:04Z</time>
      </trkpt>
      <trkpt lat="43.18923" lon="0.49081">
        <ele>517.81</ele>
        <time>2015-06-27T08:36:10Z</time>
      </trkpt>
      <trkpt lat="43.18908" lon="0.49061">
        <ele>517.81</ele>
        <time>2015-06-27T08:36:16Z</time>
      </trkpt>
      <trkpt lat="43.18887" lon="0.49035">
        <ele>518.29</ele>
        <time>2015-06-27T08:36:24Z</time>
      </trkpt>
      <trkpt lat="43.18866" lon="0.49008">
        <ele>518.29</ele>
        <time>2015-06-27T08:36:32Z</time>
      </trkpt>
      <trkpt lat="43.18846" lon="0.48984">
        <ele>518.29</ele>
        <time>2015-06-27T08:36:39Z</time>
      </trkpt>
      <trkpt lat="43.18821" lon="0.48952">
        <ele>517.81</ele>
        <time>2015-06-27T08:36:48Z</time>
      </trkpt>
      <trkpt lat="43.18793" lon="0.48913">
        <ele>517.81</ele>
        <time>2015-06-27T08:36:58Z</time>
      </trkpt>
      <trkpt lat="43.1877" lon="0.48884">
        <ele>517.81</ele>
        <time>2015-06-27T08:37:06Z</time>
      </trkpt>
      <trkpt lat="43.18762" lon="0.48878">
        <ele>517.81</ele>
        <time>2015-06-27T08:37:08Z</time>
      </trkpt>
      <trkpt lat="43.18746" lon="0.48861">
        <ele>517.33</ele>
        <time>2015-06-27T08:37:14Z</time>
      </trkpt>
      <trkpt lat="43.18731" lon="0.48839">
        <ele>518.29</ele>
        <time>2015-06-27T08:37:22Z</time>
      </trkpt>
      <trkpt lat="43.18711" lon="0.48814">
        <ele>518.29</ele>
        <time>2015-06-27T08:37:31Z</time>
      </trkpt>
      <trkpt lat="43.18683" lon="0.48782">
        <ele>518.29</ele>
        <time>2015-06-27T08:37:41Z</time>
      </trkpt>
      <trkpt lat="43.18662" lon="0.48754">
        <ele>518.29</ele>
        <time>2015-06-27T08:37:49Z</time>
      </trkpt>
      <trkpt lat="43.18634" lon="0.48718">
        <ele>518.29</ele>
        <time>2015-06-27T08:37:59Z</time>
      </trkpt>
      <trkpt lat="43.18602" lon="0.48678">
        <ele>518.29</ele>
        <time>2015-06-27T08:38:11Z</time>
      </trkpt>
      <trkpt lat="43.18567" lon="0.48635">
        <ele>518.77</ele>
        <time>2015-06-27T08:38:23Z</time>
      </trkpt>
      <trkpt lat="43.18532" lon="0.48589">
        <ele>519.25</ele>
        <time>2015-06-27T08:38:35Z</time>
      </trkpt>
      <trkpt lat="43.18502" lon="0.48551">
        <ele>519.73</ele>
        <time>2015-06-27T08:38:45Z</time>
      </trkpt>
      <trkpt lat="43.18475" lon="0.48517">
        <ele>519.73</ele>
        <time>2015-06-27T08:38:54Z</time>
      </trkpt>
      <trkpt lat="43.18438" lon="0.48472">
        <ele>520.69</ele>
        <time>2015-06-27T08:39:06Z</time>
      </trkpt>
      <trkpt lat="43.18415" lon="0.48443">
        <ele>521.17</ele>
        <time>2015-06-27T08:39:14Z</time>
      </trkpt>
      <trkpt lat="43.18393" lon="0.48416">
        <ele>522.13</ele>
        <time>2015-06-27T08:39:22Z</time>
      </trkpt>
      <trkpt lat="43.18364" lon="0.48384">
        <ele>523.09</ele>
        <time>2015-06-27T08:39:32Z</time>
      </trkpt>
      <trkpt lat="43.18328" lon="0.48346">
        <ele>523.58</ele>
        <time>2015-06-27T08:39:43Z</time>
      </trkpt>
      <trkpt lat="43.18291" lon="0.48311">
        <ele>523.58</ele>
        <time>2015-06-27T08:39:54Z</time>
      </trkpt>
      <trkpt lat="43.18255" lon="0.48274">
        <ele>524.06</ele>
        <time>2015-06-27T08:40:05Z</time>
      </trkpt>
      <trkpt lat="43.18223" lon="0.48243">
        <ele>524.54</ele>
        <time>2015-06-27T08:40:15Z</time>
      </trkpt>
      <trkpt lat="43.18195" lon="0.48215">
        <ele>525.02</ele>
        <time>2015-06-27T08:40:25Z</time>
      </trkpt>
      <trkpt lat="43.18161" lon="0.48183">
        <ele>525.98</ele>
        <time>2015-06-27T08:40:37Z</time>
      </trkpt>
      <trkpt lat="43.1813" lon="0.48152">
        <ele>526.94</ele>
        <time>2015-06-27T08:40:48Z</time>
      </trkpt>
      <trkpt lat="43.18122" lon="0.48144">
        <ele>526.94</ele>
        <time>2015-06-27T08:40:51Z</time>
      </trkpt>
      <trkpt lat="43.18119" lon="0.48143">
        <ele>526.94</ele>
        <time>2015-06-27T08:40:52Z</time>
      </trkpt>
      <trkpt lat="43.18116" lon="0.48142">
        <ele>526.94</ele>
        <time>2015-06-27T08:40:53Z</time>
      </trkpt>
      <trkpt lat="43.18114" lon="0.4814">
        <ele>526.94</ele>
        <time>2015-06-27T08:40:54Z</time>
      </trkpt>
      <trkpt lat="43.18111" lon="0.48138">
        <ele>526.94</ele>
        <time>2015-06-27T08:40:55Z</time>
      </trkpt>
      <trkpt lat="43.18109" lon="0.48136">
        <ele>526.94</ele>
        <time>2015-06-27T08:40:56Z</time>
      </trkpt>
      <trkpt lat="43.18108" lon="0.48134">
        <ele>527.42</ele>
        <time>2015-06-27T08:40:57Z</time>
      </trkpt>
      <trkpt lat="43.18088" lon="0.48114">
        <ele>527.42</ele>
        <time>2015-06-27T08:41:05Z</time>
      </trkpt>
      <trkpt lat="43.18078" lon="0.48107">
        <ele>527.42</ele>
        <time>2015-06-27T08:41:09Z</time>
      </trkpt>
      <trkpt lat="43.18074" lon="0.48108">
        <ele>527.9</ele>
        <time>2015-06-27T08:41:11Z</time>
      </trkpt>
      <trkpt lat="43.18073" lon="0.48106">
        <ele>527.42</ele>
        <time>2015-06-27T08:41:12Z</time>
      </trkpt>
      <trkpt lat="43.18072" lon="0.48105">
        <ele>527.9</ele>
        <time>2015-06-27T08:41:13Z</time>
      </trkpt>
      <trkpt lat="43.18072" lon="0.48103">
        <ele>527.9</ele>
        <time>2015-06-27T08:41:18Z</time>
      </trkpt>
      <trkpt lat="43.18072" lon="0.48096">
        <ele>527.9</ele>
        <time>2015-06-27T08:41:27Z</time>
      </trkpt>
      <trkpt lat="43.18069" lon="0.48088">
        <ele>527.42</ele>
        <time>2015-06-27T08:41:29Z</time>
      </trkpt>
      <trkpt lat="43.18066" lon="0.48084">
        <ele>527.42</ele>
        <time>2015-06-27T08:41:30Z</time>
      </trkpt>
      <trkpt lat="43.18047" lon="0.4807">
        <ele>527.9</ele>
        <time>2015-06-27T08:41:37Z</time>
      </trkpt>
      <trkpt lat="43.18026" lon="0.48047">
        <ele>528.38</ele>
        <time>2015-06-27T08:41:46Z</time>
      </trkpt>
      <trkpt lat="43.18006" lon="0.48027">
        <ele>527.9</ele>
        <time>2015-06-27T08:41:55Z</time>
      </trkpt>
      <trkpt lat="43.18004" lon="0.48025">
        <ele>528.38</ele>
        <time>2015-06-27T08:41:56Z</time>
      </trkpt>
      <trkpt lat="43.18004" lon="0.48021">
        <ele>528.38</ele>
        <time>2015-06-27T08:41:57Z</time>
      </trkpt>
      <trkpt lat="43.18005" lon="0.48017">
        <ele>528.38</ele>
        <time>2015-06-27T08:41:58Z</time>
      </trkpt>
      <trkpt lat="43.18006" lon="0.48013">
        <ele>528.38</ele>
        <time>2015-06-27T08:42:03Z</time>
      </trkpt>
      <trkpt lat="43.18007" lon="0.48013">
        <ele>527.9</ele>
        <time>2015-06-27T08:42:08Z</time>
      </trkpt>
      <trkpt lat="43.18007" lon="0.48014">
        <ele>527.42</ele>
        <time>2015-06-27T08:42:31Z</time>
      </trkpt>
      <trkpt lat="43.18006" lon="0.48014">
        <ele>527.42</ele>
        <time>2015-06-27T08:42:53Z</time>
      </trkpt>
      <trkpt lat="43.18006" lon="0.48013">
        <ele>527.9</ele>
        <time>2015-06-27T08:43:02Z</time>
      </trkpt>
      <trkpt lat="43.18006" lon="0.48012">
        <ele>528.38</ele>
        <time>2015-06-27T08:43:03Z</time>
      </trkpt>
      <trkpt lat="43.18006" lon="0.48013">
        <ele>528.86</ele>
        <time>2015-06-27T08:43:08Z</time>
      </trkpt>
      <trkpt lat="43.18006" lon="0.48014">
        <ele>527.9</ele>
        <time>2015-06-27T08:43:18Z</time>
      </trkpt>
      <trkpt lat="43.18006" lon="0.48014">
        <ele>527.9</ele>
        <time>2015-06-27T08:43:41Z</time>
      </trkpt>
      <trkpt lat="43.18006" lon="0.48014">
        <ele>527.9</ele>
        <time>2015-06-27T08:43:59Z</time>
      </trkpt>
      <trkpt lat="43.18006" lon="0.48014">
        <ele>527.9</ele>
        <time>2015-06-27T08:44:21Z</time>
      </trkpt>
      <trkpt lat="43.18006" lon="0.48014">
        <ele>527.9</ele>
        <time>2015-06-27T08:44:41Z</time>
      </trkpt>
      <trkpt lat="43.18006" lon="0.48013">
        <ele>527.9</ele>
        <time>2015-06-27T08:45:02Z</time>
      </trkpt>
      <trkpt lat="43.18007" lon="0.48013">
        <ele>527.9</ele>
        <time>2015-06-27T08:45:27Z</time>
      </trkpt>
      <trkpt lat="43.18007" lon="0.48012">
        <ele>527.9</ele>
        <time>2015-06-27T08:45:55Z</time>
      </trkpt>
      <trkpt lat="43.18007" lon="0.48013">
        <ele>527.9</ele>
        <time>2015-06-27T08:46:23Z</time>
      </trkpt>
      <trkpt lat="43.18007" lon="0.48012">
        <ele>527.9</ele>
        <time>2015-06-27T08:46:44Z</time>
      </trkpt>
      <trkpt lat="43.18007" lon="0.48012">
        <ele>527.9</ele>
        <time>2015-06-27T08:47:12Z</time>
      </trkpt>
      <trkpt lat="43.18007" lon="0.48012">
        <ele>528.38</ele>
        <time>2015-06-27T08:47:36Z</time>
      </trkpt>
      <trkpt lat="43.18007" lon="0.48012">
        <ele>528.38</ele>
        <time>2015-06-27T08:47:59Z</time>
      </trkpt>
      <trkpt lat="43.18007" lon="0.48012">
        <ele>528.38</ele>
        <time>2015-06-27T08:48:06Z</time>
      </trkpt>
      <trkpt lat="43.18007" lon="0.48013">
        <ele>528.86</ele>
        <time>2015-06-27T08:48:19Z</time>
      </trkpt>
      <trkpt lat="43.18006" lon="0.48014">
        <ele>528.38</ele>
        <time>2015-06-27T08:48:30Z</time>
      </trkpt>
      <trkpt lat="43.18005" lon="0.48017">
        <ele>528.86</ele>
        <time>2015-06-27T08:48:37Z</time>
      </trkpt>
      <trkpt lat="43.17997" lon="0.4802">
        <ele>528.38</ele>
        <time>2015-06-27T08:48:42Z</time>
      </trkpt>
      <trkpt lat="43.17996" lon="0.48019">
        <ele>528.38</ele>
        <time>2015-06-27T08:48:43Z</time>
      </trkpt>
      <trkpt lat="43.17975" lon="0.47996">
        <ele>528.38</ele>
        <time>2015-06-27T08:48:54Z</time>
      </trkpt>
      <trkpt lat="43.17947" lon="0.47969">
        <ele>528.86</ele>
        <time>2015-06-27T08:49:05Z</time>
      </trkpt>
      <trkpt lat="43.17924" lon="0.47946">
        <ele>528.86</ele>
        <time>2015-06-27T08:49:14Z</time>
      </trkpt>
      <trkpt lat="43.179" lon="0.4792">
        <ele>529.34</ele>
        <time>2015-06-27T08:49:24Z</time>
      </trkpt>
      <trkpt lat="43.17873" lon="0.47895">
        <ele>530.3</ele>
        <time>2015-06-27T08:49:34Z</time>
      </trkpt>
      <trkpt lat="43.17847" lon="0.47869">
        <ele>530.3</ele>
        <time>2015-06-27T08:49:44Z</time>
      </trkpt>
      <trkpt lat="43.17821" lon="0.47844">
        <ele>530.3</ele>
        <time>2015-06-27T08:49:54Z</time>
      </trkpt>
      <trkpt lat="43.17794" lon="0.47821">
        <ele>530.3</ele>
        <time>2015-06-27T08:50:03Z</time>
      </trkpt>
      <trkpt lat="43.17759" lon="0.47797">
        <ele>530.79</ele>
        <time>2015-06-27T08:50:14Z</time>
      </trkpt>
      <trkpt lat="43.17717" lon="0.4777">
        <ele>530.79</ele>
        <time>2015-06-27T08:50:27Z</time>
      </trkpt>
      <trkpt lat="43.17681" lon="0.47751">
        <ele>531.27</ele>
        <time>2015-06-27T08:50:38Z</time>
      </trkpt>
      <trkpt lat="43.17644" lon="0.47734">
        <ele>531.27</ele>
        <time>2015-06-27T08:50:49Z</time>
      </trkpt>
      <trkpt lat="43.17598" lon="0.47714">
        <ele>532.23</ele>
        <time>2015-06-27T08:51:03Z</time>
      </trkpt>
      <trkpt lat="43.17565" lon="0.47699">
        <ele>532.71</ele>
        <time>2015-06-27T08:51:13Z</time>
      </trkpt>
      <trkpt lat="43.17536" lon="0.47687">
        <ele>533.19</ele>
        <time>2015-06-27T08:51:22Z</time>
      </trkpt>
      <trkpt lat="43.1751" lon="0.47674">
        <ele>533.19</ele>
        <time>2015-06-27T08:51:30Z</time>
      </trkpt>
      <trkpt lat="43.17464" lon="0.47653">
        <ele>533.19</ele>
        <time>2015-06-27T08:51:43Z</time>
      </trkpt>
      <trkpt lat="43.1742" lon="0.47633">
        <ele>533.67</ele>
        <time>2015-06-27T08:51:55Z</time>
      </trkpt>
      <trkpt lat="43.17381" lon="0.47616">
        <ele>533.67</ele>
        <time>2015-06-27T08:52:06Z</time>
      </trkpt>
      <trkpt lat="43.17347" lon="0.47599">
        <ele>534.15</ele>
        <time>2015-06-27T08:52:16Z</time>
      </trkpt>
      <trkpt lat="43.1731" lon="0.47584">
        <ele>534.15</ele>
        <time>2015-06-27T08:52:27Z</time>
      </trkpt>
      <trkpt lat="43.17277" lon="0.47569">
        <ele>534.15</ele>
        <time>2015-06-27T08:52:37Z</time>
      </trkpt>
      <trkpt lat="43.17249" lon="0.47555">
        <ele>533.19</ele>
        <time>2015-06-27T08:52:45Z</time>
      </trkpt>
      <trkpt lat="43.17206" lon="0.47536">
        <ele>533.19</ele>
        <time>2015-06-27T08:52:57Z</time>
      </trkpt>
      <trkpt lat="43.17171" lon="0.4752">
        <ele>532.71</ele>
        <time>2015-06-27T08:53:07Z</time>
      </trkpt>
      <trkpt lat="43.1714" lon="0.47505">
        <ele>532.71</ele>
        <time>2015-06-27T08:53:16Z</time>
      </trkpt>
      <trkpt lat="43.171" lon="0.47489">
        <ele>533.67</ele>
        <time>2015-06-27T08:53:28Z</time>
      </trkpt>
      <trkpt lat="43.17064" lon="0.47473">
        <ele>534.63</ele>
        <time>2015-06-27T08:53:40Z</time>
      </trkpt>
      <trkpt lat="43.17041" lon="0.47459">
        <ele>535.11</ele>
        <time>2015-06-27T08:53:49Z</time>
      </trkpt>
      <trkpt lat="43.17016" lon="0.47445">
        <ele>535.59</ele>
        <time>2015-06-27T08:53:58Z</time>
      </trkpt>
      <trkpt lat="43.16988" lon="0.47432">
        <ele>535.59</ele>
        <time>2015-06-27T08:54:07Z</time>
      </trkpt>
      <trkpt lat="43.16956" lon="0.47412">
        <ele>535.59</ele>
        <time>2015-06-27T08:54:17Z</time>
      </trkpt>
      <trkpt lat="43.16923" lon="0.47391">
        <ele>535.11</ele>
        <time>2015-06-27T08:54:27Z</time>
      </trkpt>
      <trkpt lat="43.16886" lon="0.47367">
        <ele>535.59</ele>
        <time>2015-06-27T08:54:38Z</time>
      </trkpt>
      <trkpt lat="43.16852" lon="0.47348">
        <ele>535.59</ele>
        <time>2015-06-27T08:54:48Z</time>
      </trkpt>
      <trkpt lat="43.16825" lon="0.47329">
        <ele>536.07</ele>
        <time>2015-06-27T08:54:56Z</time>
      </trkpt>
      <trkpt lat="43.16787" lon="0.47306">
        <ele>536.55</ele>
        <time>2015-06-27T08:55:07Z</time>
      </trkpt>
      <trkpt lat="43.16756" lon="0.47286">
        <ele>537.03</ele>
        <time>2015-06-27T08:55:17Z</time>
      </trkpt>
      <trkpt lat="43.16723" lon="0.47266">
        <ele>537.51</ele>
        <time>2015-06-27T08:55:27Z</time>
      </trkpt>
      <trkpt lat="43.16693" lon="0.47247">
        <ele>537.99</ele>
        <time>2015-06-27T08:55:36Z</time>
      </trkpt>
      <trkpt lat="43.16658" lon="0.47226">
        <ele>538.96</ele>
        <time>2015-06-27T08:55:47Z</time>
      </trkpt>
      <trkpt lat="43.16629" lon="0.47208">
        <ele>539.44</ele>
        <time>2015-06-27T08:55:56Z</time>
      </trkpt>
      <trkpt lat="43.16598" lon="0.4719">
        <ele>539.92</ele>
        <time>2015-06-27T08:56:06Z</time>
      </trkpt>
      <trkpt lat="43.16565" lon="0.47167">
        <ele>540.88</ele>
        <time>2015-06-27T08:56:17Z</time>
      </trkpt>
      <trkpt lat="43.16537" lon="0.4715">
        <ele>541.36</ele>
        <time>2015-06-27T08:56:26Z</time>
      </trkpt>
      <trkpt lat="43.16515" lon="0.47135">
        <ele>541.36</ele>
        <time>2015-06-27T08:56:33Z</time>
      </trkpt>
      <trkpt lat="43.16486" lon="0.47118">
        <ele>541.36</ele>
        <time>2015-06-27T08:56:42Z</time>
      </trkpt>
      <trkpt lat="43.16459" lon="0.47102">
        <ele>541.84</ele>
        <time>2015-06-27T08:56:50Z</time>
      </trkpt>
      <trkpt lat="43.16431" lon="0.47084">
        <ele>542.32</ele>
        <time>2015-06-27T08:56:59Z</time>
      </trkpt>
      <trkpt lat="43.16404" lon="0.47067">
        <ele>542.8</ele>
        <time>2015-06-27T08:57:07Z</time>
      </trkpt>
      <trkpt lat="43.16369" lon="0.47046">
        <ele>543.28</ele>
        <time>2015-06-27T08:57:18Z</time>
      </trkpt>
      <trkpt lat="43.16349" lon="0.47032">
        <ele>543.28</ele>
        <time>2015-06-27T08:57:25Z</time>
      </trkpt>
      <trkpt lat="43.16328" lon="0.4702">
        <ele>542.8</ele>
        <time>2015-06-27T08:57:31Z</time>
      </trkpt>
      <trkpt lat="43.16325" lon="0.47017">
        <ele>542.8</ele>
        <time>2015-06-27T08:57:32Z</time>
      </trkpt>
      <trkpt lat="43.16291" lon="0.46996">
        <ele>542.32</ele>
        <time>2015-06-27T08:57:41Z</time>
      </trkpt>
      <trkpt lat="43.16256" lon="0.46974">
        <ele>541.84</ele>
        <time>2015-06-27T08:57:50Z</time>
      </trkpt>
      <trkpt lat="43.16219" lon="0.46951">
        <ele>542.32</ele>
        <time>2015-06-27T08:58:00Z</time>
      </trkpt>
      <trkpt lat="43.16196" lon="0.46936">
        <ele>542.32</ele>
        <time>2015-06-27T08:58:06Z</time>
      </trkpt>
      <trkpt lat="43.16192" lon="0.46934">
        <ele>542.32</ele>
        <time>2015-06-27T08:58:07Z</time>
      </trkpt>
      <trkpt lat="43.16188" lon="0.46931">
        <ele>542.32</ele>
        <time>2015-06-27T08:58:08Z</time>
      </trkpt>
      <trkpt lat="43.1615" lon="0.46911">
        <ele>542.32</ele>
        <time>2015-06-27T08:58:18Z</time>
      </trkpt>
      <trkpt lat="43.16118" lon="0.46896">
        <ele>543.28</ele>
        <time>2015-06-27T08:58:27Z</time>
      </trkpt>
      <trkpt lat="43.16082" lon="0.46883">
        <ele>543.76</ele>
        <time>2015-06-27T08:58:37Z</time>
      </trkpt>
      <trkpt lat="43.16061" lon="0.46876">
        <ele>543.76</ele>
        <time>2015-06-27T08:58:43Z</time>
      </trkpt>
      <trkpt lat="43.16027" lon="0.46865">
        <ele>544.72</ele>
        <time>2015-06-27T08:58:53Z</time>
      </trkpt>
      <trkpt lat="43.16001" lon="0.46857">
        <ele>545.2</ele>
        <time>2015-06-27T08:59:01Z</time>
      </trkpt>
      <trkpt lat="43.15967" lon="0.46849">
        <ele>546.17</ele>
        <time>2015-06-27T08:59:11Z</time>
      </trkpt>
      <trkpt lat="43.1594" lon="0.46842">
        <ele>546.65</ele>
        <time>2015-06-27T08:59:19Z</time>
      </trkpt>
      <trkpt lat="43.15919" lon="0.46836">
        <ele>547.13</ele>
        <time>2015-06-27T08:59:26Z</time>
      </trkpt>
      <trkpt lat="43.15888" lon="0.46829">
        <ele>547.61</ele>
        <time>2015-06-27T08:59:36Z</time>
      </trkpt>
      <trkpt lat="43.15854" lon="0.46821">
        <ele>548.09</ele>
        <time>2015-06-27T08:59:46Z</time>
      </trkpt>
      <trkpt lat="43.15821" lon="0.46811">
        <ele>548.57</ele>
        <time>2015-06-27T08:59:56Z</time>
      </trkpt>
      <trkpt lat="43.15791" lon="0.46791">
        <ele>549.05</ele>
        <time>2015-06-27T09:00:07Z</time>
      </trkpt>
      <trkpt lat="43.15764" lon="0.46768">
        <ele>548.57</ele>
        <time>2015-06-27T09:00:16Z</time>
      </trkpt>
      <trkpt lat="43.1574" lon="0.46743">
        <ele>548.57</ele>
        <time>2015-06-27T09:00:24Z</time>
      </trkpt>
      <trkpt lat="43.15712" lon="0.46717">
        <ele>548.57</ele>
        <time>2015-06-27T09:00:33Z</time>
      </trkpt>
      <trkpt lat="43.15677" lon="0.46685">
        <ele>549.05</ele>
        <time>2015-06-27T09:00:44Z</time>
      </trkpt>
      <trkpt lat="43.1565" lon="0.46661">
        <ele>549.05</ele>
        <time>2015-06-27T09:00:52Z</time>
      </trkpt>
      <trkpt lat="43.15637" lon="0.46649">
        <ele>549.05</ele>
        <time>2015-06-27T09:00:56Z</time>
      </trkpt>
      <trkpt lat="43.15606" lon="0.46618">
        <ele>549.05</ele>
        <time>2015-06-27T09:01:05Z</time>
      </trkpt>
      <trkpt lat="43.15569" lon="0.46585">
        <ele>549.53</ele>
        <time>2015-06-27T09:01:16Z</time>
      </trkpt>
      <trkpt lat="43.15536" lon="0.46554">
        <ele>550.01</ele>
        <time>2015-06-27T09:01:26Z</time>
      </trkpt>
      <trkpt lat="43.15503" lon="0.46523">
        <ele>550.97</ele>
        <time>2015-06-27T09:01:37Z</time>
      </trkpt>
      <trkpt lat="43.15473" lon="0.46495">
        <ele>551.45</ele>
        <time>2015-06-27T09:01:47Z</time>
      </trkpt>
      <trkpt lat="43.15443" lon="0.46467">
        <ele>551.93</ele>
        <time>2015-06-27T09:01:56Z</time>
      </trkpt>
      <trkpt lat="43.15408" lon="0.46435">
        <ele>552.9</ele>
        <time>2015-06-27T09:02:07Z</time>
      </trkpt>
      <trkpt lat="43.15367" lon="0.46397">
        <ele>553.86</ele>
        <time>2015-06-27T09:02:20Z</time>
      </trkpt>
      <trkpt lat="43.15339" lon="0.46371">
        <ele>554.34</ele>
        <time>2015-06-27T09:02:29Z</time>
      </trkpt>
      <trkpt lat="43.15306" lon="0.4634">
        <ele>555.3</ele>
        <time>2015-06-27T09:02:39Z</time>
      </trkpt>
      <trkpt lat="43.15281" lon="0.46317">
        <ele>555.3</ele>
        <time>2015-06-27T09:02:47Z</time>
      </trkpt>
      <trkpt lat="43.15247" lon="0.46285">
        <ele>555.78</ele>
        <time>2015-06-27T09:02:57Z</time>
      </trkpt>
      <trkpt lat="43.1521" lon="0.46249">
        <ele>556.26</ele>
        <time>2015-06-27T09:03:08Z</time>
      </trkpt>
      <trkpt lat="43.15175" lon="0.46217">
        <ele>556.26</ele>
        <time>2015-06-27T09:03:18Z</time>
      </trkpt>
      <trkpt lat="43.15143" lon="0.46189">
        <ele>556.74</ele>
        <time>2015-06-27T09:03:27Z</time>
      </trkpt>
      <trkpt lat="43.15111" lon="0.46157">
        <ele>557.22</ele>
        <time>2015-06-27T09:03:36Z</time>
      </trkpt>
      <trkpt lat="43.15086" lon="0.46134">
        <ele>557.22</ele>
        <time>2015-06-27T09:03:43Z</time>
      </trkpt>
      <trkpt lat="43.15039" lon="0.46091">
        <ele>556.26</ele>
        <time>2015-06-27T09:03:56Z</time>
      </trkpt>
      <trkpt lat="43.15032" lon="0.46084">
        <ele>556.74</ele>
        <time>2015-06-27T09:03:58Z</time>
      </trkpt>
      <trkpt lat="43.15024" lon="0.46077">
        <ele>557.22</ele>
        <time>2015-06-27T09:04:00Z</time>
      </trkpt>
      <trkpt lat="43.14981" lon="0.46035">
        <ele>557.22</ele>
        <time>2015-06-27T09:04:11Z</time>
      </trkpt>
      <trkpt lat="43.14938" lon="0.45996">
        <ele>557.7</ele>
        <time>2015-06-27T09:04:22Z</time>
      </trkpt>
      <trkpt lat="43.14904" lon="0.45966">
        <ele>557.7</ele>
        <time>2015-06-27T09:04:31Z</time>
      </trkpt>
      <trkpt lat="43.14862" lon="0.45931">
        <ele>558.18</ele>
        <time>2015-06-27T09:04:42Z</time>
      </trkpt>
      <trkpt lat="43.14828" lon="0.45906">
        <ele>559.14</ele>
        <time>2015-06-27T09:04:52Z</time>
      </trkpt>
      <trkpt lat="43.14814" lon="0.45897">
        <ele>559.62</ele>
        <time>2015-06-27T09:04:59Z</time>
      </trkpt>
      <trkpt lat="43.14796" lon="0.45881">
        <ele>559.62</ele>
        <time>2015-06-27T09:05:08Z</time>
      </trkpt>
      <trkpt lat="43.1477" lon="0.45861">
        <ele>560.11</ele>
        <time>2015-06-27T09:05:17Z</time>
      </trkpt>
      <trkpt lat="43.14743" lon="0.45841">
        <ele>560.11</ele>
        <time>2015-06-27T09:05:25Z</time>
      </trkpt>
      <trkpt lat="43.1474" lon="0.45838">
        <ele>560.11</ele>
        <time>2015-06-27T09:05:26Z</time>
      </trkpt>
      <trkpt lat="43.14704" lon="0.45811">
        <ele>560.11</ele>
        <time>2015-06-27T09:05:36Z</time>
      </trkpt>
      <trkpt lat="43.14669" lon="0.45783">
        <ele>560.11</ele>
        <time>2015-06-27T09:05:46Z</time>
      </trkpt>
      <trkpt lat="43.14625" lon="0.45752">
        <ele>560.59</ele>
        <time>2015-06-27T09:05:58Z</time>
      </trkpt>
      <trkpt lat="43.14585" lon="0.45723">
        <ele>561.55</ele>
        <time>2015-06-27T09:06:09Z</time>
      </trkpt>
      <trkpt lat="43.14552" lon="0.45696">
        <ele>562.03</ele>
        <time>2015-06-27T09:06:18Z</time>
      </trkpt>
      <trkpt lat="43.14514" lon="0.45668">
        <ele>562.51</ele>
        <time>2015-06-27T09:06:28Z</time>
      </trkpt>
      <trkpt lat="43.14494" lon="0.45652">
        <ele>562.99</ele>
        <time>2015-06-27T09:06:35Z</time>
      </trkpt>
      <trkpt lat="43.14488" lon="0.45644">
        <ele>562.99</ele>
        <time>2015-06-27T09:06:40Z</time>
      </trkpt>
      <trkpt lat="43.14488" lon="0.45642">
        <ele>562.99</ele>
        <time>2015-06-27T09:06:41Z</time>
      </trkpt>
      <trkpt lat="43.14488" lon="0.4564">
        <ele>562.99</ele>
        <time>2015-06-27T09:06:42Z</time>
      </trkpt>
      <trkpt lat="43.14488" lon="0.45638">
        <ele>562.99</ele>
        <time>2015-06-27T09:06:43Z</time>
      </trkpt>
      <trkpt lat="43.14488" lon="0.45635">
        <ele>562.99</ele>
        <time>2015-06-27T09:06:48Z</time>
      </trkpt>
      <trkpt lat="43.14487" lon="0.45635">
        <ele>563.47</ele>
        <time>2015-06-27T09:06:54Z</time>
      </trkpt>
      <trkpt lat="43.14487" lon="0.45636">
        <ele>562.99</ele>
        <time>2015-06-27T09:07:03Z</time>
      </trkpt>
      <trkpt lat="43.14485" lon="0.45639">
        <ele>562.99</ele>
        <time>2015-06-27T09:07:11Z</time>
      </trkpt>
      <trkpt lat="43.14485" lon="0.45639">
        <ele>562.99</ele>
        <time>2015-06-27T09:07:27Z</time>
      </trkpt>
      <trkpt lat="43.14485" lon="0.4564">
        <ele>564.43</ele>
        <time>2015-06-27T09:07:43Z</time>
      </trkpt>
      <trkpt lat="43.14485" lon="0.4564">
        <ele>563.47</ele>
        <time>2015-06-27T09:08:01Z</time>
      </trkpt>
      <trkpt lat="43.14485" lon="0.45641">
        <ele>563.47</ele>
        <time>2015-06-27T09:08:14Z</time>
      </trkpt>
      <trkpt lat="43.14485" lon="0.45642">
        <ele>563.47</ele>
        <time>2015-06-27T09:08:15Z</time>
      </trkpt>
      <trkpt lat="43.14487" lon="0.45643">
        <ele>563.47</ele>
        <time>2015-06-27T09:08:16Z</time>
      </trkpt>
      <trkpt lat="43.14488" lon="0.4564">
        <ele>562.99</ele>
        <time>2015-06-27T09:08:19Z</time>
      </trkpt>
      <trkpt lat="43.14488" lon="0.45637">
        <ele>562.99</ele>
        <time>2015-06-27T09:08:20Z</time>
      </trkpt>
      <trkpt lat="43.14489" lon="0.45634">
        <ele>562.99</ele>
        <time>2015-06-27T09:08:21Z</time>
      </trkpt>
      <trkpt lat="43.14502" lon="0.45613">
        <ele>562.99</ele>
        <time>2015-06-27T09:08:28Z</time>
      </trkpt>
      <trkpt lat="43.14518" lon="0.45577">
        <ele>562.99</ele>
        <time>2015-06-27T09:08:37Z</time>
      </trkpt>
      <trkpt lat="43.14537" lon="0.4554">
        <ele>562.99</ele>
        <time>2015-06-27T09:08:47Z</time>
      </trkpt>
      <trkpt lat="43.14558" lon="0.45494">
        <ele>562.51</ele>
        <time>2015-06-27T09:08:58Z</time>
      </trkpt>
      <trkpt lat="43.14577" lon="0.45459">
        <ele>562.51</ele>
        <time>2015-06-27T09:09:08Z</time>
      </trkpt>
      <trkpt lat="43.14602" lon="0.45414">
        <ele>562.03</ele>
        <time>2015-06-27T09:09:19Z</time>
      </trkpt>
      <trkpt lat="43.14626" lon="0.45368">
        <ele>561.55</ele>
        <time>2015-06-27T09:09:30Z</time>
      </trkpt>
      <trkpt lat="43.14644" lon="0.45339">
        <ele>561.07</ele>
        <time>2015-06-27T09:09:37Z</time>
      </trkpt>
      <trkpt lat="43.14673" lon="0.45288">
        <ele>559.14</ele>
        <time>2015-06-27T09:09:46Z</time>
      </trkpt>
      <trkpt lat="43.14676" lon="0.45283">
        <ele>558.66</ele>
        <time>2015-06-27T09:09:47Z</time>
      </trkpt>
      <trkpt lat="43.14689" lon="0.45247">
        <ele>558.66</ele>
        <time>2015-06-27T09:09:53Z</time>
      </trkpt>
      <trkpt lat="43.14698" lon="0.45201">
        <ele>559.62</ele>
        <time>2015-06-27T09:10:01Z</time>
      </trkpt>
      <trkpt lat="43.1471" lon="0.4514">
        <ele>560.59</ele>
        <time>2015-06-27T09:10:12Z</time>
      </trkpt>
      <trkpt lat="43.1472" lon="0.45095">
        <ele>561.55</ele>
        <time>2015-06-27T09:10:21Z</time>
      </trkpt>
      <trkpt lat="43.14727" lon="0.45059">
        <ele>562.03</ele>
        <time>2015-06-27T09:10:29Z</time>
      </trkpt>
      <trkpt lat="43.14733" lon="0.45033">
        <ele>562.03</ele>
        <time>2015-06-27T09:10:36Z</time>
      </trkpt>
      <trkpt lat="43.14742" lon="0.44991">
        <ele>562.03</ele>
        <time>2015-06-27T09:10:46Z</time>
      </trkpt>
      <trkpt lat="43.14742" lon="0.44987">
        <ele>562.03</ele>
        <time>2015-06-27T09:10:47Z</time>
      </trkpt>
      <trkpt lat="43.14741" lon="0.44983">
        <ele>562.03</ele>
        <time>2015-06-27T09:10:48Z</time>
      </trkpt>
      <trkpt lat="43.14739" lon="0.4498">
        <ele>561.55</ele>
        <time>2015-06-27T09:10:49Z</time>
      </trkpt>
      <trkpt lat="43.14736" lon="0.44978">
        <ele>561.55</ele>
        <time>2015-06-27T09:10:50Z</time>
      </trkpt>
      <trkpt lat="43.14734" lon="0.44976">
        <ele>561.55</ele>
        <time>2015-06-27T09:10:51Z</time>
      </trkpt>
      <trkpt lat="43.14711" lon="0.44964">
        <ele>561.55</ele>
        <time>2015-06-27T09:10:58Z</time>
      </trkpt>
      <trkpt lat="43.14696" lon="0.44953">
        <ele>561.07</ele>
        <time>2015-06-27T09:11:03Z</time>
      </trkpt>
      <trkpt lat="43.14672" lon="0.4494">
        <ele>561.07</ele>
        <time>2015-06-27T09:11:10Z</time>
      </trkpt>
      <trkpt lat="43.14653" lon="0.44929">
        <ele>561.07</ele>
        <time>2015-06-27T09:11:16Z</time>
      </trkpt>
      <trkpt lat="43.1463" lon="0.44915">
        <ele>561.55</ele>
        <time>2015-06-27T09:11:23Z</time>
      </trkpt>
      <trkpt lat="43.14608" lon="0.44904">
        <ele>562.51</ele>
        <time>2015-06-27T09:11:30Z</time>
      </trkpt>
      <trkpt lat="43.14588" lon="0.44893">
        <ele>562.51</ele>
        <time>2015-06-27T09:11:37Z</time>
      </trkpt>
      <trkpt lat="43.14556" lon="0.44876">
        <ele>562.99</ele>
        <time>2015-06-27T09:11:46Z</time>
      </trkpt>
      <trkpt lat="43.14533" lon="0.44861">
        <ele>563.47</ele>
        <time>2015-06-27T09:11:53Z</time>
      </trkpt>
      <trkpt lat="43.14508" lon="0.44848">
        <ele>563.95</ele>
        <time>2015-06-27T09:12:00Z</time>
      </trkpt>
      <trkpt lat="43.14469" lon="0.44823">
        <ele>564.43</ele>
        <time>2015-06-27T09:12:11Z</time>
      </trkpt>
      <trkpt lat="43.1445" lon="0.44809">
        <ele>564.43</ele>
        <time>2015-06-27T09:12:18Z</time>
      </trkpt>
      <trkpt lat="43.14437" lon="0.44779">
        <ele>562.99</ele>
        <time>2015-06-27T09:12:24Z</time>
      </trkpt>
      <trkpt lat="43.14415" lon="0.44726">
        <ele>559.62</ele>
        <time>2015-06-27T09:12:31Z</time>
      </trkpt>
      <trkpt lat="43.14386" lon="0.44658">
        <ele>556.26</ele>
        <time>2015-06-27T09:12:38Z</time>
      </trkpt>
      <trkpt lat="43.14377" lon="0.44631">
        <ele>554.82</ele>
        <time>2015-06-27T09:12:41Z</time>
      </trkpt>
      <trkpt lat="43.14375" lon="0.44622">
        <ele>553.86</ele>
        <time>2015-06-27T09:12:42Z</time>
      </trkpt>
      <trkpt lat="43.14375" lon="0.44613">
        <ele>553.38</ele>
        <time>2015-06-27T09:12:43Z</time>
      </trkpt>
      <trkpt lat="43.14372" lon="0.44588">
        <ele>552.41</ele>
        <time>2015-06-27T09:12:46Z</time>
      </trkpt>
      <trkpt lat="43.14369" lon="0.44581">
        <ele>552.41</ele>
        <time>2015-06-27T09:12:47Z</time>
      </trkpt>
      <trkpt lat="43.14366" lon="0.44576">
        <ele>551.93</ele>
        <time>2015-06-27T09:12:48Z</time>
      </trkpt>
      <trkpt lat="43.14363" lon="0.44571">
        <ele>551.45</ele>
        <time>2015-06-27T09:12:49Z</time>
      </trkpt>
      <trkpt lat="43.14359" lon="0.44566">
        <ele>550.97</ele>
        <time>2015-06-27T09:12:50Z</time>
      </trkpt>
      <trkpt lat="43.14348" lon="0.4455">
        <ele>550.01</ele>
        <time>2015-06-27T09:12:53Z</time>
      </trkpt>
      <trkpt lat="43.14321" lon="0.44509">
        <ele>547.13</ele>
        <time>2015-06-27T09:12:59Z</time>
      </trkpt>
      <trkpt lat="43.14288" lon="0.44463">
        <ele>544.72</ele>
        <time>2015-06-27T09:13:05Z</time>
      </trkpt>
      <trkpt lat="43.14269" lon="0.44438">
        <ele>542.8</ele>
        <time>2015-06-27T09:13:08Z</time>
      </trkpt>
      <trkpt lat="43.14237" lon="0.44392">
        <ele>539.44</ele>
        <time>2015-06-27T09:13:13Z</time>
      </trkpt>
      <trkpt lat="43.14202" lon="0.44341">
        <ele>536.55</ele>
        <time>2015-06-27T09:13:18Z</time>
      </trkpt>
      <trkpt lat="43.14173" lon="0.44296">
        <ele>533.19</ele>
        <time>2015-06-27T09:13:22Z</time>
      </trkpt>
      <trkpt lat="43.14139" lon="0.4425">
        <ele>529.34</ele>
        <time>2015-06-27T09:13:26Z</time>
      </trkpt>
      <trkpt lat="43.14109" lon="0.442">
        <ele>525.5</ele>
        <time>2015-06-27T09:13:30Z</time>
      </trkpt>
      <trkpt lat="43.14096" lon="0.44178">
        <ele>524.06</ele>
        <time>2015-06-27T09:13:32Z</time>
      </trkpt>
      <trkpt lat="43.14074" lon="0.44139">
        <ele>520.69</ele>
        <time>2015-06-27T09:13:36Z</time>
      </trkpt>
      <trkpt lat="43.14064" lon="0.44119">
        <ele>519.73</ele>
        <time>2015-06-27T09:13:38Z</time>
      </trkpt>
      <trkpt lat="43.14049" lon="0.44065">
        <ele>517.81</ele>
        <time>2015-06-27T09:13:43Z</time>
      </trkpt>
      <trkpt lat="43.14047" lon="0.44048">
        <ele>516.85</ele>
        <time>2015-06-27T09:13:45Z</time>
      </trkpt>
      <trkpt lat="43.14048" lon="0.4404">
        <ele>514.92</ele>
        <time>2015-06-27T09:13:46Z</time>
      </trkpt>
      <trkpt lat="43.14051" lon="0.44033">
        <ele>514.44</ele>
        <time>2015-06-27T09:13:47Z</time>
      </trkpt>
      <trkpt lat="43.14059" lon="0.44021">
        <ele>513.96</ele>
        <time>2015-06-27T09:13:49Z</time>
      </trkpt>
      <trkpt lat="43.14066" lon="0.43996">
        <ele>513.96</ele>
        <time>2015-06-27T09:13:54Z</time>
      </trkpt>
      <trkpt lat="43.14065" lon="0.43991">
        <ele>513.96</ele>
        <time>2015-06-27T09:13:55Z</time>
      </trkpt>
      <trkpt lat="43.14062" lon="0.43986">
        <ele>513.96</ele>
        <time>2015-06-27T09:13:56Z</time>
      </trkpt>
      <trkpt lat="43.14059" lon="0.43982">
        <ele>513.96</ele>
        <time>2015-06-27T09:13:57Z</time>
      </trkpt>
      <trkpt lat="43.14056" lon="0.43979">
        <ele>513.96</ele>
        <time>2015-06-27T09:13:58Z</time>
      </trkpt>
      <trkpt lat="43.1405" lon="0.43971">
        <ele>514.44</ele>
        <time>2015-06-27T09:14:00Z</time>
      </trkpt>
      <trkpt lat="43.14047" lon="0.43967">
        <ele>514.44</ele>
        <time>2015-06-27T09:14:01Z</time>
      </trkpt>
      <trkpt lat="43.14045" lon="0.43962">
        <ele>514.44</ele>
        <time>2015-06-27T09:14:02Z</time>
      </trkpt>
      <trkpt lat="43.14043" lon="0.43956">
        <ele>514.92</ele>
        <time>2015-06-27T09:14:03Z</time>
      </trkpt>
      <trkpt lat="43.14042" lon="0.4395">
        <ele>514.92</ele>
        <time>2015-06-27T09:14:04Z</time>
      </trkpt>
      <trkpt lat="43.14041" lon="0.43943">
        <ele>514.92</ele>
        <time>2015-06-27T09:14:05Z</time>
      </trkpt>
      <trkpt lat="43.14039" lon="0.43908">
        <ele>515.88</ele>
        <time>2015-06-27T09:14:10Z</time>
      </trkpt>
      <trkpt lat="43.1404" lon="0.43903">
        <ele>515.88</ele>
        <time>2015-06-27T09:14:11Z</time>
      </trkpt>
      <trkpt lat="43.14042" lon="0.43898">
        <ele>516.37</ele>
        <time>2015-06-27T09:14:12Z</time>
      </trkpt>
      <trkpt lat="43.14044" lon="0.43894">
        <ele>516.37</ele>
        <time>2015-06-27T09:14:13Z</time>
      </trkpt>
      <trkpt lat="43.14047" lon="0.43892">
        <ele>516.85</ele>
        <time>2015-06-27T09:14:14Z</time>
      </trkpt>
      <trkpt lat="43.14051" lon="0.4389">
        <ele>516.85</ele>
        <time>2015-06-27T09:14:15Z</time>
      </trkpt>
      <trkpt lat="43.14054" lon="0.43889">
        <ele>516.85</ele>
        <time>2015-06-27T09:14:16Z</time>
      </trkpt>
      <trkpt lat="43.14058" lon="0.43888">
        <ele>517.33</ele>
        <time>2015-06-27T09:14:17Z</time>
      </trkpt>
      <trkpt lat="43.14075" lon="0.43889">
        <ele>518.77</ele>
        <time>2015-06-27T09:14:22Z</time>
      </trkpt>
      <trkpt lat="43.14087" lon="0.43896">
        <ele>520.21</ele>
        <time>2015-06-27T09:14:28Z</time>
      </trkpt>
      <trkpt lat="43.14104" lon="0.43906">
        <ele>521.65</ele>
        <time>2015-06-27T09:14:36Z</time>
      </trkpt>
      <trkpt lat="43.14118" lon="0.43912">
        <ele>523.09</ele>
        <time>2015-06-27T09:14:43Z</time>
      </trkpt>
      <trkpt lat="43.14131" lon="0.4392">
        <ele>525.02</ele>
        <time>2015-06-27T09:14:51Z</time>
      </trkpt>
      <trkpt lat="43.14134" lon="0.43922">
        <ele>525.5</ele>
        <time>2015-06-27T09:14:54Z</time>
      </trkpt>
      <trkpt lat="43.14136" lon="0.43923">
        <ele>525.5</ele>
        <time>2015-06-27T09:14:55Z</time>
      </trkpt>
      <trkpt lat="43.14137" lon="0.43924">
        <ele>525.5</ele>
        <time>2015-06-27T09:14:56Z</time>
      </trkpt>
      <trkpt lat="43.14138" lon="0.43926">
        <ele>525.98</ele>
        <time>2015-06-27T09:14:57Z</time>
      </trkpt>
      <trkpt lat="43.1414" lon="0.43927">
        <ele>525.98</ele>
        <time>2015-06-27T09:14:58Z</time>
      </trkpt>
      <trkpt lat="43.14141" lon="0.43929">
        <ele>526.46</ele>
        <time>2015-06-27T09:14:59Z</time>
      </trkpt>
      <trkpt lat="43.14143" lon="0.4393">
        <ele>526.46</ele>
        <time>2015-06-27T09:15:00Z</time>
      </trkpt>
      <trkpt lat="43.14145" lon="0.43931">
        <ele>526.46</ele>
        <time>2015-06-27T09:15:01Z</time>
      </trkpt>
      <trkpt lat="43.14157" lon="0.43938">
        <ele>527.9</ele>
        <time>2015-06-27T09:15:09Z</time>
      </trkpt>
      <trkpt lat="43.14171" lon="0.43944">
        <ele>529.34</ele>
        <time>2015-06-27T09:15:17Z</time>
      </trkpt>
      <trkpt lat="43.14182" lon="0.43951">
        <ele>531.27</ele>
        <time>2015-06-27T09:15:25Z</time>
      </trkpt>
      <trkpt lat="43.14195" lon="0.43959">
        <ele>533.67</ele>
        <time>2015-06-27T09:15:34Z</time>
      </trkpt>
      <trkpt lat="43.142" lon="0.43963">
        <ele>534.63</ele>
        <time>2015-06-27T09:15:37Z</time>
      </trkpt>
      <trkpt lat="43.14202" lon="0.43962">
        <ele>534.63</ele>
        <time>2015-06-27T09:15:38Z</time>
      </trkpt>
      <trkpt lat="43.14208" lon="0.43957">
        <ele>535.59</ele>
        <time>2015-06-27T09:15:43Z</time>
      </trkpt>
      <trkpt lat="43.14208" lon="0.43955">
        <ele>535.59</ele>
        <time>2015-06-27T09:15:44Z</time>
      </trkpt>
      <trkpt lat="43.14208" lon="0.43954">
        <ele>535.59</ele>
        <time>2015-06-27T09:15:45Z</time>
      </trkpt>
      <trkpt lat="43.14207" lon="0.43953">
        <ele>536.55</ele>
        <time>2015-06-27T09:15:46Z</time>
      </trkpt>
      <trkpt lat="43.14206" lon="0.43952">
        <ele>536.55</ele>
        <time>2015-06-27T09:15:47Z</time>
      </trkpt>
      <trkpt lat="43.14205" lon="0.4395">
        <ele>536.55</ele>
        <time>2015-06-27T09:15:53Z</time>
      </trkpt>
      <trkpt lat="43.14205" lon="0.43949">
        <ele>536.07</ele>
        <time>2015-06-27T09:16:08Z</time>
      </trkpt>
      <trkpt lat="43.14206" lon="0.4395">
        <ele>536.07</ele>
        <time>2015-06-27T09:16:24Z</time>
      </trkpt>
      <trkpt lat="43.14203" lon="0.43949">
        <ele>536.07</ele>
        <time>2015-06-27T09:16:34Z</time>
      </trkpt>
      <trkpt lat="43.142" lon="0.43946">
        <ele>536.55</ele>
        <time>2015-06-27T09:16:37Z</time>
      </trkpt>
      <trkpt lat="43.14197" lon="0.4394">
        <ele>537.03</ele>
        <time>2015-06-27T09:16:41Z</time>
      </trkpt>
      <trkpt lat="43.14196" lon="0.43939">
        <ele>537.03</ele>
        <time>2015-06-27T09:16:42Z</time>
      </trkpt>
      <trkpt lat="43.14195" lon="0.43937">
        <ele>537.03</ele>
        <time>2015-06-27T09:16:43Z</time>
      </trkpt>
      <trkpt lat="43.14194" lon="0.43936">
        <ele>537.51</ele>
        <time>2015-06-27T09:16:44Z</time>
      </trkpt>
      <trkpt lat="43.14192" lon="0.43935">
        <ele>537.51</ele>
        <time>2015-06-27T09:16:45Z</time>
      </trkpt>
      <trkpt lat="43.14191" lon="0.43933">
        <ele>537.51</ele>
        <time>2015-06-27T09:16:46Z</time>
      </trkpt>
      <trkpt lat="43.1419" lon="0.43932">
        <ele>537.51</ele>
        <time>2015-06-27T09:16:47Z</time>
      </trkpt>
      <trkpt lat="43.14189" lon="0.4393">
        <ele>537.99</ele>
        <time>2015-06-27T09:16:48Z</time>
      </trkpt>
      <trkpt lat="43.14188" lon="0.43929">
        <ele>537.99</ele>
        <time>2015-06-27T09:16:49Z</time>
      </trkpt>
      <trkpt lat="43.14177" lon="0.43913">
        <ele>538.48</ele>
        <time>2015-06-27T09:16:58Z</time>
      </trkpt>
      <trkpt lat="43.14168" lon="0.43897">
        <ele>539.44</ele>
        <time>2015-06-27T09:17:07Z</time>
      </trkpt>
      <trkpt lat="43.14162" lon="0.43882">
        <ele>540.4</ele>
        <time>2015-06-27T09:17:16Z</time>
      </trkpt>
      <trkpt lat="43.14158" lon="0.43872">
        <ele>541.36</ele>
        <time>2015-06-27T09:17:22Z</time>
      </trkpt>
      <trkpt lat="43.14157" lon="0.4387">
        <ele>541.36</ele>
        <time>2015-06-27T09:17:23Z</time>
      </trkpt>
      <trkpt lat="43.14156" lon="0.43869">
        <ele>541.36</ele>
        <time>2015-06-27T09:17:24Z</time>
      </trkpt>
      <trkpt lat="43.14156" lon="0.43867">
        <ele>541.36</ele>
        <time>2015-06-27T09:17:25Z</time>
      </trkpt>
      <trkpt lat="43.14155" lon="0.43866">
        <ele>541.84</ele>
        <time>2015-06-27T09:17:26Z</time>
      </trkpt>
      <trkpt lat="43.14154" lon="0.43865">
        <ele>541.84</ele>
        <time>2015-06-27T09:17:27Z</time>
      </trkpt>
      <trkpt lat="43.14149" lon="0.4385">
        <ele>542.8</ele>
        <time>2015-06-27T09:17:35Z</time>
      </trkpt>
      <trkpt lat="43.14143" lon="0.43835">
        <ele>543.76</ele>
        <time>2015-06-27T09:17:44Z</time>
      </trkpt>
      <trkpt lat="43.14135" lon="0.4382">
        <ele>544.72</ele>
        <time>2015-06-27T09:17:53Z</time>
      </trkpt>
      <trkpt lat="43.14129" lon="0.43807">
        <ele>545.2</ele>
        <time>2015-06-27T09:18:00Z</time>
      </trkpt>
      <trkpt lat="43.1412" lon="0.43793">
        <ele>546.17</ele>
        <time>2015-06-27T09:18:08Z</time>
      </trkpt>
      <trkpt lat="43.14109" lon="0.43773">
        <ele>547.13</ele>
        <time>2015-06-27T09:18:19Z</time>
      </trkpt>
      <trkpt lat="43.14101" lon="0.43757">
        <ele>548.09</ele>
        <time>2015-06-27T09:18:28Z</time>
      </trkpt>
      <trkpt lat="43.14086" lon="0.4374">
        <ele>548.57</ele>
        <time>2015-06-27T09:18:38Z</time>
      </trkpt>
      <trkpt lat="43.14077" lon="0.4373">
        <ele>549.53</ele>
        <time>2015-06-27T09:18:45Z</time>
      </trkpt>
      <trkpt lat="43.14068" lon="0.4372">
        <ele>549.53</ele>
        <time>2015-06-27T09:18:51Z</time>
      </trkpt>
      <trkpt lat="43.14058" lon="0.43711">
        <ele>550.01</ele>
        <time>2015-06-27T09:18:58Z</time>
      </trkpt>
      <trkpt lat="43.14044" lon="0.43693">
        <ele>549.53</ele>
        <time>2015-06-27T09:19:06Z</time>
      </trkpt>
      <trkpt lat="43.14027" lon="0.43672">
        <ele>549.53</ele>
        <time>2015-06-27T09:19:16Z</time>
      </trkpt>
      <trkpt lat="43.14019" lon="0.43664">
        <ele>549.53</ele>
        <time>2015-06-27T09:19:24Z</time>
      </trkpt>
      <trkpt lat="43.14018" lon="0.43662">
        <ele>549.53</ele>
        <time>2015-06-27T09:19:33Z</time>
      </trkpt>
      <trkpt lat="43.14016" lon="0.4366">
        <ele>549.53</ele>
        <time>2015-06-27T09:19:41Z</time>
      </trkpt>
      <trkpt lat="43.14017" lon="0.4366">
        <ele>549.53</ele>
        <time>2015-06-27T09:19:53Z</time>
      </trkpt>
      <trkpt lat="43.14016" lon="0.43658">
        <ele>549.53</ele>
        <time>2015-06-27T09:19:57Z</time>
      </trkpt>
      <trkpt lat="43.14016" lon="0.43656">
        <ele>550.01</ele>
        <time>2015-06-27T09:19:58Z</time>
      </trkpt>
      <trkpt lat="43.14015" lon="0.43655">
        <ele>549.53</ele>
        <time>2015-06-27T09:19:59Z</time>
      </trkpt>
      <trkpt lat="43.14012" lon="0.43653">
        <ele>549.53</ele>
        <time>2015-06-27T09:20:00Z</time>
      </trkpt>
      <trkpt lat="43.1401" lon="0.4365">
        <ele>550.01</ele>
        <time>2015-06-27T09:20:01Z</time>
      </trkpt>
      <trkpt lat="43.13989" lon="0.43628">
        <ele>550.01</ele>
        <time>2015-06-27T09:20:10Z</time>
      </trkpt>
      <trkpt lat="43.13981" lon="0.43621">
        <ele>550.01</ele>
        <time>2015-06-27T09:20:15Z</time>
      </trkpt>
      <trkpt lat="43.13979" lon="0.4362">
        <ele>550.01</ele>
        <time>2015-06-27T09:20:16Z</time>
      </trkpt>
      <trkpt lat="43.13978" lon="0.43619">
        <ele>549.53</ele>
        <time>2015-06-27T09:20:17Z</time>
      </trkpt>
      <trkpt lat="43.13978" lon="0.43617">
        <ele>550.01</ele>
        <time>2015-06-27T09:20:18Z</time>
      </trkpt>
      <trkpt lat="43.13977" lon="0.43616">
        <ele>550.01</ele>
        <time>2015-06-27T09:20:20Z</time>
      </trkpt>
      <trkpt lat="43.13976" lon="0.43615">
        <ele>550.01</ele>
        <time>2015-06-27T09:20:21Z</time>
      </trkpt>
      <trkpt lat="43.13974" lon="0.43614">
        <ele>550.01</ele>
        <time>2015-06-27T09:20:22Z</time>
      </trkpt>
      <trkpt lat="43.13963" lon="0.43602">
        <ele>550.01</ele>
        <time>2015-06-27T09:20:30Z</time>
      </trkpt>
      <trkpt lat="43.13942" lon="0.43578">
        <ele>550.97</ele>
        <time>2015-06-27T09:20:42Z</time>
      </trkpt>
      <trkpt lat="43.13924" lon="0.43558">
        <ele>551.45</ele>
        <time>2015-06-27T09:20:51Z</time>
      </trkpt>
      <trkpt lat="43.1391" lon="0.4354">
        <ele>551.93</ele>
        <time>2015-06-27T09:20:58Z</time>
      </trkpt>
      <trkpt lat="43.13896" lon="0.43526">
        <ele>552.9</ele>
        <time>2015-06-27T09:21:05Z</time>
      </trkpt>
      <trkpt lat="43.13881" lon="0.43507">
        <ele>553.86</ele>
        <time>2015-06-27T09:21:13Z</time>
      </trkpt>
      <trkpt lat="43.13862" lon="0.43484">
        <ele>555.3</ele>
        <time>2015-06-27T09:21:22Z</time>
      </trkpt>
      <trkpt lat="43.13844" lon="0.43455">
        <ele>556.74</ele>
        <time>2015-06-27T09:21:32Z</time>
      </trkpt>
      <trkpt lat="43.13831" lon="0.43433">
        <ele>557.22</ele>
        <time>2015-06-27T09:21:40Z</time>
      </trkpt>
      <trkpt lat="43.13817" lon="0.43421">
        <ele>557.7</ele>
        <time>2015-06-27T09:21:47Z</time>
      </trkpt>
      <trkpt lat="43.13802" lon="0.4341">
        <ele>557.22</ele>
        <time>2015-06-27T09:21:52Z</time>
      </trkpt>
      <trkpt lat="43.13782" lon="0.43397">
        <ele>557.7</ele>
        <time>2015-06-27T09:21:59Z</time>
      </trkpt>
      <trkpt lat="43.13749" lon="0.4337">
        <ele>557.7</ele>
        <time>2015-06-27T09:22:09Z</time>
      </trkpt>
      <trkpt lat="43.13724" lon="0.43349">
        <ele>558.18</ele>
        <time>2015-06-27T09:22:17Z</time>
      </trkpt>
      <trkpt lat="43.13706" lon="0.43328">
        <ele>558.66</ele>
        <time>2015-06-27T09:22:24Z</time>
      </trkpt>
      <trkpt lat="43.13692" lon="0.43311">
        <ele>558.66</ele>
        <time>2015-06-27T09:22:31Z</time>
      </trkpt>
      <trkpt lat="43.13679" lon="0.43282">
        <ele>558.66</ele>
        <time>2015-06-27T09:22:39Z</time>
      </trkpt>
      <trkpt lat="43.13685" lon="0.43251">
        <ele>560.59</ele>
        <time>2015-06-27T09:22:45Z</time>
      </trkpt>
      <trkpt lat="43.13686" lon="0.43241">
        <ele>561.55</ele>
        <time>2015-06-27T09:22:47Z</time>
      </trkpt>
      <trkpt lat="43.13692" lon="0.43208">
        <ele>563.47</ele>
        <time>2015-06-27T09:22:54Z</time>
      </trkpt>
      <trkpt lat="43.13697" lon="0.43186">
        <ele>563.95</ele>
        <time>2015-06-27T09:23:01Z</time>
      </trkpt>
      <trkpt lat="43.13702" lon="0.43159">
        <ele>565.39</ele>
        <time>2015-06-27T09:23:10Z</time>
      </trkpt>
      <trkpt lat="43.13706" lon="0.43133">
        <ele>565.87</ele>
        <time>2015-06-27T09:23:18Z</time>
      </trkpt>
      <trkpt lat="43.13711" lon="0.43113">
        <ele>565.87</ele>
        <time>2015-06-27T09:23:26Z</time>
      </trkpt>
      <trkpt lat="43.1371" lon="0.4311">
        <ele>565.87</ele>
        <time>2015-06-27T09:23:27Z</time>
      </trkpt>
      <trkpt lat="43.13708" lon="0.43108">
        <ele>565.87</ele>
        <time>2015-06-27T09:23:28Z</time>
      </trkpt>
      <trkpt lat="43.13706" lon="0.43107">
        <ele>565.87</ele>
        <time>2015-06-27T09:23:29Z</time>
      </trkpt>
      <trkpt lat="43.13704" lon="0.43106">
        <ele>566.35</ele>
        <time>2015-06-27T09:23:30Z</time>
      </trkpt>
      <trkpt lat="43.13702" lon="0.43104">
        <ele>565.87</ele>
        <time>2015-06-27T09:23:31Z</time>
      </trkpt>
      <trkpt lat="43.13686" lon="0.43094">
        <ele>565.87</ele>
        <time>2015-06-27T09:23:39Z</time>
      </trkpt>
      <trkpt lat="43.1368" lon="0.4309">
        <ele>565.87</ele>
        <time>2015-06-27T09:23:43Z</time>
      </trkpt>
      <trkpt lat="43.13678" lon="0.43089">
        <ele>566.35</ele>
        <time>2015-06-27T09:23:44Z</time>
      </trkpt>
      <trkpt lat="43.13677" lon="0.43088">
        <ele>565.87</ele>
        <time>2015-06-27T09:23:45Z</time>
      </trkpt>
      <trkpt lat="43.13676" lon="0.43087">
        <ele>565.39</ele>
        <time>2015-06-27T09:23:46Z</time>
      </trkpt>
      <trkpt lat="43.13675" lon="0.43086">
        <ele>566.35</ele>
        <time>2015-06-27T09:23:47Z</time>
      </trkpt>
      <trkpt lat="43.13673" lon="0.43085">
        <ele>566.35</ele>
        <time>2015-06-27T09:23:48Z</time>
      </trkpt>
      <trkpt lat="43.13666" lon="0.43079">
        <ele>566.35</ele>
        <time>2015-06-27T09:23:53Z</time>
      </trkpt>
      <trkpt lat="43.13664" lon="0.43079">
        <ele>566.35</ele>
        <time>2015-06-27T09:23:54Z</time>
      </trkpt>
      <trkpt lat="43.13664" lon="0.43079">
        <ele>566.35</ele>
        <time>2015-06-27T09:23:55Z</time>
      </trkpt>
      <trkpt lat="43.13663" lon="0.43079">
        <ele>566.35</ele>
        <time>2015-06-27T09:23:56Z</time>
      </trkpt>
      <trkpt lat="43.13662" lon="0.43077">
        <ele>566.35</ele>
        <time>2015-06-27T09:23:57Z</time>
      </trkpt>
      <trkpt lat="43.13661" lon="0.43075">
        <ele>566.35</ele>
        <time>2015-06-27T09:23:58Z</time>
      </trkpt>
      <trkpt lat="43.1366" lon="0.43073">
        <ele>566.35</ele>
        <time>2015-06-27T09:23:59Z</time>
      </trkpt>
      <trkpt lat="43.13659" lon="0.43072">
        <ele>566.35</ele>
        <time>2015-06-27T09:24:00Z</time>
      </trkpt>
      <trkpt lat="43.13657" lon="0.43071">
        <ele>566.35</ele>
        <time>2015-06-27T09:24:01Z</time>
      </trkpt>
      <trkpt lat="43.13641" lon="0.43063">
        <ele>566.83</ele>
        <time>2015-06-27T09:24:10Z</time>
      </trkpt>
      <trkpt lat="43.1363" lon="0.43054">
        <ele>566.83</ele>
        <time>2015-06-27T09:24:16Z</time>
      </trkpt>
      <trkpt lat="43.13616" lon="0.43043">
        <ele>567.32</ele>
        <time>2015-06-27T09:24:23Z</time>
      </trkpt>
      <trkpt lat="43.13603" lon="0.43033">
        <ele>567.32</ele>
        <time>2015-06-27T09:24:30Z</time>
      </trkpt>
      <trkpt lat="43.13588" lon="0.43019">
        <ele>567.8</ele>
        <time>2015-06-27T09:24:38Z</time>
      </trkpt>
      <trkpt lat="43.13574" lon="0.43009">
        <ele>567.8</ele>
        <time>2015-06-27T09:24:45Z</time>
      </trkpt>
      <trkpt lat="43.13551" lon="0.4299">
        <ele>568.28</ele>
        <time>2015-06-27T09:24:55Z</time>
      </trkpt>
      <trkpt lat="43.13526" lon="0.42966">
        <ele>569.24</ele>
        <time>2015-06-27T09:25:07Z</time>
      </trkpt>
      <trkpt lat="43.13502" lon="0.42944">
        <ele>569.72</ele>
        <time>2015-06-27T09:25:18Z</time>
      </trkpt>
      <trkpt lat="43.13478" lon="0.42921">
        <ele>570.2</ele>
        <time>2015-06-27T09:25:27Z</time>
      </trkpt>
      <trkpt lat="43.13455" lon="0.42896">
        <ele>570.68</ele>
        <time>2015-06-27T09:25:35Z</time>
      </trkpt>
      <trkpt lat="43.13433" lon="0.42874">
        <ele>571.16</ele>
        <time>2015-06-27T09:25:43Z</time>
      </trkpt>
      <trkpt lat="43.13404" lon="0.42842">
        <ele>571.16</ele>
        <time>2015-06-27T09:25:53Z</time>
      </trkpt>
      <trkpt lat="43.13376" lon="0.42813">
        <ele>571.64</ele>
        <time>2015-06-27T09:26:02Z</time>
      </trkpt>
      <trkpt lat="43.13346" lon="0.42781">
        <ele>572.6</ele>
        <time>2015-06-27T09:26:12Z</time>
      </trkpt>
      <trkpt lat="43.13321" lon="0.42754">
        <ele>573.08</ele>
        <time>2015-06-27T09:26:21Z</time>
      </trkpt>
      <trkpt lat="43.13294" lon="0.42731">
        <ele>574.04</ele>
        <time>2015-06-27T09:26:30Z</time>
      </trkpt>
      <trkpt lat="43.1329" lon="0.42725">
        <ele>574.04</ele>
        <time>2015-06-27T09:26:34Z</time>
      </trkpt>
      <trkpt lat="43.1329" lon="0.42725">
        <ele>574.04</ele>
        <time>2015-06-27T09:26:51Z</time>
      </trkpt>
      <trkpt lat="43.13289" lon="0.42725">
        <ele>574.04</ele>
        <time>2015-06-27T09:26:52Z</time>
      </trkpt>
      <trkpt lat="43.13288" lon="0.42724">
        <ele>574.04</ele>
        <time>2015-06-27T09:26:53Z</time>
      </trkpt>
      <trkpt lat="43.13286" lon="0.42722">
        <ele>574.04</ele>
        <time>2015-06-27T09:26:54Z</time>
      </trkpt>
      <trkpt lat="43.13283" lon="0.42721">
        <ele>574.04</ele>
        <time>2015-06-27T09:26:55Z</time>
      </trkpt>
      <trkpt lat="43.13281" lon="0.42719">
        <ele>573.56</ele>
        <time>2015-06-27T09:26:56Z</time>
      </trkpt>
      <trkpt lat="43.13278" lon="0.42716">
        <ele>574.04</ele>
        <time>2015-06-27T09:26:57Z</time>
      </trkpt>
      <trkpt lat="43.13275" lon="0.42714">
        <ele>574.04</ele>
        <time>2015-06-27T09:26:58Z</time>
      </trkpt>
      <trkpt lat="43.13255" lon="0.42696">
        <ele>574.04</ele>
        <time>2015-06-27T09:27:06Z</time>
      </trkpt>
      <trkpt lat="43.13235" lon="0.42677">
        <ele>574.04</ele>
        <time>2015-06-27T09:27:14Z</time>
      </trkpt>
      <trkpt lat="43.13211" lon="0.42656">
        <ele>574.53</ele>
        <time>2015-06-27T09:27:23Z</time>
      </trkpt>
      <trkpt lat="43.13187" lon="0.42634">
        <ele>575.49</ele>
        <time>2015-06-27T09:27:32Z</time>
      </trkpt>
      <trkpt lat="43.13167" lon="0.42613">
        <ele>575.49</ele>
        <time>2015-06-27T09:27:40Z</time>
      </trkpt>
      <trkpt lat="43.13137" lon="0.42585">
        <ele>575.97</ele>
        <time>2015-06-27T09:27:51Z</time>
      </trkpt>
      <trkpt lat="43.13116" lon="0.42565">
        <ele>575.97</ele>
        <time>2015-06-27T09:27:59Z</time>
      </trkpt>
      <trkpt lat="43.13089" lon="0.42537">
        <ele>576.93</ele>
        <time>2015-06-27T09:28:09Z</time>
      </trkpt>
      <trkpt lat="43.13066" lon="0.42514">
        <ele>576.93</ele>
        <time>2015-06-27T09:28:18Z</time>
      </trkpt>
      <trkpt lat="43.13042" lon="0.42492">
        <ele>577.41</ele>
        <time>2015-06-27T09:28:26Z</time>
      </trkpt>
      <trkpt lat="43.13014" lon="0.4247">
        <ele>577.89</ele>
        <time>2015-06-27T09:28:35Z</time>
      </trkpt>
      <trkpt lat="43.12982" lon="0.42449">
        <ele>577.89</ele>
        <time>2015-06-27T09:28:44Z</time>
      </trkpt>
      <trkpt lat="43.1294" lon="0.42425">
        <ele>577.89</ele>
        <time>2015-06-27T09:28:54Z</time>
      </trkpt>
      <trkpt lat="43.12932" lon="0.42418">
        <ele>577.89</ele>
        <time>2015-06-27T09:28:56Z</time>
      </trkpt>
      <trkpt lat="43.12898" lon="0.42377">
        <ele>578.37</ele>
        <time>2015-06-27T09:29:06Z</time>
      </trkpt>
      <trkpt lat="43.12871" lon="0.42343">
        <ele>578.85</ele>
        <time>2015-06-27T09:29:14Z</time>
      </trkpt>
      <trkpt lat="43.12868" lon="0.42339">
        <ele>578.85</ele>
        <time>2015-06-27T09:29:15Z</time>
      </trkpt>
      <trkpt lat="43.12865" lon="0.42335">
        <ele>578.85</ele>
        <time>2015-06-27T09:29:16Z</time>
      </trkpt>
      <trkpt lat="43.12862" lon="0.42331">
        <ele>578.85</ele>
        <time>2015-06-27T09:29:17Z</time>
      </trkpt>
      <trkpt lat="43.12859" lon="0.42327">
        <ele>578.85</ele>
        <time>2015-06-27T09:29:18Z</time>
      </trkpt>
      <trkpt lat="43.12836" lon="0.42297">
        <ele>578.85</ele>
        <time>2015-06-27T09:29:27Z</time>
      </trkpt>
      <trkpt lat="43.1282" lon="0.42274">
        <ele>578.85</ele>
        <time>2015-06-27T09:29:34Z</time>
      </trkpt>
      <trkpt lat="43.12821" lon="0.4227">
        <ele>578.85</ele>
        <time>2015-06-27T09:29:35Z</time>
      </trkpt>
      <trkpt lat="43.12823" lon="0.42265">
        <ele>579.33</ele>
        <time>2015-06-27T09:29:36Z</time>
      </trkpt>
      <trkpt lat="43.12824" lon="0.4226">
        <ele>579.33</ele>
        <time>2015-06-27T09:29:37Z</time>
      </trkpt>
      <trkpt lat="43.12826" lon="0.42255">
        <ele>579.33</ele>
        <time>2015-06-27T09:29:38Z</time>
      </trkpt>
      <trkpt lat="43.12828" lon="0.4225">
        <ele>579.33</ele>
        <time>2015-06-27T09:29:39Z</time>
      </trkpt>
      <trkpt lat="43.1283" lon="0.42244">
        <ele>579.33</ele>
        <time>2015-06-27T09:29:40Z</time>
      </trkpt>
      <trkpt lat="43.12831" lon="0.42239">
        <ele>579.33</ele>
        <time>2015-06-27T09:29:41Z</time>
      </trkpt>
      <trkpt lat="43.12847" lon="0.4219">
        <ele>581.25</ele>
        <time>2015-06-27T09:29:50Z</time>
      </trkpt>
      <trkpt lat="43.12859" lon="0.42152">
        <ele>584.14</ele>
        <time>2015-06-27T09:29:59Z</time>
      </trkpt>
      <trkpt lat="43.12868" lon="0.42124">
        <ele>585.58</ele>
        <time>2015-06-27T09:30:06Z</time>
      </trkpt>
      <trkpt lat="43.12879" lon="0.42087">
        <ele>586.54</ele>
        <time>2015-06-27T09:30:15Z</time>
      </trkpt>
      <trkpt lat="43.12891" lon="0.42049">
        <ele>587.98</ele>
        <time>2015-06-27T09:30:24Z</time>
      </trkpt>
      <trkpt lat="43.12902" lon="0.42007">
        <ele>588.46</ele>
        <time>2015-06-27T09:30:34Z</time>
      </trkpt>
      <trkpt lat="43.12911" lon="0.41973">
        <ele>588.95</ele>
        <time>2015-06-27T09:30:42Z</time>
      </trkpt>
      <trkpt lat="43.12926" lon="0.41921">
        <ele>589.43</ele>
        <time>2015-06-27T09:30:53Z</time>
      </trkpt>
      <trkpt lat="43.12937" lon="0.41877">
        <ele>589.43</ele>
        <time>2015-06-27T09:31:02Z</time>
      </trkpt>
      <trkpt lat="43.12944" lon="0.41844">
        <ele>588.95</ele>
        <time>2015-06-27T09:31:10Z</time>
      </trkpt>
      <trkpt lat="43.12949" lon="0.41822">
        <ele>588.95</ele>
        <time>2015-06-27T09:31:16Z</time>
      </trkpt>
      <trkpt lat="43.12959" lon="0.41788">
        <ele>588.46</ele>
        <time>2015-06-27T09:31:24Z</time>
      </trkpt>
      <trkpt lat="43.12965" lon="0.41769">
        <ele>588.46</ele>
        <time>2015-06-27T09:31:30Z</time>
      </trkpt>
      <trkpt lat="43.12964" lon="0.4177">
        <ele>588.46</ele>
        <time>2015-06-27T09:31:41Z</time>
      </trkpt>
      <trkpt lat="43.12965" lon="0.41769">
        <ele>588.46</ele>
        <time>2015-06-27T09:31:55Z</time>
      </trkpt>
      <trkpt lat="43.12965" lon="0.41767">
        <ele>588.46</ele>
        <time>2015-06-27T09:32:05Z</time>
      </trkpt>
      <trkpt lat="43.12963" lon="0.41767">
        <ele>588.46</ele>
        <time>2015-06-27T09:32:06Z</time>
      </trkpt>
      <trkpt lat="43.1296" lon="0.41769">
        <ele>588.46</ele>
        <time>2015-06-27T09:32:08Z</time>
      </trkpt>
      <trkpt lat="43.1296" lon="0.41772">
        <ele>588.46</ele>
        <time>2015-06-27T09:32:09Z</time>
      </trkpt>
      <trkpt lat="43.1296" lon="0.41774">
        <ele>588.46</ele>
        <time>2015-06-27T09:32:10Z</time>
      </trkpt>
      <trkpt lat="43.12961" lon="0.41776">
        <ele>588.95</ele>
        <time>2015-06-27T09:32:11Z</time>
      </trkpt>
      <trkpt lat="43.12965" lon="0.41774">
        <ele>588.46</ele>
        <time>2015-06-27T09:32:15Z</time>
      </trkpt>
      <trkpt lat="43.12964" lon="0.41774">
        <ele>588.46</ele>
        <time>2015-06-27T09:32:22Z</time>
      </trkpt>
      <trkpt lat="43.12964" lon="0.41769">
        <ele>588.46</ele>
        <time>2015-06-27T09:32:35Z</time>
      </trkpt>
      <trkpt lat="43.12963" lon="0.41768">
        <ele>588.46</ele>
        <time>2015-06-27T09:32:42Z</time>
      </trkpt>
      <trkpt lat="43.12964" lon="0.41766">
        <ele>588.46</ele>
        <time>2015-06-27T09:32:56Z</time>
      </trkpt>
      <trkpt lat="43.12964" lon="0.41766">
        <ele>588.46</ele>
        <time>2015-06-27T09:33:07Z</time>
      </trkpt>
      <trkpt lat="43.12964" lon="0.41766">
        <ele>588.46</ele>
        <time>2015-06-27T09:33:18Z</time>
      </trkpt>
      <trkpt lat="43.12964" lon="0.41767">
        <ele>588.46</ele>
        <time>2015-06-27T09:33:25Z</time>
      </trkpt>
      <trkpt lat="43.12963" lon="0.41759">
        <ele>588.46</ele>
        <time>2015-06-27T09:33:31Z</time>
      </trkpt>
      <trkpt lat="43.12962" lon="0.41758">
        <ele>588.46</ele>
        <time>2015-06-27T09:33:32Z</time>
      </trkpt>
      <trkpt lat="43.12942" lon="0.41745">
        <ele>588.95</ele>
        <time>2015-06-27T09:33:43Z</time>
      </trkpt>
      <trkpt lat="43.12916" lon="0.41733">
        <ele>589.43</ele>
        <time>2015-06-27T09:33:53Z</time>
      </trkpt>
      <trkpt lat="43.12887" lon="0.41717">
        <ele>589.91</ele>
        <time>2015-06-27T09:34:03Z</time>
      </trkpt>
      <trkpt lat="43.12856" lon="0.41701">
        <ele>590.87</ele>
        <time>2015-06-27T09:34:13Z</time>
      </trkpt>
      <trkpt lat="43.12824" lon="0.41685">
        <ele>591.35</ele>
        <time>2015-06-27T09:34:23Z</time>
      </trkpt>
      <trkpt lat="43.12795" lon="0.41669">
        <ele>592.31</ele>
        <time>2015-06-27T09:34:32Z</time>
      </trkpt>
      <trkpt lat="43.12764" lon="0.41652">
        <ele>592.31</ele>
        <time>2015-06-27T09:34:41Z</time>
      </trkpt>
      <trkpt lat="43.12733" lon="0.41635">
        <ele>592.79</ele>
        <time>2015-06-27T09:34:50Z</time>
      </trkpt>
      <trkpt lat="43.12699" lon="0.41617">
        <ele>593.27</ele>
        <time>2015-06-27T09:35:00Z</time>
      </trkpt>
      <trkpt lat="43.12659" lon="0.41595">
        <ele>593.75</ele>
        <time>2015-06-27T09:35:11Z</time>
      </trkpt>
      <trkpt lat="43.12619" lon="0.41574">
        <ele>594.71</ele>
        <time>2015-06-27T09:35:22Z</time>
      </trkpt>
      <trkpt lat="43.12578" lon="0.41552">
        <ele>595.19</ele>
        <time>2015-06-27T09:35:33Z</time>
      </trkpt>
      <trkpt lat="43.12547" lon="0.41537">
        <ele>595.67</ele>
        <time>2015-06-27T09:35:42Z</time>
      </trkpt>
      <trkpt lat="43.12512" lon="0.41518">
        <ele>596.64</ele>
        <time>2015-06-27T09:35:53Z</time>
      </trkpt>
      <trkpt lat="43.12473" lon="0.41498">
        <ele>597.12</ele>
        <time>2015-06-27T09:36:05Z</time>
      </trkpt>
      <trkpt lat="43.12435" lon="0.41479">
        <ele>597.12</ele>
        <time>2015-06-27T09:36:15Z</time>
      </trkpt>
      <trkpt lat="43.12395" lon="0.41459">
        <ele>597.12</ele>
        <time>2015-06-27T09:36:26Z</time>
      </trkpt>
      <trkpt lat="43.1236" lon="0.4144">
        <ele>597.6</ele>
        <time>2015-06-27T09:36:36Z</time>
      </trkpt>
      <trkpt lat="43.12327" lon="0.41424">
        <ele>598.08</ele>
        <time>2015-06-27T09:36:45Z</time>
      </trkpt>
      <trkpt lat="43.12297" lon="0.41408">
        <ele>598.56</ele>
        <time>2015-06-27T09:36:54Z</time>
      </trkpt>
      <trkpt lat="43.12266" lon="0.41392">
        <ele>599.04</ele>
        <time>2015-06-27T09:37:04Z</time>
      </trkpt>
      <trkpt lat="43.12234" lon="0.41374">
        <ele>599.52</ele>
        <time>2015-06-27T09:37:14Z</time>
      </trkpt>
      <trkpt lat="43.12203" lon="0.41357">
        <ele>599.52</ele>
        <time>2015-06-27T09:37:23Z</time>
      </trkpt>
      <trkpt lat="43.12166" lon="0.41337">
        <ele>600</ele>
        <time>2015-06-27T09:37:33Z</time>
      </trkpt>
      <trkpt lat="43.12127" lon="0.41317">
        <ele>600.48</ele>
        <time>2015-06-27T09:37:44Z</time>
      </trkpt>
      <trkpt lat="43.12078" lon="0.41293">
        <ele>600.48</ele>
        <time>2015-06-27T09:37:57Z</time>
      </trkpt>
      <trkpt lat="43.12041" lon="0.41272">
        <ele>600.96</ele>
        <time>2015-06-27T09:38:07Z</time>
      </trkpt>
      <trkpt lat="43.12016" lon="0.41257">
        <ele>600.96</ele>
        <time>2015-06-27T09:38:15Z</time>
      </trkpt>
      <trkpt lat="43.11986" lon="0.41244">
        <ele>601.44</ele>
        <time>2015-06-27T09:38:23Z</time>
      </trkpt>
      <trkpt lat="43.11957" lon="0.41228">
        <ele>601.92</ele>
        <time>2015-06-27T09:38:32Z</time>
      </trkpt>
      <trkpt lat="43.11939" lon="0.41203">
        <ele>602.4</ele>
        <time>2015-06-27T09:38:40Z</time>
      </trkpt>
      <trkpt lat="43.11934" lon="0.41177">
        <ele>602.4</ele>
        <time>2015-06-27T09:38:45Z</time>
      </trkpt>
      <trkpt lat="43.11943" lon="0.41129">
        <ele>602.88</ele>
        <time>2015-06-27T09:38:54Z</time>
      </trkpt>
      <trkpt lat="43.1195" lon="0.41071">
        <ele>603.85</ele>
        <time>2015-06-27T09:39:05Z</time>
      </trkpt>
      <trkpt lat="43.11956" lon="0.41021">
        <ele>604.33</ele>
        <time>2015-06-27T09:39:15Z</time>
      </trkpt>
      <trkpt lat="43.11961" lon="0.40995">
        <ele>604.81</ele>
        <time>2015-06-27T09:39:20Z</time>
      </trkpt>
      <trkpt lat="43.11964" lon="0.40958">
        <ele>605.29</ele>
        <time>2015-06-27T09:39:27Z</time>
      </trkpt>
      <trkpt lat="43.11973" lon="0.409">
        <ele>604.81</ele>
        <time>2015-06-27T09:39:37Z</time>
      </trkpt>
      <trkpt lat="43.11983" lon="0.40815">
        <ele>603.85</ele>
        <time>2015-06-27T09:39:49Z</time>
      </trkpt>
      <trkpt lat="43.11993" lon="0.40742">
        <ele>602.4</ele>
        <time>2015-06-27T09:39:58Z</time>
      </trkpt>
      <trkpt lat="43.12006" lon="0.40652">
        <ele>600.96</ele>
        <time>2015-06-27T09:40:08Z</time>
      </trkpt>
      <trkpt lat="43.12018" lon="0.40554">
        <ele>599.52</ele>
        <time>2015-06-27T09:40:18Z</time>
      </trkpt>
      <trkpt lat="43.12031" lon="0.40448">
        <ele>597.6</ele>
        <time>2015-06-27T09:40:28Z</time>
      </trkpt>
      <trkpt lat="43.12043" lon="0.40368">
        <ele>596.15</ele>
        <time>2015-06-27T09:40:36Z</time>
      </trkpt>
      <trkpt lat="43.12056" lon="0.4027">
        <ele>595.67</ele>
        <time>2015-06-27T09:40:46Z</time>
      </trkpt>
      <trkpt lat="43.12065" lon="0.40198">
        <ele>596.15</ele>
        <time>2015-06-27T09:40:54Z</time>
      </trkpt>
      <trkpt lat="43.12072" lon="0.40146">
        <ele>597.6</ele>
        <time>2015-06-27T09:41:02Z</time>
      </trkpt>
      <trkpt lat="43.12077" lon="0.40128">
        <ele>597.6</ele>
        <time>2015-06-27T09:41:05Z</time>
      </trkpt>
      <trkpt lat="43.1208" lon="0.40123">
        <ele>597.6</ele>
        <time>2015-06-27T09:41:06Z</time>
      </trkpt>
      <trkpt lat="43.12084" lon="0.40119">
        <ele>598.08</ele>
        <time>2015-06-27T09:41:07Z</time>
      </trkpt>
      <trkpt lat="43.12087" lon="0.40114">
        <ele>597.6</ele>
        <time>2015-06-27T09:41:08Z</time>
      </trkpt>
      <trkpt lat="43.1209" lon="0.40109">
        <ele>597.6</ele>
        <time>2015-06-27T09:41:09Z</time>
      </trkpt>
      <trkpt lat="43.1209" lon="0.40102">
        <ele>597.6</ele>
        <time>2015-06-27T09:41:10Z</time>
      </trkpt>
      <trkpt lat="43.12089" lon="0.40096">
        <ele>597.6</ele>
        <time>2015-06-27T09:41:11Z</time>
      </trkpt>
      <trkpt lat="43.12087" lon="0.4009">
        <ele>598.08</ele>
        <time>2015-06-27T09:41:12Z</time>
      </trkpt>
      <trkpt lat="43.12086" lon="0.40084">
        <ele>598.08</ele>
        <time>2015-06-27T09:41:13Z</time>
      </trkpt>
      <trkpt lat="43.12085" lon="0.40078">
        <ele>598.08</ele>
        <time>2015-06-27T09:41:14Z</time>
      </trkpt>
      <trkpt lat="43.12085" lon="0.40071">
        <ele>598.08</ele>
        <time>2015-06-27T09:41:15Z</time>
      </trkpt>
      <trkpt lat="43.12094" lon="0.39996">
        <ele>599.04</ele>
        <time>2015-06-27T09:41:26Z</time>
      </trkpt>
      <trkpt lat="43.12102" lon="0.39925">
        <ele>600.96</ele>
        <time>2015-06-27T09:41:36Z</time>
      </trkpt>
      <trkpt lat="43.12116" lon="0.39839">
        <ele>602.4</ele>
        <time>2015-06-27T09:41:48Z</time>
      </trkpt>
      <trkpt lat="43.12124" lon="0.39773">
        <ele>602.88</ele>
        <time>2015-06-27T09:41:58Z</time>
      </trkpt>
      <trkpt lat="43.12135" lon="0.39694">
        <ele>603.36</ele>
        <time>2015-06-27T09:42:10Z</time>
      </trkpt>
      <trkpt lat="43.12145" lon="0.39619">
        <ele>602.88</ele>
        <time>2015-06-27T09:42:21Z</time>
      </trkpt>
      <trkpt lat="43.12155" lon="0.3954">
        <ele>602.4</ele>
        <time>2015-06-27T09:42:32Z</time>
      </trkpt>
      <trkpt lat="43.12161" lon="0.39497">
        <ele>602.4</ele>
        <time>2015-06-27T09:42:39Z</time>
      </trkpt>
      <trkpt lat="43.12166" lon="0.39459">
        <ele>601.92</ele>
        <time>2015-06-27T09:42:47Z</time>
      </trkpt>
      <trkpt lat="43.12169" lon="0.39434">
        <ele>601.92</ele>
        <time>2015-06-27T09:42:53Z</time>
      </trkpt>
      <trkpt lat="43.12171" lon="0.39409">
        <ele>601.44</ele>
        <time>2015-06-27T09:42:59Z</time>
      </trkpt>
      <trkpt lat="43.12176" lon="0.3937">
        <ele>600</ele>
        <time>2015-06-27T09:43:07Z</time>
      </trkpt>
      <trkpt lat="43.12184" lon="0.39317">
        <ele>598.56</ele>
        <time>2015-06-27T09:43:15Z</time>
      </trkpt>
      <trkpt lat="43.12193" lon="0.39252">
        <ele>596.15</ele>
        <time>2015-06-27T09:43:23Z</time>
      </trkpt>
      <trkpt lat="43.12204" lon="0.39182">
        <ele>592.79</ele>
        <time>2015-06-27T09:43:30Z</time>
      </trkpt>
      <trkpt lat="43.12213" lon="0.39123">
        <ele>589.91</ele>
        <time>2015-06-27T09:43:35Z</time>
      </trkpt>
      <trkpt lat="43.12218" lon="0.3907">
        <ele>586.54</ele>
        <time>2015-06-27T09:43:39Z</time>
      </trkpt>
      <trkpt lat="43.12227" lon="0.38999">
        <ele>583.18</ele>
        <time>2015-06-27T09:43:44Z</time>
      </trkpt>
      <trkpt lat="43.1224" lon="0.38887">
        <ele>578.85</ele>
        <time>2015-06-27T09:43:52Z</time>
      </trkpt>
      <trkpt lat="43.12242" lon="0.38874">
        <ele>578.85</ele>
        <time>2015-06-27T09:43:53Z</time>
      </trkpt>
      <trkpt lat="43.1225" lon="0.38804">
        <ele>576.93</ele>
        <time>2015-06-27T09:43:59Z</time>
      </trkpt>
      <trkpt lat="43.12251" lon="0.38796">
        <ele>576.93</ele>
        <time>2015-06-27T09:44:00Z</time>
      </trkpt>
      <trkpt lat="43.12253" lon="0.38788">
        <ele>576.93</ele>
        <time>2015-06-27T09:44:01Z</time>
      </trkpt>
      <trkpt lat="43.12256" lon="0.3878">
        <ele>576.93</ele>
        <time>2015-06-27T09:44:02Z</time>
      </trkpt>
      <trkpt lat="43.12258" lon="0.38773">
        <ele>576.93</ele>
        <time>2015-06-27T09:44:03Z</time>
      </trkpt>
      <trkpt lat="43.12259" lon="0.38765">
        <ele>577.41</ele>
        <time>2015-06-27T09:44:04Z</time>
      </trkpt>
      <trkpt lat="43.12261" lon="0.38752">
        <ele>577.89</ele>
        <time>2015-06-27T09:44:06Z</time>
      </trkpt>
      <trkpt lat="43.12266" lon="0.38718">
        <ele>578.85</ele>
        <time>2015-06-27T09:44:13Z</time>
      </trkpt>
      <trkpt lat="43.12272" lon="0.38695">
        <ele>579.81</ele>
        <time>2015-06-27T09:44:20Z</time>
      </trkpt>
      <trkpt lat="43.12282" lon="0.38672">
        <ele>580.77</ele>
        <time>2015-06-27T09:44:29Z</time>
      </trkpt>
      <trkpt lat="43.12294" lon="0.38646">
        <ele>581.73</ele>
        <time>2015-06-27T09:44:39Z</time>
      </trkpt>
      <trkpt lat="43.12303" lon="0.38636">
        <ele>582.22</ele>
        <time>2015-06-27T09:44:45Z</time>
      </trkpt>
      <trkpt lat="43.12316" lon="0.3862">
        <ele>582.7</ele>
        <time>2015-06-27T09:44:53Z</time>
      </trkpt>
      <trkpt lat="43.12325" lon="0.38609">
        <ele>582.7</ele>
        <time>2015-06-27T09:44:59Z</time>
      </trkpt>
      <trkpt lat="43.12341" lon="0.38591">
        <ele>583.66</ele>
        <time>2015-06-27T09:45:08Z</time>
      </trkpt>
      <trkpt lat="43.12357" lon="0.38575">
        <ele>583.66</ele>
        <time>2015-06-27T09:45:16Z</time>
      </trkpt>
      <trkpt lat="43.12376" lon="0.3856">
        <ele>584.14</ele>
        <time>2015-06-27T09:45:25Z</time>
      </trkpt>
      <trkpt lat="43.12379" lon="0.3856">
        <ele>584.14</ele>
        <time>2015-06-27T09:45:27Z</time>
      </trkpt>
      <trkpt lat="43.1238" lon="0.38561">
        <ele>584.14</ele>
        <time>2015-06-27T09:45:32Z</time>
      </trkpt>
      <trkpt lat="43.12379" lon="0.38561">
        <ele>584.14</ele>
        <time>2015-06-27T09:45:43Z</time>
      </trkpt>
      <trkpt lat="43.12379" lon="0.38561">
        <ele>584.14</ele>
        <time>2015-06-27T09:45:57Z</time>
      </trkpt>
      <trkpt lat="43.12379" lon="0.38561">
        <ele>584.62</ele>
        <time>2015-06-27T09:46:12Z</time>
      </trkpt>
      <trkpt lat="43.1238" lon="0.38561">
        <ele>584.62</ele>
        <time>2015-06-27T09:46:28Z</time>
      </trkpt>
      <trkpt lat="43.12379" lon="0.3856">
        <ele>584.62</ele>
        <time>2015-06-27T09:46:40Z</time>
      </trkpt>
      <trkpt lat="43.12379" lon="0.3856">
        <ele>584.62</ele>
        <time>2015-06-27T09:46:49Z</time>
      </trkpt>
      <trkpt lat="43.12379" lon="0.38559">
        <ele>584.62</ele>
        <time>2015-06-27T09:47:05Z</time>
      </trkpt>
      <trkpt lat="43.12378" lon="0.38559">
        <ele>584.14</ele>
        <time>2015-06-27T09:47:18Z</time>
      </trkpt>
      <trkpt lat="43.12378" lon="0.38559">
        <ele>584.62</ele>
        <time>2015-06-27T09:47:30Z</time>
      </trkpt>
      <trkpt lat="43.12377" lon="0.3856">
        <ele>584.62</ele>
        <time>2015-06-27T09:47:43Z</time>
      </trkpt>
      <trkpt lat="43.12378" lon="0.3856">
        <ele>584.62</ele>
        <time>2015-06-27T09:47:54Z</time>
      </trkpt>
      <trkpt lat="43.12378" lon="0.38561">
        <ele>584.62</ele>
        <time>2015-06-27T09:48:11Z</time>
      </trkpt>
      <trkpt lat="43.12378" lon="0.38561">
        <ele>584.62</ele>
        <time>2015-06-27T09:48:20Z</time>
      </trkpt>
      <trkpt lat="43.12378" lon="0.38561">
        <ele>584.62</ele>
        <time>2015-06-27T09:48:36Z</time>
      </trkpt>
      <trkpt lat="43.12378" lon="0.38561">
        <ele>584.62</ele>
        <time>2015-06-27T09:48:51Z</time>
      </trkpt>
      <trkpt lat="43.12378" lon="0.38561">
        <ele>584.62</ele>
        <time>2015-06-27T09:48:57Z</time>
      </trkpt>
      <trkpt lat="43.1238" lon="0.38558">
        <ele>584.62</ele>
        <time>2015-06-27T09:48:59Z</time>
      </trkpt>
      <trkpt lat="43.12383" lon="0.38555">
        <ele>584.62</ele>
        <time>2015-06-27T09:49:03Z</time>
      </trkpt>
      <trkpt lat="43.12383" lon="0.38554">
        <ele>584.62</ele>
        <time>2015-06-27T09:49:07Z</time>
      </trkpt>
      <trkpt lat="43.12382" lon="0.38552">
        <ele>584.62</ele>
        <time>2015-06-27T09:49:08Z</time>
      </trkpt>
      <trkpt lat="43.12382" lon="0.3855">
        <ele>584.62</ele>
        <time>2015-06-27T09:49:09Z</time>
      </trkpt>
      <trkpt lat="43.12381" lon="0.38548">
        <ele>584.62</ele>
        <time>2015-06-27T09:49:10Z</time>
      </trkpt>
      <trkpt lat="43.1238" lon="0.38546">
        <ele>585.1</ele>
        <time>2015-06-27T09:49:11Z</time>
      </trkpt>
      <trkpt lat="43.12379" lon="0.38543">
        <ele>584.62</ele>
        <time>2015-06-27T09:49:12Z</time>
      </trkpt>
      <trkpt lat="43.12378" lon="0.3854">
        <ele>584.62</ele>
        <time>2015-06-27T09:49:13Z</time>
      </trkpt>
      <trkpt lat="43.12378" lon="0.38538">
        <ele>584.62</ele>
        <time>2015-06-27T09:49:14Z</time>
      </trkpt>
      <trkpt lat="43.12377" lon="0.38536">
        <ele>585.1</ele>
        <time>2015-06-27T09:49:15Z</time>
      </trkpt>
      <trkpt lat="43.12376" lon="0.38536">
        <ele>585.1</ele>
        <time>2015-06-27T09:49:16Z</time>
      </trkpt>
      <trkpt lat="43.12374" lon="0.38534">
        <ele>585.1</ele>
        <time>2015-06-27T09:49:20Z</time>
      </trkpt>
      <trkpt lat="43.12379" lon="0.38518">
        <ele>585.58</ele>
        <time>2015-06-27T09:49:27Z</time>
      </trkpt>
      <trkpt lat="43.12387" lon="0.38501">
        <ele>586.06</ele>
        <time>2015-06-27T09:49:34Z</time>
      </trkpt>
      <trkpt lat="43.12391" lon="0.38484">
        <ele>586.06</ele>
        <time>2015-06-27T09:49:41Z</time>
      </trkpt>
      <trkpt lat="43.12393" lon="0.38474">
        <ele>586.54</ele>
        <time>2015-06-27T09:49:46Z</time>
      </trkpt>
      <trkpt lat="43.12393" lon="0.38472">
        <ele>586.54</ele>
        <time>2015-06-27T09:49:47Z</time>
      </trkpt>
      <trkpt lat="43.12394" lon="0.3847">
        <ele>586.54</ele>
        <time>2015-06-27T09:49:48Z</time>
      </trkpt>
      <trkpt lat="43.12393" lon="0.38468">
        <ele>586.54</ele>
        <time>2015-06-27T09:49:49Z</time>
      </trkpt>
      <trkpt lat="43.12393" lon="0.38465">
        <ele>587.02</ele>
        <time>2015-06-27T09:49:50Z</time>
      </trkpt>
      <trkpt lat="43.12394" lon="0.38463">
        <ele>587.02</ele>
        <time>2015-06-27T09:49:51Z</time>
      </trkpt>
      <trkpt lat="43.12394" lon="0.38461">
        <ele>586.54</ele>
        <time>2015-06-27T09:49:52Z</time>
      </trkpt>
      <trkpt lat="43.12394" lon="0.38459">
        <ele>587.5</ele>
        <time>2015-06-27T09:49:53Z</time>
      </trkpt>
      <trkpt lat="43.12394" lon="0.38457">
        <ele>587.02</ele>
        <time>2015-06-27T09:49:54Z</time>
      </trkpt>
      <trkpt lat="43.12394" lon="0.38454">
        <ele>587.02</ele>
        <time>2015-06-27T09:49:55Z</time>
      </trkpt>
      <trkpt lat="43.12395" lon="0.38452">
        <ele>587.02</ele>
        <time>2015-06-27T09:49:56Z</time>
      </trkpt>
      <trkpt lat="43.12395" lon="0.3845">
        <ele>587.02</ele>
        <time>2015-06-27T09:49:57Z</time>
      </trkpt>
      <trkpt lat="43.12395" lon="0.38448">
        <ele>587.02</ele>
        <time>2015-06-27T09:49:58Z</time>
      </trkpt>
      <trkpt lat="43.12394" lon="0.38446">
        <ele>587.02</ele>
        <time>2015-06-27T09:49:59Z</time>
      </trkpt>
      <trkpt lat="43.12397" lon="0.3843">
        <ele>587.5</ele>
        <time>2015-06-27T09:50:05Z</time>
      </trkpt>
      <trkpt lat="43.12398" lon="0.38421">
        <ele>587.98</ele>
        <time>2015-06-27T09:50:11Z</time>
      </trkpt>
      <trkpt lat="43.12398" lon="0.38418">
        <ele>587.98</ele>
        <time>2015-06-27T09:50:18Z</time>
      </trkpt>
      <trkpt lat="43.12398" lon="0.38416">
        <ele>587.98</ele>
        <time>2015-06-27T09:50:19Z</time>
      </trkpt>
      <trkpt lat="43.12398" lon="0.38413">
        <ele>587.98</ele>
        <time>2015-06-27T09:50:20Z</time>
      </trkpt>
      <trkpt lat="43.12399" lon="0.38411">
        <ele>587.98</ele>
        <time>2015-06-27T09:50:21Z</time>
      </trkpt>
      <trkpt lat="43.12399" lon="0.38409">
        <ele>587.98</ele>
        <time>2015-06-27T09:50:22Z</time>
      </trkpt>
      <trkpt lat="43.124" lon="0.38406">
        <ele>587.98</ele>
        <time>2015-06-27T09:50:23Z</time>
      </trkpt>
      <trkpt lat="43.12403" lon="0.38381">
        <ele>588.95</ele>
        <time>2015-06-27T09:50:33Z</time>
      </trkpt>
      <trkpt lat="43.12401" lon="0.38369">
        <ele>589.91</ele>
        <time>2015-06-27T09:50:41Z</time>
      </trkpt>
      <trkpt lat="43.12402" lon="0.38366">
        <ele>589.91</ele>
        <time>2015-06-27T09:50:45Z</time>
      </trkpt>
      <trkpt lat="43.12404" lon="0.38364">
        <ele>589.91</ele>
        <time>2015-06-27T09:50:46Z</time>
      </trkpt>
      <trkpt lat="43.12405" lon="0.38364">
        <ele>589.91</ele>
        <time>2015-06-27T09:50:47Z</time>
      </trkpt>
      <trkpt lat="43.12407" lon="0.38364">
        <ele>589.91</ele>
        <time>2015-06-27T09:50:48Z</time>
      </trkpt>
      <trkpt lat="43.12408" lon="0.38365">
        <ele>589.91</ele>
        <time>2015-06-27T09:50:49Z</time>
      </trkpt>
      <trkpt lat="43.1241" lon="0.38365">
        <ele>589.91</ele>
        <time>2015-06-27T09:50:50Z</time>
      </trkpt>
      <trkpt lat="43.12412" lon="0.38365">
        <ele>589.91</ele>
        <time>2015-06-27T09:50:51Z</time>
      </trkpt>
      <trkpt lat="43.12415" lon="0.38366">
        <ele>589.91</ele>
        <time>2015-06-27T09:50:52Z</time>
      </trkpt>
      <trkpt lat="43.12427" lon="0.38372">
        <ele>589.43</ele>
        <time>2015-06-27T09:50:59Z</time>
      </trkpt>
      <trkpt lat="43.12438" lon="0.38383">
        <ele>589.43</ele>
        <time>2015-06-27T09:51:08Z</time>
      </trkpt>
      <trkpt lat="43.12462" lon="0.38392">
        <ele>588.95</ele>
        <time>2015-06-27T09:51:18Z</time>
      </trkpt>
      <trkpt lat="43.12476" lon="0.38401">
        <ele>589.43</ele>
        <time>2015-06-27T09:51:26Z</time>
      </trkpt>
      <trkpt lat="43.12495" lon="0.38408">
        <ele>588.95</ele>
        <time>2015-06-27T09:51:33Z</time>
      </trkpt>
      <trkpt lat="43.12505" lon="0.38424">
        <ele>588.95</ele>
        <time>2015-06-27T09:51:38Z</time>
      </trkpt>
      <trkpt lat="43.12508" lon="0.38425">
        <ele>588.95</ele>
        <time>2015-06-27T09:51:39Z</time>
      </trkpt>
      <trkpt lat="43.12511" lon="0.38424">
        <ele>588.95</ele>
        <time>2015-06-27T09:51:40Z</time>
      </trkpt>
      <trkpt lat="43.12513" lon="0.38422">
        <ele>588.46</ele>
        <time>2015-06-27T09:51:41Z</time>
      </trkpt>
      <trkpt lat="43.12515" lon="0.38418">
        <ele>588.46</ele>
        <time>2015-06-27T09:51:42Z</time>
      </trkpt>
      <trkpt lat="43.12517" lon="0.38415">
        <ele>588.95</ele>
        <time>2015-06-27T09:51:43Z</time>
      </trkpt>
      <trkpt lat="43.1252" lon="0.38409">
        <ele>588.95</ele>
        <time>2015-06-27T09:51:44Z</time>
      </trkpt>
      <trkpt lat="43.12522" lon="0.38405">
        <ele>588.95</ele>
        <time>2015-06-27T09:51:45Z</time>
      </trkpt>
      <trkpt lat="43.12525" lon="0.38401">
        <ele>588.95</ele>
        <time>2015-06-27T09:51:46Z</time>
      </trkpt>
      <trkpt lat="43.12527" lon="0.38397">
        <ele>588.95</ele>
        <time>2015-06-27T09:51:47Z</time>
      </trkpt>
      <trkpt lat="43.12528" lon="0.38394">
        <ele>588.95</ele>
        <time>2015-06-27T09:51:48Z</time>
      </trkpt>
      <trkpt lat="43.12529" lon="0.3839">
        <ele>588.95</ele>
        <time>2015-06-27T09:51:49Z</time>
      </trkpt>
      <trkpt lat="43.12539" lon="0.38359">
        <ele>589.91</ele>
        <time>2015-06-27T09:51:57Z</time>
      </trkpt>
      <trkpt lat="43.12552" lon="0.38341">
        <ele>589.91</ele>
        <time>2015-06-27T09:52:04Z</time>
      </trkpt>
      <trkpt lat="43.12553" lon="0.38341">
        <ele>589.91</ele>
        <time>2015-06-27T09:52:05Z</time>
      </trkpt>
      <trkpt lat="43.1257" lon="0.3835">
        <ele>589.43</ele>
        <time>2015-06-27T09:52:12Z</time>
      </trkpt>
      <trkpt lat="43.1258" lon="0.38349">
        <ele>589.91</ele>
        <time>2015-06-27T09:52:14Z</time>
      </trkpt>
      <trkpt lat="43.12583" lon="0.38347">
        <ele>589.91</ele>
        <time>2015-06-27T09:52:15Z</time>
      </trkpt>
      <trkpt lat="43.12585" lon="0.38343">
        <ele>589.91</ele>
        <time>2015-06-27T09:52:16Z</time>
      </trkpt>
      <trkpt lat="43.12587" lon="0.38338">
        <ele>589.43</ele>
        <time>2015-06-27T09:52:17Z</time>
      </trkpt>
      <trkpt lat="43.12588" lon="0.38334">
        <ele>589.91</ele>
        <time>2015-06-27T09:52:18Z</time>
      </trkpt>
      <trkpt lat="43.12591" lon="0.38308">
        <ele>589.43</ele>
        <time>2015-06-27T09:52:24Z</time>
      </trkpt>
      <trkpt lat="43.12594" lon="0.38289">
        <ele>589.43</ele>
        <time>2015-06-27T09:52:30Z</time>
      </trkpt>
      <trkpt lat="43.126" lon="0.38276">
        <ele>589.43</ele>
        <time>2015-06-27T09:52:35Z</time>
      </trkpt>
      <trkpt lat="43.12602" lon="0.38275">
        <ele>589.43</ele>
        <time>2015-06-27T09:52:36Z</time>
      </trkpt>
      <trkpt lat="43.12604" lon="0.38273">
        <ele>589.43</ele>
        <time>2015-06-27T09:52:37Z</time>
      </trkpt>
      <trkpt lat="43.1261" lon="0.38262">
        <ele>588.46</ele>
        <time>2015-06-27T09:52:41Z</time>
      </trkpt>
      <trkpt lat="43.12612" lon="0.38261">
        <ele>588.46</ele>
        <time>2015-06-27T09:52:42Z</time>
      </trkpt>
      <trkpt lat="43.12614" lon="0.38261">
        <ele>588.46</ele>
        <time>2015-06-27T09:52:43Z</time>
      </trkpt>
      <trkpt lat="43.12616" lon="0.38261">
        <ele>588.46</ele>
        <time>2015-06-27T09:52:44Z</time>
      </trkpt>
      <trkpt lat="43.12619" lon="0.38261">
        <ele>588.46</ele>
        <time>2015-06-27T09:52:45Z</time>
      </trkpt>
      <trkpt lat="43.12638" lon="0.38266">
        <ele>587.98</ele>
        <time>2015-06-27T09:52:51Z</time>
      </trkpt>
      <trkpt lat="43.1264" lon="0.38266">
        <ele>587.98</ele>
        <time>2015-06-27T09:52:52Z</time>
      </trkpt>
      <trkpt lat="43.12642" lon="0.38263">
        <ele>587.98</ele>
        <time>2015-06-27T09:52:53Z</time>
      </trkpt>
      <trkpt lat="43.12644" lon="0.38262">
        <ele>587.98</ele>
        <time>2015-06-27T09:52:54Z</time>
      </trkpt>
      <trkpt lat="43.12646" lon="0.38261">
        <ele>587.98</ele>
        <time>2015-06-27T09:52:55Z</time>
      </trkpt>
      <trkpt lat="43.12648" lon="0.38261">
        <ele>587.98</ele>
        <time>2015-06-27T09:52:56Z</time>
      </trkpt>
      <trkpt lat="43.12651" lon="0.3826">
        <ele>587.98</ele>
        <time>2015-06-27T09:53:01Z</time>
      </trkpt>
      <trkpt lat="43.12652" lon="0.38262">
        <ele>587.98</ele>
        <time>2015-06-27T09:53:09Z</time>
      </trkpt>
      <trkpt lat="43.12653" lon="0.38263">
        <ele>587.98</ele>
        <time>2015-06-27T09:53:19Z</time>
      </trkpt>
      <trkpt lat="43.12655" lon="0.38265">
        <ele>587.98</ele>
        <time>2015-06-27T09:53:27Z</time>
      </trkpt>
      <trkpt lat="43.12656" lon="0.38266">
        <ele>587.98</ele>
        <time>2015-06-27T09:53:42Z</time>
      </trkpt>
      <trkpt lat="43.12655" lon="0.38266">
        <ele>588.46</ele>
        <time>2015-06-27T09:53:59Z</time>
      </trkpt>
      <trkpt lat="43.12654" lon="0.38266">
        <ele>588.46</ele>
        <time>2015-06-27T09:54:15Z</time>
      </trkpt>
      <trkpt lat="43.12655" lon="0.38265">
        <ele>588.46</ele>
        <time>2015-06-27T09:54:28Z</time>
      </trkpt>
      <trkpt lat="43.12655" lon="0.38265">
        <ele>588.46</ele>
        <time>2015-06-27T09:54:46Z</time>
      </trkpt>
      <trkpt lat="43.12656" lon="0.38264">
        <ele>588.46</ele>
        <time>2015-06-27T09:55:04Z</time>
      </trkpt>
      <trkpt lat="43.12657" lon="0.38265">
        <ele>588.46</ele>
        <time>2015-06-27T09:55:22Z</time>
      </trkpt>
      <trkpt lat="43.12657" lon="0.38265">
        <ele>588.95</ele>
        <time>2015-06-27T09:55:35Z</time>
      </trkpt>
      <trkpt lat="43.12657" lon="0.38265">
        <ele>588.46</ele>
        <time>2015-06-27T09:55:43Z</time>
      </trkpt>
      <trkpt lat="43.12655" lon="0.38265">
        <ele>588.46</ele>
        <time>2015-06-27T09:55:50Z</time>
      </trkpt>
      <trkpt lat="43.12656" lon="0.38262">
        <ele>588.46</ele>
        <time>2015-06-27T09:55:57Z</time>
      </trkpt>
      <trkpt lat="43.12656" lon="0.38257">
        <ele>588.46</ele>
        <time>2015-06-27T09:56:08Z</time>
      </trkpt>
      <trkpt lat="43.12656" lon="0.38258">
        <ele>588.46</ele>
        <time>2015-06-27T09:56:22Z</time>
      </trkpt>
      <trkpt lat="43.12656" lon="0.38261">
        <ele>588.46</ele>
        <time>2015-06-27T09:56:35Z</time>
      </trkpt>
      <trkpt lat="43.12656" lon="0.38264">
        <ele>588.46</ele>
        <time>2015-06-27T09:56:50Z</time>
      </trkpt>
      <trkpt lat="43.12655" lon="0.3827">
        <ele>588.46</ele>
        <time>2015-06-27T09:56:59Z</time>
      </trkpt>
      <trkpt lat="43.12656" lon="0.38274">
        <ele>588.46</ele>
        <time>2015-06-27T09:57:17Z</time>
      </trkpt>
      <trkpt lat="43.12654" lon="0.38279">
        <ele>588.95</ele>
        <time>2015-06-27T09:57:30Z</time>
      </trkpt>
      <trkpt lat="43.12653" lon="0.3828">
        <ele>588.95</ele>
        <time>2015-06-27T09:57:46Z</time>
      </trkpt>
      <trkpt lat="43.12652" lon="0.38281">
        <ele>588.95</ele>
        <time>2015-06-27T09:58:06Z</time>
      </trkpt>
      <trkpt lat="43.12651" lon="0.38287">
        <ele>588.95</ele>
        <time>2015-06-27T09:58:25Z</time>
      </trkpt>
      <trkpt lat="43.12651" lon="0.38287">
        <ele>588.95</ele>
        <time>2015-06-27T09:58:40Z</time>
      </trkpt>
      <trkpt lat="43.12651" lon="0.38287">
        <ele>588.95</ele>
        <time>2015-06-27T09:58:49Z</time>
      </trkpt>
      <trkpt lat="43.12659" lon="0.38254">
        <ele>585.1</ele>
        <time>2015-06-27T11:08:12Z</time>
      </trkpt>
      <trkpt lat="43.12659" lon="0.38256">
        <ele>585.1</ele>
        <time>2015-06-27T11:08:13Z</time>
      </trkpt>
      <trkpt lat="43.12664" lon="0.38261">
        <ele>585.1</ele>
        <time>2015-06-27T11:08:29Z</time>
      </trkpt>
      <trkpt lat="43.12665" lon="0.38261">
        <ele>585.1</ele>
        <time>2015-06-27T11:08:44Z</time>
      </trkpt>
      <trkpt lat="43.12661" lon="0.3826">
        <ele>587.98</ele>
        <time>2015-06-27T11:09:01Z</time>
      </trkpt>
      <trkpt lat="43.1266" lon="0.38259">
        <ele>590.87</ele>
        <time>2015-06-27T11:09:10Z</time>
      </trkpt>
      <trkpt lat="43.12659" lon="0.38259">
        <ele>594.23</ele>
        <time>2015-06-27T11:09:21Z</time>
      </trkpt>
      <trkpt lat="43.12659" lon="0.38261">
        <ele>597.12</ele>
        <time>2015-06-27T11:09:38Z</time>
      </trkpt>
      <trkpt lat="43.12659" lon="0.38261">
        <ele>597.6</ele>
        <time>2015-06-27T11:09:47Z</time>
      </trkpt>
      <trkpt lat="43.12661" lon="0.38261">
        <ele>597.6</ele>
        <time>2015-06-27T11:09:57Z</time>
      </trkpt>
      <trkpt lat="43.12659" lon="0.38261">
        <ele>597.6</ele>
        <time>2015-06-27T11:10:07Z</time>
      </trkpt>
      <trkpt lat="43.12658" lon="0.38261">
        <ele>597.6</ele>
        <time>2015-06-27T11:10:14Z</time>
      </trkpt>
      <trkpt lat="43.12659" lon="0.3826">
        <ele>597.6</ele>
        <time>2015-06-27T11:10:18Z</time>
      </trkpt>
      <trkpt lat="43.12659" lon="0.38265">
        <ele>597.6</ele>
        <time>2015-06-27T11:10:23Z</time>
      </trkpt>
      <trkpt lat="43.12652" lon="0.38262">
        <ele>598.08</ele>
        <time>2015-06-27T11:10:28Z</time>
      </trkpt>
      <trkpt lat="43.1265" lon="0.38261">
        <ele>597.6</ele>
        <time>2015-06-27T11:10:30Z</time>
      </trkpt>
      <trkpt lat="43.12639" lon="0.38256">
        <ele>597.6</ele>
        <time>2015-06-27T11:10:38Z</time>
      </trkpt>
      <trkpt lat="43.12625" lon="0.38253">
        <ele>598.08</ele>
        <time>2015-06-27T11:10:46Z</time>
      </trkpt>
      <trkpt lat="43.1262" lon="0.38253">
        <ele>598.08</ele>
        <time>2015-06-27T11:10:49Z</time>
      </trkpt>
      <trkpt lat="43.12605" lon="0.3825">
        <ele>598.56</ele>
        <time>2015-06-27T11:10:57Z</time>
      </trkpt>
      <trkpt lat="43.12591" lon="0.38248">
        <ele>599.04</ele>
        <time>2015-06-27T11:11:05Z</time>
      </trkpt>
      <trkpt lat="43.12575" lon="0.38243">
        <ele>599.52</ele>
        <time>2015-06-27T11:11:15Z</time>
      </trkpt>
      <trkpt lat="43.12561" lon="0.38239">
        <ele>600</ele>
        <time>2015-06-27T11:11:24Z</time>
      </trkpt>
      <trkpt lat="43.12553" lon="0.38242">
        <ele>600</ele>
        <time>2015-06-27T11:11:29Z</time>
      </trkpt>
      <trkpt lat="43.1255" lon="0.3825">
        <ele>600</ele>
        <time>2015-06-27T11:11:33Z</time>
      </trkpt>
      <trkpt lat="43.12549" lon="0.38273">
        <ele>600</ele>
        <time>2015-06-27T11:11:42Z</time>
      </trkpt>
      <trkpt lat="43.12549" lon="0.38294">
        <ele>600</ele>
        <time>2015-06-27T11:11:50Z</time>
      </trkpt>
      <trkpt lat="43.1255" lon="0.38317">
        <ele>599.52</ele>
        <time>2015-06-27T11:11:59Z</time>
      </trkpt>
      <trkpt lat="43.12548" lon="0.38336">
        <ele>599.52</ele>
        <time>2015-06-27T11:12:06Z</time>
      </trkpt>
      <trkpt lat="43.12542" lon="0.38358">
        <ele>599.04</ele>
        <time>2015-06-27T11:12:12Z</time>
      </trkpt>
      <trkpt lat="43.12527" lon="0.38398">
        <ele>598.08</ele>
        <time>2015-06-27T11:12:22Z</time>
      </trkpt>
      <trkpt lat="43.1252" lon="0.38402">
        <ele>598.08</ele>
        <time>2015-06-27T11:12:24Z</time>
      </trkpt>
      <trkpt lat="43.12511" lon="0.38427">
        <ele>597.6</ele>
        <time>2015-06-27T11:12:30Z</time>
      </trkpt>
      <trkpt lat="43.12493" lon="0.3845">
        <ele>597.12</ele>
        <time>2015-06-27T11:12:36Z</time>
      </trkpt>
      <trkpt lat="43.1249" lon="0.38454">
        <ele>596.64</ele>
        <time>2015-06-27T11:12:37Z</time>
      </trkpt>
      <trkpt lat="43.12486" lon="0.38458">
        <ele>596.64</ele>
        <time>2015-06-27T11:12:38Z</time>
      </trkpt>
      <trkpt lat="43.12444" lon="0.38492">
        <ele>595.19</ele>
        <time>2015-06-27T11:12:48Z</time>
      </trkpt>
      <trkpt lat="43.12408" lon="0.3852">
        <ele>594.23</ele>
        <time>2015-06-27T11:12:56Z</time>
      </trkpt>
      <trkpt lat="43.12372" lon="0.38549">
        <ele>593.75</ele>
        <time>2015-06-27T11:13:05Z</time>
      </trkpt>
      <trkpt lat="43.12371" lon="0.38553">
        <ele>593.75</ele>
        <time>2015-06-27T11:13:10Z</time>
      </trkpt>
      <trkpt lat="43.1237" lon="0.38554">
        <ele>593.75</ele>
        <time>2015-06-27T11:13:11Z</time>
      </trkpt>
      <trkpt lat="43.12369" lon="0.38555">
        <ele>593.75</ele>
        <time>2015-06-27T11:13:12Z</time>
      </trkpt>
      <trkpt lat="43.12367" lon="0.38556">
        <ele>593.75</ele>
        <time>2015-06-27T11:13:13Z</time>
      </trkpt>
      <trkpt lat="43.12365" lon="0.38558">
        <ele>593.75</ele>
        <time>2015-06-27T11:13:14Z</time>
      </trkpt>
      <trkpt lat="43.12362" lon="0.3856">
        <ele>593.75</ele>
        <time>2015-06-27T11:13:15Z</time>
      </trkpt>
      <trkpt lat="43.1236" lon="0.38561">
        <ele>593.75</ele>
        <time>2015-06-27T11:13:16Z</time>
      </trkpt>
      <trkpt lat="43.12357" lon="0.38563">
        <ele>593.75</ele>
        <time>2015-06-27T11:13:17Z</time>
      </trkpt>
      <trkpt lat="43.12343" lon="0.38581">
        <ele>593.27</ele>
        <time>2015-06-27T11:13:23Z</time>
      </trkpt>
      <trkpt lat="43.12324" lon="0.38595">
        <ele>593.27</ele>
        <time>2015-06-27T11:13:30Z</time>
      </trkpt>
      <trkpt lat="43.12306" lon="0.38616">
        <ele>592.79</ele>
        <time>2015-06-27T11:13:39Z</time>
      </trkpt>
      <trkpt lat="43.1229" lon="0.38635">
        <ele>592.31</ele>
        <time>2015-06-27T11:13:48Z</time>
      </trkpt>
      <trkpt lat="43.12276" lon="0.38663">
        <ele>590.87</ele>
        <time>2015-06-27T11:13:55Z</time>
      </trkpt>
      <trkpt lat="43.12266" lon="0.38685">
        <ele>590.39</ele>
        <time>2015-06-27T11:13:59Z</time>
      </trkpt>
      <trkpt lat="43.12259" lon="0.38705">
        <ele>589.43</ele>
        <time>2015-06-27T11:14:02Z</time>
      </trkpt>
      <trkpt lat="43.12257" lon="0.38713">
        <ele>588.95</ele>
        <time>2015-06-27T11:14:03Z</time>
      </trkpt>
      <trkpt lat="43.12255" lon="0.38728">
        <ele>589.43</ele>
        <time>2015-06-27T11:14:05Z</time>
      </trkpt>
      <trkpt lat="43.12254" lon="0.3874">
        <ele>587.98</ele>
        <time>2015-06-27T11:14:07Z</time>
      </trkpt>
      <trkpt lat="43.12253" lon="0.38745">
        <ele>587.98</ele>
        <time>2015-06-27T11:14:08Z</time>
      </trkpt>
      <trkpt lat="43.12249" lon="0.38757">
        <ele>587.98</ele>
        <time>2015-06-27T11:14:12Z</time>
      </trkpt>
      <trkpt lat="43.12248" lon="0.3876">
        <ele>587.5</ele>
        <time>2015-06-27T11:14:15Z</time>
      </trkpt>
      <trkpt lat="43.12246" lon="0.38762">
        <ele>587.98</ele>
        <time>2015-06-27T11:14:16Z</time>
      </trkpt>
      <trkpt lat="43.12244" lon="0.38763">
        <ele>587.5</ele>
        <time>2015-06-27T11:14:17Z</time>
      </trkpt>
      <trkpt lat="43.12236" lon="0.38765">
        <ele>587.02</ele>
        <time>2015-06-27T11:14:19Z</time>
      </trkpt>
      <trkpt lat="43.12234" lon="0.38769">
        <ele>587.02</ele>
        <time>2015-06-27T11:14:20Z</time>
      </trkpt>
      <trkpt lat="43.12233" lon="0.38774">
        <ele>587.02</ele>
        <time>2015-06-27T11:14:21Z</time>
      </trkpt>
      <trkpt lat="43.12233" lon="0.38779">
        <ele>586.54</ele>
        <time>2015-06-27T11:14:22Z</time>
      </trkpt>
      <trkpt lat="43.12234" lon="0.38784">
        <ele>586.54</ele>
        <time>2015-06-27T11:14:23Z</time>
      </trkpt>
      <trkpt lat="43.12235" lon="0.38788">
        <ele>586.54</ele>
        <time>2015-06-27T11:14:24Z</time>
      </trkpt>
      <trkpt lat="43.12237" lon="0.38792">
        <ele>587.02</ele>
        <time>2015-06-27T11:14:25Z</time>
      </trkpt>
      <trkpt lat="43.12237" lon="0.38797">
        <ele>586.54</ele>
        <time>2015-06-27T11:14:26Z</time>
      </trkpt>
      <trkpt lat="43.12238" lon="0.38801">
        <ele>586.54</ele>
        <time>2015-06-27T11:14:27Z</time>
      </trkpt>
      <trkpt lat="43.12238" lon="0.38805">
        <ele>587.02</ele>
        <time>2015-06-27T11:14:28Z</time>
      </trkpt>
      <trkpt lat="43.1224" lon="0.38821">
        <ele>587.5</ele>
        <time>2015-06-27T11:14:32Z</time>
      </trkpt>
      <trkpt lat="43.12239" lon="0.38825">
        <ele>587.5</ele>
        <time>2015-06-27T11:14:33Z</time>
      </trkpt>
      <trkpt lat="43.12235" lon="0.38855">
        <ele>588.46</ele>
        <time>2015-06-27T11:14:41Z</time>
      </trkpt>
      <trkpt lat="43.12229" lon="0.38895">
        <ele>589.43</ele>
        <time>2015-06-27T11:14:53Z</time>
      </trkpt>
      <trkpt lat="43.12226" lon="0.38928">
        <ele>590.39</ele>
        <time>2015-06-27T11:15:03Z</time>
      </trkpt>
      <trkpt lat="43.12224" lon="0.3894">
        <ele>590.87</ele>
        <time>2015-06-27T11:15:07Z</time>
      </trkpt>
      <trkpt lat="43.12221" lon="0.38967">
        <ele>591.83</ele>
        <time>2015-06-27T11:15:15Z</time>
      </trkpt>
      <trkpt lat="43.12219" lon="0.38996">
        <ele>592.79</ele>
        <time>2015-06-27T11:15:24Z</time>
      </trkpt>
      <trkpt lat="43.12215" lon="0.39026">
        <ele>593.75</ele>
        <time>2015-06-27T11:15:34Z</time>
      </trkpt>
      <trkpt lat="43.12212" lon="0.39043">
        <ele>594.71</ele>
        <time>2015-06-27T11:15:41Z</time>
      </trkpt>
      <trkpt lat="43.12208" lon="0.39068">
        <ele>596.15</ele>
        <time>2015-06-27T11:15:51Z</time>
      </trkpt>
      <trkpt lat="43.12206" lon="0.39082">
        <ele>597.12</ele>
        <time>2015-06-27T11:15:59Z</time>
      </trkpt>
      <trkpt lat="43.12206" lon="0.39083">
        <ele>598.08</ele>
        <time>2015-06-27T11:16:06Z</time>
      </trkpt>
      <trkpt lat="43.12204" lon="0.39084">
        <ele>597.12</ele>
        <time>2015-06-27T11:16:07Z</time>
      </trkpt>
      <trkpt lat="43.12204" lon="0.39087">
        <ele>597.12</ele>
        <time>2015-06-27T11:16:08Z</time>
      </trkpt>
      <trkpt lat="43.12204" lon="0.39089">
        <ele>597.12</ele>
        <time>2015-06-27T11:16:09Z</time>
      </trkpt>
      <trkpt lat="43.12205" lon="0.39091">
        <ele>597.6</ele>
        <time>2015-06-27T11:16:10Z</time>
      </trkpt>
      <trkpt lat="43.12206" lon="0.39093">
        <ele>597.6</ele>
        <time>2015-06-27T11:16:11Z</time>
      </trkpt>
      <trkpt lat="43.12206" lon="0.39096">
        <ele>598.08</ele>
        <time>2015-06-27T11:16:12Z</time>
      </trkpt>
      <trkpt lat="43.12206" lon="0.39098">
        <ele>598.08</ele>
        <time>2015-06-27T11:16:13Z</time>
      </trkpt>
      <trkpt lat="43.12205" lon="0.39101">
        <ele>598.08</ele>
        <time>2015-06-27T11:16:14Z</time>
      </trkpt>
      <trkpt lat="43.12201" lon="0.39125">
        <ele>599.52</ele>
        <time>2015-06-27T11:16:24Z</time>
      </trkpt>
      <trkpt lat="43.12198" lon="0.39141">
        <ele>600.48</ele>
        <time>2015-06-27T11:16:32Z</time>
      </trkpt>
      <trkpt lat="43.12196" lon="0.3916">
        <ele>601.44</ele>
        <time>2015-06-27T11:16:40Z</time>
      </trkpt>
      <trkpt lat="43.12192" lon="0.39183">
        <ele>602.88</ele>
        <time>2015-06-27T11:16:50Z</time>
      </trkpt>
      <trkpt lat="43.12189" lon="0.39206">
        <ele>603.85</ele>
        <time>2015-06-27T11:17:00Z</time>
      </trkpt>
      <trkpt lat="43.12188" lon="0.39226">
        <ele>604.81</ele>
        <time>2015-06-27T11:17:09Z</time>
      </trkpt>
      <trkpt lat="43.12184" lon="0.3925">
        <ele>605.29</ele>
        <time>2015-06-27T11:17:19Z</time>
      </trkpt>
      <trkpt lat="43.12181" lon="0.39275">
        <ele>606.73</ele>
        <time>2015-06-27T11:17:30Z</time>
      </trkpt>
      <trkpt lat="43.12177" lon="0.39298">
        <ele>607.21</ele>
        <time>2015-06-27T11:17:40Z</time>
      </trkpt>
      <trkpt lat="43.12173" lon="0.39327">
        <ele>608.17</ele>
        <time>2015-06-27T11:17:51Z</time>
      </trkpt>
      <trkpt lat="43.12171" lon="0.39347">
        <ele>609.13</ele>
        <time>2015-06-27T11:17:57Z</time>
      </trkpt>
      <trkpt lat="43.12169" lon="0.39366">
        <ele>609.13</ele>
        <time>2015-06-27T11:18:05Z</time>
      </trkpt>
      <trkpt lat="43.12167" lon="0.3937">
        <ele>609.61</ele>
        <time>2015-06-27T11:18:11Z</time>
      </trkpt>
      <trkpt lat="43.12167" lon="0.3937">
        <ele>609.61</ele>
        <time>2015-06-27T11:18:23Z</time>
      </trkpt>
      <trkpt lat="43.12167" lon="0.39374">
        <ele>609.13</ele>
        <time>2015-06-27T11:18:30Z</time>
      </trkpt>
      <trkpt lat="43.12164" lon="0.39396">
        <ele>610.09</ele>
        <time>2015-06-27T11:18:36Z</time>
      </trkpt>
      <trkpt lat="43.12161" lon="0.39431">
        <ele>610.57</ele>
        <time>2015-06-27T11:18:44Z</time>
      </trkpt>
      <trkpt lat="43.12158" lon="0.39462">
        <ele>610.57</ele>
        <time>2015-06-27T11:18:51Z</time>
      </trkpt>
      <trkpt lat="43.12151" lon="0.39509">
        <ele>611.06</ele>
        <time>2015-06-27T11:19:01Z</time>
      </trkpt>
      <trkpt lat="43.12143" lon="0.39566">
        <ele>611.54</ele>
        <time>2015-06-27T11:19:12Z</time>
      </trkpt>
      <trkpt lat="43.12136" lon="0.39618">
        <ele>611.54</ele>
        <time>2015-06-27T11:19:21Z</time>
      </trkpt>
      <trkpt lat="43.12129" lon="0.39672">
        <ele>611.54</ele>
        <time>2015-06-27T11:19:30Z</time>
      </trkpt>
      <trkpt lat="43.12123" lon="0.39727">
        <ele>611.54</ele>
        <time>2015-06-27T11:19:40Z</time>
      </trkpt>
      <trkpt lat="43.12114" lon="0.39787">
        <ele>611.06</ele>
        <time>2015-06-27T11:19:51Z</time>
      </trkpt>
      <trkpt lat="43.12105" lon="0.39822">
        <ele>611.06</ele>
        <time>2015-06-27T11:19:58Z</time>
      </trkpt>
      <trkpt lat="43.12104" lon="0.39827">
        <ele>611.06</ele>
        <time>2015-06-27T11:19:59Z</time>
      </trkpt>
      <trkpt lat="43.12104" lon="0.39833">
        <ele>611.06</ele>
        <time>2015-06-27T11:20:00Z</time>
      </trkpt>
      <trkpt lat="43.12105" lon="0.39846">
        <ele>610.57</ele>
        <time>2015-06-27T11:20:02Z</time>
      </trkpt>
      <trkpt lat="43.12104" lon="0.39852">
        <ele>610.57</ele>
        <time>2015-06-27T11:20:03Z</time>
      </trkpt>
      <trkpt lat="43.12096" lon="0.39929">
        <ele>609.13</ele>
        <time>2015-06-27T11:20:14Z</time>
      </trkpt>
      <trkpt lat="43.12083" lon="0.40013">
        <ele>606.73</ele>
        <time>2015-06-27T11:20:25Z</time>
      </trkpt>
      <trkpt lat="43.12077" lon="0.40062">
        <ele>605.77</ele>
        <time>2015-06-27T11:20:31Z</time>
      </trkpt>
      <trkpt lat="43.12075" lon="0.4007">
        <ele>606.25</ele>
        <time>2015-06-27T11:20:32Z</time>
      </trkpt>
      <trkpt lat="43.12072" lon="0.40077">
        <ele>605.77</ele>
        <time>2015-06-27T11:20:33Z</time>
      </trkpt>
      <trkpt lat="43.1207" lon="0.40084">
        <ele>605.77</ele>
        <time>2015-06-27T11:20:34Z</time>
      </trkpt>
      <trkpt lat="43.12067" lon="0.4009">
        <ele>606.25</ele>
        <time>2015-06-27T11:20:35Z</time>
      </trkpt>
      <trkpt lat="43.12064" lon="0.40096">
        <ele>606.25</ele>
        <time>2015-06-27T11:20:36Z</time>
      </trkpt>
      <trkpt lat="43.12062" lon="0.40103">
        <ele>605.77</ele>
        <time>2015-06-27T11:20:37Z</time>
      </trkpt>
      <trkpt lat="43.12063" lon="0.4011">
        <ele>606.25</ele>
        <time>2015-06-27T11:20:38Z</time>
      </trkpt>
      <trkpt lat="43.12064" lon="0.40117">
        <ele>606.25</ele>
        <time>2015-06-27T11:20:39Z</time>
      </trkpt>
      <trkpt lat="43.12066" lon="0.40123">
        <ele>605.77</ele>
        <time>2015-06-27T11:20:40Z</time>
      </trkpt>
      <trkpt lat="43.12067" lon="0.40129">
        <ele>605.77</ele>
        <time>2015-06-27T11:20:41Z</time>
      </trkpt>
      <trkpt lat="43.12067" lon="0.40136">
        <ele>605.77</ele>
        <time>2015-06-27T11:20:42Z</time>
      </trkpt>
      <trkpt lat="43.12067" lon="0.40142">
        <ele>605.77</ele>
        <time>2015-06-27T11:20:43Z</time>
      </trkpt>
      <trkpt lat="43.12058" lon="0.40203">
        <ele>604.33</ele>
        <time>2015-06-27T11:20:52Z</time>
      </trkpt>
      <trkpt lat="43.12049" lon="0.40276">
        <ele>603.36</ele>
        <time>2015-06-27T11:21:01Z</time>
      </trkpt>
      <trkpt lat="43.12046" lon="0.40292">
        <ele>603.36</ele>
        <time>2015-06-27T11:21:03Z</time>
      </trkpt>
      <trkpt lat="43.12044" lon="0.40299">
        <ele>603.36</ele>
        <time>2015-06-27T11:21:04Z</time>
      </trkpt>
      <trkpt lat="43.12042" lon="0.40307">
        <ele>603.85</ele>
        <time>2015-06-27T11:21:05Z</time>
      </trkpt>
      <trkpt lat="43.12038" lon="0.40321">
        <ele>603.85</ele>
        <time>2015-06-27T11:21:07Z</time>
      </trkpt>
      <trkpt lat="43.1203" lon="0.40389">
        <ele>604.81</ele>
        <time>2015-06-27T11:21:16Z</time>
      </trkpt>
      <trkpt lat="43.12025" lon="0.40423">
        <ele>605.29</ele>
        <time>2015-06-27T11:21:21Z</time>
      </trkpt>
      <trkpt lat="43.12025" lon="0.40429">
        <ele>605.29</ele>
        <time>2015-06-27T11:21:22Z</time>
      </trkpt>
      <trkpt lat="43.12022" lon="0.40462">
        <ele>605.77</ele>
        <time>2015-06-27T11:21:28Z</time>
      </trkpt>
      <trkpt lat="43.12021" lon="0.40467">
        <ele>605.77</ele>
        <time>2015-06-27T11:21:29Z</time>
      </trkpt>
      <trkpt lat="43.1202" lon="0.40473">
        <ele>606.25</ele>
        <time>2015-06-27T11:21:30Z</time>
      </trkpt>
      <trkpt lat="43.1202" lon="0.40478">
        <ele>606.25</ele>
        <time>2015-06-27T11:21:31Z</time>
      </trkpt>
      <trkpt lat="43.12019" lon="0.40484">
        <ele>606.25</ele>
        <time>2015-06-27T11:21:32Z</time>
      </trkpt>
      <trkpt lat="43.12013" lon="0.40535">
        <ele>607.21</ele>
        <time>2015-06-27T11:21:42Z</time>
      </trkpt>
      <trkpt lat="43.12009" lon="0.40563">
        <ele>607.69</ele>
        <time>2015-06-27T11:21:48Z</time>
      </trkpt>
      <trkpt lat="43.12004" lon="0.40601">
        <ele>608.17</ele>
        <time>2015-06-27T11:21:56Z</time>
      </trkpt>
      <trkpt lat="43.11997" lon="0.40646">
        <ele>608.65</ele>
        <time>2015-06-27T11:22:05Z</time>
      </trkpt>
      <trkpt lat="43.11991" lon="0.4069">
        <ele>609.61</ele>
        <time>2015-06-27T11:22:15Z</time>
      </trkpt>
      <trkpt lat="43.11986" lon="0.40731">
        <ele>610.09</ele>
        <time>2015-06-27T11:22:24Z</time>
      </trkpt>
      <trkpt lat="43.11981" lon="0.40767">
        <ele>611.06</ele>
        <time>2015-06-27T11:22:32Z</time>
      </trkpt>
      <trkpt lat="43.11975" lon="0.40812">
        <ele>611.54</ele>
        <time>2015-06-27T11:22:42Z</time>
      </trkpt>
      <trkpt lat="43.11972" lon="0.40844">
        <ele>612.5</ele>
        <time>2015-06-27T11:22:49Z</time>
      </trkpt>
      <trkpt lat="43.11966" lon="0.40887">
        <ele>612.5</ele>
        <time>2015-06-27T11:22:58Z</time>
      </trkpt>
      <trkpt lat="43.11961" lon="0.40923">
        <ele>612.98</ele>
        <time>2015-06-27T11:23:05Z</time>
      </trkpt>
      <trkpt lat="43.11956" lon="0.40959">
        <ele>612.98</ele>
        <time>2015-06-27T11:23:12Z</time>
      </trkpt>
      <trkpt lat="43.11952" lon="0.40988">
        <ele>612.5</ele>
        <time>2015-06-27T11:23:20Z</time>
      </trkpt>
      <trkpt lat="43.11948" lon="0.41009">
        <ele>612.5</ele>
        <time>2015-06-27T11:23:27Z</time>
      </trkpt>
      <trkpt lat="43.11947" lon="0.41011">
        <ele>612.02</ele>
        <time>2015-06-27T11:23:28Z</time>
      </trkpt>
      <trkpt lat="43.11947" lon="0.41013">
        <ele>612.5</ele>
        <time>2015-06-27T11:23:29Z</time>
      </trkpt>
      <trkpt lat="43.11948" lon="0.41016">
        <ele>612.02</ele>
        <time>2015-06-27T11:23:30Z</time>
      </trkpt>
      <trkpt lat="43.11948" lon="0.41019">
        <ele>612.5</ele>
        <time>2015-06-27T11:23:35Z</time>
      </trkpt>
      <trkpt lat="43.11949" lon="0.41019">
        <ele>612.5</ele>
        <time>2015-06-27T11:23:44Z</time>
      </trkpt>
      <trkpt lat="43.1195" lon="0.41018">
        <ele>612.5</ele>
        <time>2015-06-27T11:24:02Z</time>
      </trkpt>
      <trkpt lat="43.1195" lon="0.4102">
        <ele>612.5</ele>
        <time>2015-06-27T11:24:05Z</time>
      </trkpt>
      <trkpt lat="43.1195" lon="0.41022">
        <ele>612.5</ele>
        <time>2015-06-27T11:24:06Z</time>
      </trkpt>
      <trkpt lat="43.1195" lon="0.41024">
        <ele>612.5</ele>
        <time>2015-06-27T11:24:07Z</time>
      </trkpt>
      <trkpt lat="43.1195" lon="0.41026">
        <ele>612.5</ele>
        <time>2015-06-27T11:24:08Z</time>
      </trkpt>
      <trkpt lat="43.1195" lon="0.41029">
        <ele>612.5</ele>
        <time>2015-06-27T11:24:09Z</time>
      </trkpt>
      <trkpt lat="43.1195" lon="0.41032">
        <ele>612.02</ele>
        <time>2015-06-27T11:24:10Z</time>
      </trkpt>
      <trkpt lat="43.11949" lon="0.41036">
        <ele>612.02</ele>
        <time>2015-06-27T11:24:11Z</time>
      </trkpt>
      <trkpt lat="43.11944" lon="0.41077">
        <ele>611.54</ele>
        <time>2015-06-27T11:24:20Z</time>
      </trkpt>
      <trkpt lat="43.11939" lon="0.41107">
        <ele>611.06</ele>
        <time>2015-06-27T11:24:27Z</time>
      </trkpt>
      <trkpt lat="43.11933" lon="0.41148">
        <ele>610.57</ele>
        <time>2015-06-27T11:24:37Z</time>
      </trkpt>
      <trkpt lat="43.11925" lon="0.41189">
        <ele>610.09</ele>
        <time>2015-06-27T11:24:45Z</time>
      </trkpt>
      <trkpt lat="43.11922" lon="0.41194">
        <ele>610.09</ele>
        <time>2015-06-27T11:24:46Z</time>
      </trkpt>
      <trkpt lat="43.11918" lon="0.41198">
        <ele>610.09</ele>
        <time>2015-06-27T11:24:47Z</time>
      </trkpt>
      <trkpt lat="43.11909" lon="0.41207">
        <ele>610.09</ele>
        <time>2015-06-27T11:24:49Z</time>
      </trkpt>
      <trkpt lat="43.11906" lon="0.41212">
        <ele>610.09</ele>
        <time>2015-06-27T11:24:50Z</time>
      </trkpt>
      <trkpt lat="43.11904" lon="0.41219">
        <ele>610.09</ele>
        <time>2015-06-27T11:24:51Z</time>
      </trkpt>
      <trkpt lat="43.11904" lon="0.41227">
        <ele>610.09</ele>
        <time>2015-06-27T11:24:52Z</time>
      </trkpt>
      <trkpt lat="43.11906" lon="0.41235">
        <ele>610.09</ele>
        <time>2015-06-27T11:24:53Z</time>
      </trkpt>
      <trkpt lat="43.11908" lon="0.41242">
        <ele>609.61</ele>
        <time>2015-06-27T11:24:54Z</time>
      </trkpt>
      <trkpt lat="43.11911" lon="0.41249">
        <ele>609.61</ele>
        <time>2015-06-27T11:24:55Z</time>
      </trkpt>
      <trkpt lat="43.11913" lon="0.41256">
        <ele>609.61</ele>
        <time>2015-06-27T11:24:56Z</time>
      </trkpt>
      <trkpt lat="43.11915" lon="0.41263">
        <ele>609.13</ele>
        <time>2015-06-27T11:24:57Z</time>
      </trkpt>
      <trkpt lat="43.11915" lon="0.41271">
        <ele>609.13</ele>
        <time>2015-06-27T11:24:58Z</time>
      </trkpt>
      <trkpt lat="43.11908" lon="0.41339">
        <ele>608.17</ele>
        <time>2015-06-27T11:25:07Z</time>
      </trkpt>
      <trkpt lat="43.11896" lon="0.41415">
        <ele>607.69</ele>
        <time>2015-06-27T11:25:16Z</time>
      </trkpt>
      <trkpt lat="43.11886" lon="0.41499">
        <ele>606.25</ele>
        <time>2015-06-27T11:25:25Z</time>
      </trkpt>
      <trkpt lat="43.1187" lon="0.41617">
        <ele>604.81</ele>
        <time>2015-06-27T11:25:37Z</time>
      </trkpt>
      <trkpt lat="43.11856" lon="0.41717">
        <ele>604.33</ele>
        <time>2015-06-27T11:25:47Z</time>
      </trkpt>
      <trkpt lat="43.11844" lon="0.4181">
        <ele>603.36</ele>
        <time>2015-06-27T11:25:56Z</time>
      </trkpt>
      <trkpt lat="43.11828" lon="0.41934">
        <ele>600.48</ele>
        <time>2015-06-27T11:26:07Z</time>
      </trkpt>
      <trkpt lat="43.11817" lon="0.42023">
        <ele>600</ele>
        <time>2015-06-27T11:26:15Z</time>
      </trkpt>
      <trkpt lat="43.11803" lon="0.42123">
        <ele>600</ele>
        <time>2015-06-27T11:26:24Z</time>
      </trkpt>
      <trkpt lat="43.11791" lon="0.42223">
        <ele>599.52</ele>
        <time>2015-06-27T11:26:33Z</time>
      </trkpt>
      <trkpt lat="43.11779" lon="0.42312">
        <ele>600.48</ele>
        <time>2015-06-27T11:26:42Z</time>
      </trkpt>
      <trkpt lat="43.11767" lon="0.42395">
        <ele>601.44</ele>
        <time>2015-06-27T11:26:52Z</time>
      </trkpt>
      <trkpt lat="43.11756" lon="0.42486">
        <ele>601.44</ele>
        <time>2015-06-27T11:27:04Z</time>
      </trkpt>
      <trkpt lat="43.11749" lon="0.42547">
        <ele>601.92</ele>
        <time>2015-06-27T11:27:13Z</time>
      </trkpt>
      <trkpt lat="43.11749" lon="0.42554">
        <ele>601.92</ele>
        <time>2015-06-27T11:27:14Z</time>
      </trkpt>
      <trkpt lat="43.11749" lon="0.4256">
        <ele>601.92</ele>
        <time>2015-06-27T11:27:15Z</time>
      </trkpt>
      <trkpt lat="43.11749" lon="0.42567">
        <ele>601.92</ele>
        <time>2015-06-27T11:27:16Z</time>
      </trkpt>
      <trkpt lat="43.11748" lon="0.42573">
        <ele>601.92</ele>
        <time>2015-06-27T11:27:17Z</time>
      </trkpt>
      <trkpt lat="43.11747" lon="0.4258">
        <ele>601.92</ele>
        <time>2015-06-27T11:27:18Z</time>
      </trkpt>
      <trkpt lat="43.11741" lon="0.42631">
        <ele>602.4</ele>
        <time>2015-06-27T11:27:26Z</time>
      </trkpt>
      <trkpt lat="43.1174" lon="0.42649">
        <ele>602.4</ele>
        <time>2015-06-27T11:27:29Z</time>
      </trkpt>
      <trkpt lat="43.11739" lon="0.42655">
        <ele>602.88</ele>
        <time>2015-06-27T11:27:30Z</time>
      </trkpt>
      <trkpt lat="43.11738" lon="0.42661">
        <ele>602.88</ele>
        <time>2015-06-27T11:27:31Z</time>
      </trkpt>
      <trkpt lat="43.11734" lon="0.42696">
        <ele>603.36</ele>
        <time>2015-06-27T11:27:37Z</time>
      </trkpt>
      <trkpt lat="43.11734" lon="0.42702">
        <ele>603.36</ele>
        <time>2015-06-27T11:27:38Z</time>
      </trkpt>
      <trkpt lat="43.11735" lon="0.42707">
        <ele>603.36</ele>
        <time>2015-06-27T11:27:39Z</time>
      </trkpt>
      <trkpt lat="43.11738" lon="0.42712">
        <ele>603.36</ele>
        <time>2015-06-27T11:27:40Z</time>
      </trkpt>
      <trkpt lat="43.11741" lon="0.42715">
        <ele>603.36</ele>
        <time>2015-06-27T11:27:41Z</time>
      </trkpt>
      <trkpt lat="43.11744" lon="0.42718">
        <ele>603.36</ele>
        <time>2015-06-27T11:27:42Z</time>
      </trkpt>
      <trkpt lat="43.11747" lon="0.42719">
        <ele>603.36</ele>
        <time>2015-06-27T11:27:43Z</time>
      </trkpt>
      <trkpt lat="43.1175" lon="0.42721">
        <ele>602.88</ele>
        <time>2015-06-27T11:27:44Z</time>
      </trkpt>
      <trkpt lat="43.11752" lon="0.42723">
        <ele>603.36</ele>
        <time>2015-06-27T11:27:48Z</time>
      </trkpt>
      <trkpt lat="43.11752" lon="0.42724">
        <ele>603.36</ele>
        <time>2015-06-27T11:27:57Z</time>
      </trkpt>
      <trkpt lat="43.11753" lon="0.42724">
        <ele>603.36</ele>
        <time>2015-06-27T11:28:12Z</time>
      </trkpt>
      <trkpt lat="43.11753" lon="0.42724">
        <ele>603.36</ele>
        <time>2015-06-27T11:28:18Z</time>
      </trkpt>
      <trkpt lat="43.11756" lon="0.42726">
        <ele>603.36</ele>
        <time>2015-06-27T11:28:24Z</time>
      </trkpt>
      <trkpt lat="43.11758" lon="0.42729">
        <ele>602.88</ele>
        <time>2015-06-27T11:28:26Z</time>
      </trkpt>
      <trkpt lat="43.11773" lon="0.42746">
        <ele>602.4</ele>
        <time>2015-06-27T11:28:34Z</time>
      </trkpt>
      <trkpt lat="43.118" lon="0.42775">
        <ele>601.92</ele>
        <time>2015-06-27T11:28:45Z</time>
      </trkpt>
      <trkpt lat="43.11805" lon="0.42781">
        <ele>601.92</ele>
        <time>2015-06-27T11:28:49Z</time>
      </trkpt>
      <trkpt lat="43.11808" lon="0.42785">
        <ele>601.44</ele>
        <time>2015-06-27T11:28:57Z</time>
      </trkpt>
      <trkpt lat="43.11826" lon="0.42801">
        <ele>600.48</ele>
        <time>2015-06-27T11:29:02Z</time>
      </trkpt>
      <trkpt lat="43.11864" lon="0.42843">
        <ele>599.52</ele>
        <time>2015-06-27T11:29:11Z</time>
      </trkpt>
      <trkpt lat="43.11913" lon="0.42895">
        <ele>599.04</ele>
        <time>2015-06-27T11:29:22Z</time>
      </trkpt>
      <trkpt lat="43.11961" lon="0.42945">
        <ele>598.56</ele>
        <time>2015-06-27T11:29:32Z</time>
      </trkpt>
      <trkpt lat="43.12009" lon="0.42996">
        <ele>597.6</ele>
        <time>2015-06-27T11:29:42Z</time>
      </trkpt>
      <trkpt lat="43.12052" lon="0.43042">
        <ele>598.08</ele>
        <time>2015-06-27T11:29:52Z</time>
      </trkpt>
      <trkpt lat="43.12091" lon="0.43083">
        <ele>598.08</ele>
        <time>2015-06-27T11:30:02Z</time>
      </trkpt>
      <trkpt lat="43.1213" lon="0.43126">
        <ele>597.6</ele>
        <time>2015-06-27T11:30:13Z</time>
      </trkpt>
      <trkpt lat="43.12166" lon="0.43166">
        <ele>598.08</ele>
        <time>2015-06-27T11:30:23Z</time>
      </trkpt>
      <trkpt lat="43.12199" lon="0.43201">
        <ele>597.12</ele>
        <time>2015-06-27T11:30:32Z</time>
      </trkpt>
      <trkpt lat="43.12235" lon="0.43239">
        <ele>596.64</ele>
        <time>2015-06-27T11:30:41Z</time>
      </trkpt>
      <trkpt lat="43.12281" lon="0.43291">
        <ele>595.67</ele>
        <time>2015-06-27T11:30:52Z</time>
      </trkpt>
      <trkpt lat="43.12327" lon="0.4334">
        <ele>593.75</ele>
        <time>2015-06-27T11:31:02Z</time>
      </trkpt>
      <trkpt lat="43.12378" lon="0.43393">
        <ele>593.75</ele>
        <time>2015-06-27T11:31:13Z</time>
      </trkpt>
      <trkpt lat="43.12412" lon="0.43428">
        <ele>592.79</ele>
        <time>2015-06-27T11:31:21Z</time>
      </trkpt>
      <trkpt lat="43.12449" lon="0.43469">
        <ele>592.31</ele>
        <time>2015-06-27T11:31:30Z</time>
      </trkpt>
      <trkpt lat="43.12494" lon="0.43516">
        <ele>591.83</ele>
        <time>2015-06-27T11:31:41Z</time>
      </trkpt>
      <trkpt lat="43.12533" lon="0.43557">
        <ele>591.83</ele>
        <time>2015-06-27T11:31:51Z</time>
      </trkpt>
      <trkpt lat="43.12575" lon="0.43604">
        <ele>591.35</ele>
        <time>2015-06-27T11:32:01Z</time>
      </trkpt>
      <trkpt lat="43.12591" lon="0.43622">
        <ele>590.87</ele>
        <time>2015-06-27T11:32:05Z</time>
      </trkpt>
      <trkpt lat="43.12611" lon="0.43641">
        <ele>590.39</ele>
        <time>2015-06-27T11:32:09Z</time>
      </trkpt>
      <trkpt lat="43.12644" lon="0.43679">
        <ele>588.95</ele>
        <time>2015-06-27T11:32:16Z</time>
      </trkpt>
      <trkpt lat="43.12692" lon="0.4373">
        <ele>588.46</ele>
        <time>2015-06-27T11:32:26Z</time>
      </trkpt>
      <trkpt lat="43.12742" lon="0.43785">
        <ele>587.5</ele>
        <time>2015-06-27T11:32:37Z</time>
      </trkpt>
      <trkpt lat="43.12781" lon="0.43827">
        <ele>587.98</ele>
        <time>2015-06-27T11:32:46Z</time>
      </trkpt>
      <trkpt lat="43.12821" lon="0.43867">
        <ele>587.98</ele>
        <time>2015-06-27T11:32:55Z</time>
      </trkpt>
      <trkpt lat="43.12868" lon="0.4392">
        <ele>588.46</ele>
        <time>2015-06-27T11:33:07Z</time>
      </trkpt>
      <trkpt lat="43.12906" lon="0.43963">
        <ele>588.95</ele>
        <time>2015-06-27T11:33:17Z</time>
      </trkpt>
      <trkpt lat="43.12943" lon="0.44001">
        <ele>587.98</ele>
        <time>2015-06-27T11:33:26Z</time>
      </trkpt>
      <trkpt lat="43.12988" lon="0.44051">
        <ele>586.54</ele>
        <time>2015-06-27T11:33:36Z</time>
      </trkpt>
      <trkpt lat="43.13028" lon="0.44096">
        <ele>586.06</ele>
        <time>2015-06-27T11:33:45Z</time>
      </trkpt>
      <trkpt lat="43.13064" lon="0.44137">
        <ele>585.58</ele>
        <time>2015-06-27T11:33:53Z</time>
      </trkpt>
      <trkpt lat="43.13119" lon="0.44194">
        <ele>584.62</ele>
        <time>2015-06-27T11:34:05Z</time>
      </trkpt>
      <trkpt lat="43.13173" lon="0.44255">
        <ele>582.7</ele>
        <time>2015-06-27T11:34:17Z</time>
      </trkpt>
      <trkpt lat="43.13215" lon="0.44303">
        <ele>581.73</ele>
        <time>2015-06-27T11:34:27Z</time>
      </trkpt>
      <trkpt lat="43.13264" lon="0.44355">
        <ele>580.77</ele>
        <time>2015-06-27T11:34:38Z</time>
      </trkpt>
      <trkpt lat="43.13317" lon="0.44415">
        <ele>580.29</ele>
        <time>2015-06-27T11:34:51Z</time>
      </trkpt>
      <trkpt lat="43.13362" lon="0.44465">
        <ele>580.29</ele>
        <time>2015-06-27T11:35:02Z</time>
      </trkpt>
      <trkpt lat="43.13406" lon="0.44513">
        <ele>579.81</ele>
        <time>2015-06-27T11:35:13Z</time>
      </trkpt>
      <trkpt lat="43.13465" lon="0.4458">
        <ele>579.81</ele>
        <time>2015-06-27T11:35:28Z</time>
      </trkpt>
      <trkpt lat="43.13508" lon="0.44626">
        <ele>579.33</ele>
        <time>2015-06-27T11:35:38Z</time>
      </trkpt>
      <trkpt lat="43.13558" lon="0.4468">
        <ele>578.85</ele>
        <time>2015-06-27T11:35:49Z</time>
      </trkpt>
      <trkpt lat="43.13615" lon="0.44745">
        <ele>578.37</ele>
        <time>2015-06-27T11:36:02Z</time>
      </trkpt>
      <trkpt lat="43.13666" lon="0.44801">
        <ele>577.41</ele>
        <time>2015-06-27T11:36:13Z</time>
      </trkpt>
      <trkpt lat="43.13715" lon="0.44854">
        <ele>575.97</ele>
        <time>2015-06-27T11:36:23Z</time>
      </trkpt>
      <trkpt lat="43.1375" lon="0.44893">
        <ele>575.01</ele>
        <time>2015-06-27T11:36:30Z</time>
      </trkpt>
      <trkpt lat="43.13805" lon="0.44955">
        <ele>574.04</ele>
        <time>2015-06-27T11:36:41Z</time>
      </trkpt>
      <trkpt lat="43.13861" lon="0.45016">
        <ele>574.04</ele>
        <time>2015-06-27T11:36:53Z</time>
      </trkpt>
      <trkpt lat="43.13909" lon="0.45069">
        <ele>573.56</ele>
        <time>2015-06-27T11:37:04Z</time>
      </trkpt>
      <trkpt lat="43.13956" lon="0.45121">
        <ele>573.08</ele>
        <time>2015-06-27T11:37:14Z</time>
      </trkpt>
      <trkpt lat="43.14013" lon="0.45185">
        <ele>572.6</ele>
        <time>2015-06-27T11:37:26Z</time>
      </trkpt>
      <trkpt lat="43.14066" lon="0.45245">
        <ele>573.08</ele>
        <time>2015-06-27T11:37:38Z</time>
      </trkpt>
      <trkpt lat="43.14113" lon="0.45296">
        <ele>572.6</ele>
        <time>2015-06-27T11:37:49Z</time>
      </trkpt>
      <trkpt lat="43.14153" lon="0.45339">
        <ele>571.64</ele>
        <time>2015-06-27T11:37:58Z</time>
      </trkpt>
      <trkpt lat="43.14215" lon="0.45409">
        <ele>571.16</ele>
        <time>2015-06-27T11:38:11Z</time>
      </trkpt>
      <trkpt lat="43.14263" lon="0.45462">
        <ele>569.72</ele>
        <time>2015-06-27T11:38:21Z</time>
      </trkpt>
      <trkpt lat="43.1432" lon="0.45518">
        <ele>569.24</ele>
        <time>2015-06-27T11:38:33Z</time>
      </trkpt>
      <trkpt lat="43.14376" lon="0.45567">
        <ele>569.24</ele>
        <time>2015-06-27T11:38:45Z</time>
      </trkpt>
      <trkpt lat="43.14417" lon="0.45597">
        <ele>568.28</ele>
        <time>2015-06-27T11:38:54Z</time>
      </trkpt>
      <trkpt lat="43.14453" lon="0.45634">
        <ele>567.8</ele>
        <time>2015-06-27T11:39:03Z</time>
      </trkpt>
      <trkpt lat="43.14478" lon="0.45683">
        <ele>567.8</ele>
        <time>2015-06-27T11:39:12Z</time>
      </trkpt>
      <trkpt lat="43.14507" lon="0.45742">
        <ele>567.32</ele>
        <time>2015-06-27T11:39:23Z</time>
      </trkpt>
      <trkpt lat="43.1451" lon="0.45747">
        <ele>567.32</ele>
        <time>2015-06-27T11:39:24Z</time>
      </trkpt>
      <trkpt lat="43.14523" lon="0.45772">
        <ele>566.83</ele>
        <time>2015-06-27T11:39:30Z</time>
      </trkpt>
      <trkpt lat="43.14525" lon="0.45779">
        <ele>567.32</ele>
        <time>2015-06-27T11:39:34Z</time>
      </trkpt>
      <trkpt lat="43.14525" lon="0.45779">
        <ele>567.32</ele>
        <time>2015-06-27T11:39:43Z</time>
      </trkpt>
      <trkpt lat="43.14525" lon="0.45778">
        <ele>567.32</ele>
        <time>2015-06-27T11:40:02Z</time>
      </trkpt>
      <trkpt lat="43.14525" lon="0.45778">
        <ele>567.32</ele>
        <time>2015-06-27T11:40:18Z</time>
      </trkpt>
      <trkpt lat="43.14527" lon="0.45781">
        <ele>567.32</ele>
        <time>2015-06-27T11:40:27Z</time>
      </trkpt>
      <trkpt lat="43.14536" lon="0.458">
        <ele>567.32</ele>
        <time>2015-06-27T11:40:32Z</time>
      </trkpt>
      <trkpt lat="43.14558" lon="0.45843">
        <ele>567.32</ele>
        <time>2015-06-27T11:40:39Z</time>
      </trkpt>
      <trkpt lat="43.14593" lon="0.45915">
        <ele>566.83</ele>
        <time>2015-06-27T11:40:49Z</time>
      </trkpt>
      <trkpt lat="43.14614" lon="0.45955">
        <ele>566.35</ele>
        <time>2015-06-27T11:40:55Z</time>
      </trkpt>
      <trkpt lat="43.14637" lon="0.45998">
        <ele>565.87</ele>
        <time>2015-06-27T11:41:03Z</time>
      </trkpt>
      <trkpt lat="43.14646" lon="0.46018">
        <ele>565.39</ele>
        <time>2015-06-27T11:41:07Z</time>
      </trkpt>
      <trkpt lat="43.14672" lon="0.46068">
        <ele>565.39</ele>
        <time>2015-06-27T11:41:17Z</time>
      </trkpt>
      <trkpt lat="43.14693" lon="0.46109">
        <ele>564.91</ele>
        <time>2015-06-27T11:41:26Z</time>
      </trkpt>
      <trkpt lat="43.14699" lon="0.46123">
        <ele>564.91</ele>
        <time>2015-06-27T11:41:29Z</time>
      </trkpt>
      <trkpt lat="43.14701" lon="0.46128">
        <ele>564.91</ele>
        <time>2015-06-27T11:41:30Z</time>
      </trkpt>
      <trkpt lat="43.14704" lon="0.46139">
        <ele>564.91</ele>
        <time>2015-06-27T11:41:32Z</time>
      </trkpt>
      <trkpt lat="43.14707" lon="0.46145">
        <ele>564.43</ele>
        <time>2015-06-27T11:41:33Z</time>
      </trkpt>
      <trkpt lat="43.1471" lon="0.46151">
        <ele>564.43</ele>
        <time>2015-06-27T11:41:34Z</time>
      </trkpt>
      <trkpt lat="43.14735" lon="0.46193">
        <ele>563.95</ele>
        <time>2015-06-27T11:41:43Z</time>
      </trkpt>
      <trkpt lat="43.14755" lon="0.46227">
        <ele>562.99</ele>
        <time>2015-06-27T11:41:51Z</time>
      </trkpt>
      <trkpt lat="43.14757" lon="0.46232">
        <ele>563.47</ele>
        <time>2015-06-27T11:41:52Z</time>
      </trkpt>
      <trkpt lat="43.14784" lon="0.4628">
        <ele>562.51</ele>
        <time>2015-06-27T11:42:00Z</time>
      </trkpt>
      <trkpt lat="43.14817" lon="0.46331">
        <ele>562.51</ele>
        <time>2015-06-27T11:42:09Z</time>
      </trkpt>
      <trkpt lat="43.14851" lon="0.4639">
        <ele>562.51</ele>
        <time>2015-06-27T11:42:20Z</time>
      </trkpt>
      <trkpt lat="43.14863" lon="0.46414">
        <ele>562.03</ele>
        <time>2015-06-27T11:42:24Z</time>
      </trkpt>
      <trkpt lat="43.14897" lon="0.46476">
        <ele>561.55</ele>
        <time>2015-06-27T11:42:35Z</time>
      </trkpt>
      <trkpt lat="43.14927" lon="0.46536">
        <ele>561.55</ele>
        <time>2015-06-27T11:42:45Z</time>
      </trkpt>
      <trkpt lat="43.14959" lon="0.46606">
        <ele>561.07</ele>
        <time>2015-06-27T11:42:56Z</time>
      </trkpt>
      <trkpt lat="43.1499" lon="0.46694">
        <ele>561.07</ele>
        <time>2015-06-27T11:43:09Z</time>
      </trkpt>
      <trkpt lat="43.15016" lon="0.46775">
        <ele>561.07</ele>
        <time>2015-06-27T11:43:21Z</time>
      </trkpt>
      <trkpt lat="43.15042" lon="0.46856">
        <ele>560.59</ele>
        <time>2015-06-27T11:43:33Z</time>
      </trkpt>
      <trkpt lat="43.15069" lon="0.46937">
        <ele>560.11</ele>
        <time>2015-06-27T11:43:45Z</time>
      </trkpt>
      <trkpt lat="43.15088" lon="0.46997">
        <ele>560.11</ele>
        <time>2015-06-27T11:43:54Z</time>
      </trkpt>
      <trkpt lat="43.15111" lon="0.4707">
        <ele>559.62</ele>
        <time>2015-06-27T11:44:05Z</time>
      </trkpt>
      <trkpt lat="43.15135" lon="0.4714">
        <ele>560.11</ele>
        <time>2015-06-27T11:44:15Z</time>
      </trkpt>
      <trkpt lat="43.15139" lon="0.47154">
        <ele>559.14</ele>
        <time>2015-06-27T11:44:17Z</time>
      </trkpt>
      <trkpt lat="43.1516" lon="0.47219">
        <ele>558.66</ele>
        <time>2015-06-27T11:44:26Z</time>
      </trkpt>
      <trkpt lat="43.15184" lon="0.47297">
        <ele>558.66</ele>
        <time>2015-06-27T11:44:37Z</time>
      </trkpt>
      <trkpt lat="43.15214" lon="0.47387">
        <ele>557.7</ele>
        <time>2015-06-27T11:44:49Z</time>
      </trkpt>
      <trkpt lat="43.15246" lon="0.47486">
        <ele>557.22</ele>
        <time>2015-06-27T11:45:02Z</time>
      </trkpt>
      <trkpt lat="43.15265" lon="0.47547">
        <ele>557.22</ele>
        <time>2015-06-27T11:45:12Z</time>
      </trkpt>
      <trkpt lat="43.1528" lon="0.4759">
        <ele>556.74</ele>
        <time>2015-06-27T11:45:20Z</time>
      </trkpt>
      <trkpt lat="43.15282" lon="0.47595">
        <ele>556.74</ele>
        <time>2015-06-27T11:45:21Z</time>
      </trkpt>
      <trkpt lat="43.15306" lon="0.47668">
        <ele>556.26</ele>
        <time>2015-06-27T11:45:33Z</time>
      </trkpt>
      <trkpt lat="43.15332" lon="0.47748">
        <ele>555.3</ele>
        <time>2015-06-27T11:45:45Z</time>
      </trkpt>
      <trkpt lat="43.15353" lon="0.4781">
        <ele>554.82</ele>
        <time>2015-06-27T11:45:54Z</time>
      </trkpt>
      <trkpt lat="43.15373" lon="0.47868">
        <ele>554.34</ele>
        <time>2015-06-27T11:46:03Z</time>
      </trkpt>
      <trkpt lat="43.15398" lon="0.47918">
        <ele>553.38</ele>
        <time>2015-06-27T11:46:12Z</time>
      </trkpt>
      <trkpt lat="43.1543" lon="0.47963">
        <ele>552.9</ele>
        <time>2015-06-27T11:46:21Z</time>
      </trkpt>
      <trkpt lat="43.15465" lon="0.4801">
        <ele>551.93</ele>
        <time>2015-06-27T11:46:30Z</time>
      </trkpt>
      <trkpt lat="43.15473" lon="0.4802">
        <ele>551.93</ele>
        <time>2015-06-27T11:46:32Z</time>
      </trkpt>
      <trkpt lat="43.1551" lon="0.48074">
        <ele>551.45</ele>
        <time>2015-06-27T11:46:43Z</time>
      </trkpt>
      <trkpt lat="43.1555" lon="0.48128">
        <ele>550.97</ele>
        <time>2015-06-27T11:46:54Z</time>
      </trkpt>
      <trkpt lat="43.15593" lon="0.48187">
        <ele>550.49</ele>
        <time>2015-06-27T11:47:06Z</time>
      </trkpt>
      <trkpt lat="43.15641" lon="0.48253">
        <ele>550.49</ele>
        <time>2015-06-27T11:47:19Z</time>
      </trkpt>
      <trkpt lat="43.15685" lon="0.48312">
        <ele>551.45</ele>
        <time>2015-06-27T11:47:31Z</time>
      </trkpt>
      <trkpt lat="43.15723" lon="0.48364">
        <ele>551.93</ele>
        <time>2015-06-27T11:47:42Z</time>
      </trkpt>
      <trkpt lat="43.15759" lon="0.48413">
        <ele>550.97</ele>
        <time>2015-06-27T11:47:53Z</time>
      </trkpt>
      <trkpt lat="43.15798" lon="0.48463">
        <ele>550.97</ele>
        <time>2015-06-27T11:48:04Z</time>
      </trkpt>
      <trkpt lat="43.15823" lon="0.48496">
        <ele>550.49</ele>
        <time>2015-06-27T11:48:12Z</time>
      </trkpt>
      <trkpt lat="43.15847" lon="0.48529">
        <ele>550.01</ele>
        <time>2015-06-27T11:48:21Z</time>
      </trkpt>
      <trkpt lat="43.15869" lon="0.48557">
        <ele>550.01</ele>
        <time>2015-06-27T11:48:29Z</time>
      </trkpt>
      <trkpt lat="43.15869" lon="0.48556">
        <ele>550.01</ele>
        <time>2015-06-27T11:48:35Z</time>
      </trkpt>
      <trkpt lat="43.15869" lon="0.48556">
        <ele>550.01</ele>
        <time>2015-06-27T11:48:49Z</time>
      </trkpt>
      <trkpt lat="43.15869" lon="0.48556">
        <ele>550.01</ele>
        <time>2015-06-27T11:49:03Z</time>
      </trkpt>
      <trkpt lat="43.15869" lon="0.48556">
        <ele>550.01</ele>
        <time>2015-06-27T11:49:15Z</time>
      </trkpt>
      <trkpt lat="43.15869" lon="0.48556">
        <ele>550.01</ele>
        <time>2015-06-27T11:49:25Z</time>
      </trkpt>
      <trkpt lat="43.15869" lon="0.48555">
        <ele>550.01</ele>
        <time>2015-06-27T11:49:44Z</time>
      </trkpt>
      <trkpt lat="43.15869" lon="0.48555">
        <ele>550.01</ele>
        <time>2015-06-27T11:49:57Z</time>
      </trkpt>
      <trkpt lat="43.15869" lon="0.48555">
        <ele>550.01</ele>
        <time>2015-06-27T11:50:10Z</time>
      </trkpt>
      <trkpt lat="43.15869" lon="0.48555">
        <ele>549.53</ele>
        <time>2015-06-27T11:50:25Z</time>
      </trkpt>
      <trkpt lat="43.15869" lon="0.48555">
        <ele>549.53</ele>
        <time>2015-06-27T11:50:32Z</time>
      </trkpt>
      <trkpt lat="43.1587" lon="0.48556">
        <ele>549.53</ele>
        <time>2015-06-27T11:50:52Z</time>
      </trkpt>
      <trkpt lat="43.1587" lon="0.48556">
        <ele>549.53</ele>
        <time>2015-06-27T11:51:11Z</time>
      </trkpt>
      <trkpt lat="43.1587" lon="0.48555">
        <ele>549.53</ele>
        <time>2015-06-27T11:51:35Z</time>
      </trkpt>
      <trkpt lat="43.1587" lon="0.48555">
        <ele>549.53</ele>
        <time>2015-06-27T11:51:51Z</time>
      </trkpt>
      <trkpt lat="43.1587" lon="0.48555">
        <ele>549.53</ele>
        <time>2015-06-27T11:52:07Z</time>
      </trkpt>
      <trkpt lat="43.15872" lon="0.48555">
        <ele>549.53</ele>
        <time>2015-06-27T11:52:19Z</time>
      </trkpt>
      <trkpt lat="43.15874" lon="0.48554">
        <ele>549.53</ele>
        <time>2015-06-27T11:52:20Z</time>
      </trkpt>
      <trkpt lat="43.15876" lon="0.48555">
        <ele>549.53</ele>
        <time>2015-06-27T11:52:21Z</time>
      </trkpt>
      <trkpt lat="43.15877" lon="0.48558">
        <ele>549.53</ele>
        <time>2015-06-27T11:52:22Z</time>
      </trkpt>
      <trkpt lat="43.15879" lon="0.4856">
        <ele>549.05</ele>
        <time>2015-06-27T11:52:23Z</time>
      </trkpt>
      <trkpt lat="43.1588" lon="0.48562">
        <ele>549.05</ele>
        <time>2015-06-27T11:52:24Z</time>
      </trkpt>
      <trkpt lat="43.15898" lon="0.48586">
        <ele>549.05</ele>
        <time>2015-06-27T11:52:33Z</time>
      </trkpt>
      <trkpt lat="43.15916" lon="0.48611">
        <ele>548.57</ele>
        <time>2015-06-27T11:52:41Z</time>
      </trkpt>
      <trkpt lat="43.15934" lon="0.48635">
        <ele>548.57</ele>
        <time>2015-06-27T11:52:50Z</time>
      </trkpt>
      <trkpt lat="43.15958" lon="0.48665">
        <ele>548.09</ele>
        <time>2015-06-27T11:52:59Z</time>
      </trkpt>
      <trkpt lat="43.15987" lon="0.48699">
        <ele>548.09</ele>
        <time>2015-06-27T11:53:09Z</time>
      </trkpt>
      <trkpt lat="43.16005" lon="0.48721">
        <ele>547.61</ele>
        <time>2015-06-27T11:53:15Z</time>
      </trkpt>
      <trkpt lat="43.16007" lon="0.48726">
        <ele>547.61</ele>
        <time>2015-06-27T11:53:16Z</time>
      </trkpt>
      <trkpt lat="43.16033" lon="0.48767">
        <ele>547.61</ele>
        <time>2015-06-27T11:53:26Z</time>
      </trkpt>
      <trkpt lat="43.16063" lon="0.48809">
        <ele>547.13</ele>
        <time>2015-06-27T11:53:37Z</time>
      </trkpt>
      <trkpt lat="43.16079" lon="0.48842">
        <ele>546.65</ele>
        <time>2015-06-27T11:53:46Z</time>
      </trkpt>
      <trkpt lat="43.16077" lon="0.48846">
        <ele>546.65</ele>
        <time>2015-06-27T11:53:47Z</time>
      </trkpt>
      <trkpt lat="43.16076" lon="0.48849">
        <ele>546.65</ele>
        <time>2015-06-27T11:53:48Z</time>
      </trkpt>
      <trkpt lat="43.16074" lon="0.48851">
        <ele>546.65</ele>
        <time>2015-06-27T11:53:49Z</time>
      </trkpt>
      <trkpt lat="43.16074" lon="0.48855">
        <ele>546.65</ele>
        <time>2015-06-27T11:53:54Z</time>
      </trkpt>
      <trkpt lat="43.16073" lon="0.48855">
        <ele>546.65</ele>
        <time>2015-06-27T11:54:02Z</time>
      </trkpt>
      <trkpt lat="43.16073" lon="0.48855">
        <ele>546.65</ele>
        <time>2015-06-27T11:54:11Z</time>
      </trkpt>
      <trkpt lat="43.16073" lon="0.48857">
        <ele>546.65</ele>
        <time>2015-06-27T11:54:12Z</time>
      </trkpt>
      <trkpt lat="43.16072" lon="0.48858">
        <ele>546.65</ele>
        <time>2015-06-27T11:54:13Z</time>
      </trkpt>
      <trkpt lat="43.16071" lon="0.48861">
        <ele>546.65</ele>
        <time>2015-06-27T11:54:14Z</time>
      </trkpt>
      <trkpt lat="43.1607" lon="0.48864">
        <ele>546.65</ele>
        <time>2015-06-27T11:54:15Z</time>
      </trkpt>
      <trkpt lat="43.16069" lon="0.48867">
        <ele>546.65</ele>
        <time>2015-06-27T11:54:16Z</time>
      </trkpt>
      <trkpt lat="43.16068" lon="0.4887">
        <ele>546.65</ele>
        <time>2015-06-27T11:54:17Z</time>
      </trkpt>
      <trkpt lat="43.16067" lon="0.48874">
        <ele>546.65</ele>
        <time>2015-06-27T11:54:18Z</time>
      </trkpt>
      <trkpt lat="43.16055" lon="0.48901">
        <ele>546.17</ele>
        <time>2015-06-27T11:54:25Z</time>
      </trkpt>
      <trkpt lat="43.1604" lon="0.48935">
        <ele>545.69</ele>
        <time>2015-06-27T11:54:33Z</time>
      </trkpt>
      <trkpt lat="43.16023" lon="0.48972">
        <ele>545.2</ele>
        <time>2015-06-27T11:54:41Z</time>
      </trkpt>
      <trkpt lat="43.16005" lon="0.4902">
        <ele>545.2</ele>
        <time>2015-06-27T11:54:50Z</time>
      </trkpt>
      <trkpt lat="43.15993" lon="0.49048">
        <ele>545.2</ele>
        <time>2015-06-27T11:54:55Z</time>
      </trkpt>
      <trkpt lat="43.15966" lon="0.49103">
        <ele>544.24</ele>
        <time>2015-06-27T11:55:05Z</time>
      </trkpt>
      <trkpt lat="43.15946" lon="0.49143">
        <ele>544.24</ele>
        <time>2015-06-27T11:55:13Z</time>
      </trkpt>
      <trkpt lat="43.15937" lon="0.49159">
        <ele>544.24</ele>
        <time>2015-06-27T11:55:19Z</time>
      </trkpt>
      <trkpt lat="43.15937" lon="0.4916">
        <ele>544.72</ele>
        <time>2015-06-27T11:55:33Z</time>
      </trkpt>
      <trkpt lat="43.15936" lon="0.4916">
        <ele>544.72</ele>
        <time>2015-06-27T11:55:45Z</time>
      </trkpt>
      <trkpt lat="43.15937" lon="0.49162">
        <ele>544.24</ele>
        <time>2015-06-27T11:55:47Z</time>
      </trkpt>
      <trkpt lat="43.15938" lon="0.49162">
        <ele>544.24</ele>
        <time>2015-06-27T11:55:48Z</time>
      </trkpt>
      <trkpt lat="43.1594" lon="0.49161">
        <ele>544.24</ele>
        <time>2015-06-27T11:55:49Z</time>
      </trkpt>
      <trkpt lat="43.15942" lon="0.4916">
        <ele>544.24</ele>
        <time>2015-06-27T11:55:50Z</time>
      </trkpt>
      <trkpt lat="43.15944" lon="0.4916">
        <ele>544.24</ele>
        <time>2015-06-27T11:55:51Z</time>
      </trkpt>
      <trkpt lat="43.15947" lon="0.4916">
        <ele>544.24</ele>
        <time>2015-06-27T11:55:52Z</time>
      </trkpt>
      <trkpt lat="43.15951" lon="0.4916">
        <ele>544.24</ele>
        <time>2015-06-27T11:55:53Z</time>
      </trkpt>
      <trkpt lat="43.15971" lon="0.49159">
        <ele>543.76</ele>
        <time>2015-06-27T11:55:58Z</time>
      </trkpt>
      <trkpt lat="43.15976" lon="0.4916">
        <ele>543.76</ele>
        <time>2015-06-27T11:55:59Z</time>
      </trkpt>
      <trkpt lat="43.1598" lon="0.49162">
        <ele>543.28</ele>
        <time>2015-06-27T11:56:00Z</time>
      </trkpt>
      <trkpt lat="43.15983" lon="0.49164">
        <ele>543.28</ele>
        <time>2015-06-27T11:56:01Z</time>
      </trkpt>
      <trkpt lat="43.15986" lon="0.49168">
        <ele>543.28</ele>
        <time>2015-06-27T11:56:02Z</time>
      </trkpt>
      <trkpt lat="43.15989" lon="0.49173">
        <ele>543.28</ele>
        <time>2015-06-27T11:56:03Z</time>
      </trkpt>
      <trkpt lat="43.15992" lon="0.49177">
        <ele>543.28</ele>
        <time>2015-06-27T11:56:04Z</time>
      </trkpt>
      <trkpt lat="43.15994" lon="0.49183">
        <ele>543.28</ele>
        <time>2015-06-27T11:56:05Z</time>
      </trkpt>
      <trkpt lat="43.16017" lon="0.49232">
        <ele>542.32</ele>
        <time>2015-06-27T11:56:15Z</time>
      </trkpt>
      <trkpt lat="43.16033" lon="0.49264">
        <ele>542.32</ele>
        <time>2015-06-27T11:56:21Z</time>
      </trkpt>
      <trkpt lat="43.16054" lon="0.49304">
        <ele>541.36</ele>
        <time>2015-06-27T11:56:29Z</time>
      </trkpt>
      <trkpt lat="43.1606" lon="0.49314">
        <ele>541.36</ele>
        <time>2015-06-27T11:56:33Z</time>
      </trkpt>
      <trkpt lat="43.16061" lon="0.49315">
        <ele>540.88</ele>
        <time>2015-06-27T11:56:43Z</time>
      </trkpt>
      <trkpt lat="43.16066" lon="0.49321">
        <ele>540.88</ele>
        <time>2015-06-27T11:56:57Z</time>
      </trkpt>
      <trkpt lat="43.1608" lon="0.49346">
        <ele>541.36</ele>
        <time>2015-06-27T11:57:04Z</time>
      </trkpt>
      <trkpt lat="43.161" lon="0.49382">
        <ele>540.88</ele>
        <time>2015-06-27T11:57:11Z</time>
      </trkpt>
      <trkpt lat="43.16115" lon="0.49406">
        <ele>540.88</ele>
        <time>2015-06-27T11:57:16Z</time>
      </trkpt>
      <trkpt lat="43.16133" lon="0.49443">
        <ele>540.4</ele>
        <time>2015-06-27T11:57:23Z</time>
      </trkpt>
      <trkpt lat="43.16146" lon="0.4947">
        <ele>539.92</ele>
        <time>2015-06-27T11:57:28Z</time>
      </trkpt>
      <trkpt lat="43.16149" lon="0.49476">
        <ele>539.92</ele>
        <time>2015-06-27T11:57:29Z</time>
      </trkpt>
      <trkpt lat="43.1616" lon="0.49495">
        <ele>539.44</ele>
        <time>2015-06-27T11:57:34Z</time>
      </trkpt>
      <trkpt lat="43.16164" lon="0.49497">
        <ele>539.44</ele>
        <time>2015-06-27T11:57:39Z</time>
      </trkpt>
      <trkpt lat="43.16164" lon="0.49497">
        <ele>539.44</ele>
        <time>2015-06-27T11:57:48Z</time>
      </trkpt>
      <trkpt lat="43.16165" lon="0.49498">
        <ele>539.92</ele>
        <time>2015-06-27T11:57:55Z</time>
      </trkpt>
      <trkpt lat="43.16166" lon="0.49499">
        <ele>539.44</ele>
        <time>2015-06-27T11:58:08Z</time>
      </trkpt>
      <trkpt lat="43.16169" lon="0.49502">
        <ele>539.44</ele>
        <time>2015-06-27T11:58:11Z</time>
      </trkpt>
      <trkpt lat="43.1619" lon="0.49506">
        <ele>539.92</ele>
        <time>2015-06-27T11:58:19Z</time>
      </trkpt>
      <trkpt lat="43.16217" lon="0.4951">
        <ele>540.4</ele>
        <time>2015-06-27T11:58:28Z</time>
      </trkpt>
      <trkpt lat="43.16231" lon="0.49523">
        <ele>540.88</ele>
        <time>2015-06-27T11:58:34Z</time>
      </trkpt>
      <trkpt lat="43.16243" lon="0.49545">
        <ele>540.88</ele>
        <time>2015-06-27T11:58:42Z</time>
      </trkpt>
      <trkpt lat="43.16253" lon="0.49565">
        <ele>540.88</ele>
        <time>2015-06-27T11:58:49Z</time>
      </trkpt>
      <trkpt lat="43.16271" lon="0.49599">
        <ele>540.4</ele>
        <time>2015-06-27T11:58:59Z</time>
      </trkpt>
      <trkpt lat="43.16284" lon="0.4964">
        <ele>539.92</ele>
        <time>2015-06-27T11:59:08Z</time>
      </trkpt>
      <trkpt lat="43.16299" lon="0.49686">
        <ele>539.44</ele>
        <time>2015-06-27T11:59:18Z</time>
      </trkpt>
      <trkpt lat="43.16326" lon="0.49712">
        <ele>539.44</ele>
        <time>2015-06-27T11:59:27Z</time>
      </trkpt>
      <trkpt lat="43.16343" lon="0.49716">
        <ele>538.96</ele>
        <time>2015-06-27T11:59:32Z</time>
      </trkpt>
      <trkpt lat="43.1635" lon="0.49716">
        <ele>538.96</ele>
        <time>2015-06-27T11:59:34Z</time>
      </trkpt>
      <trkpt lat="43.16352" lon="0.4972">
        <ele>538.96</ele>
        <time>2015-06-27T11:59:35Z</time>
      </trkpt>
      <trkpt lat="43.16354" lon="0.49724">
        <ele>538.96</ele>
        <time>2015-06-27T11:59:36Z</time>
      </trkpt>
      <trkpt lat="43.16356" lon="0.49728">
        <ele>538.96</ele>
        <time>2015-06-27T11:59:37Z</time>
      </trkpt>
      <trkpt lat="43.16357" lon="0.49733">
        <ele>538.96</ele>
        <time>2015-06-27T11:59:38Z</time>
      </trkpt>
      <trkpt lat="43.16364" lon="0.49779">
        <ele>537.99</ele>
        <time>2015-06-27T11:59:47Z</time>
      </trkpt>
      <trkpt lat="43.16374" lon="0.49837">
        <ele>537.99</ele>
        <time>2015-06-27T11:59:59Z</time>
      </trkpt>
      <trkpt lat="43.16381" lon="0.49873">
        <ele>537.51</ele>
        <time>2015-06-27T12:00:07Z</time>
      </trkpt>
      <trkpt lat="43.16393" lon="0.49917">
        <ele>537.03</ele>
        <time>2015-06-27T12:00:17Z</time>
      </trkpt>
      <trkpt lat="43.16403" lon="0.49943">
        <ele>537.03</ele>
        <time>2015-06-27T12:00:25Z</time>
      </trkpt>
      <trkpt lat="43.16413" lon="0.49966">
        <ele>537.03</ele>
        <time>2015-06-27T12:00:32Z</time>
      </trkpt>
      <trkpt lat="43.16432" lon="0.50012">
        <ele>537.03</ele>
        <time>2015-06-27T12:00:43Z</time>
      </trkpt>
      <trkpt lat="43.16451" lon="0.50058">
        <ele>536.55</ele>
        <time>2015-06-27T12:00:54Z</time>
      </trkpt>
      <trkpt lat="43.1647" lon="0.50108">
        <ele>536.07</ele>
        <time>2015-06-27T12:01:05Z</time>
      </trkpt>
      <trkpt lat="43.16484" lon="0.50142">
        <ele>535.59</ele>
        <time>2015-06-27T12:01:12Z</time>
      </trkpt>
      <trkpt lat="43.16501" lon="0.50183">
        <ele>535.11</ele>
        <time>2015-06-27T12:01:20Z</time>
      </trkpt>
      <trkpt lat="43.16504" lon="0.50188">
        <ele>534.63</ele>
        <time>2015-06-27T12:01:21Z</time>
      </trkpt>
      <trkpt lat="43.16506" lon="0.50192">
        <ele>534.63</ele>
        <time>2015-06-27T12:01:22Z</time>
      </trkpt>
      <trkpt lat="43.16507" lon="0.50195">
        <ele>534.63</ele>
        <time>2015-06-27T12:01:23Z</time>
      </trkpt>
      <trkpt lat="43.16508" lon="0.50197">
        <ele>534.63</ele>
        <time>2015-06-27T12:01:24Z</time>
      </trkpt>
      <trkpt lat="43.16509" lon="0.50221">
        <ele>534.63</ele>
        <time>2015-06-27T12:01:32Z</time>
      </trkpt>
      <trkpt lat="43.1651" lon="0.50253">
        <ele>534.15</ele>
        <time>2015-06-27T12:01:39Z</time>
      </trkpt>
      <trkpt lat="43.1651" lon="0.50281">
        <ele>534.15</ele>
        <time>2015-06-27T12:01:45Z</time>
      </trkpt>
      <trkpt lat="43.16516" lon="0.50307">
        <ele>533.67</ele>
        <time>2015-06-27T12:01:51Z</time>
      </trkpt>
      <trkpt lat="43.16528" lon="0.50323">
        <ele>533.67</ele>
        <time>2015-06-27T12:01:56Z</time>
      </trkpt>
      <trkpt lat="43.16555" lon="0.50341">
        <ele>533.67</ele>
        <time>2015-06-27T12:02:05Z</time>
      </trkpt>
      <trkpt lat="43.16561" lon="0.50345">
        <ele>533.67</ele>
        <time>2015-06-27T12:02:09Z</time>
      </trkpt>
      <trkpt lat="43.16562" lon="0.50344">
        <ele>533.67</ele>
        <time>2015-06-27T12:02:14Z</time>
      </trkpt>
      <trkpt lat="43.16564" lon="0.50345">
        <ele>533.19</ele>
        <time>2015-06-27T12:02:15Z</time>
      </trkpt>
      <trkpt lat="43.16566" lon="0.50347">
        <ele>533.67</ele>
        <time>2015-06-27T12:02:16Z</time>
      </trkpt>
      <trkpt lat="43.16569" lon="0.5035">
        <ele>533.67</ele>
        <time>2015-06-27T12:02:17Z</time>
      </trkpt>
      <trkpt lat="43.16572" lon="0.50353">
        <ele>533.67</ele>
        <time>2015-06-27T12:02:18Z</time>
      </trkpt>
      <trkpt lat="43.16596" lon="0.50367">
        <ele>533.67</ele>
        <time>2015-06-27T12:02:25Z</time>
      </trkpt>
      <trkpt lat="43.1663" lon="0.50385">
        <ele>533.19</ele>
        <time>2015-06-27T12:02:35Z</time>
      </trkpt>
      <trkpt lat="43.16668" lon="0.50408">
        <ele>533.19</ele>
        <time>2015-06-27T12:02:46Z</time>
      </trkpt>
      <trkpt lat="43.16705" lon="0.5043">
        <ele>533.67</ele>
        <time>2015-06-27T12:02:57Z</time>
      </trkpt>
      <trkpt lat="43.16742" lon="0.50451">
        <ele>533.67</ele>
        <time>2015-06-27T12:03:08Z</time>
      </trkpt>
      <trkpt lat="43.16777" lon="0.50472">
        <ele>534.15</ele>
        <time>2015-06-27T12:03:18Z</time>
      </trkpt>
      <trkpt lat="43.16809" lon="0.50494">
        <ele>534.15</ele>
        <time>2015-06-27T12:03:27Z</time>
      </trkpt>
      <trkpt lat="43.16847" lon="0.50513">
        <ele>533.67</ele>
        <time>2015-06-27T12:03:37Z</time>
      </trkpt>
      <trkpt lat="43.16884" lon="0.50521">
        <ele>532.23</ele>
        <time>2015-06-27T12:03:44Z</time>
      </trkpt>
      <trkpt lat="43.16945" lon="0.50528">
        <ele>531.27</ele>
        <time>2015-06-27T12:03:54Z</time>
      </trkpt>
      <trkpt lat="43.16962" lon="0.50532">
        <ele>529.82</ele>
        <time>2015-06-27T12:03:57Z</time>
      </trkpt>
      <trkpt lat="43.17016" lon="0.50544">
        <ele>528.38</ele>
        <time>2015-06-27T12:04:07Z</time>
      </trkpt>
      <trkpt lat="43.1703" lon="0.50544">
        <ele>528.38</ele>
        <time>2015-06-27T12:04:10Z</time>
      </trkpt>
      <trkpt lat="43.17034" lon="0.50546">
        <ele>528.38</ele>
        <time>2015-06-27T12:04:11Z</time>
      </trkpt>
      <trkpt lat="43.17039" lon="0.50549">
        <ele>528.38</ele>
        <time>2015-06-27T12:04:12Z</time>
      </trkpt>
      <trkpt lat="43.17043" lon="0.50553">
        <ele>528.86</ele>
        <time>2015-06-27T12:04:13Z</time>
      </trkpt>
      <trkpt lat="43.17046" lon="0.50557">
        <ele>528.38</ele>
        <time>2015-06-27T12:04:14Z</time>
      </trkpt>
      <trkpt lat="43.17089" lon="0.50607">
        <ele>528.38</ele>
        <time>2015-06-27T12:04:25Z</time>
      </trkpt>
      <trkpt lat="43.17133" lon="0.50658">
        <ele>527.42</ele>
        <time>2015-06-27T12:04:36Z</time>
      </trkpt>
      <trkpt lat="43.17168" lon="0.50699">
        <ele>526.94</ele>
        <time>2015-06-27T12:04:46Z</time>
      </trkpt>
      <trkpt lat="43.17202" lon="0.50743">
        <ele>525.5</ele>
        <time>2015-06-27T12:04:55Z</time>
      </trkpt>
      <trkpt lat="43.17211" lon="0.50753">
        <ele>525.5</ele>
        <time>2015-06-27T12:04:57Z</time>
      </trkpt>
      <trkpt lat="43.1725" lon="0.50801">
        <ele>525.02</ele>
        <time>2015-06-27T12:05:07Z</time>
      </trkpt>
      <trkpt lat="43.17264" lon="0.50817">
        <ele>524.54</ele>
        <time>2015-06-27T12:05:11Z</time>
      </trkpt>
      <trkpt lat="43.17267" lon="0.50822">
        <ele>524.54</ele>
        <time>2015-06-27T12:05:12Z</time>
      </trkpt>
      <trkpt lat="43.17301" lon="0.50863">
        <ele>524.06</ele>
        <time>2015-06-27T12:05:21Z</time>
      </trkpt>
      <trkpt lat="43.17338" lon="0.50918">
        <ele>522.61</ele>
        <time>2015-06-27T12:05:30Z</time>
      </trkpt>
      <trkpt lat="43.17379" lon="0.50999">
        <ele>519.73</ele>
        <time>2015-06-27T12:05:41Z</time>
      </trkpt>
      <trkpt lat="43.17409" lon="0.51085">
        <ele>518.29</ele>
        <time>2015-06-27T12:05:51Z</time>
      </trkpt>
      <trkpt lat="43.17425" lon="0.51152">
        <ele>515.88</ele>
        <time>2015-06-27T12:05:58Z</time>
      </trkpt>
      <trkpt lat="43.17448" lon="0.51267">
        <ele>513.48</ele>
        <time>2015-06-27T12:06:09Z</time>
      </trkpt>
      <trkpt lat="43.17475" lon="0.514">
        <ele>510.12</ele>
        <time>2015-06-27T12:06:21Z</time>
      </trkpt>
      <trkpt lat="43.17477" lon="0.51411">
        <ele>510.12</ele>
        <time>2015-06-27T12:06:22Z</time>
      </trkpt>
      <trkpt lat="43.17486" lon="0.51456">
        <ele>509.16</ele>
        <time>2015-06-27T12:06:26Z</time>
      </trkpt>
      <trkpt lat="43.17505" lon="0.51558">
        <ele>505.79</ele>
        <time>2015-06-27T12:06:35Z</time>
      </trkpt>
      <trkpt lat="43.17526" lon="0.51638">
        <ele>502.43</ele>
        <time>2015-06-27T12:06:42Z</time>
      </trkpt>
      <trkpt lat="43.17534" lon="0.51661">
        <ele>501.46</ele>
        <time>2015-06-27T12:06:44Z</time>
      </trkpt>
      <trkpt lat="43.17562" lon="0.51744">
        <ele>498.1</ele>
        <time>2015-06-27T12:06:51Z</time>
      </trkpt>
      <trkpt lat="43.17589" lon="0.5182">
        <ele>495.22</ele>
        <time>2015-06-27T12:06:57Z</time>
      </trkpt>
      <trkpt lat="43.17621" lon="0.51916">
        <ele>493.29</ele>
        <time>2015-06-27T12:07:05Z</time>
      </trkpt>
      <trkpt lat="43.1765" lon="0.52002">
        <ele>490.89</ele>
        <time>2015-06-27T12:07:13Z</time>
      </trkpt>
      <trkpt lat="43.1768" lon="0.52091">
        <ele>489.93</ele>
        <time>2015-06-27T12:07:22Z</time>
      </trkpt>
      <trkpt lat="43.17713" lon="0.52179">
        <ele>488.97</ele>
        <time>2015-06-27T12:07:32Z</time>
      </trkpt>
      <trkpt lat="43.17745" lon="0.52245">
        <ele>488.01</ele>
        <time>2015-06-27T12:07:41Z</time>
      </trkpt>
      <trkpt lat="43.17786" lon="0.52326">
        <ele>486.08</ele>
        <time>2015-06-27T12:07:52Z</time>
      </trkpt>
      <trkpt lat="43.1783" lon="0.52414">
        <ele>483.68</ele>
        <time>2015-06-27T12:08:03Z</time>
      </trkpt>
      <trkpt lat="43.17863" lon="0.52493">
        <ele>480.8</ele>
        <time>2015-06-27T12:08:12Z</time>
      </trkpt>
      <trkpt lat="43.17897" lon="0.52586">
        <ele>477.43</ele>
        <time>2015-06-27T12:08:22Z</time>
      </trkpt>
      <trkpt lat="43.17926" lon="0.52656">
        <ele>474.07</ele>
        <time>2015-06-27T12:08:29Z</time>
      </trkpt>
      <trkpt lat="43.17955" lon="0.52707">
        <ele>472.14</ele>
        <time>2015-06-27T12:08:34Z</time>
      </trkpt>
      <trkpt lat="43.17985" lon="0.52758">
        <ele>468.78</ele>
        <time>2015-06-27T12:08:39Z</time>
      </trkpt>
      <trkpt lat="43.17991" lon="0.52767">
        <ele>468.78</ele>
        <time>2015-06-27T12:08:40Z</time>
      </trkpt>
      <trkpt lat="43.18035" lon="0.52824">
        <ele>466.38</ele>
        <time>2015-06-27T12:08:47Z</time>
      </trkpt>
      <trkpt lat="43.18079" lon="0.52865">
        <ele>464.93</ele>
        <time>2015-06-27T12:08:54Z</time>
      </trkpt>
      <trkpt lat="43.18134" lon="0.52913">
        <ele>463.01</ele>
        <time>2015-06-27T12:09:03Z</time>
      </trkpt>
      <trkpt lat="43.18187" lon="0.52971">
        <ele>462.05</ele>
        <time>2015-06-27T12:09:13Z</time>
      </trkpt>
      <trkpt lat="43.1822" lon="0.53031">
        <ele>460.61</ele>
        <time>2015-06-27T12:09:21Z</time>
      </trkpt>
      <trkpt lat="43.18257" lon="0.53093">
        <ele>459.65</ele>
        <time>2015-06-27T12:09:30Z</time>
      </trkpt>
      <trkpt lat="43.18302" lon="0.53141">
        <ele>459.65</ele>
        <time>2015-06-27T12:09:39Z</time>
      </trkpt>
      <trkpt lat="43.18345" lon="0.5318">
        <ele>458.21</ele>
        <time>2015-06-27T12:09:48Z</time>
      </trkpt>
      <trkpt lat="43.18355" lon="0.53188">
        <ele>457.72</ele>
        <time>2015-06-27T12:09:50Z</time>
      </trkpt>
      <trkpt lat="43.1836" lon="0.53191">
        <ele>457.72</ele>
        <time>2015-06-27T12:09:51Z</time>
      </trkpt>
      <trkpt lat="43.18364" lon="0.53196">
        <ele>457.72</ele>
        <time>2015-06-27T12:09:52Z</time>
      </trkpt>
      <trkpt lat="43.18367" lon="0.53202">
        <ele>457.24</ele>
        <time>2015-06-27T12:09:53Z</time>
      </trkpt>
      <trkpt lat="43.18369" lon="0.5321">
        <ele>457.24</ele>
        <time>2015-06-27T12:09:54Z</time>
      </trkpt>
      <trkpt lat="43.18371" lon="0.53218">
        <ele>456.76</ele>
        <time>2015-06-27T12:09:55Z</time>
      </trkpt>
      <trkpt lat="43.18375" lon="0.53223">
        <ele>457.24</ele>
        <time>2015-06-27T12:09:56Z</time>
      </trkpt>
      <trkpt lat="43.1838" lon="0.53226">
        <ele>456.76</ele>
        <time>2015-06-27T12:09:57Z</time>
      </trkpt>
      <trkpt lat="43.18385" lon="0.53226">
        <ele>456.76</ele>
        <time>2015-06-27T12:09:58Z</time>
      </trkpt>
      <trkpt lat="43.18391" lon="0.53227">
        <ele>456.76</ele>
        <time>2015-06-27T12:09:59Z</time>
      </trkpt>
      <trkpt lat="43.18396" lon="0.53228">
        <ele>456.28</ele>
        <time>2015-06-27T12:10:00Z</time>
      </trkpt>
      <trkpt lat="43.18401" lon="0.53231">
        <ele>456.28</ele>
        <time>2015-06-27T12:10:01Z</time>
      </trkpt>
      <trkpt lat="43.18406" lon="0.53235">
        <ele>456.28</ele>
        <time>2015-06-27T12:10:02Z</time>
      </trkpt>
      <trkpt lat="43.18411" lon="0.5324">
        <ele>455.8</ele>
        <time>2015-06-27T12:10:03Z</time>
      </trkpt>
      <trkpt lat="43.18461" lon="0.53286">
        <ele>453.4</ele>
        <time>2015-06-27T12:10:12Z</time>
      </trkpt>
      <trkpt lat="43.18508" lon="0.53329">
        <ele>449.55</ele>
        <time>2015-06-27T12:10:20Z</time>
      </trkpt>
      <trkpt lat="43.18568" lon="0.53384">
        <ele>448.59</ele>
        <time>2015-06-27T12:10:31Z</time>
      </trkpt>
      <trkpt lat="43.18615" lon="0.53428">
        <ele>446.67</ele>
        <time>2015-06-27T12:10:40Z</time>
      </trkpt>
      <trkpt lat="43.18665" lon="0.53481">
        <ele>446.67</ele>
        <time>2015-06-27T12:10:50Z</time>
      </trkpt>
      <trkpt lat="43.18706" lon="0.53534">
        <ele>445.71</ele>
        <time>2015-06-27T12:11:00Z</time>
      </trkpt>
      <trkpt lat="43.18756" lon="0.53598">
        <ele>444.75</ele>
        <time>2015-06-27T12:11:13Z</time>
      </trkpt>
      <trkpt lat="43.18789" lon="0.5365">
        <ele>443.79</ele>
        <time>2015-06-27T12:11:22Z</time>
      </trkpt>
      <trkpt lat="43.18792" lon="0.53657">
        <ele>443.79</ele>
        <time>2015-06-27T12:11:23Z</time>
      </trkpt>
      <trkpt lat="43.18801" lon="0.53678">
        <ele>443.31</ele>
        <time>2015-06-27T12:11:26Z</time>
      </trkpt>
      <trkpt lat="43.18825" lon="0.5376">
        <ele>441.86</ele>
        <time>2015-06-27T12:11:36Z</time>
      </trkpt>
      <trkpt lat="43.18853" lon="0.53856">
        <ele>439.94</ele>
        <time>2015-06-27T12:11:47Z</time>
      </trkpt>
      <trkpt lat="43.18874" lon="0.53931">
        <ele>438.02</ele>
        <time>2015-06-27T12:11:56Z</time>
      </trkpt>
      <trkpt lat="43.18899" lon="0.54012">
        <ele>436.58</ele>
        <time>2015-06-27T12:12:06Z</time>
      </trkpt>
      <trkpt lat="43.18939" lon="0.54098">
        <ele>434.17</ele>
        <time>2015-06-27T12:12:17Z</time>
      </trkpt>
      <trkpt lat="43.18978" lon="0.54179">
        <ele>432.73</ele>
        <time>2015-06-27T12:12:27Z</time>
      </trkpt>
      <trkpt lat="43.1902" lon="0.54262">
        <ele>431.29</ele>
        <time>2015-06-27T12:12:38Z</time>
      </trkpt>
      <trkpt lat="43.19053" lon="0.54333">
        <ele>429.37</ele>
        <time>2015-06-27T12:12:47Z</time>
      </trkpt>
      <trkpt lat="43.19087" lon="0.54403">
        <ele>427.92</ele>
        <time>2015-06-27T12:12:56Z</time>
      </trkpt>
      <trkpt lat="43.19122" lon="0.54481">
        <ele>427.44</ele>
        <time>2015-06-27T12:13:06Z</time>
      </trkpt>
      <trkpt lat="43.1914" lon="0.54524">
        <ele>427.44</ele>
        <time>2015-06-27T12:13:12Z</time>
      </trkpt>
      <trkpt lat="43.19142" lon="0.54531">
        <ele>427.44</ele>
        <time>2015-06-27T12:13:13Z</time>
      </trkpt>
      <trkpt lat="43.19155" lon="0.54594">
        <ele>426.48</ele>
        <time>2015-06-27T12:13:21Z</time>
      </trkpt>
      <trkpt lat="43.19167" lon="0.54662">
        <ele>424.56</ele>
        <time>2015-06-27T12:13:30Z</time>
      </trkpt>
      <trkpt lat="43.19169" lon="0.54727">
        <ele>424.08</ele>
        <time>2015-06-27T12:13:38Z</time>
      </trkpt>
      <trkpt lat="43.1917" lon="0.54815">
        <ele>422.16</ele>
        <time>2015-06-27T12:13:48Z</time>
      </trkpt>
      <trkpt lat="43.1918" lon="0.54895">
        <ele>421.19</ele>
        <time>2015-06-27T12:13:56Z</time>
      </trkpt>
      <trkpt lat="43.19198" lon="0.54978">
        <ele>421.68</ele>
        <time>2015-06-27T12:14:05Z</time>
      </trkpt>
      <trkpt lat="43.19217" lon="0.55063">
        <ele>421.19</ele>
        <time>2015-06-27T12:14:15Z</time>
      </trkpt>
      <trkpt lat="43.19237" lon="0.55144">
        <ele>421.68</ele>
        <time>2015-06-27T12:14:25Z</time>
      </trkpt>
      <trkpt lat="43.19252" lon="0.55217">
        <ele>421.19</ele>
        <time>2015-06-27T12:14:34Z</time>
      </trkpt>
      <trkpt lat="43.19266" lon="0.55291">
        <ele>421.68</ele>
        <time>2015-06-27T12:14:43Z</time>
      </trkpt>
      <trkpt lat="43.19279" lon="0.55352">
        <ele>422.16</ele>
        <time>2015-06-27T12:14:51Z</time>
      </trkpt>
      <trkpt lat="43.1929" lon="0.554">
        <ele>423.12</ele>
        <time>2015-06-27T12:14:59Z</time>
      </trkpt>
      <trkpt lat="43.193" lon="0.55454">
        <ele>424.08</ele>
        <time>2015-06-27T12:15:09Z</time>
      </trkpt>
      <trkpt lat="43.19309" lon="0.55501">
        <ele>425.04</ele>
        <time>2015-06-27T12:15:18Z</time>
      </trkpt>
      <trkpt lat="43.19315" lon="0.5554">
        <ele>426</ele>
        <time>2015-06-27T12:15:27Z</time>
      </trkpt>
      <trkpt lat="43.19317" lon="0.55566">
        <ele>426.96</ele>
        <time>2015-06-27T12:15:35Z</time>
      </trkpt>
      <trkpt lat="43.19316" lon="0.55591">
        <ele>427.92</ele>
        <time>2015-06-27T12:15:44Z</time>
      </trkpt>
      <trkpt lat="43.19316" lon="0.55617">
        <ele>429.37</ele>
        <time>2015-06-27T12:15:54Z</time>
      </trkpt>
      <trkpt lat="43.19318" lon="0.55645">
        <ele>429.85</ele>
        <time>2015-06-27T12:16:03Z</time>
      </trkpt>
      <trkpt lat="43.19324" lon="0.55671">
        <ele>430.33</ele>
        <time>2015-06-27T12:16:12Z</time>
      </trkpt>
      <trkpt lat="43.19336" lon="0.55697">
        <ele>430.81</ele>
        <time>2015-06-27T12:16:21Z</time>
      </trkpt>
      <trkpt lat="43.19354" lon="0.5573">
        <ele>430.33</ele>
        <time>2015-06-27T12:16:30Z</time>
      </trkpt>
      <trkpt lat="43.19372" lon="0.55755">
        <ele>429.85</ele>
        <time>2015-06-27T12:16:39Z</time>
      </trkpt>
      <trkpt lat="43.19384" lon="0.55772">
        <ele>429.37</ele>
        <time>2015-06-27T12:16:46Z</time>
      </trkpt>
      <trkpt lat="43.19398" lon="0.55792">
        <ele>428.4</ele>
        <time>2015-06-27T12:16:52Z</time>
      </trkpt>
      <trkpt lat="43.1941" lon="0.55809">
        <ele>427.92</ele>
        <time>2015-06-27T12:16:56Z</time>
      </trkpt>
      <trkpt lat="43.19439" lon="0.5585">
        <ele>426.48</ele>
        <time>2015-06-27T12:17:04Z</time>
      </trkpt>
      <trkpt lat="43.19476" lon="0.55901">
        <ele>424.56</ele>
        <time>2015-06-27T12:17:13Z</time>
      </trkpt>
      <trkpt lat="43.19516" lon="0.55959">
        <ele>422.16</ele>
        <time>2015-06-27T12:17:22Z</time>
      </trkpt>
      <trkpt lat="43.19546" lon="0.56016">
        <ele>421.19</ele>
        <time>2015-06-27T12:17:30Z</time>
      </trkpt>
      <trkpt lat="43.19577" lon="0.56072">
        <ele>419.75</ele>
        <time>2015-06-27T12:17:39Z</time>
      </trkpt>
      <trkpt lat="43.19611" lon="0.56119">
        <ele>417.83</ele>
        <time>2015-06-27T12:17:46Z</time>
      </trkpt>
      <trkpt lat="43.19656" lon="0.5618">
        <ele>414.47</ele>
        <time>2015-06-27T12:17:54Z</time>
      </trkpt>
      <trkpt lat="43.19725" lon="0.56277">
        <ele>411.58</ele>
        <time>2015-06-27T12:18:06Z</time>
      </trkpt>
      <trkpt lat="43.19765" lon="0.56333">
        <ele>410.14</ele>
        <time>2015-06-27T12:18:14Z</time>
      </trkpt>
      <trkpt lat="43.19807" lon="0.56382">
        <ele>409.66</ele>
        <time>2015-06-27T12:18:23Z</time>
      </trkpt>
      <trkpt lat="43.19845" lon="0.56422">
        <ele>408.7</ele>
        <time>2015-06-27T12:18:32Z</time>
      </trkpt>
      <trkpt lat="43.19879" lon="0.56462">
        <ele>407.74</ele>
        <time>2015-06-27T12:18:42Z</time>
      </trkpt>
      <trkpt lat="43.19915" lon="0.56504">
        <ele>406.77</ele>
        <time>2015-06-27T12:18:53Z</time>
      </trkpt>
      <trkpt lat="43.19919" lon="0.56507">
        <ele>406.77</ele>
        <time>2015-06-27T12:18:54Z</time>
      </trkpt>
      <trkpt lat="43.19923" lon="0.56511">
        <ele>406.29</ele>
        <time>2015-06-27T12:18:55Z</time>
      </trkpt>
      <trkpt lat="43.19926" lon="0.56515">
        <ele>406.29</ele>
        <time>2015-06-27T12:18:56Z</time>
      </trkpt>
      <trkpt lat="43.19932" lon="0.56523">
        <ele>406.29</ele>
        <time>2015-06-27T12:18:58Z</time>
      </trkpt>
      <trkpt lat="43.19935" lon="0.56527">
        <ele>405.81</ele>
        <time>2015-06-27T12:18:59Z</time>
      </trkpt>
      <trkpt lat="43.19956" lon="0.56552">
        <ele>405.33</ele>
        <time>2015-06-27T12:19:06Z</time>
      </trkpt>
      <trkpt lat="43.19961" lon="0.56562">
        <ele>404.85</ele>
        <time>2015-06-27T12:19:08Z</time>
      </trkpt>
      <trkpt lat="43.19971" lon="0.56575">
        <ele>404.37</ele>
        <time>2015-06-27T12:19:11Z</time>
      </trkpt>
      <trkpt lat="43.19992" lon="0.566">
        <ele>403.41</ele>
        <time>2015-06-27T12:19:17Z</time>
      </trkpt>
      <trkpt lat="43.19995" lon="0.56603">
        <ele>403.41</ele>
        <time>2015-06-27T12:19:18Z</time>
      </trkpt>
      <trkpt lat="43.20018" lon="0.56633">
        <ele>402.93</ele>
        <time>2015-06-27T12:19:25Z</time>
      </trkpt>
      <trkpt lat="43.20022" lon="0.56636">
        <ele>402.93</ele>
        <time>2015-06-27T12:19:26Z</time>
      </trkpt>
      <trkpt lat="43.20025" lon="0.56639">
        <ele>402.93</ele>
        <time>2015-06-27T12:19:27Z</time>
      </trkpt>
      <trkpt lat="43.20055" lon="0.56672">
        <ele>402.45</ele>
        <time>2015-06-27T12:19:37Z</time>
      </trkpt>
      <trkpt lat="43.20074" lon="0.56693">
        <ele>401.97</ele>
        <time>2015-06-27T12:19:44Z</time>
      </trkpt>
      <trkpt lat="43.20092" lon="0.56714">
        <ele>401.97</ele>
        <time>2015-06-27T12:19:51Z</time>
      </trkpt>
      <trkpt lat="43.20117" lon="0.56753">
        <ele>401.01</ele>
        <time>2015-06-27T12:20:01Z</time>
      </trkpt>
      <trkpt lat="43.20131" lon="0.56789">
        <ele>399.08</ele>
        <time>2015-06-27T12:20:07Z</time>
      </trkpt>
      <trkpt lat="43.20133" lon="0.56797">
        <ele>399.08</ele>
        <time>2015-06-27T12:20:08Z</time>
      </trkpt>
      <trkpt lat="43.20134" lon="0.56805">
        <ele>399.08</ele>
        <time>2015-06-27T12:20:09Z</time>
      </trkpt>
      <trkpt lat="43.20135" lon="0.56813">
        <ele>399.08</ele>
        <time>2015-06-27T12:20:10Z</time>
      </trkpt>
      <trkpt lat="43.20135" lon="0.56821">
        <ele>399.08</ele>
        <time>2015-06-27T12:20:11Z</time>
      </trkpt>
      <trkpt lat="43.20137" lon="0.56887">
        <ele>398.12</ele>
        <time>2015-06-27T12:20:19Z</time>
      </trkpt>
      <trkpt lat="43.20146" lon="0.56944">
        <ele>398.6</ele>
        <time>2015-06-27T12:20:26Z</time>
      </trkpt>
      <trkpt lat="43.20158" lon="0.56985">
        <ele>398.12</ele>
        <time>2015-06-27T12:20:33Z</time>
      </trkpt>
      <trkpt lat="43.20176" lon="0.57025">
        <ele>398.6</ele>
        <time>2015-06-27T12:20:42Z</time>
      </trkpt>
      <trkpt lat="43.20195" lon="0.57066">
        <ele>399.08</ele>
        <time>2015-06-27T12:20:52Z</time>
      </trkpt>
      <trkpt lat="43.20214" lon="0.57104">
        <ele>400.05</ele>
        <time>2015-06-27T12:21:02Z</time>
      </trkpt>
      <trkpt lat="43.20234" lon="0.57146">
        <ele>400.53</ele>
        <time>2015-06-27T12:21:13Z</time>
      </trkpt>
      <trkpt lat="43.20244" lon="0.57167">
        <ele>401.01</ele>
        <time>2015-06-27T12:21:18Z</time>
      </trkpt>
      <trkpt lat="43.20246" lon="0.57172">
        <ele>401.01</ele>
        <time>2015-06-27T12:21:19Z</time>
      </trkpt>
      <trkpt lat="43.2025" lon="0.57182">
        <ele>401.49</ele>
        <time>2015-06-27T12:21:21Z</time>
      </trkpt>
      <trkpt lat="43.20252" lon="0.57186">
        <ele>401.49</ele>
        <time>2015-06-27T12:21:22Z</time>
      </trkpt>
      <trkpt lat="43.20255" lon="0.5719">
        <ele>401.49</ele>
        <time>2015-06-27T12:21:23Z</time>
      </trkpt>
      <trkpt lat="43.20276" lon="0.57235">
        <ele>402.45</ele>
        <time>2015-06-27T12:21:34Z</time>
      </trkpt>
      <trkpt lat="43.20291" lon="0.57266">
        <ele>402.93</ele>
        <time>2015-06-27T12:21:42Z</time>
      </trkpt>
      <trkpt lat="43.20312" lon="0.57311">
        <ele>404.37</ele>
        <time>2015-06-27T12:21:53Z</time>
      </trkpt>
      <trkpt lat="43.20334" lon="0.57356">
        <ele>405.33</ele>
        <time>2015-06-27T12:22:05Z</time>
      </trkpt>
      <trkpt lat="43.2035" lon="0.57387">
        <ele>405.81</ele>
        <time>2015-06-27T12:22:14Z</time>
      </trkpt>
      <trkpt lat="43.20366" lon="0.57419">
        <ele>405.81</ele>
        <time>2015-06-27T12:22:22Z</time>
      </trkpt>
      <trkpt lat="43.2038" lon="0.57445">
        <ele>406.29</ele>
        <time>2015-06-27T12:22:29Z</time>
      </trkpt>
      <trkpt lat="43.20407" lon="0.57493">
        <ele>406.29</ele>
        <time>2015-06-27T12:22:41Z</time>
      </trkpt>
      <trkpt lat="43.20428" lon="0.57531">
        <ele>405.81</ele>
        <time>2015-06-27T12:22:50Z</time>
      </trkpt>
      <trkpt lat="43.20446" lon="0.57567">
        <ele>405.81</ele>
        <time>2015-06-27T12:22:58Z</time>
      </trkpt>
      <trkpt lat="43.20465" lon="0.57599">
        <ele>404.85</ele>
        <time>2015-06-27T12:23:06Z</time>
      </trkpt>
      <trkpt lat="43.20488" lon="0.57641">
        <ele>403.41</ele>
        <time>2015-06-27T12:23:16Z</time>
      </trkpt>
      <trkpt lat="43.20505" lon="0.57675">
        <ele>403.41</ele>
        <time>2015-06-27T12:23:25Z</time>
      </trkpt>
      <trkpt lat="43.20526" lon="0.57704">
        <ele>403.41</ele>
        <time>2015-06-27T12:23:35Z</time>
      </trkpt>
      <trkpt lat="43.20531" lon="0.57713">
        <ele>403.41</ele>
        <time>2015-06-27T12:23:39Z</time>
      </trkpt>
      <trkpt lat="43.20532" lon="0.57714">
        <ele>403.41</ele>
        <time>2015-06-27T12:23:40Z</time>
      </trkpt>
      <trkpt lat="43.20533" lon="0.57715">
        <ele>403.41</ele>
        <time>2015-06-27T12:23:41Z</time>
      </trkpt>
      <trkpt lat="43.20534" lon="0.57715">
        <ele>403.41</ele>
        <time>2015-06-27T12:23:42Z</time>
      </trkpt>
      <trkpt lat="43.20538" lon="0.57717">
        <ele>403.89</ele>
        <time>2015-06-27T12:23:49Z</time>
      </trkpt>
      <trkpt lat="43.20538" lon="0.57717">
        <ele>403.89</ele>
        <time>2015-06-27T12:24:03Z</time>
      </trkpt>
      <trkpt lat="43.20538" lon="0.57718">
        <ele>403.41</ele>
        <time>2015-06-27T12:24:21Z</time>
      </trkpt>
      <trkpt lat="43.20538" lon="0.57718">
        <ele>403.41</ele>
        <time>2015-06-27T12:24:28Z</time>
      </trkpt>
      <trkpt lat="43.20538" lon="0.57718">
        <ele>403.41</ele>
        <time>2015-06-27T12:24:42Z</time>
      </trkpt>
      <trkpt lat="43.20538" lon="0.5772">
        <ele>403.41</ele>
        <time>2015-06-27T12:24:49Z</time>
      </trkpt>
      <trkpt lat="43.20539" lon="0.57723">
        <ele>403.41</ele>
        <time>2015-06-27T12:24:50Z</time>
      </trkpt>
      <trkpt lat="43.2054" lon="0.57726">
        <ele>403.41</ele>
        <time>2015-06-27T12:24:51Z</time>
      </trkpt>
      <trkpt lat="43.20541" lon="0.57729">
        <ele>402.93</ele>
        <time>2015-06-27T12:24:52Z</time>
      </trkpt>
      <trkpt lat="43.20543" lon="0.57732">
        <ele>403.41</ele>
        <time>2015-06-27T12:24:53Z</time>
      </trkpt>
      <trkpt lat="43.20544" lon="0.57735">
        <ele>402.45</ele>
        <time>2015-06-27T12:24:54Z</time>
      </trkpt>
      <trkpt lat="43.2056" lon="0.57765">
        <ele>401.49</ele>
        <time>2015-06-27T12:25:00Z</time>
      </trkpt>
      <trkpt lat="43.20571" lon="0.57787">
        <ele>400.53</ele>
        <time>2015-06-27T12:25:04Z</time>
      </trkpt>
      <trkpt lat="43.20574" lon="0.57799">
        <ele>400.53</ele>
        <time>2015-06-27T12:25:06Z</time>
      </trkpt>
      <trkpt lat="43.20592" lon="0.5786">
        <ele>401.01</ele>
        <time>2015-06-27T12:25:17Z</time>
      </trkpt>
      <trkpt lat="43.2061" lon="0.57914">
        <ele>400.53</ele>
        <time>2015-06-27T12:25:27Z</time>
      </trkpt>
      <trkpt lat="43.20634" lon="0.57955">
        <ele>399.57</ele>
        <time>2015-06-27T12:25:36Z</time>
      </trkpt>
      <trkpt lat="43.20665" lon="0.58004">
        <ele>398.12</ele>
        <time>2015-06-27T12:25:46Z</time>
      </trkpt>
      <trkpt lat="43.20683" lon="0.58033">
        <ele>397.16</ele>
        <time>2015-06-27T12:25:52Z</time>
      </trkpt>
      <trkpt lat="43.20684" lon="0.5804">
        <ele>397.16</ele>
        <time>2015-06-27T12:25:53Z</time>
      </trkpt>
      <trkpt lat="43.20684" lon="0.58047">
        <ele>396.68</ele>
        <time>2015-06-27T12:25:54Z</time>
      </trkpt>
      <trkpt lat="43.20682" lon="0.58055">
        <ele>396.2</ele>
        <time>2015-06-27T12:25:55Z</time>
      </trkpt>
      <trkpt lat="43.20678" lon="0.58061">
        <ele>395.72</ele>
        <time>2015-06-27T12:25:56Z</time>
      </trkpt>
      <trkpt lat="43.20674" lon="0.58068">
        <ele>395.72</ele>
        <time>2015-06-27T12:25:57Z</time>
      </trkpt>
      <trkpt lat="43.20669" lon="0.58074">
        <ele>395.24</ele>
        <time>2015-06-27T12:25:58Z</time>
      </trkpt>
      <trkpt lat="43.20644" lon="0.58107">
        <ele>393.8</ele>
        <time>2015-06-27T12:26:03Z</time>
      </trkpt>
      <trkpt lat="43.20598" lon="0.58166">
        <ele>390.91</ele>
        <time>2015-06-27T12:26:12Z</time>
      </trkpt>
      <trkpt lat="43.20563" lon="0.58225">
        <ele>388.03</ele>
        <time>2015-06-27T12:26:20Z</time>
      </trkpt>
      <trkpt lat="43.20538" lon="0.58287">
        <ele>384.66</ele>
        <time>2015-06-27T12:26:26Z</time>
      </trkpt>
      <trkpt lat="43.20517" lon="0.58335">
        <ele>381.78</ele>
        <time>2015-06-27T12:26:30Z</time>
      </trkpt>
      <trkpt lat="43.20498" lon="0.58387">
        <ele>378.42</ele>
        <time>2015-06-27T12:26:34Z</time>
      </trkpt>
      <trkpt lat="43.20489" lon="0.58408">
        <ele>376.97</ele>
        <time>2015-06-27T12:26:36Z</time>
      </trkpt>
      <trkpt lat="43.20482" lon="0.58415">
        <ele>376.49</ele>
        <time>2015-06-27T12:26:37Z</time>
      </trkpt>
      <trkpt lat="43.20473" lon="0.58419">
        <ele>376.01</ele>
        <time>2015-06-27T12:26:38Z</time>
      </trkpt>
      <trkpt lat="43.20456" lon="0.58424">
        <ele>374.57</ele>
        <time>2015-06-27T12:26:40Z</time>
      </trkpt>
      <trkpt lat="43.20449" lon="0.58429">
        <ele>374.09</ele>
        <time>2015-06-27T12:26:41Z</time>
      </trkpt>
      <trkpt lat="43.20443" lon="0.58436">
        <ele>373.61</ele>
        <time>2015-06-27T12:26:42Z</time>
      </trkpt>
      <trkpt lat="43.20438" lon="0.58446">
        <ele>373.13</ele>
        <time>2015-06-27T12:26:43Z</time>
      </trkpt>
      <trkpt lat="43.20434" lon="0.58457">
        <ele>372.65</ele>
        <time>2015-06-27T12:26:44Z</time>
      </trkpt>
      <trkpt lat="43.20433" lon="0.58469">
        <ele>372.17</ele>
        <time>2015-06-27T12:26:45Z</time>
      </trkpt>
      <trkpt lat="43.20433" lon="0.58482">
        <ele>371.21</ele>
        <time>2015-06-27T12:26:46Z</time>
      </trkpt>
      <trkpt lat="43.20431" lon="0.58506">
        <ele>370.73</ele>
        <time>2015-06-27T12:26:48Z</time>
      </trkpt>
      <trkpt lat="43.20423" lon="0.58628">
        <ele>367.36</ele>
        <time>2015-06-27T12:26:58Z</time>
      </trkpt>
      <trkpt lat="43.20418" lon="0.58721">
        <ele>365.92</ele>
        <time>2015-06-27T12:27:06Z</time>
      </trkpt>
      <trkpt lat="43.20419" lon="0.58732">
        <ele>365.92</ele>
        <time>2015-06-27T12:27:07Z</time>
      </trkpt>
      <trkpt lat="43.20421" lon="0.58743">
        <ele>365.92</ele>
        <time>2015-06-27T12:27:08Z</time>
      </trkpt>
      <trkpt lat="43.20438" lon="0.58831">
        <ele>364.96</ele>
        <time>2015-06-27T12:27:17Z</time>
      </trkpt>
      <trkpt lat="43.20439" lon="0.5885">
        <ele>364.48</ele>
        <time>2015-06-27T12:27:19Z</time>
      </trkpt>
      <trkpt lat="43.20438" lon="0.5886">
        <ele>364.48</ele>
        <time>2015-06-27T12:27:20Z</time>
      </trkpt>
      <trkpt lat="43.20436" lon="0.58869">
        <ele>364</ele>
        <time>2015-06-27T12:27:21Z</time>
      </trkpt>
      <trkpt lat="43.20433" lon="0.58878">
        <ele>363.52</ele>
        <time>2015-06-27T12:27:22Z</time>
      </trkpt>
      <trkpt lat="43.2043" lon="0.58886">
        <ele>363.52</ele>
        <time>2015-06-27T12:27:23Z</time>
      </trkpt>
      <trkpt lat="43.20425" lon="0.58893">
        <ele>363.52</ele>
        <time>2015-06-27T12:27:24Z</time>
      </trkpt>
      <trkpt lat="43.20421" lon="0.589">
        <ele>363.52</ele>
        <time>2015-06-27T12:27:25Z</time>
      </trkpt>
      <trkpt lat="43.2038" lon="0.58971">
        <ele>362.55</ele>
        <time>2015-06-27T12:27:35Z</time>
      </trkpt>
      <trkpt lat="43.20376" lon="0.58979">
        <ele>362.55</ele>
        <time>2015-06-27T12:27:36Z</time>
      </trkpt>
      <trkpt lat="43.20338" lon="0.59042">
        <ele>361.11</ele>
        <time>2015-06-27T12:27:45Z</time>
      </trkpt>
      <trkpt lat="43.20306" lon="0.59106">
        <ele>360.15</ele>
        <time>2015-06-27T12:27:54Z</time>
      </trkpt>
      <trkpt lat="43.20298" lon="0.59129">
        <ele>359.19</ele>
        <time>2015-06-27T12:27:57Z</time>
      </trkpt>
      <trkpt lat="43.20279" lon="0.59214">
        <ele>359.19</ele>
        <time>2015-06-27T12:28:07Z</time>
      </trkpt>
      <trkpt lat="43.20267" lon="0.59275">
        <ele>358.71</ele>
        <time>2015-06-27T12:28:14Z</time>
      </trkpt>
      <trkpt lat="43.20257" lon="0.59328">
        <ele>358.71</ele>
        <time>2015-06-27T12:28:21Z</time>
      </trkpt>
      <trkpt lat="43.20238" lon="0.59393">
        <ele>358.23</ele>
        <time>2015-06-27T12:28:31Z</time>
      </trkpt>
      <trkpt lat="43.20218" lon="0.59459">
        <ele>357.75</ele>
        <time>2015-06-27T12:28:41Z</time>
      </trkpt>
      <trkpt lat="43.20216" lon="0.59465">
        <ele>358.23</ele>
        <time>2015-06-27T12:28:42Z</time>
      </trkpt>
      <trkpt lat="43.20213" lon="0.5947">
        <ele>358.23</ele>
        <time>2015-06-27T12:28:43Z</time>
      </trkpt>
      <trkpt lat="43.20211" lon="0.59473">
        <ele>358.23</ele>
        <time>2015-06-27T12:28:44Z</time>
      </trkpt>
      <trkpt lat="43.20208" lon="0.59475">
        <ele>358.23</ele>
        <time>2015-06-27T12:28:45Z</time>
      </trkpt>
      <trkpt lat="43.20205" lon="0.59477">
        <ele>358.23</ele>
        <time>2015-06-27T12:28:46Z</time>
      </trkpt>
      <trkpt lat="43.20179" lon="0.5949">
        <ele>358.23</ele>
        <time>2015-06-27T12:28:55Z</time>
      </trkpt>
      <trkpt lat="43.20158" lon="0.59502">
        <ele>359.19</ele>
        <time>2015-06-27T12:29:03Z</time>
      </trkpt>
      <trkpt lat="43.20134" lon="0.59514">
        <ele>360.15</ele>
        <time>2015-06-27T12:29:12Z</time>
      </trkpt>
      <trkpt lat="43.20111" lon="0.59524">
        <ele>361.11</ele>
        <time>2015-06-27T12:29:21Z</time>
      </trkpt>
      <trkpt lat="43.20095" lon="0.59535">
        <ele>361.59</ele>
        <time>2015-06-27T12:29:29Z</time>
      </trkpt>
      <trkpt lat="43.20075" lon="0.5955">
        <ele>363.04</ele>
        <time>2015-06-27T12:29:38Z</time>
      </trkpt>
      <trkpt lat="43.20063" lon="0.5957">
        <ele>364</ele>
        <time>2015-06-27T12:29:46Z</time>
      </trkpt>
      <trkpt lat="43.20057" lon="0.59586">
        <ele>365.44</ele>
        <time>2015-06-27T12:29:53Z</time>
      </trkpt>
      <trkpt lat="43.20054" lon="0.59602">
        <ele>365.92</ele>
        <time>2015-06-27T12:30:00Z</time>
      </trkpt>
      <trkpt lat="43.20053" lon="0.5962">
        <ele>366.88</ele>
        <time>2015-06-27T12:30:08Z</time>
      </trkpt>
      <trkpt lat="43.20053" lon="0.59622">
        <ele>366.88</ele>
        <time>2015-06-27T12:30:09Z</time>
      </trkpt>
      <trkpt lat="43.20052" lon="0.59648">
        <ele>368.32</ele>
        <time>2015-06-27T12:30:19Z</time>
      </trkpt>
      <trkpt lat="43.20052" lon="0.59666">
        <ele>369.28</ele>
        <time>2015-06-27T12:30:27Z</time>
      </trkpt>
      <trkpt lat="43.20051" lon="0.5969">
        <ele>370.24</ele>
        <time>2015-06-27T12:30:36Z</time>
      </trkpt>
      <trkpt lat="43.2005" lon="0.5972">
        <ele>372.17</ele>
        <time>2015-06-27T12:30:48Z</time>
      </trkpt>
      <trkpt lat="43.20049" lon="0.59747">
        <ele>373.61</ele>
        <time>2015-06-27T12:30:59Z</time>
      </trkpt>
      <trkpt lat="43.2005" lon="0.59749">
        <ele>374.09</ele>
        <time>2015-06-27T12:31:00Z</time>
      </trkpt>
      <trkpt lat="43.2005" lon="0.59753">
        <ele>374.09</ele>
        <time>2015-06-27T12:31:01Z</time>
      </trkpt>
      <trkpt lat="43.20049" lon="0.59771">
        <ele>375.53</ele>
        <time>2015-06-27T12:31:09Z</time>
      </trkpt>
      <trkpt lat="43.2005" lon="0.59788">
        <ele>376.49</ele>
        <time>2015-06-27T12:31:16Z</time>
      </trkpt>
      <trkpt lat="43.20049" lon="0.59806">
        <ele>377.45</ele>
        <time>2015-06-27T12:31:24Z</time>
      </trkpt>
      <trkpt lat="43.20049" lon="0.59816">
        <ele>377.94</ele>
        <time>2015-06-27T12:31:28Z</time>
      </trkpt>
      <trkpt lat="43.20049" lon="0.59819">
        <ele>378.42</ele>
        <time>2015-06-27T12:31:29Z</time>
      </trkpt>
      <trkpt lat="43.20049" lon="0.59821">
        <ele>378.42</ele>
        <time>2015-06-27T12:31:30Z</time>
      </trkpt>
      <trkpt lat="43.20049" lon="0.59824">
        <ele>378.9</ele>
        <time>2015-06-27T12:31:31Z</time>
      </trkpt>
      <trkpt lat="43.20049" lon="0.59827">
        <ele>378.9</ele>
        <time>2015-06-27T12:31:32Z</time>
      </trkpt>
      <trkpt lat="43.20047" lon="0.59852">
        <ele>379.86</ele>
        <time>2015-06-27T12:31:42Z</time>
      </trkpt>
      <trkpt lat="43.20048" lon="0.59874">
        <ele>381.3</ele>
        <time>2015-06-27T12:31:51Z</time>
      </trkpt>
      <trkpt lat="43.20049" lon="0.59892">
        <ele>382.74</ele>
        <time>2015-06-27T12:31:59Z</time>
      </trkpt>
      <trkpt lat="43.20048" lon="0.59913">
        <ele>383.7</ele>
        <time>2015-06-27T12:32:07Z</time>
      </trkpt>
      <trkpt lat="43.2005" lon="0.59937">
        <ele>385.15</ele>
        <time>2015-06-27T12:32:16Z</time>
      </trkpt>
      <trkpt lat="43.20052" lon="0.59955">
        <ele>386.11</ele>
        <time>2015-06-27T12:32:23Z</time>
      </trkpt>
      <trkpt lat="43.20054" lon="0.59976">
        <ele>387.07</ele>
        <time>2015-06-27T12:32:31Z</time>
      </trkpt>
      <trkpt lat="43.20055" lon="0.60006">
        <ele>388.99</ele>
        <time>2015-06-27T12:32:42Z</time>
      </trkpt>
      <trkpt lat="43.20056" lon="0.60028">
        <ele>389.95</ele>
        <time>2015-06-27T12:32:50Z</time>
      </trkpt>
      <trkpt lat="43.20061" lon="0.60052">
        <ele>391.39</ele>
        <time>2015-06-27T12:32:59Z</time>
      </trkpt>
      <trkpt lat="43.20064" lon="0.60073">
        <ele>392.84</ele>
        <time>2015-06-27T12:33:07Z</time>
      </trkpt>
      <trkpt lat="43.20065" lon="0.601">
        <ele>393.8</ele>
        <time>2015-06-27T12:33:17Z</time>
      </trkpt>
      <trkpt lat="43.20066" lon="0.60125">
        <ele>395.24</ele>
        <time>2015-06-27T12:33:26Z</time>
      </trkpt>
      <trkpt lat="43.2006" lon="0.60143">
        <ele>396.68</ele>
        <time>2015-06-27T12:33:34Z</time>
      </trkpt>
      <trkpt lat="43.20048" lon="0.60152">
        <ele>398.12</ele>
        <time>2015-06-27T12:33:41Z</time>
      </trkpt>
      <trkpt lat="43.20044" lon="0.60151">
        <ele>398.12</ele>
        <time>2015-06-27T12:33:46Z</time>
      </trkpt>
      <trkpt lat="43.20044" lon="0.60153">
        <ele>398.6</ele>
        <time>2015-06-27T12:34:00Z</time>
      </trkpt>
      <trkpt lat="43.20045" lon="0.60153">
        <ele>398.6</ele>
        <time>2015-06-27T12:34:12Z</time>
      </trkpt>
      <trkpt lat="43.20045" lon="0.60153">
        <ele>398.12</ele>
        <time>2015-06-27T12:34:20Z</time>
      </trkpt>
      <trkpt lat="43.20046" lon="0.60153">
        <ele>398.12</ele>
        <time>2015-06-27T12:34:38Z</time>
      </trkpt>
      <trkpt lat="43.20046" lon="0.60153">
        <ele>398.12</ele>
        <time>2015-06-27T12:34:48Z</time>
      </trkpt>
      <trkpt lat="43.20045" lon="0.60152">
        <ele>398.12</ele>
        <time>2015-06-27T12:34:57Z</time>
      </trkpt>
      <trkpt lat="43.20045" lon="0.60153">
        <ele>398.12</ele>
        <time>2015-06-27T12:35:04Z</time>
      </trkpt>
      <trkpt lat="43.20045" lon="0.60153">
        <ele>398.12</ele>
        <time>2015-06-27T12:35:14Z</time>
      </trkpt>
      <trkpt lat="43.20045" lon="0.60153">
        <ele>398.12</ele>
        <time>2015-06-27T12:35:28Z</time>
      </trkpt>
      <trkpt lat="43.20045" lon="0.60153">
        <ele>397.64</ele>
        <time>2015-06-27T12:35:47Z</time>
      </trkpt>
      <trkpt lat="43.20045" lon="0.60153">
        <ele>398.12</ele>
        <time>2015-06-27T12:35:59Z</time>
      </trkpt>
      <trkpt lat="43.20045" lon="0.60152">
        <ele>397.64</ele>
        <time>2015-06-27T12:36:16Z</time>
      </trkpt>
      <trkpt lat="43.20045" lon="0.60152">
        <ele>397.64</ele>
        <time>2015-06-27T12:36:23Z</time>
      </trkpt>
      <trkpt lat="43.20044" lon="0.60154">
        <ele>397.64</ele>
        <time>2015-06-27T12:36:24Z</time>
      </trkpt>
      <trkpt lat="43.20042" lon="0.60155">
        <ele>397.64</ele>
        <time>2015-06-27T12:36:25Z</time>
      </trkpt>
      <trkpt lat="43.20041" lon="0.60157">
        <ele>397.64</ele>
        <time>2015-06-27T12:36:26Z</time>
      </trkpt>
      <trkpt lat="43.20039" lon="0.60159">
        <ele>397.64</ele>
        <time>2015-06-27T12:36:27Z</time>
      </trkpt>
      <trkpt lat="43.20037" lon="0.6016">
        <ele>398.12</ele>
        <time>2015-06-27T12:36:28Z</time>
      </trkpt>
      <trkpt lat="43.20035" lon="0.60162">
        <ele>397.16</ele>
        <time>2015-06-27T12:36:29Z</time>
      </trkpt>
      <trkpt lat="43.20032" lon="0.60163">
        <ele>397.16</ele>
        <time>2015-06-27T12:36:30Z</time>
      </trkpt>
      <trkpt lat="43.20029" lon="0.60165">
        <ele>396.68</ele>
        <time>2015-06-27T12:36:31Z</time>
      </trkpt>
      <trkpt lat="43.20026" lon="0.60167">
        <ele>396.68</ele>
        <time>2015-06-27T12:36:32Z</time>
      </trkpt>
      <trkpt lat="43.20024" lon="0.60171">
        <ele>396.2</ele>
        <time>2015-06-27T12:36:33Z</time>
      </trkpt>
      <trkpt lat="43.20021" lon="0.60176">
        <ele>396.2</ele>
        <time>2015-06-27T12:36:34Z</time>
      </trkpt>
      <trkpt lat="43.20018" lon="0.60182">
        <ele>395.72</ele>
        <time>2015-06-27T12:36:35Z</time>
      </trkpt>
      <trkpt lat="43.20015" lon="0.60189">
        <ele>395.72</ele>
        <time>2015-06-27T12:36:36Z</time>
      </trkpt>
      <trkpt lat="43.20014" lon="0.60197">
        <ele>395.24</ele>
        <time>2015-06-27T12:36:37Z</time>
      </trkpt>
      <trkpt lat="43.20013" lon="0.60205">
        <ele>394.28</ele>
        <time>2015-06-27T12:36:38Z</time>
      </trkpt>
      <trkpt lat="43.20013" lon="0.60215">
        <ele>393.8</ele>
        <time>2015-06-27T12:36:39Z</time>
      </trkpt>
      <trkpt lat="43.20012" lon="0.60258">
        <ele>391.87</ele>
        <time>2015-06-27T12:36:43Z</time>
      </trkpt>
      <trkpt lat="43.20013" lon="0.60295">
        <ele>390.43</ele>
        <time>2015-06-27T12:36:46Z</time>
      </trkpt>
      <trkpt lat="43.20014" lon="0.60363">
        <ele>387.55</ele>
        <time>2015-06-27T12:36:51Z</time>
      </trkpt>
      <trkpt lat="43.20015" lon="0.60405">
        <ele>383.7</ele>
        <time>2015-06-27T12:36:54Z</time>
      </trkpt>
      <trkpt lat="43.20016" lon="0.60481">
        <ele>380.34</ele>
        <time>2015-06-27T12:36:59Z</time>
      </trkpt>
      <trkpt lat="43.20015" lon="0.60544">
        <ele>376.49</ele>
        <time>2015-06-27T12:37:03Z</time>
      </trkpt>
      <trkpt lat="43.20012" lon="0.60561">
        <ele>375.53</ele>
        <time>2015-06-27T12:37:04Z</time>
      </trkpt>
      <trkpt lat="43.20006" lon="0.60576">
        <ele>375.05</ele>
        <time>2015-06-27T12:37:05Z</time>
      </trkpt>
      <trkpt lat="43.19999" lon="0.6059">
        <ele>373.61</ele>
        <time>2015-06-27T12:37:06Z</time>
      </trkpt>
      <trkpt lat="43.1999" lon="0.60602">
        <ele>371.69</ele>
        <time>2015-06-27T12:37:07Z</time>
      </trkpt>
      <trkpt lat="43.19979" lon="0.60611">
        <ele>370.73</ele>
        <time>2015-06-27T12:37:08Z</time>
      </trkpt>
      <trkpt lat="43.19967" lon="0.60618">
        <ele>370.24</ele>
        <time>2015-06-27T12:37:09Z</time>
      </trkpt>
      <trkpt lat="43.19955" lon="0.60624">
        <ele>369.28</ele>
        <time>2015-06-27T12:37:10Z</time>
      </trkpt>
      <trkpt lat="43.19921" lon="0.60638">
        <ele>366.88</ele>
        <time>2015-06-27T12:37:13Z</time>
      </trkpt>
      <trkpt lat="43.19912" lon="0.60644">
        <ele>366.4</ele>
        <time>2015-06-27T12:37:14Z</time>
      </trkpt>
      <trkpt lat="43.19903" lon="0.60653">
        <ele>365.92</ele>
        <time>2015-06-27T12:37:15Z</time>
      </trkpt>
      <trkpt lat="43.19894" lon="0.60663">
        <ele>365.44</ele>
        <time>2015-06-27T12:37:16Z</time>
      </trkpt>
      <trkpt lat="43.19886" lon="0.60675">
        <ele>363.52</ele>
        <time>2015-06-27T12:37:17Z</time>
      </trkpt>
      <trkpt lat="43.19855" lon="0.60724">
        <ele>360.15</ele>
        <time>2015-06-27T12:37:21Z</time>
      </trkpt>
      <trkpt lat="43.19816" lon="0.60782">
        <ele>356.79</ele>
        <time>2015-06-27T12:37:26Z</time>
      </trkpt>
      <trkpt lat="43.19808" lon="0.6079">
        <ele>357.27</ele>
        <time>2015-06-27T12:37:27Z</time>
      </trkpt>
      <trkpt lat="43.19799" lon="0.60797">
        <ele>356.31</ele>
        <time>2015-06-27T12:37:28Z</time>
      </trkpt>
      <trkpt lat="43.19777" lon="0.6081">
        <ele>355.34</ele>
        <time>2015-06-27T12:37:31Z</time>
      </trkpt>
      <trkpt lat="43.19772" lon="0.60813">
        <ele>355.34</ele>
        <time>2015-06-27T12:37:32Z</time>
      </trkpt>
      <trkpt lat="43.19758" lon="0.6082">
        <ele>354.86</ele>
        <time>2015-06-27T12:37:37Z</time>
      </trkpt>
      <trkpt lat="43.19754" lon="0.6082">
        <ele>354.38</ele>
        <time>2015-06-27T12:37:39Z</time>
      </trkpt>
      <trkpt lat="43.19752" lon="0.60822">
        <ele>354.38</ele>
        <time>2015-06-27T12:37:40Z</time>
      </trkpt>
      <trkpt lat="43.19749" lon="0.60822">
        <ele>354.38</ele>
        <time>2015-06-27T12:37:41Z</time>
      </trkpt>
      <trkpt lat="43.19747" lon="0.60822">
        <ele>354.38</ele>
        <time>2015-06-27T12:37:42Z</time>
      </trkpt>
      <trkpt lat="43.19744" lon="0.60821">
        <ele>353.9</ele>
        <time>2015-06-27T12:37:43Z</time>
      </trkpt>
      <trkpt lat="43.19736" lon="0.60821">
        <ele>353.42</ele>
        <time>2015-06-27T12:37:45Z</time>
      </trkpt>
      <trkpt lat="43.19731" lon="0.60822">
        <ele>352.94</ele>
        <time>2015-06-27T12:37:46Z</time>
      </trkpt>
      <trkpt lat="43.19699" lon="0.60829">
        <ele>350.54</ele>
        <time>2015-06-27T12:37:51Z</time>
      </trkpt>
      <trkpt lat="43.19662" lon="0.60839">
        <ele>347.17</ele>
        <time>2015-06-27T12:37:56Z</time>
      </trkpt>
      <trkpt lat="43.1964" lon="0.60841">
        <ele>345.25</ele>
        <time>2015-06-27T12:37:59Z</time>
      </trkpt>
      <trkpt lat="43.19632" lon="0.60839">
        <ele>344.77</ele>
        <time>2015-06-27T12:38:00Z</time>
      </trkpt>
      <trkpt lat="43.19625" lon="0.60835">
        <ele>343.81</ele>
        <time>2015-06-27T12:38:01Z</time>
      </trkpt>
      <trkpt lat="43.19618" lon="0.6083">
        <ele>343.81</ele>
        <time>2015-06-27T12:38:02Z</time>
      </trkpt>
      <trkpt lat="43.19611" lon="0.60825">
        <ele>343.81</ele>
        <time>2015-06-27T12:38:03Z</time>
      </trkpt>
      <trkpt lat="43.19584" lon="0.60806">
        <ele>342.85</ele>
        <time>2015-06-27T12:38:07Z</time>
      </trkpt>
      <trkpt lat="43.19578" lon="0.60805">
        <ele>342.85</ele>
        <time>2015-06-27T12:38:08Z</time>
      </trkpt>
      <trkpt lat="43.1957" lon="0.60805">
        <ele>342.37</ele>
        <time>2015-06-27T12:38:09Z</time>
      </trkpt>
      <trkpt lat="43.19564" lon="0.60806">
        <ele>341.89</ele>
        <time>2015-06-27T12:38:10Z</time>
      </trkpt>
      <trkpt lat="43.19557" lon="0.60808">
        <ele>341.41</ele>
        <time>2015-06-27T12:38:11Z</time>
      </trkpt>
      <trkpt lat="43.19551" lon="0.60811">
        <ele>340.92</ele>
        <time>2015-06-27T12:38:12Z</time>
      </trkpt>
      <trkpt lat="43.19546" lon="0.60815">
        <ele>340.92</ele>
        <time>2015-06-27T12:38:13Z</time>
      </trkpt>
      <trkpt lat="43.19541" lon="0.60819">
        <ele>341.41</ele>
        <time>2015-06-27T12:38:14Z</time>
      </trkpt>
      <trkpt lat="43.19536" lon="0.60823">
        <ele>340.92</ele>
        <time>2015-06-27T12:38:15Z</time>
      </trkpt>
      <trkpt lat="43.19531" lon="0.60829">
        <ele>340.92</ele>
        <time>2015-06-27T12:38:16Z</time>
      </trkpt>
      <trkpt lat="43.19527" lon="0.60834">
        <ele>340.92</ele>
        <time>2015-06-27T12:38:17Z</time>
      </trkpt>
      <trkpt lat="43.19524" lon="0.6084">
        <ele>340.92</ele>
        <time>2015-06-27T12:38:18Z</time>
      </trkpt>
      <trkpt lat="43.19522" lon="0.60846">
        <ele>340.92</ele>
        <time>2015-06-27T12:38:19Z</time>
      </trkpt>
      <trkpt lat="43.1952" lon="0.60852">
        <ele>340.92</ele>
        <time>2015-06-27T12:38:20Z</time>
      </trkpt>
      <trkpt lat="43.19518" lon="0.60859">
        <ele>340.92</ele>
        <time>2015-06-27T12:38:21Z</time>
      </trkpt>
      <trkpt lat="43.19517" lon="0.60865">
        <ele>340.44</ele>
        <time>2015-06-27T12:38:22Z</time>
      </trkpt>
      <trkpt lat="43.19515" lon="0.6087">
        <ele>340.92</ele>
        <time>2015-06-27T12:38:23Z</time>
      </trkpt>
      <trkpt lat="43.19513" lon="0.60875">
        <ele>340.92</ele>
        <time>2015-06-27T12:38:24Z</time>
      </trkpt>
      <trkpt lat="43.19508" lon="0.60885">
        <ele>341.41</ele>
        <time>2015-06-27T12:38:27Z</time>
      </trkpt>
      <trkpt lat="43.19506" lon="0.60886">
        <ele>340.92</ele>
        <time>2015-06-27T12:38:28Z</time>
      </trkpt>
      <trkpt lat="43.19504" lon="0.60886">
        <ele>342.37</ele>
        <time>2015-06-27T12:38:29Z</time>
      </trkpt>
      <trkpt lat="43.195" lon="0.60885">
        <ele>341.41</ele>
        <time>2015-06-27T12:38:35Z</time>
      </trkpt>
      <trkpt lat="43.195" lon="0.60885">
        <ele>341.41</ele>
        <time>2015-06-27T12:38:39Z</time>
      </trkpt>
      <trkpt lat="43.19499" lon="0.60887">
        <ele>341.41</ele>
        <time>2015-06-27T12:38:40Z</time>
      </trkpt>
      <trkpt lat="43.19498" lon="0.60888">
        <ele>341.41</ele>
        <time>2015-06-27T12:38:41Z</time>
      </trkpt>
      <trkpt lat="43.19498" lon="0.6089">
        <ele>341.41</ele>
        <time>2015-06-27T12:38:42Z</time>
      </trkpt>
      <trkpt lat="43.195" lon="0.6089">
        <ele>341.41</ele>
        <time>2015-06-27T12:38:43Z</time>
      </trkpt>
      <trkpt lat="43.19501" lon="0.60888">
        <ele>341.41</ele>
        <time>2015-06-27T12:38:44Z</time>
      </trkpt>
      <trkpt lat="43.19504" lon="0.60887">
        <ele>341.41</ele>
        <time>2015-06-27T12:38:45Z</time>
      </trkpt>
      <trkpt lat="43.19507" lon="0.60885">
        <ele>341.41</ele>
        <time>2015-06-27T12:38:46Z</time>
      </trkpt>
      <trkpt lat="43.19509" lon="0.60882">
        <ele>341.41</ele>
        <time>2015-06-27T12:38:47Z</time>
      </trkpt>
      <trkpt lat="43.19512" lon="0.60878">
        <ele>340.92</ele>
        <time>2015-06-27T12:38:48Z</time>
      </trkpt>
      <trkpt lat="43.19513" lon="0.60874">
        <ele>341.41</ele>
        <time>2015-06-27T12:38:49Z</time>
      </trkpt>
      <trkpt lat="43.19514" lon="0.60869">
        <ele>340.92</ele>
        <time>2015-06-27T12:38:50Z</time>
      </trkpt>
      <trkpt lat="43.19514" lon="0.60865">
        <ele>340.92</ele>
        <time>2015-06-27T12:38:51Z</time>
      </trkpt>
      <trkpt lat="43.19513" lon="0.60861">
        <ele>340.92</ele>
        <time>2015-06-27T12:38:52Z</time>
      </trkpt>
      <trkpt lat="43.19513" lon="0.60859">
        <ele>340.92</ele>
        <time>2015-06-27T12:38:53Z</time>
      </trkpt>
      <trkpt lat="43.19513" lon="0.60856">
        <ele>340.44</ele>
        <time>2015-06-27T12:38:58Z</time>
      </trkpt>
      <trkpt lat="43.19513" lon="0.60856">
        <ele>340.44</ele>
        <time>2015-06-27T12:39:09Z</time>
      </trkpt>
      <trkpt lat="43.19514" lon="0.60856">
        <ele>340.92</ele>
        <time>2015-06-27T12:39:15Z</time>
      </trkpt>
      <trkpt lat="43.19515" lon="0.60854">
        <ele>340.92</ele>
        <time>2015-06-27T12:39:16Z</time>
      </trkpt>
      <trkpt lat="43.19515" lon="0.60853">
        <ele>340.92</ele>
        <time>2015-06-27T12:39:17Z</time>
      </trkpt>
      <trkpt lat="43.19514" lon="0.60849">
        <ele>340.44</ele>
        <time>2015-06-27T12:39:25Z</time>
      </trkpt>
      <trkpt lat="43.19516" lon="0.60846">
        <ele>340.44</ele>
        <time>2015-06-27T12:39:32Z</time>
      </trkpt>
      <trkpt lat="43.19519" lon="0.6084">
        <ele>340.44</ele>
        <time>2015-06-27T12:39:42Z</time>
      </trkpt>
      <trkpt lat="43.19521" lon="0.60834">
        <ele>340.44</ele>
        <time>2015-06-27T12:39:48Z</time>
      </trkpt>
      <trkpt lat="43.19521" lon="0.60828">
        <ele>340.92</ele>
        <time>2015-06-27T12:39:57Z</time>
      </trkpt>
      <trkpt lat="43.19524" lon="0.60822">
        <ele>340.92</ele>
        <time>2015-06-27T12:40:04Z</time>
      </trkpt>
      <trkpt lat="43.19525" lon="0.6082">
        <ele>340.92</ele>
        <time>2015-06-27T12:40:06Z</time>
      </trkpt>
      <trkpt lat="43.19526" lon="0.60818">
        <ele>340.44</ele>
        <time>2015-06-27T12:40:07Z</time>
      </trkpt>
      <trkpt lat="43.19523" lon="0.60808">
        <ele>340.44</ele>
        <time>2015-06-27T12:40:14Z</time>
      </trkpt>
      <trkpt lat="43.19519" lon="0.60796">
        <ele>339.96</ele>
        <time>2015-06-27T12:40:23Z</time>
      </trkpt>
      <trkpt lat="43.1952" lon="0.60782">
        <ele>339.96</ele>
        <time>2015-06-27T12:40:33Z</time>
      </trkpt>
      <trkpt lat="43.19517" lon="0.60776">
        <ele>339.96</ele>
        <time>2015-06-27T12:40:40Z</time>
      </trkpt>
      <trkpt lat="43.19516" lon="0.60774">
        <ele>339.96</ele>
        <time>2015-06-27T12:40:41Z</time>
      </trkpt>
      <trkpt lat="43.19516" lon="0.60772">
        <ele>339.96</ele>
        <time>2015-06-27T12:40:42Z</time>
      </trkpt>
      <trkpt lat="43.19511" lon="0.60753">
        <ele>339.96</ele>
        <time>2015-06-27T12:40:51Z</time>
      </trkpt>
      <trkpt lat="43.19508" lon="0.60742">
        <ele>339.96</ele>
        <time>2015-06-27T12:40:59Z</time>
      </trkpt>
      <trkpt lat="43.19509" lon="0.60738">
        <ele>339.96</ele>
        <time>2015-06-27T12:41:05Z</time>
      </trkpt>
      <trkpt lat="43.1951" lon="0.60737">
        <ele>339.96</ele>
        <time>2015-06-27T12:41:14Z</time>
      </trkpt>
      <trkpt lat="43.1951" lon="0.60737">
        <ele>339.96</ele>
        <time>2015-06-27T12:41:21Z</time>
      </trkpt>
      <trkpt lat="43.19511" lon="0.60735">
        <ele>339.96</ele>
        <time>2015-06-27T12:41:44Z</time>
      </trkpt>
      <trkpt lat="43.19511" lon="0.60736">
        <ele>339.96</ele>
        <time>2015-06-27T12:42:00Z</time>
      </trkpt>
      <trkpt lat="43.1951" lon="0.60736">
        <ele>339.96</ele>
        <time>2015-06-27T12:42:07Z</time>
      </trkpt>
      <trkpt lat="43.19511" lon="0.60735">
        <ele>339.96</ele>
        <time>2015-06-27T12:42:21Z</time>
      </trkpt>
      <trkpt lat="43.19511" lon="0.60734">
        <ele>339.96</ele>
        <time>2015-06-27T12:42:23Z</time>
      </trkpt>
      <trkpt lat="43.1951" lon="0.60731">
        <ele>339.96</ele>
        <time>2015-06-27T12:42:26Z</time>
      </trkpt>
      <trkpt lat="43.19509" lon="0.60729">
        <ele>339.96</ele>
        <time>2015-06-27T12:42:27Z</time>
      </trkpt>
      <trkpt lat="43.19509" lon="0.60727">
        <ele>339.96</ele>
        <time>2015-06-27T12:42:28Z</time>
      </trkpt>
      <trkpt lat="43.19508" lon="0.60725">
        <ele>339.96</ele>
        <time>2015-06-27T12:42:29Z</time>
      </trkpt>
      <trkpt lat="43.19507" lon="0.60723">
        <ele>340.44</ele>
        <time>2015-06-27T12:42:30Z</time>
      </trkpt>
      <trkpt lat="43.19507" lon="0.60722">
        <ele>340.44</ele>
        <time>2015-06-27T12:42:31Z</time>
      </trkpt>
      <trkpt lat="43.19503" lon="0.6071">
        <ele>340.44</ele>
        <time>2015-06-27T12:42:37Z</time>
      </trkpt>
      <trkpt lat="43.19502" lon="0.60705">
        <ele>340.44</ele>
        <time>2015-06-27T12:42:39Z</time>
      </trkpt>
      <trkpt lat="43.19505" lon="0.60696">
        <ele>340.44</ele>
        <time>2015-06-27T12:42:46Z</time>
      </trkpt>
      <trkpt lat="43.19504" lon="0.60695">
        <ele>339.96</ele>
        <time>2015-06-27T12:42:54Z</time>
      </trkpt>
      <trkpt lat="43.19504" lon="0.60695">
        <ele>340.44</ele>
        <time>2015-06-27T12:43:05Z</time>
      </trkpt>
      <trkpt lat="43.19505" lon="0.60694">
        <ele>339.96</ele>
        <time>2015-06-27T12:43:19Z</time>
      </trkpt>
      <trkpt lat="43.19505" lon="0.60693">
        <ele>339.96</ele>
        <time>2015-06-27T12:43:36Z</time>
      </trkpt>
      <trkpt lat="43.19505" lon="0.60693">
        <ele>340.44</ele>
        <time>2015-06-27T12:43:48Z</time>
      </trkpt>
      <trkpt lat="43.19505" lon="0.60694">
        <ele>340.44</ele>
        <time>2015-06-27T12:43:50Z</time>
      </trkpt>
      <trkpt lat="43.19502" lon="0.60705">
        <ele>340.44</ele>
        <time>2015-06-27T12:43:56Z</time>
      </trkpt>
      <trkpt lat="43.19504" lon="0.60717">
        <ele>340.44</ele>
        <time>2015-06-27T12:44:01Z</time>
      </trkpt>
      <trkpt lat="43.1951" lon="0.60735">
        <ele>339.96</ele>
        <time>2015-06-27T12:44:10Z</time>
      </trkpt>
      <trkpt lat="43.19511" lon="0.60735">
        <ele>339.96</ele>
        <time>2015-06-27T12:44:15Z</time>
      </trkpt>
      <trkpt lat="43.19512" lon="0.60736">
        <ele>339.96</ele>
        <time>2015-06-27T12:44:20Z</time>
      </trkpt>
      <trkpt lat="43.1951" lon="0.60734">
        <ele>339.96</ele>
        <time>2015-06-27T12:44:23Z</time>
      </trkpt>
      <trkpt lat="43.19501" lon="0.60728">
        <ele>339.96</ele>
        <time>2015-06-27T12:44:32Z</time>
      </trkpt>
      <trkpt lat="43.19502" lon="0.60726">
        <ele>339.96</ele>
        <time>2015-06-27T12:44:33Z</time>
      </trkpt>
      <trkpt lat="43.19501" lon="0.60722">
        <ele>339.96</ele>
        <time>2015-06-27T12:44:36Z</time>
      </trkpt>
      <trkpt lat="43.19502" lon="0.60714">
        <ele>339.96</ele>
        <time>2015-06-27T12:44:41Z</time>
      </trkpt>
      <trkpt lat="43.19501" lon="0.60699">
        <ele>340.44</ele>
        <time>2015-06-27T12:44:51Z</time>
      </trkpt>
      <trkpt lat="43.19499" lon="0.60693">
        <ele>340.44</ele>
        <time>2015-06-27T12:44:56Z</time>
      </trkpt>
      <trkpt lat="43.19502" lon="0.60683">
        <ele>339.96</ele>
        <time>2015-06-27T12:45:04Z</time>
      </trkpt>
      <trkpt lat="43.19503" lon="0.60683">
        <ele>340.44</ele>
        <time>2015-06-27T12:45:12Z</time>
      </trkpt>
      <trkpt lat="43.19503" lon="0.60683">
        <ele>339.96</ele>
        <time>2015-06-27T12:45:25Z</time>
      </trkpt>
      <trkpt lat="43.19502" lon="0.60683">
        <ele>339.96</ele>
        <time>2015-06-27T12:45:35Z</time>
      </trkpt>
      <trkpt lat="43.19503" lon="0.60683">
        <ele>340.44</ele>
        <time>2015-06-27T12:45:49Z</time>
      </trkpt>
      <trkpt lat="43.19503" lon="0.60682">
        <ele>339.96</ele>
        <time>2015-06-27T12:46:08Z</time>
      </trkpt>
      <trkpt lat="43.19503" lon="0.60681">
        <ele>339.96</ele>
        <time>2015-06-27T12:46:28Z</time>
      </trkpt>
      <trkpt lat="43.19503" lon="0.60682">
        <ele>339.96</ele>
        <time>2015-06-27T12:46:50Z</time>
      </trkpt>
      <trkpt lat="43.19503" lon="0.60682">
        <ele>340.44</ele>
        <time>2015-06-27T12:47:06Z</time>
      </trkpt>
      <trkpt lat="43.19503" lon="0.60682">
        <ele>340.44</ele>
        <time>2015-06-27T12:47:20Z</time>
      </trkpt>
      <trkpt lat="43.19501" lon="0.60687">
        <ele>340.44</ele>
        <time>2015-06-27T12:47:27Z</time>
      </trkpt>
      <trkpt lat="43.19502" lon="0.60693">
        <ele>340.44</ele>
        <time>2015-06-27T12:47:31Z</time>
      </trkpt>
      <trkpt lat="43.19505" lon="0.60714">
        <ele>339.96</ele>
        <time>2015-06-27T12:47:42Z</time>
      </trkpt>
      <trkpt lat="43.19506" lon="0.60723">
        <ele>339.96</ele>
        <time>2015-06-27T12:47:48Z</time>
      </trkpt>
      <trkpt lat="43.19506" lon="0.60724">
        <ele>339.96</ele>
        <time>2015-06-27T12:47:49Z</time>
      </trkpt>
      <trkpt lat="43.19512" lon="0.6075">
        <ele>339.96</ele>
        <time>2015-06-27T12:48:00Z</time>
      </trkpt>
      <trkpt lat="43.19519" lon="0.60775">
        <ele>339.96</ele>
        <time>2015-06-27T12:48:09Z</time>
      </trkpt>
      <trkpt lat="43.19524" lon="0.60793">
        <ele>339.96</ele>
        <time>2015-06-27T12:48:17Z</time>
      </trkpt>
      <trkpt lat="43.19528" lon="0.60809">
        <ele>340.44</ele>
        <time>2015-06-27T12:48:24Z</time>
      </trkpt>
      <trkpt lat="43.19532" lon="0.60819">
        <ele>340.44</ele>
        <time>2015-06-27T12:48:30Z</time>
      </trkpt>
      <trkpt lat="43.19549" lon="0.60816">
        <ele>340.92</ele>
        <time>2015-06-27T12:48:39Z</time>
      </trkpt>
      <trkpt lat="43.19567" lon="0.6081">
        <ele>340.92</ele>
        <time>2015-06-27T12:48:48Z</time>
      </trkpt>
      <trkpt lat="43.19584" lon="0.60811">
        <ele>341.41</ele>
        <time>2015-06-27T12:48:56Z</time>
      </trkpt>
      <trkpt lat="43.19601" lon="0.6082">
        <ele>341.89</ele>
        <time>2015-06-27T12:49:04Z</time>
      </trkpt>
      <trkpt lat="43.19623" lon="0.60837">
        <ele>342.85</ele>
        <time>2015-06-27T12:49:13Z</time>
      </trkpt>
      <trkpt lat="43.19641" lon="0.60856">
        <ele>343.33</ele>
        <time>2015-06-27T12:49:22Z</time>
      </trkpt>
      <trkpt lat="43.19655" lon="0.60877">
        <ele>342.85</ele>
        <time>2015-06-27T12:49:29Z</time>
      </trkpt>
      <trkpt lat="43.19666" lon="0.60896">
        <ele>343.33</ele>
        <time>2015-06-27T12:49:36Z</time>
      </trkpt>
      <trkpt lat="43.19675" lon="0.60913">
        <ele>343.33</ele>
        <time>2015-06-27T12:49:42Z</time>
      </trkpt>
      <trkpt lat="43.19692" lon="0.60939">
        <ele>343.81</ele>
        <time>2015-06-27T12:49:51Z</time>
      </trkpt>
      <trkpt lat="43.19705" lon="0.60963">
        <ele>343.81</ele>
        <time>2015-06-27T12:49:59Z</time>
      </trkpt>
      <trkpt lat="43.19721" lon="0.6099">
        <ele>344.29</ele>
        <time>2015-06-27T12:50:08Z</time>
      </trkpt>
      <trkpt lat="43.19739" lon="0.61011">
        <ele>344.77</ele>
        <time>2015-06-27T12:50:16Z</time>
      </trkpt>
      <trkpt lat="43.19759" lon="0.61027">
        <ele>345.25</ele>
        <time>2015-06-27T12:50:25Z</time>
      </trkpt>
      <trkpt lat="43.19782" lon="0.61043">
        <ele>346.21</ele>
        <time>2015-06-27T12:50:34Z</time>
      </trkpt>
      <trkpt lat="43.19799" lon="0.61062">
        <ele>346.69</ele>
        <time>2015-06-27T12:50:42Z</time>
      </trkpt>
      <trkpt lat="43.19808" lon="0.61083">
        <ele>347.65</ele>
        <time>2015-06-27T12:50:49Z</time>
      </trkpt>
      <trkpt lat="43.19816" lon="0.61106">
        <ele>348.62</ele>
        <time>2015-06-27T12:50:58Z</time>
      </trkpt>
      <trkpt lat="43.19825" lon="0.61127">
        <ele>350.54</ele>
        <time>2015-06-27T12:51:07Z</time>
      </trkpt>
      <trkpt lat="43.1984" lon="0.6115">
        <ele>350.06</ele>
        <time>2015-06-27T12:51:16Z</time>
      </trkpt>
      <trkpt lat="43.19858" lon="0.6117">
        <ele>349.1</ele>
        <time>2015-06-27T12:51:25Z</time>
      </trkpt>
      <trkpt lat="43.19881" lon="0.61188">
        <ele>349.58</ele>
        <time>2015-06-27T12:51:33Z</time>
      </trkpt>
      <trkpt lat="43.19891" lon="0.61193">
        <ele>350.06</ele>
        <time>2015-06-27T12:51:37Z</time>
      </trkpt>
      <trkpt lat="43.19905" lon="0.61207">
        <ele>349.1</ele>
        <time>2015-06-27T12:51:44Z</time>
      </trkpt>
      <trkpt lat="43.19924" lon="0.61239">
        <ele>349.1</ele>
        <time>2015-06-27T12:51:54Z</time>
      </trkpt>
      <trkpt lat="43.19934" lon="0.61273">
        <ele>349.1</ele>
        <time>2015-06-27T12:52:03Z</time>
      </trkpt>
      <trkpt lat="43.19937" lon="0.61312">
        <ele>348.62</ele>
        <time>2015-06-27T12:52:11Z</time>
      </trkpt>
      <trkpt lat="43.19946" lon="0.61361">
        <ele>347.17</ele>
        <time>2015-06-27T12:52:19Z</time>
      </trkpt>
      <trkpt lat="43.19959" lon="0.61401">
        <ele>346.21</ele>
        <time>2015-06-27T12:52:25Z</time>
      </trkpt>
      <trkpt lat="43.19981" lon="0.61456">
        <ele>345.73</ele>
        <time>2015-06-27T12:52:34Z</time>
      </trkpt>
      <trkpt lat="43.19983" lon="0.61462">
        <ele>345.73</ele>
        <time>2015-06-27T12:52:35Z</time>
      </trkpt>
      <trkpt lat="43.19986" lon="0.61467">
        <ele>345.73</ele>
        <time>2015-06-27T12:52:36Z</time>
      </trkpt>
      <trkpt lat="43.20009" lon="0.61508">
        <ele>345.25</ele>
        <time>2015-06-27T12:52:45Z</time>
      </trkpt>
      <trkpt lat="43.20035" lon="0.61549">
        <ele>345.25</ele>
        <time>2015-06-27T12:52:55Z</time>
      </trkpt>
      <trkpt lat="43.20065" lon="0.61595">
        <ele>344.29</ele>
        <time>2015-06-27T12:53:06Z</time>
      </trkpt>
      <trkpt lat="43.20085" lon="0.61627">
        <ele>344.77</ele>
        <time>2015-06-27T12:53:13Z</time>
      </trkpt>
      <trkpt lat="43.20088" lon="0.61631">
        <ele>344.29</ele>
        <time>2015-06-27T12:53:14Z</time>
      </trkpt>
      <trkpt lat="43.20092" lon="0.61635">
        <ele>344.29</ele>
        <time>2015-06-27T12:53:15Z</time>
      </trkpt>
      <trkpt lat="43.20103" lon="0.61645">
        <ele>344.29</ele>
        <time>2015-06-27T12:53:18Z</time>
      </trkpt>
      <trkpt lat="43.20107" lon="0.61647">
        <ele>344.29</ele>
        <time>2015-06-27T12:53:19Z</time>
      </trkpt>
      <trkpt lat="43.20141" lon="0.61662">
        <ele>344.77</ele>
        <time>2015-06-27T12:53:27Z</time>
      </trkpt>
      <trkpt lat="43.20178" lon="0.6168">
        <ele>344.77</ele>
        <time>2015-06-27T12:53:36Z</time>
      </trkpt>
      <trkpt lat="43.20182" lon="0.61682">
        <ele>344.77</ele>
        <time>2015-06-27T12:53:37Z</time>
      </trkpt>
      <trkpt lat="43.20223" lon="0.61703">
        <ele>344.77</ele>
        <time>2015-06-27T12:53:47Z</time>
      </trkpt>
      <trkpt lat="43.20227" lon="0.61706">
        <ele>344.77</ele>
        <time>2015-06-27T12:53:48Z</time>
      </trkpt>
      <trkpt lat="43.20231" lon="0.61708">
        <ele>344.77</ele>
        <time>2015-06-27T12:53:49Z</time>
      </trkpt>
      <trkpt lat="43.20239" lon="0.61712">
        <ele>344.77</ele>
        <time>2015-06-27T12:53:51Z</time>
      </trkpt>
      <trkpt lat="43.20244" lon="0.61715">
        <ele>344.77</ele>
        <time>2015-06-27T12:53:52Z</time>
      </trkpt>
      <trkpt lat="43.20248" lon="0.61717">
        <ele>344.77</ele>
        <time>2015-06-27T12:53:53Z</time>
      </trkpt>
      <trkpt lat="43.20276" lon="0.61735">
        <ele>345.25</ele>
        <time>2015-06-27T12:54:00Z</time>
      </trkpt>
      <trkpt lat="43.2029" lon="0.6175">
        <ele>344.77</ele>
        <time>2015-06-27T12:54:04Z</time>
      </trkpt>
      <trkpt lat="43.20293" lon="0.61754">
        <ele>345.25</ele>
        <time>2015-06-27T12:54:05Z</time>
      </trkpt>
      <trkpt lat="43.20318" lon="0.61793">
        <ele>345.25</ele>
        <time>2015-06-27T12:54:14Z</time>
      </trkpt>
      <trkpt lat="43.20342" lon="0.61831">
        <ele>345.25</ele>
        <time>2015-06-27T12:54:22Z</time>
      </trkpt>
      <trkpt lat="43.20368" lon="0.61878">
        <ele>345.73</ele>
        <time>2015-06-27T12:54:32Z</time>
      </trkpt>
      <trkpt lat="43.20378" lon="0.61884">
        <ele>345.73</ele>
        <time>2015-06-27T12:54:35Z</time>
      </trkpt>
      <trkpt lat="43.20382" lon="0.61883">
        <ele>345.73</ele>
        <time>2015-06-27T12:54:36Z</time>
      </trkpt>
      <trkpt lat="43.20385" lon="0.6188">
        <ele>345.73</ele>
        <time>2015-06-27T12:54:37Z</time>
      </trkpt>
      <trkpt lat="43.20387" lon="0.61877">
        <ele>346.21</ele>
        <time>2015-06-27T12:54:38Z</time>
      </trkpt>
      <trkpt lat="43.20389" lon="0.61873">
        <ele>346.21</ele>
        <time>2015-06-27T12:54:39Z</time>
      </trkpt>
      <trkpt lat="43.20408" lon="0.61847">
        <ele>347.65</ele>
        <time>2015-06-27T12:54:49Z</time>
      </trkpt>
      <trkpt lat="43.20422" lon="0.61827">
        <ele>349.1</ele>
        <time>2015-06-27T12:54:58Z</time>
      </trkpt>
      <trkpt lat="43.20438" lon="0.61806">
        <ele>351.02</ele>
        <time>2015-06-27T12:55:07Z</time>
      </trkpt>
      <trkpt lat="43.20444" lon="0.618">
        <ele>351.98</ele>
        <time>2015-06-27T12:55:13Z</time>
      </trkpt>
      <trkpt lat="43.20445" lon="0.618">
        <ele>351.98</ele>
        <time>2015-06-27T12:55:25Z</time>
      </trkpt>
      <trkpt lat="43.20445" lon="0.618">
        <ele>351.98</ele>
        <time>2015-06-27T12:55:38Z</time>
      </trkpt>
      <trkpt lat="43.20445" lon="0.61799">
        <ele>351.98</ele>
        <time>2015-06-27T12:55:54Z</time>
      </trkpt>
      <trkpt lat="43.20447" lon="0.618">
        <ele>351.98</ele>
        <time>2015-06-27T12:56:07Z</time>
      </trkpt>
      <trkpt lat="43.20448" lon="0.61801">
        <ele>351.98</ele>
        <time>2015-06-27T12:56:08Z</time>
      </trkpt>
      <trkpt lat="43.20449" lon="0.61802">
        <ele>351.98</ele>
        <time>2015-06-27T12:56:09Z</time>
      </trkpt>
      <trkpt lat="43.20451" lon="0.61804">
        <ele>351.98</ele>
        <time>2015-06-27T12:56:10Z</time>
      </trkpt>
      <trkpt lat="43.20453" lon="0.61806">
        <ele>351.98</ele>
        <time>2015-06-27T12:56:11Z</time>
      </trkpt>
      <trkpt lat="43.20454" lon="0.61808">
        <ele>352.46</ele>
        <time>2015-06-27T12:56:12Z</time>
      </trkpt>
      <trkpt lat="43.20455" lon="0.6181">
        <ele>351.98</ele>
        <time>2015-06-27T12:56:13Z</time>
      </trkpt>
      <trkpt lat="43.20457" lon="0.61811">
        <ele>352.46</ele>
        <time>2015-06-27T12:56:14Z</time>
      </trkpt>
      <trkpt lat="43.20458" lon="0.61813">
        <ele>352.46</ele>
        <time>2015-06-27T12:56:15Z</time>
      </trkpt>
      <trkpt lat="43.2046" lon="0.61815">
        <ele>352.46</ele>
        <time>2015-06-27T12:56:16Z</time>
      </trkpt>
      <trkpt lat="43.20462" lon="0.61816">
        <ele>352.46</ele>
        <time>2015-06-27T12:56:17Z</time>
      </trkpt>
      <trkpt lat="43.20471" lon="0.6183">
        <ele>352.94</ele>
        <time>2015-06-27T12:56:25Z</time>
      </trkpt>
      <trkpt lat="43.20482" lon="0.61844">
        <ele>353.9</ele>
        <time>2015-06-27T12:56:32Z</time>
      </trkpt>
      <trkpt lat="43.205" lon="0.61866">
        <ele>353.42</ele>
        <time>2015-06-27T12:56:41Z</time>
      </trkpt>
      <trkpt lat="43.20518" lon="0.61885">
        <ele>353.9</ele>
        <time>2015-06-27T12:56:48Z</time>
      </trkpt>
      <trkpt lat="43.20533" lon="0.61903">
        <ele>353.9</ele>
        <time>2015-06-27T12:56:54Z</time>
      </trkpt>
      <trkpt lat="43.20554" lon="0.61928">
        <ele>354.38</ele>
        <time>2015-06-27T12:57:03Z</time>
      </trkpt>
      <trkpt lat="43.20572" lon="0.6195">
        <ele>354.86</ele>
        <time>2015-06-27T12:57:11Z</time>
      </trkpt>
      <trkpt lat="43.20591" lon="0.61972">
        <ele>354.86</ele>
        <time>2015-06-27T12:57:19Z</time>
      </trkpt>
      <trkpt lat="43.20609" lon="0.61992">
        <ele>355.34</ele>
        <time>2015-06-27T12:57:26Z</time>
      </trkpt>
      <trkpt lat="43.20625" lon="0.62013">
        <ele>355.83</ele>
        <time>2015-06-27T12:57:32Z</time>
      </trkpt>
      <trkpt lat="43.20651" lon="0.62043">
        <ele>355.83</ele>
        <time>2015-06-27T12:57:42Z</time>
      </trkpt>
      <trkpt lat="43.20675" lon="0.6207">
        <ele>356.31</ele>
        <time>2015-06-27T12:57:51Z</time>
      </trkpt>
      <trkpt lat="43.20703" lon="0.62094">
        <ele>356.31</ele>
        <time>2015-06-27T12:58:00Z</time>
      </trkpt>
      <trkpt lat="43.20728" lon="0.62111">
        <ele>356.79</ele>
        <time>2015-06-27T12:58:08Z</time>
      </trkpt>
      <trkpt lat="43.20749" lon="0.62124">
        <ele>356.31</ele>
        <time>2015-06-27T12:58:15Z</time>
      </trkpt>
      <trkpt lat="43.20767" lon="0.62133">
        <ele>355.83</ele>
        <time>2015-06-27T12:58:22Z</time>
      </trkpt>
      <trkpt lat="43.20793" lon="0.62149">
        <ele>354.86</ele>
        <time>2015-06-27T12:58:29Z</time>
      </trkpt>
      <trkpt lat="43.20817" lon="0.6216">
        <ele>353.42</ele>
        <time>2015-06-27T12:58:35Z</time>
      </trkpt>
      <trkpt lat="43.20849" lon="0.62171">
        <ele>351.98</ele>
        <time>2015-06-27T12:58:41Z</time>
      </trkpt>
      <trkpt lat="43.20894" lon="0.6218">
        <ele>349.58</ele>
        <time>2015-06-27T12:58:48Z</time>
      </trkpt>
      <trkpt lat="43.20941" lon="0.62183">
        <ele>347.65</ele>
        <time>2015-06-27T12:58:54Z</time>
      </trkpt>
      <trkpt lat="43.21005" lon="0.62186">
        <ele>345.25</ele>
        <time>2015-06-27T12:59:02Z</time>
      </trkpt>
      <trkpt lat="43.21055" lon="0.6219">
        <ele>342.85</ele>
        <time>2015-06-27T12:59:08Z</time>
      </trkpt>
      <trkpt lat="43.21108" lon="0.62195">
        <ele>340.44</ele>
        <time>2015-06-27T12:59:14Z</time>
      </trkpt>
      <trkpt lat="43.21154" lon="0.62199">
        <ele>338.52</ele>
        <time>2015-06-27T12:59:19Z</time>
      </trkpt>
      <trkpt lat="43.21202" lon="0.62198">
        <ele>338.04</ele>
        <time>2015-06-27T12:59:25Z</time>
      </trkpt>
      <trkpt lat="43.21236" lon="0.62196">
        <ele>337.56</ele>
        <time>2015-06-27T12:59:30Z</time>
      </trkpt>
      <trkpt lat="43.21286" lon="0.62193">
        <ele>337.08</ele>
        <time>2015-06-27T12:59:38Z</time>
      </trkpt>
      <trkpt lat="43.2133" lon="0.62189">
        <ele>336.6</ele>
        <time>2015-06-27T12:59:45Z</time>
      </trkpt>
      <trkpt lat="43.21378" lon="0.62183">
        <ele>336.12</ele>
        <time>2015-06-27T12:59:53Z</time>
      </trkpt>
      <trkpt lat="43.21384" lon="0.62182">
        <ele>335.64</ele>
        <time>2015-06-27T12:59:54Z</time>
      </trkpt>
      <trkpt lat="43.21432" lon="0.62178">
        <ele>335.16</ele>
        <time>2015-06-27T13:00:02Z</time>
      </trkpt>
      <trkpt lat="43.21491" lon="0.62172">
        <ele>333.71</ele>
        <time>2015-06-27T13:00:11Z</time>
      </trkpt>
      <trkpt lat="43.21536" lon="0.62168">
        <ele>331.79</ele>
        <time>2015-06-27T13:00:17Z</time>
      </trkpt>
      <trkpt lat="43.21576" lon="0.62164">
        <ele>330.35</ele>
        <time>2015-06-27T13:00:22Z</time>
      </trkpt>
      <trkpt lat="43.21648" lon="0.62162">
        <ele>328.91</ele>
        <time>2015-06-27T13:00:31Z</time>
      </trkpt>
      <trkpt lat="43.21701" lon="0.62161">
        <ele>327.95</ele>
        <time>2015-06-27T13:00:39Z</time>
      </trkpt>
      <trkpt lat="43.21735" lon="0.62159">
        <ele>327.47</ele>
        <time>2015-06-27T13:00:45Z</time>
      </trkpt>
      <trkpt lat="43.21777" lon="0.62154">
        <ele>327.47</ele>
        <time>2015-06-27T13:00:53Z</time>
      </trkpt>
      <trkpt lat="43.21809" lon="0.62146">
        <ele>326.99</ele>
        <time>2015-06-27T13:01:00Z</time>
      </trkpt>
      <trkpt lat="43.21813" lon="0.62144">
        <ele>326.99</ele>
        <time>2015-06-27T13:01:01Z</time>
      </trkpt>
      <trkpt lat="43.21817" lon="0.62142">
        <ele>326.99</ele>
        <time>2015-06-27T13:01:02Z</time>
      </trkpt>
      <trkpt lat="43.21822" lon="0.6214">
        <ele>326.99</ele>
        <time>2015-06-27T13:01:03Z</time>
      </trkpt>
      <trkpt lat="43.21826" lon="0.62137">
        <ele>326.99</ele>
        <time>2015-06-27T13:01:04Z</time>
      </trkpt>
      <trkpt lat="43.21829" lon="0.62133">
        <ele>326.5</ele>
        <time>2015-06-27T13:01:05Z</time>
      </trkpt>
      <trkpt lat="43.21826" lon="0.62122">
        <ele>326.5</ele>
        <time>2015-06-27T13:01:08Z</time>
      </trkpt>
      <trkpt lat="43.21821" lon="0.62118">
        <ele>326.5</ele>
        <time>2015-06-27T13:01:09Z</time>
      </trkpt>
      <trkpt lat="43.21817" lon="0.62113">
        <ele>326.5</ele>
        <time>2015-06-27T13:01:10Z</time>
      </trkpt>
      <trkpt lat="43.21813" lon="0.62108">
        <ele>326.02</ele>
        <time>2015-06-27T13:01:11Z</time>
      </trkpt>
      <trkpt lat="43.21806" lon="0.62102">
        <ele>325.54</ele>
        <time>2015-06-27T13:01:13Z</time>
      </trkpt>
      <trkpt lat="43.21804" lon="0.62104">
        <ele>325.54</ele>
        <time>2015-06-27T13:01:14Z</time>
      </trkpt>
      <trkpt lat="43.21803" lon="0.62106">
        <ele>325.54</ele>
        <time>2015-06-27T13:01:15Z</time>
      </trkpt>
      <trkpt lat="43.21802" lon="0.62107">
        <ele>325.54</ele>
        <time>2015-06-27T13:01:16Z</time>
      </trkpt>
      <trkpt lat="43.21801" lon="0.62109">
        <ele>326.02</ele>
        <time>2015-06-27T13:01:23Z</time>
      </trkpt>
      <trkpt lat="43.21803" lon="0.62109">
        <ele>326.02</ele>
        <time>2015-06-27T13:01:32Z</time>
      </trkpt>
      <trkpt lat="43.21805" lon="0.62107">
        <ele>325.54</ele>
        <time>2015-06-27T13:01:34Z</time>
      </trkpt>
      <trkpt lat="43.21805" lon="0.62105">
        <ele>326.02</ele>
        <time>2015-06-27T13:01:35Z</time>
      </trkpt>
      <trkpt lat="43.21806" lon="0.62103">
        <ele>326.02</ele>
        <time>2015-06-27T13:01:36Z</time>
      </trkpt>
      <trkpt lat="43.21807" lon="0.62102">
        <ele>326.02</ele>
        <time>2015-06-27T13:01:37Z</time>
      </trkpt>
      <trkpt lat="43.21808" lon="0.621">
        <ele>326.02</ele>
        <time>2015-06-27T13:01:38Z</time>
      </trkpt>
      <trkpt lat="43.21809" lon="0.62099">
        <ele>326.02</ele>
        <time>2015-06-27T13:01:39Z</time>
      </trkpt>
      <trkpt lat="43.21811" lon="0.62099">
        <ele>326.02</ele>
        <time>2015-06-27T13:01:40Z</time>
      </trkpt>
      <trkpt lat="43.21813" lon="0.621">
        <ele>326.02</ele>
        <time>2015-06-27T13:01:41Z</time>
      </trkpt>
      <trkpt lat="43.21815" lon="0.62104">
        <ele>326.02</ele>
        <time>2015-06-27T13:01:43Z</time>
      </trkpt>
      <trkpt lat="43.21825" lon="0.62122">
        <ele>326.5</ele>
        <time>2015-06-27T13:01:51Z</time>
      </trkpt>
      <trkpt lat="43.21829" lon="0.62131">
        <ele>326.5</ele>
        <time>2015-06-27T13:01:55Z</time>
      </trkpt>
      <trkpt lat="43.21835" lon="0.62136">
        <ele>326.99</ele>
        <time>2015-06-27T13:01:58Z</time>
      </trkpt>
      <trkpt lat="43.21854" lon="0.62128">
        <ele>326.5</ele>
        <time>2015-06-27T13:02:04Z</time>
      </trkpt>
      <trkpt lat="43.21864" lon="0.62124">
        <ele>326.5</ele>
        <time>2015-06-27T13:02:06Z</time>
      </trkpt>
      <trkpt lat="43.21874" lon="0.62122">
        <ele>326.5</ele>
        <time>2015-06-27T13:02:08Z</time>
      </trkpt>
      <trkpt lat="43.2191" lon="0.62107">
        <ele>326.5</ele>
        <time>2015-06-27T13:02:17Z</time>
      </trkpt>
      <trkpt lat="43.21945" lon="0.62095">
        <ele>326.02</ele>
        <time>2015-06-27T13:02:25Z</time>
      </trkpt>
      <trkpt lat="43.21974" lon="0.62086">
        <ele>325.54</ele>
        <time>2015-06-27T13:02:30Z</time>
      </trkpt>
      <trkpt lat="43.21996" lon="0.62078">
        <ele>325.54</ele>
        <time>2015-06-27T13:02:34Z</time>
      </trkpt>
      <trkpt lat="43.22001" lon="0.62076">
        <ele>325.54</ele>
        <time>2015-06-27T13:02:35Z</time>
      </trkpt>
      <trkpt lat="43.22007" lon="0.62075">
        <ele>325.54</ele>
        <time>2015-06-27T13:02:36Z</time>
      </trkpt>
      <trkpt lat="43.22018" lon="0.62071">
        <ele>325.06</ele>
        <time>2015-06-27T13:02:38Z</time>
      </trkpt>
      <trkpt lat="43.22024" lon="0.62069">
        <ele>325.54</ele>
        <time>2015-06-27T13:02:39Z</time>
      </trkpt>
      <trkpt lat="43.22052" lon="0.62061">
        <ele>325.06</ele>
        <time>2015-06-27T13:02:44Z</time>
      </trkpt>
      <trkpt lat="43.22088" lon="0.62059">
        <ele>325.06</ele>
        <time>2015-06-27T13:02:50Z</time>
      </trkpt>
      <trkpt lat="43.22094" lon="0.6206">
        <ele>325.06</ele>
        <time>2015-06-27T13:02:51Z</time>
      </trkpt>
      <trkpt lat="43.221" lon="0.62062">
        <ele>325.06</ele>
        <time>2015-06-27T13:02:52Z</time>
      </trkpt>
      <trkpt lat="43.22124" lon="0.62073">
        <ele>325.06</ele>
        <time>2015-06-27T13:02:56Z</time>
      </trkpt>
      <trkpt lat="43.22128" lon="0.62076">
        <ele>325.06</ele>
        <time>2015-06-27T13:02:57Z</time>
      </trkpt>
      <trkpt lat="43.22133" lon="0.6208">
        <ele>325.06</ele>
        <time>2015-06-27T13:02:58Z</time>
      </trkpt>
      <trkpt lat="43.22137" lon="0.62084">
        <ele>325.06</ele>
        <time>2015-06-27T13:02:59Z</time>
      </trkpt>
      <trkpt lat="43.2214" lon="0.62088">
        <ele>325.06</ele>
        <time>2015-06-27T13:03:00Z</time>
      </trkpt>
      <trkpt lat="43.22143" lon="0.62092">
        <ele>325.54</ele>
        <time>2015-06-27T13:03:01Z</time>
      </trkpt>
      <trkpt lat="43.22171" lon="0.62119">
        <ele>325.54</ele>
        <time>2015-06-27T13:03:08Z</time>
      </trkpt>
      <trkpt lat="43.22179" lon="0.62127">
        <ele>326.02</ele>
        <time>2015-06-27T13:03:10Z</time>
      </trkpt>
      <trkpt lat="43.22182" lon="0.62131">
        <ele>326.02</ele>
        <time>2015-06-27T13:03:11Z</time>
      </trkpt>
      <trkpt lat="43.22212" lon="0.62166">
        <ele>326.5</ele>
        <time>2015-06-27T13:03:19Z</time>
      </trkpt>
      <trkpt lat="43.22239" lon="0.62196">
        <ele>326.99</ele>
        <time>2015-06-27T13:03:27Z</time>
      </trkpt>
      <trkpt lat="43.22267" lon="0.62225">
        <ele>326.99</ele>
        <time>2015-06-27T13:03:36Z</time>
      </trkpt>
      <trkpt lat="43.22281" lon="0.6224">
        <ele>326.99</ele>
        <time>2015-06-27T13:03:42Z</time>
      </trkpt>
      <trkpt lat="43.22286" lon="0.62244">
        <ele>326.99</ele>
        <time>2015-06-27T13:03:44Z</time>
      </trkpt>
      <trkpt lat="43.22299" lon="0.62264">
        <ele>326.5</ele>
        <time>2015-06-27T13:03:51Z</time>
      </trkpt>
      <trkpt lat="43.22319" lon="0.62286">
        <ele>326.02</ele>
        <time>2015-06-27T13:03:57Z</time>
      </trkpt>
      <trkpt lat="43.22323" lon="0.6229">
        <ele>326.02</ele>
        <time>2015-06-27T13:03:58Z</time>
      </trkpt>
      <trkpt lat="43.22356" lon="0.62325">
        <ele>325.54</ele>
        <time>2015-06-27T13:04:06Z</time>
      </trkpt>
      <trkpt lat="43.22385" lon="0.62356">
        <ele>325.06</ele>
        <time>2015-06-27T13:04:14Z</time>
      </trkpt>
      <trkpt lat="43.22422" lon="0.62399">
        <ele>324.58</ele>
        <time>2015-06-27T13:04:24Z</time>
      </trkpt>
      <trkpt lat="43.22454" lon="0.62439">
        <ele>324.1</ele>
        <time>2015-06-27T13:04:33Z</time>
      </trkpt>
      <trkpt lat="43.22468" lon="0.62455">
        <ele>323.62</ele>
        <time>2015-06-27T13:04:37Z</time>
      </trkpt>
      <trkpt lat="43.22471" lon="0.6246">
        <ele>324.1</ele>
        <time>2015-06-27T13:04:38Z</time>
      </trkpt>
      <trkpt lat="43.22501" lon="0.62493">
        <ele>323.14</ele>
        <time>2015-06-27T13:04:46Z</time>
      </trkpt>
      <trkpt lat="43.22515" lon="0.6251">
        <ele>323.14</ele>
        <time>2015-06-27T13:04:50Z</time>
      </trkpt>
      <trkpt lat="43.2254" lon="0.62538">
        <ele>322.66</ele>
        <time>2015-06-27T13:04:57Z</time>
      </trkpt>
      <trkpt lat="43.22544" lon="0.62542">
        <ele>322.66</ele>
        <time>2015-06-27T13:04:58Z</time>
      </trkpt>
      <trkpt lat="43.22558" lon="0.6256">
        <ele>322.66</ele>
        <time>2015-06-27T13:05:02Z</time>
      </trkpt>
      <trkpt lat="43.22562" lon="0.62564">
        <ele>322.18</ele>
        <time>2015-06-27T13:05:03Z</time>
      </trkpt>
      <trkpt lat="43.22594" lon="0.62602">
        <ele>321.7</ele>
        <time>2015-06-27T13:05:12Z</time>
      </trkpt>
      <trkpt lat="43.22602" lon="0.62611">
        <ele>321.7</ele>
        <time>2015-06-27T13:05:14Z</time>
      </trkpt>
      <trkpt lat="43.22609" lon="0.6262">
        <ele>321.7</ele>
        <time>2015-06-27T13:05:16Z</time>
      </trkpt>
      <trkpt lat="43.22646" lon="0.62661">
        <ele>321.22</ele>
        <time>2015-06-27T13:05:26Z</time>
      </trkpt>
      <trkpt lat="43.22663" lon="0.62681">
        <ele>321.22</ele>
        <time>2015-06-27T13:05:31Z</time>
      </trkpt>
      <trkpt lat="43.22667" lon="0.62685">
        <ele>321.22</ele>
        <time>2015-06-27T13:05:32Z</time>
      </trkpt>
      <trkpt lat="43.22695" lon="0.62719">
        <ele>320.74</ele>
        <time>2015-06-27T13:05:40Z</time>
      </trkpt>
      <trkpt lat="43.22729" lon="0.62754">
        <ele>320.74</ele>
        <time>2015-06-27T13:05:49Z</time>
      </trkpt>
      <trkpt lat="43.22758" lon="0.6278">
        <ele>320.26</ele>
        <time>2015-06-27T13:05:56Z</time>
      </trkpt>
      <trkpt lat="43.22766" lon="0.62787">
        <ele>319.78</ele>
        <time>2015-06-27T13:05:58Z</time>
      </trkpt>
      <trkpt lat="43.22796" lon="0.6281">
        <ele>319.3</ele>
        <time>2015-06-27T13:06:05Z</time>
      </trkpt>
      <trkpt lat="43.2282" lon="0.6283">
        <ele>318.81</ele>
        <time>2015-06-27T13:06:11Z</time>
      </trkpt>
      <trkpt lat="43.22823" lon="0.62834">
        <ele>318.81</ele>
        <time>2015-06-27T13:06:12Z</time>
      </trkpt>
      <trkpt lat="43.22827" lon="0.62838">
        <ele>318.81</ele>
        <time>2015-06-27T13:06:13Z</time>
      </trkpt>
      <trkpt lat="43.2284" lon="0.62849">
        <ele>318.33</ele>
        <time>2015-06-27T13:06:16Z</time>
      </trkpt>
      <trkpt lat="43.22845" lon="0.62852">
        <ele>318.33</ele>
        <time>2015-06-27T13:06:17Z</time>
      </trkpt>
      <trkpt lat="43.2286" lon="0.62864">
        <ele>318.33</ele>
        <time>2015-06-27T13:06:20Z</time>
      </trkpt>
      <trkpt lat="43.22866" lon="0.62869">
        <ele>318.33</ele>
        <time>2015-06-27T13:06:21Z</time>
      </trkpt>
      <trkpt lat="43.22906" lon="0.62914">
        <ele>317.37</ele>
        <time>2015-06-27T13:06:29Z</time>
      </trkpt>
      <trkpt lat="43.22915" lon="0.62925">
        <ele>317.37</ele>
        <time>2015-06-27T13:06:31Z</time>
      </trkpt>
      <trkpt lat="43.22919" lon="0.62931">
        <ele>317.37</ele>
        <time>2015-06-27T13:06:32Z</time>
      </trkpt>
      <trkpt lat="43.22923" lon="0.62936">
        <ele>316.89</ele>
        <time>2015-06-27T13:06:33Z</time>
      </trkpt>
      <trkpt lat="43.22962" lon="0.62986">
        <ele>316.41</ele>
        <time>2015-06-27T13:06:42Z</time>
      </trkpt>
      <trkpt lat="43.22992" lon="0.63025">
        <ele>315.93</ele>
        <time>2015-06-27T13:06:49Z</time>
      </trkpt>
      <trkpt lat="43.23002" lon="0.63034">
        <ele>315.93</ele>
        <time>2015-06-27T13:06:51Z</time>
      </trkpt>
      <trkpt lat="43.23012" lon="0.6304">
        <ele>315.93</ele>
        <time>2015-06-27T13:06:53Z</time>
      </trkpt>
      <trkpt lat="43.23018" lon="0.63043">
        <ele>315.93</ele>
        <time>2015-06-27T13:06:54Z</time>
      </trkpt>
      <trkpt lat="43.23053" lon="0.63054">
        <ele>315.93</ele>
        <time>2015-06-27T13:07:01Z</time>
      </trkpt>
      <trkpt lat="43.23069" lon="0.63053">
        <ele>315.93</ele>
        <time>2015-06-27T13:07:05Z</time>
      </trkpt>
      <trkpt lat="43.23077" lon="0.63053">
        <ele>315.93</ele>
        <time>2015-06-27T13:07:07Z</time>
      </trkpt>
      <trkpt lat="43.23081" lon="0.63055">
        <ele>315.93</ele>
        <time>2015-06-27T13:07:08Z</time>
      </trkpt>
      <trkpt lat="43.23086" lon="0.63056">
        <ele>315.93</ele>
        <time>2015-06-27T13:07:09Z</time>
      </trkpt>
      <trkpt lat="43.23111" lon="0.63061">
        <ele>315.93</ele>
        <time>2015-06-27T13:07:15Z</time>
      </trkpt>
      <trkpt lat="43.2313" lon="0.63074">
        <ele>315.45</ele>
        <time>2015-06-27T13:07:21Z</time>
      </trkpt>
      <trkpt lat="43.23132" lon="0.63077">
        <ele>315.45</ele>
        <time>2015-06-27T13:07:22Z</time>
      </trkpt>
      <trkpt lat="43.23136" lon="0.6308">
        <ele>315.45</ele>
        <time>2015-06-27T13:07:23Z</time>
      </trkpt>
      <trkpt lat="43.2314" lon="0.63083">
        <ele>315.45</ele>
        <time>2015-06-27T13:07:24Z</time>
      </trkpt>
      <trkpt lat="43.23144" lon="0.63086">
        <ele>315.45</ele>
        <time>2015-06-27T13:07:25Z</time>
      </trkpt>
      <trkpt lat="43.23149" lon="0.6309">
        <ele>315.45</ele>
        <time>2015-06-27T13:07:26Z</time>
      </trkpt>
      <trkpt lat="43.23177" lon="0.63112">
        <ele>315.45</ele>
        <time>2015-06-27T13:07:31Z</time>
      </trkpt>
      <trkpt lat="43.23184" lon="0.63115">
        <ele>314.97</ele>
        <time>2015-06-27T13:07:32Z</time>
      </trkpt>
      <trkpt lat="43.2319" lon="0.63119">
        <ele>314.97</ele>
        <time>2015-06-27T13:07:33Z</time>
      </trkpt>
      <trkpt lat="43.23195" lon="0.63123">
        <ele>314.97</ele>
        <time>2015-06-27T13:07:34Z</time>
      </trkpt>
      <trkpt lat="43.232" lon="0.63127">
        <ele>314.97</ele>
        <time>2015-06-27T13:07:35Z</time>
      </trkpt>
      <trkpt lat="43.23205" lon="0.6313">
        <ele>314.97</ele>
        <time>2015-06-27T13:07:36Z</time>
      </trkpt>
      <trkpt lat="43.23212" lon="0.63134">
        <ele>314.97</ele>
        <time>2015-06-27T13:07:37Z</time>
      </trkpt>
      <trkpt lat="43.23235" lon="0.63147">
        <ele>314.97</ele>
        <time>2015-06-27T13:07:43Z</time>
      </trkpt>
      <trkpt lat="43.23258" lon="0.63161">
        <ele>314.97</ele>
        <time>2015-06-27T13:07:51Z</time>
      </trkpt>
      <trkpt lat="43.23266" lon="0.63172">
        <ele>314.97</ele>
        <time>2015-06-27T13:07:55Z</time>
      </trkpt>
      <trkpt lat="43.23275" lon="0.63183">
        <ele>314.49</ele>
        <time>2015-06-27T13:07:58Z</time>
      </trkpt>
      <trkpt lat="43.23279" lon="0.63186">
        <ele>314.49</ele>
        <time>2015-06-27T13:07:59Z</time>
      </trkpt>
      <trkpt lat="43.23292" lon="0.63196">
        <ele>314.49</ele>
        <time>2015-06-27T13:08:02Z</time>
      </trkpt>
      <trkpt lat="43.23301" lon="0.63201">
        <ele>314.49</ele>
        <time>2015-06-27T13:08:04Z</time>
      </trkpt>
      <trkpt lat="43.23309" lon="0.63207">
        <ele>314.49</ele>
        <time>2015-06-27T13:08:06Z</time>
      </trkpt>
      <trkpt lat="43.23329" lon="0.63223">
        <ele>314.49</ele>
        <time>2015-06-27T13:08:13Z</time>
      </trkpt>
      <trkpt lat="43.23345" lon="0.63236">
        <ele>314.49</ele>
        <time>2015-06-27T13:08:19Z</time>
      </trkpt>
      <trkpt lat="43.23361" lon="0.6325">
        <ele>314.49</ele>
        <time>2015-06-27T13:08:25Z</time>
      </trkpt>
      <trkpt lat="43.23377" lon="0.63262">
        <ele>314.01</ele>
        <time>2015-06-27T13:08:32Z</time>
      </trkpt>
      <trkpt lat="43.23385" lon="0.63265">
        <ele>314.01</ele>
        <time>2015-06-27T13:08:41Z</time>
      </trkpt>
      <trkpt lat="43.2339" lon="0.63267">
        <ele>314.01</ele>
        <time>2015-06-27T13:08:51Z</time>
      </trkpt>
      <trkpt lat="43.23403" lon="0.63278">
        <ele>314.01</ele>
        <time>2015-06-27T13:08:56Z</time>
      </trkpt>
      <trkpt lat="43.23422" lon="0.63297">
        <ele>313.53</ele>
        <time>2015-06-27T13:09:03Z</time>
      </trkpt>
      <trkpt lat="43.23433" lon="0.63311">
        <ele>313.53</ele>
        <time>2015-06-27T13:09:07Z</time>
      </trkpt>
      <trkpt lat="43.23465" lon="0.63343">
        <ele>312.09</ele>
        <time>2015-06-27T13:09:13Z</time>
      </trkpt>
      <trkpt lat="43.2349" lon="0.63382">
        <ele>312.09</ele>
        <time>2015-06-27T13:09:19Z</time>
      </trkpt>
      <trkpt lat="43.2351" lon="0.63432">
        <ele>311.6</ele>
        <time>2015-06-27T13:09:26Z</time>
      </trkpt>
      <trkpt lat="43.23513" lon="0.63439">
        <ele>311.6</ele>
        <time>2015-06-27T13:09:27Z</time>
      </trkpt>
      <trkpt lat="43.23515" lon="0.63446">
        <ele>311.6</ele>
        <time>2015-06-27T13:09:28Z</time>
      </trkpt>
      <trkpt lat="43.23517" lon="0.63452">
        <ele>311.6</ele>
        <time>2015-06-27T13:09:29Z</time>
      </trkpt>
      <trkpt lat="43.23518" lon="0.63458">
        <ele>311.6</ele>
        <time>2015-06-27T13:09:30Z</time>
      </trkpt>
      <trkpt lat="43.2352" lon="0.63465">
        <ele>311.6</ele>
        <time>2015-06-27T13:09:31Z</time>
      </trkpt>
      <trkpt lat="43.23523" lon="0.63471">
        <ele>311.6</ele>
        <time>2015-06-27T13:09:32Z</time>
      </trkpt>
      <trkpt lat="43.23526" lon="0.63477">
        <ele>310.64</ele>
        <time>2015-06-27T13:09:33Z</time>
      </trkpt>
      <trkpt lat="43.23528" lon="0.63483">
        <ele>311.6</ele>
        <time>2015-06-27T13:09:34Z</time>
      </trkpt>
      <trkpt lat="43.23533" lon="0.63495">
        <ele>311.12</ele>
        <time>2015-06-27T13:09:36Z</time>
      </trkpt>
      <trkpt lat="43.23535" lon="0.63501">
        <ele>311.12</ele>
        <time>2015-06-27T13:09:37Z</time>
      </trkpt>
      <trkpt lat="43.23542" lon="0.63528">
        <ele>310.64</ele>
        <time>2015-06-27T13:09:42Z</time>
      </trkpt>
      <trkpt lat="43.23557" lon="0.6357">
        <ele>310.64</ele>
        <time>2015-06-27T13:09:49Z</time>
      </trkpt>
      <trkpt lat="43.23565" lon="0.63588">
        <ele>311.12</ele>
        <time>2015-06-27T13:09:52Z</time>
      </trkpt>
      <trkpt lat="43.23568" lon="0.63595">
        <ele>310.64</ele>
        <time>2015-06-27T13:09:53Z</time>
      </trkpt>
      <trkpt lat="43.23574" lon="0.63609">
        <ele>310.64</ele>
        <time>2015-06-27T13:09:55Z</time>
      </trkpt>
      <trkpt lat="43.23576" lon="0.63616">
        <ele>310.64</ele>
        <time>2015-06-27T13:09:56Z</time>
      </trkpt>
      <trkpt lat="43.23583" lon="0.6363">
        <ele>310.64</ele>
        <time>2015-06-27T13:09:58Z</time>
      </trkpt>
      <trkpt lat="43.23597" lon="0.63656">
        <ele>310.16</ele>
        <time>2015-06-27T13:10:02Z</time>
      </trkpt>
      <trkpt lat="43.23617" lon="0.63703">
        <ele>310.16</ele>
        <time>2015-06-27T13:10:10Z</time>
      </trkpt>
      <trkpt lat="43.23632" lon="0.6374">
        <ele>310.16</ele>
        <time>2015-06-27T13:10:17Z</time>
      </trkpt>
      <trkpt lat="43.23636" lon="0.6375">
        <ele>310.16</ele>
        <time>2015-06-27T13:10:19Z</time>
      </trkpt>
      <trkpt lat="43.23652" lon="0.63796">
        <ele>309.68</ele>
        <time>2015-06-27T13:10:27Z</time>
      </trkpt>
      <trkpt lat="43.23662" lon="0.63824">
        <ele>309.68</ele>
        <time>2015-06-27T13:10:32Z</time>
      </trkpt>
      <trkpt lat="43.23671" lon="0.63849">
        <ele>309.68</ele>
        <time>2015-06-27T13:10:36Z</time>
      </trkpt>
      <trkpt lat="43.23685" lon="0.63891">
        <ele>309.2</ele>
        <time>2015-06-27T13:10:43Z</time>
      </trkpt>
      <trkpt lat="43.23699" lon="0.6394">
        <ele>308.72</ele>
        <time>2015-06-27T13:10:51Z</time>
      </trkpt>
      <trkpt lat="43.23718" lon="0.63997">
        <ele>308.72</ele>
        <time>2015-06-27T13:11:00Z</time>
      </trkpt>
      <trkpt lat="43.23744" lon="0.64058">
        <ele>308.24</ele>
        <time>2015-06-27T13:11:09Z</time>
      </trkpt>
      <trkpt lat="43.23765" lon="0.64115">
        <ele>308.24</ele>
        <time>2015-06-27T13:11:18Z</time>
      </trkpt>
      <trkpt lat="43.23791" lon="0.64186">
        <ele>307.28</ele>
        <time>2015-06-27T13:11:29Z</time>
      </trkpt>
      <trkpt lat="43.23814" lon="0.64256">
        <ele>306.8</ele>
        <time>2015-06-27T13:11:39Z</time>
      </trkpt>
      <trkpt lat="43.23834" lon="0.6431">
        <ele>305.84</ele>
        <time>2015-06-27T13:11:47Z</time>
      </trkpt>
      <trkpt lat="43.23861" lon="0.64379">
        <ele>305.84</ele>
        <time>2015-06-27T13:11:57Z</time>
      </trkpt>
      <trkpt lat="43.23882" lon="0.6444">
        <ele>305.36</ele>
        <time>2015-06-27T13:12:06Z</time>
      </trkpt>
      <trkpt lat="43.23902" lon="0.64497">
        <ele>304.88</ele>
        <time>2015-06-27T13:12:14Z</time>
      </trkpt>
      <trkpt lat="43.23924" lon="0.64553">
        <ele>304.88</ele>
        <time>2015-06-27T13:12:22Z</time>
      </trkpt>
      <trkpt lat="43.23942" lon="0.64602">
        <ele>304.39</ele>
        <time>2015-06-27T13:12:29Z</time>
      </trkpt>
      <trkpt lat="43.23959" lon="0.64653">
        <ele>304.39</ele>
        <time>2015-06-27T13:12:36Z</time>
      </trkpt>
      <trkpt lat="43.23985" lon="0.64726">
        <ele>303.91</ele>
        <time>2015-06-27T13:12:46Z</time>
      </trkpt>
      <trkpt lat="43.24009" lon="0.64791">
        <ele>303.43</ele>
        <time>2015-06-27T13:12:55Z</time>
      </trkpt>
      <trkpt lat="43.24034" lon="0.64862">
        <ele>302.47</ele>
        <time>2015-06-27T13:13:05Z</time>
      </trkpt>
      <trkpt lat="43.24062" lon="0.64944">
        <ele>301.51</ele>
        <time>2015-06-27T13:13:16Z</time>
      </trkpt>
      <trkpt lat="43.24085" lon="0.65002">
        <ele>301.99</ele>
        <time>2015-06-27T13:13:25Z</time>
      </trkpt>
      <trkpt lat="43.24107" lon="0.65061">
        <ele>301.99</ele>
        <time>2015-06-27T13:13:34Z</time>
      </trkpt>
      <trkpt lat="43.24125" lon="0.65113">
        <ele>301.99</ele>
        <time>2015-06-27T13:13:42Z</time>
      </trkpt>
      <trkpt lat="43.24147" lon="0.65174">
        <ele>302.47</ele>
        <time>2015-06-27T13:13:51Z</time>
      </trkpt>
      <trkpt lat="43.24171" lon="0.65223">
        <ele>302.95</ele>
        <time>2015-06-27T13:13:59Z</time>
      </trkpt>
      <trkpt lat="43.24202" lon="0.65271">
        <ele>303.43</ele>
        <time>2015-06-27T13:14:08Z</time>
      </trkpt>
      <trkpt lat="43.24226" lon="0.6531">
        <ele>303.43</ele>
        <time>2015-06-27T13:14:16Z</time>
      </trkpt>
      <trkpt lat="43.24237" lon="0.65324">
        <ele>303.91</ele>
        <time>2015-06-27T13:14:19Z</time>
      </trkpt>
      <trkpt lat="43.24241" lon="0.65328">
        <ele>303.91</ele>
        <time>2015-06-27T13:14:20Z</time>
      </trkpt>
      <trkpt lat="43.24244" lon="0.65332">
        <ele>303.91</ele>
        <time>2015-06-27T13:14:21Z</time>
      </trkpt>
      <trkpt lat="43.24266" lon="0.65363">
        <ele>304.39</ele>
        <time>2015-06-27T13:14:28Z</time>
      </trkpt>
      <trkpt lat="43.24289" lon="0.65392">
        <ele>306.32</ele>
        <time>2015-06-27T13:14:36Z</time>
      </trkpt>
      <trkpt lat="43.24309" lon="0.65417">
        <ele>306.8</ele>
        <time>2015-06-27T13:14:44Z</time>
      </trkpt>
      <trkpt lat="43.2433" lon="0.65444">
        <ele>308.72</ele>
        <time>2015-06-27T13:14:53Z</time>
      </trkpt>
      <trkpt lat="43.24353" lon="0.65472">
        <ele>310.16</ele>
        <time>2015-06-27T13:15:03Z</time>
      </trkpt>
      <trkpt lat="43.2437" lon="0.65493">
        <ele>311.6</ele>
        <time>2015-06-27T13:15:11Z</time>
      </trkpt>
      <trkpt lat="43.24384" lon="0.65515">
        <ele>312.57</ele>
        <time>2015-06-27T13:15:19Z</time>
      </trkpt>
      <trkpt lat="43.24408" lon="0.65543">
        <ele>314.01</ele>
        <time>2015-06-27T13:15:29Z</time>
      </trkpt>
      <trkpt lat="43.24431" lon="0.6556">
        <ele>315.45</ele>
        <time>2015-06-27T13:15:37Z</time>
      </trkpt>
      <trkpt lat="43.2446" lon="0.65568">
        <ele>316.41</ele>
        <time>2015-06-27T13:15:46Z</time>
      </trkpt>
      <trkpt lat="43.24484" lon="0.65563">
        <ele>317.37</ele>
        <time>2015-06-27T13:15:54Z</time>
      </trkpt>
      <trkpt lat="43.24507" lon="0.65551">
        <ele>317.85</ele>
        <time>2015-06-27T13:16:02Z</time>
      </trkpt>
      <trkpt lat="43.24532" lon="0.6554">
        <ele>318.33</ele>
        <time>2015-06-27T13:16:11Z</time>
      </trkpt>
      <trkpt lat="43.24555" lon="0.6553">
        <ele>319.3</ele>
        <time>2015-06-27T13:16:19Z</time>
      </trkpt>
      <trkpt lat="43.24576" lon="0.65522">
        <ele>320.26</ele>
        <time>2015-06-27T13:16:27Z</time>
      </trkpt>
      <trkpt lat="43.24598" lon="0.65511">
        <ele>321.22</ele>
        <time>2015-06-27T13:16:35Z</time>
      </trkpt>
      <trkpt lat="43.24625" lon="0.65498">
        <ele>321.7</ele>
        <time>2015-06-27T13:16:46Z</time>
      </trkpt>
      <trkpt lat="43.24647" lon="0.65489">
        <ele>321.7</ele>
        <time>2015-06-27T13:16:55Z</time>
      </trkpt>
      <trkpt lat="43.24662" lon="0.65483">
        <ele>321.7</ele>
        <time>2015-06-27T13:17:02Z</time>
      </trkpt>
      <trkpt lat="43.24678" lon="0.65477">
        <ele>321.7</ele>
        <time>2015-06-27T13:17:10Z</time>
      </trkpt>
      <trkpt lat="43.24698" lon="0.65469">
        <ele>321.7</ele>
        <time>2015-06-27T13:17:18Z</time>
      </trkpt>
      <trkpt lat="43.24716" lon="0.65462">
        <ele>321.7</ele>
        <time>2015-06-27T13:17:26Z</time>
      </trkpt>
      <trkpt lat="43.24745" lon="0.65449">
        <ele>321.7</ele>
        <time>2015-06-27T13:17:37Z</time>
      </trkpt>
      <trkpt lat="43.24774" lon="0.65436">
        <ele>321.7</ele>
        <time>2015-06-27T13:17:46Z</time>
      </trkpt>
      <trkpt lat="43.248" lon="0.65425">
        <ele>321.7</ele>
        <time>2015-06-27T13:17:54Z</time>
      </trkpt>
      <trkpt lat="43.24835" lon="0.65411">
        <ele>321.22</ele>
        <time>2015-06-27T13:18:04Z</time>
      </trkpt>
      <trkpt lat="43.24866" lon="0.65397">
        <ele>320.74</ele>
        <time>2015-06-27T13:18:13Z</time>
      </trkpt>
      <trkpt lat="43.2489" lon="0.65387">
        <ele>321.22</ele>
        <time>2015-06-27T13:18:20Z</time>
      </trkpt>
      <trkpt lat="43.24914" lon="0.65377">
        <ele>321.22</ele>
        <time>2015-06-27T13:18:28Z</time>
      </trkpt>
      <trkpt lat="43.24941" lon="0.65365">
        <ele>320.74</ele>
        <time>2015-06-27T13:18:36Z</time>
      </trkpt>
      <trkpt lat="43.24974" lon="0.6535">
        <ele>320.74</ele>
        <time>2015-06-27T13:18:45Z</time>
      </trkpt>
      <trkpt lat="43.25008" lon="0.65335">
        <ele>320.74</ele>
        <time>2015-06-27T13:18:54Z</time>
      </trkpt>
      <trkpt lat="43.25041" lon="0.65322">
        <ele>320.74</ele>
        <time>2015-06-27T13:19:03Z</time>
      </trkpt>
      <trkpt lat="43.25076" lon="0.65307">
        <ele>320.74</ele>
        <time>2015-06-27T13:19:12Z</time>
      </trkpt>
      <trkpt lat="43.2511" lon="0.65292">
        <ele>320.74</ele>
        <time>2015-06-27T13:19:21Z</time>
      </trkpt>
      <trkpt lat="43.25137" lon="0.6528">
        <ele>320.26</ele>
        <time>2015-06-27T13:19:28Z</time>
      </trkpt>
      <trkpt lat="43.25172" lon="0.65261">
        <ele>320.26</ele>
        <time>2015-06-27T13:19:38Z</time>
      </trkpt>
      <trkpt lat="43.25196" lon="0.65245">
        <ele>319.3</ele>
        <time>2015-06-27T13:19:44Z</time>
      </trkpt>
      <trkpt lat="43.25227" lon="0.65221">
        <ele>317.85</ele>
        <time>2015-06-27T13:19:50Z</time>
      </trkpt>
      <trkpt lat="43.25277" lon="0.65181">
        <ele>314.97</ele>
        <time>2015-06-27T13:19:58Z</time>
      </trkpt>
      <trkpt lat="43.25315" lon="0.65158">
        <ele>312.09</ele>
        <time>2015-06-27T13:20:03Z</time>
      </trkpt>
      <trkpt lat="43.25376" lon="0.65136">
        <ele>309.68</ele>
        <time>2015-06-27T13:20:10Z</time>
      </trkpt>
      <trkpt lat="43.25424" lon="0.65125">
        <ele>308.24</ele>
        <time>2015-06-27T13:20:16Z</time>
      </trkpt>
      <trkpt lat="43.25456" lon="0.65115">
        <ele>308.24</ele>
        <time>2015-06-27T13:20:21Z</time>
      </trkpt>
      <trkpt lat="43.25462" lon="0.65114">
        <ele>308.72</ele>
        <time>2015-06-27T13:20:22Z</time>
      </trkpt>
      <trkpt lat="43.25467" lon="0.65113">
        <ele>308.24</ele>
        <time>2015-06-27T13:20:23Z</time>
      </trkpt>
      <trkpt lat="43.25498" lon="0.65107">
        <ele>308.72</ele>
        <time>2015-06-27T13:20:30Z</time>
      </trkpt>
      <trkpt lat="43.25536" lon="0.65096">
        <ele>310.64</ele>
        <time>2015-06-27T13:20:40Z</time>
      </trkpt>
      <trkpt lat="43.25555" lon="0.65084">
        <ele>311.12</ele>
        <time>2015-06-27T13:20:48Z</time>
      </trkpt>
      <trkpt lat="43.25569" lon="0.65064">
        <ele>312.57</ele>
        <time>2015-06-27T13:20:56Z</time>
      </trkpt>
      <trkpt lat="43.2558" lon="0.65044">
        <ele>313.53</ele>
        <time>2015-06-27T13:21:05Z</time>
      </trkpt>
      <trkpt lat="43.25587" lon="0.65028">
        <ele>314.97</ele>
        <time>2015-06-27T13:21:12Z</time>
      </trkpt>
      <trkpt lat="43.25596" lon="0.64999">
        <ele>315.93</ele>
        <time>2015-06-27T13:21:21Z</time>
      </trkpt>
      <trkpt lat="43.25603" lon="0.64975">
        <ele>316.89</ele>
        <time>2015-06-27T13:21:28Z</time>
      </trkpt>
      <trkpt lat="43.25612" lon="0.64941">
        <ele>318.33</ele>
        <time>2015-06-27T13:21:38Z</time>
      </trkpt>
      <trkpt lat="43.25621" lon="0.64911">
        <ele>319.3</ele>
        <time>2015-06-27T13:21:47Z</time>
      </trkpt>
      <trkpt lat="43.25631" lon="0.64871">
        <ele>320.74</ele>
        <time>2015-06-27T13:21:59Z</time>
      </trkpt>
      <trkpt lat="43.25639" lon="0.64845">
        <ele>322.18</ele>
        <time>2015-06-27T13:22:07Z</time>
      </trkpt>
      <trkpt lat="43.25652" lon="0.64818">
        <ele>323.62</ele>
        <time>2015-06-27T13:22:17Z</time>
      </trkpt>
      <trkpt lat="43.25667" lon="0.64798">
        <ele>324.58</ele>
        <time>2015-06-27T13:22:25Z</time>
      </trkpt>
      <trkpt lat="43.25691" lon="0.64773">
        <ele>326.99</ele>
        <time>2015-06-27T13:22:36Z</time>
      </trkpt>
      <trkpt lat="43.25707" lon="0.6476">
        <ele>327.47</ele>
        <time>2015-06-27T13:22:44Z</time>
      </trkpt>
      <trkpt lat="43.25727" lon="0.64747">
        <ele>328.91</ele>
        <time>2015-06-27T13:22:53Z</time>
      </trkpt>
      <trkpt lat="43.25744" lon="0.64732">
        <ele>330.35</ele>
        <time>2015-06-27T13:23:01Z</time>
      </trkpt>
      <trkpt lat="43.2576" lon="0.64719">
        <ele>330.83</ele>
        <time>2015-06-27T13:23:08Z</time>
      </trkpt>
      <trkpt lat="43.25779" lon="0.64694">
        <ele>332.75</ele>
        <time>2015-06-27T13:23:19Z</time>
      </trkpt>
      <trkpt lat="43.25787" lon="0.64675">
        <ele>333.23</ele>
        <time>2015-06-27T13:23:26Z</time>
      </trkpt>
      <trkpt lat="43.25791" lon="0.64658">
        <ele>334.2</ele>
        <time>2015-06-27T13:23:32Z</time>
      </trkpt>
      <trkpt lat="43.25795" lon="0.64634">
        <ele>335.16</ele>
        <time>2015-06-27T13:23:39Z</time>
      </trkpt>
      <trkpt lat="43.258" lon="0.64607">
        <ele>335.64</ele>
        <time>2015-06-27T13:23:47Z</time>
      </trkpt>
      <trkpt lat="43.25804" lon="0.64583">
        <ele>336.6</ele>
        <time>2015-06-27T13:23:54Z</time>
      </trkpt>
      <trkpt lat="43.25808" lon="0.64559">
        <ele>337.56</ele>
        <time>2015-06-27T13:24:02Z</time>
      </trkpt>
      <trkpt lat="43.25814" lon="0.64531">
        <ele>338.52</ele>
        <time>2015-06-27T13:24:11Z</time>
      </trkpt>
      <trkpt lat="43.25821" lon="0.64497">
        <ele>339.96</ele>
        <time>2015-06-27T13:24:21Z</time>
      </trkpt>
      <trkpt lat="43.25826" lon="0.64469">
        <ele>340.44</ele>
        <time>2015-06-27T13:24:29Z</time>
      </trkpt>
      <trkpt lat="43.2583" lon="0.64439">
        <ele>341.89</ele>
        <time>2015-06-27T13:24:38Z</time>
      </trkpt>
      <trkpt lat="43.25835" lon="0.64415">
        <ele>342.85</ele>
        <time>2015-06-27T13:24:46Z</time>
      </trkpt>
      <trkpt lat="43.25841" lon="0.64387">
        <ele>344.29</ele>
        <time>2015-06-27T13:24:54Z</time>
      </trkpt>
      <trkpt lat="43.2585" lon="0.64356">
        <ele>345.25</ele>
        <time>2015-06-27T13:25:03Z</time>
      </trkpt>
      <trkpt lat="43.25866" lon="0.64329">
        <ele>346.69</ele>
        <time>2015-06-27T13:25:12Z</time>
      </trkpt>
      <trkpt lat="43.25884" lon="0.64312">
        <ele>347.65</ele>
        <time>2015-06-27T13:25:20Z</time>
      </trkpt>
      <trkpt lat="43.25899" lon="0.64305">
        <ele>348.62</ele>
        <time>2015-06-27T13:25:27Z</time>
      </trkpt>
      <trkpt lat="43.25914" lon="0.64301">
        <ele>349.58</ele>
        <time>2015-06-27T13:25:35Z</time>
      </trkpt>
      <trkpt lat="43.25915" lon="0.64301">
        <ele>350.06</ele>
        <time>2015-06-27T13:25:36Z</time>
      </trkpt>
      <trkpt lat="43.25917" lon="0.64301">
        <ele>350.06</ele>
        <time>2015-06-27T13:25:37Z</time>
      </trkpt>
      <trkpt lat="43.25929" lon="0.643">
        <ele>351.02</ele>
        <time>2015-06-27T13:25:45Z</time>
      </trkpt>
      <trkpt lat="43.25945" lon="0.64299">
        <ele>351.5</ele>
        <time>2015-06-27T13:25:53Z</time>
      </trkpt>
      <trkpt lat="43.25959" lon="0.64295">
        <ele>352.46</ele>
        <time>2015-06-27T13:26:00Z</time>
      </trkpt>
      <trkpt lat="43.25972" lon="0.64293">
        <ele>352.94</ele>
        <time>2015-06-27T13:26:08Z</time>
      </trkpt>
      <trkpt lat="43.25982" lon="0.6429">
        <ele>353.9</ele>
        <time>2015-06-27T13:26:16Z</time>
      </trkpt>
      <trkpt lat="43.25997" lon="0.6429">
        <ele>354.38</ele>
        <time>2015-06-27T13:26:23Z</time>
      </trkpt>
      <trkpt lat="43.26015" lon="0.64285">
        <ele>355.34</ele>
        <time>2015-06-27T13:26:33Z</time>
      </trkpt>
      <trkpt lat="43.26028" lon="0.64288">
        <ele>357.75</ele>
        <time>2015-06-27T13:26:41Z</time>
      </trkpt>
      <trkpt lat="43.26029" lon="0.64287">
        <ele>356.79</ele>
        <time>2015-06-27T13:26:43Z</time>
      </trkpt>
      <trkpt lat="43.2603" lon="0.64286">
        <ele>356.31</ele>
        <time>2015-06-27T13:26:49Z</time>
      </trkpt>
      <trkpt lat="43.26031" lon="0.64287">
        <ele>356.31</ele>
        <time>2015-06-27T13:26:58Z</time>
      </trkpt>
      <trkpt lat="43.26031" lon="0.64286">
        <ele>356.31</ele>
        <time>2015-06-27T13:27:12Z</time>
      </trkpt>
      <trkpt lat="43.26032" lon="0.64287">
        <ele>356.31</ele>
        <time>2015-06-27T13:27:23Z</time>
      </trkpt>
      <trkpt lat="43.26031" lon="0.64287">
        <ele>356.31</ele>
        <time>2015-06-27T13:27:38Z</time>
      </trkpt>
      <trkpt lat="43.26032" lon="0.64286">
        <ele>356.31</ele>
        <time>2015-06-27T13:27:45Z</time>
      </trkpt>
      <trkpt lat="43.26033" lon="0.64286">
        <ele>356.31</ele>
        <time>2015-06-27T13:27:58Z</time>
      </trkpt>
      <trkpt lat="43.26033" lon="0.64286">
        <ele>356.31</ele>
        <time>2015-06-27T13:28:13Z</time>
      </trkpt>
      <trkpt lat="43.26034" lon="0.64287">
        <ele>356.31</ele>
        <time>2015-06-27T13:28:27Z</time>
      </trkpt>
      <trkpt lat="43.26034" lon="0.64287">
        <ele>356.31</ele>
        <time>2015-06-27T13:28:43Z</time>
      </trkpt>
      <trkpt lat="43.26033" lon="0.64286">
        <ele>355.83</ele>
        <time>2015-06-27T13:29:01Z</time>
      </trkpt>
      <trkpt lat="43.26033" lon="0.64286">
        <ele>356.31</ele>
        <time>2015-06-27T13:29:16Z</time>
      </trkpt>
      <trkpt lat="43.26033" lon="0.64286">
        <ele>356.31</ele>
        <time>2015-06-27T13:29:28Z</time>
      </trkpt>
      <trkpt lat="43.26033" lon="0.64287">
        <ele>356.31</ele>
        <time>2015-06-27T13:29:39Z</time>
      </trkpt>
      <trkpt lat="43.26035" lon="0.64286">
        <ele>356.31</ele>
        <time>2015-06-27T13:29:48Z</time>
      </trkpt>
      <trkpt lat="43.26036" lon="0.64286">
        <ele>356.31</ele>
        <time>2015-06-27T13:29:49Z</time>
      </trkpt>
      <trkpt lat="43.26038" lon="0.64286">
        <ele>356.31</ele>
        <time>2015-06-27T13:29:50Z</time>
      </trkpt>
      <trkpt lat="43.2604" lon="0.64285">
        <ele>356.31</ele>
        <time>2015-06-27T13:29:51Z</time>
      </trkpt>
      <trkpt lat="43.26042" lon="0.64285">
        <ele>356.31</ele>
        <time>2015-06-27T13:29:52Z</time>
      </trkpt>
      <trkpt lat="43.26044" lon="0.64283">
        <ele>356.31</ele>
        <time>2015-06-27T13:29:53Z</time>
      </trkpt>
      <trkpt lat="43.26046" lon="0.64283">
        <ele>356.31</ele>
        <time>2015-06-27T13:29:54Z</time>
      </trkpt>
      <trkpt lat="43.26048" lon="0.64282">
        <ele>356.31</ele>
        <time>2015-06-27T13:29:55Z</time>
      </trkpt>
      <trkpt lat="43.2605" lon="0.64281">
        <ele>356.31</ele>
        <time>2015-06-27T13:29:56Z</time>
      </trkpt>
      <trkpt lat="43.26052" lon="0.6428">
        <ele>356.31</ele>
        <time>2015-06-27T13:29:57Z</time>
      </trkpt>
      <trkpt lat="43.26055" lon="0.6428">
        <ele>356.31</ele>
        <time>2015-06-27T13:29:58Z</time>
      </trkpt>
      <trkpt lat="43.26058" lon="0.64279">
        <ele>356.31</ele>
        <time>2015-06-27T13:29:59Z</time>
      </trkpt>
      <trkpt lat="43.2606" lon="0.64278">
        <ele>356.31</ele>
        <time>2015-06-27T13:30:00Z</time>
      </trkpt>
      <trkpt lat="43.26062" lon="0.64277">
        <ele>356.31</ele>
        <time>2015-06-27T13:30:01Z</time>
      </trkpt>
      <trkpt lat="43.26063" lon="0.64277">
        <ele>355.83</ele>
        <time>2015-06-27T13:30:02Z</time>
      </trkpt>
      <trkpt lat="43.26078" lon="0.64269">
        <ele>356.31</ele>
        <time>2015-06-27T13:30:10Z</time>
      </trkpt>
      <trkpt lat="43.26092" lon="0.64261">
        <ele>355.83</ele>
        <time>2015-06-27T13:30:16Z</time>
      </trkpt>
      <trkpt lat="43.26115" lon="0.64249">
        <ele>355.34</ele>
        <time>2015-06-27T13:30:24Z</time>
      </trkpt>
      <trkpt lat="43.26133" lon="0.64236">
        <ele>355.34</ele>
        <time>2015-06-27T13:30:31Z</time>
      </trkpt>
      <trkpt lat="43.26144" lon="0.64233">
        <ele>355.34</ele>
        <time>2015-06-27T13:30:34Z</time>
      </trkpt>
      <trkpt lat="43.26148" lon="0.64232">
        <ele>355.34</ele>
        <time>2015-06-27T13:30:35Z</time>
      </trkpt>
      <trkpt lat="43.26151" lon="0.64231">
        <ele>355.34</ele>
        <time>2015-06-27T13:30:36Z</time>
      </trkpt>
      <trkpt lat="43.26181" lon="0.64236">
        <ele>355.83</ele>
        <time>2015-06-27T13:30:43Z</time>
      </trkpt>
      <trkpt lat="43.26201" lon="0.64257">
        <ele>353.42</ele>
        <time>2015-06-27T13:30:49Z</time>
      </trkpt>
      <trkpt lat="43.26211" lon="0.64266">
        <ele>352.94</ele>
        <time>2015-06-27T13:30:51Z</time>
      </trkpt>
      <trkpt lat="43.26259" lon="0.64307">
        <ele>351.02</ele>
        <time>2015-06-27T13:30:59Z</time>
      </trkpt>
      <trkpt lat="43.26282" lon="0.64329">
        <ele>349.1</ele>
        <time>2015-06-27T13:31:03Z</time>
      </trkpt>
      <trkpt lat="43.26318" lon="0.64362">
        <ele>346.69</ele>
        <time>2015-06-27T13:31:09Z</time>
      </trkpt>
      <trkpt lat="43.26337" lon="0.6438">
        <ele>344.77</ele>
        <time>2015-06-27T13:31:12Z</time>
      </trkpt>
      <trkpt lat="43.26345" lon="0.64385">
        <ele>344.77</ele>
        <time>2015-06-27T13:31:13Z</time>
      </trkpt>
      <trkpt lat="43.26353" lon="0.64389">
        <ele>343.81</ele>
        <time>2015-06-27T13:31:14Z</time>
      </trkpt>
      <trkpt lat="43.26362" lon="0.64391">
        <ele>343.81</ele>
        <time>2015-06-27T13:31:15Z</time>
      </trkpt>
      <trkpt lat="43.26371" lon="0.64392">
        <ele>343.33</ele>
        <time>2015-06-27T13:31:16Z</time>
      </trkpt>
      <trkpt lat="43.2638" lon="0.6439">
        <ele>343.33</ele>
        <time>2015-06-27T13:31:17Z</time>
      </trkpt>
      <trkpt lat="43.26388" lon="0.64387">
        <ele>342.85</ele>
        <time>2015-06-27T13:31:18Z</time>
      </trkpt>
      <trkpt lat="43.26397" lon="0.64382">
        <ele>342.85</ele>
        <time>2015-06-27T13:31:19Z</time>
      </trkpt>
      <trkpt lat="43.26406" lon="0.64376">
        <ele>342.37</ele>
        <time>2015-06-27T13:31:20Z</time>
      </trkpt>
      <trkpt lat="43.26415" lon="0.64369">
        <ele>341.41</ele>
        <time>2015-06-27T13:31:21Z</time>
      </trkpt>
      <trkpt lat="43.26465" lon="0.64331">
        <ele>338.04</ele>
        <time>2015-06-27T13:31:27Z</time>
      </trkpt>
      <trkpt lat="43.26509" lon="0.64312">
        <ele>335.64</ele>
        <time>2015-06-27T13:31:32Z</time>
      </trkpt>
      <trkpt lat="43.26518" lon="0.64311">
        <ele>335.16</ele>
        <time>2015-06-27T13:31:33Z</time>
      </trkpt>
      <trkpt lat="43.26572" lon="0.64312">
        <ele>331.31</ele>
        <time>2015-06-27T13:31:39Z</time>
      </trkpt>
      <trkpt lat="43.26581" lon="0.64312">
        <ele>330.83</ele>
        <time>2015-06-27T13:31:40Z</time>
      </trkpt>
      <trkpt lat="43.26629" lon="0.64321">
        <ele>328.91</ele>
        <time>2015-06-27T13:31:45Z</time>
      </trkpt>
      <trkpt lat="43.26639" lon="0.64325">
        <ele>328.91</ele>
        <time>2015-06-27T13:31:46Z</time>
      </trkpt>
      <trkpt lat="43.2665" lon="0.64332">
        <ele>327.95</ele>
        <time>2015-06-27T13:31:47Z</time>
      </trkpt>
      <trkpt lat="43.2666" lon="0.6434">
        <ele>327.47</ele>
        <time>2015-06-27T13:31:48Z</time>
      </trkpt>
      <trkpt lat="43.26669" lon="0.64351">
        <ele>326.99</ele>
        <time>2015-06-27T13:31:49Z</time>
      </trkpt>
      <trkpt lat="43.26677" lon="0.64364">
        <ele>326.5</ele>
        <time>2015-06-27T13:31:50Z</time>
      </trkpt>
      <trkpt lat="43.26683" lon="0.64378">
        <ele>325.54</ele>
        <time>2015-06-27T13:31:51Z</time>
      </trkpt>
      <trkpt lat="43.26687" lon="0.64393">
        <ele>324.58</ele>
        <time>2015-06-27T13:31:52Z</time>
      </trkpt>
      <trkpt lat="43.2669" lon="0.64408">
        <ele>324.58</ele>
        <time>2015-06-27T13:31:53Z</time>
      </trkpt>
      <trkpt lat="43.26693" lon="0.64424">
        <ele>324.1</ele>
        <time>2015-06-27T13:31:54Z</time>
      </trkpt>
      <trkpt lat="43.26694" lon="0.64439">
        <ele>323.14</ele>
        <time>2015-06-27T13:31:55Z</time>
      </trkpt>
      <trkpt lat="43.26695" lon="0.64454">
        <ele>323.14</ele>
        <time>2015-06-27T13:31:56Z</time>
      </trkpt>
      <trkpt lat="43.26696" lon="0.64469">
        <ele>322.18</ele>
        <time>2015-06-27T13:31:57Z</time>
      </trkpt>
      <trkpt lat="43.26698" lon="0.64483">
        <ele>321.7</ele>
        <time>2015-06-27T13:31:58Z</time>
      </trkpt>
      <trkpt lat="43.267" lon="0.64497">
        <ele>321.22</ele>
        <time>2015-06-27T13:31:59Z</time>
      </trkpt>
      <trkpt lat="43.267" lon="0.64512">
        <ele>320.74</ele>
        <time>2015-06-27T13:32:00Z</time>
      </trkpt>
      <trkpt lat="43.26687" lon="0.64588">
        <ele>317.85</ele>
        <time>2015-06-27T13:32:05Z</time>
      </trkpt>
      <trkpt lat="43.26662" lon="0.64654">
        <ele>314.49</ele>
        <time>2015-06-27T13:32:10Z</time>
      </trkpt>
      <trkpt lat="43.2662" lon="0.6473">
        <ele>310.64</ele>
        <time>2015-06-27T13:32:17Z</time>
      </trkpt>
      <trkpt lat="43.26615" lon="0.64742">
        <ele>309.68</ele>
        <time>2015-06-27T13:32:18Z</time>
      </trkpt>
      <trkpt lat="43.26611" lon="0.64756">
        <ele>309.2</ele>
        <time>2015-06-27T13:32:19Z</time>
      </trkpt>
      <trkpt lat="43.26608" lon="0.6477">
        <ele>308.72</ele>
        <time>2015-06-27T13:32:20Z</time>
      </trkpt>
      <trkpt lat="43.26606" lon="0.64785">
        <ele>308.24</ele>
        <time>2015-06-27T13:32:21Z</time>
      </trkpt>
      <trkpt lat="43.26604" lon="0.648">
        <ele>307.76</ele>
        <time>2015-06-27T13:32:22Z</time>
      </trkpt>
      <trkpt lat="43.26603" lon="0.64815">
        <ele>307.28</ele>
        <time>2015-06-27T13:32:23Z</time>
      </trkpt>
      <trkpt lat="43.26599" lon="0.64858">
        <ele>305.84</ele>
        <time>2015-06-27T13:32:26Z</time>
      </trkpt>
      <trkpt lat="43.26599" lon="0.64873">
        <ele>305.36</ele>
        <time>2015-06-27T13:32:27Z</time>
      </trkpt>
      <trkpt lat="43.26603" lon="0.64963">
        <ele>301.99</ele>
        <time>2015-06-27T13:32:33Z</time>
      </trkpt>
      <trkpt lat="43.26603" lon="0.65035">
        <ele>299.11</ele>
        <time>2015-06-27T13:32:38Z</time>
      </trkpt>
      <trkpt lat="43.26603" lon="0.65093">
        <ele>296.7</ele>
        <time>2015-06-27T13:32:42Z</time>
      </trkpt>
      <trkpt lat="43.26606" lon="0.65135">
        <ele>295.26</ele>
        <time>2015-06-27T13:32:45Z</time>
      </trkpt>
      <trkpt lat="43.26608" lon="0.65149">
        <ele>294.78</ele>
        <time>2015-06-27T13:32:46Z</time>
      </trkpt>
      <trkpt lat="43.26612" lon="0.65161">
        <ele>294.3</ele>
        <time>2015-06-27T13:32:47Z</time>
      </trkpt>
      <trkpt lat="43.26617" lon="0.65173">
        <ele>293.34</ele>
        <time>2015-06-27T13:32:48Z</time>
      </trkpt>
      <trkpt lat="43.26624" lon="0.65184">
        <ele>292.38</ele>
        <time>2015-06-27T13:32:49Z</time>
      </trkpt>
      <trkpt lat="43.26631" lon="0.65193">
        <ele>292.38</ele>
        <time>2015-06-27T13:32:50Z</time>
      </trkpt>
      <trkpt lat="43.26639" lon="0.65201">
        <ele>291.9</ele>
        <time>2015-06-27T13:32:51Z</time>
      </trkpt>
      <trkpt lat="43.26647" lon="0.65206">
        <ele>291.42</ele>
        <time>2015-06-27T13:32:52Z</time>
      </trkpt>
      <trkpt lat="43.26656" lon="0.65211">
        <ele>290.94</ele>
        <time>2015-06-27T13:32:53Z</time>
      </trkpt>
      <trkpt lat="43.26666" lon="0.65214">
        <ele>290.94</ele>
        <time>2015-06-27T13:32:54Z</time>
      </trkpt>
      <trkpt lat="43.26675" lon="0.65216">
        <ele>290.46</ele>
        <time>2015-06-27T13:32:55Z</time>
      </trkpt>
      <trkpt lat="43.26685" lon="0.65217">
        <ele>290.46</ele>
        <time>2015-06-27T13:32:56Z</time>
      </trkpt>
      <trkpt lat="43.26737" lon="0.6522">
        <ele>289.49</ele>
        <time>2015-06-27T13:33:02Z</time>
      </trkpt>
      <trkpt lat="43.26788" lon="0.65223">
        <ele>288.53</ele>
        <time>2015-06-27T13:33:09Z</time>
      </trkpt>
      <trkpt lat="43.26842" lon="0.65226">
        <ele>288.05</ele>
        <time>2015-06-27T13:33:18Z</time>
      </trkpt>
      <trkpt lat="43.26885" lon="0.65229">
        <ele>287.57</ele>
        <time>2015-06-27T13:33:26Z</time>
      </trkpt>
      <trkpt lat="43.26923" lon="0.65232">
        <ele>288.53</ele>
        <time>2015-06-27T13:33:35Z</time>
      </trkpt>
      <trkpt lat="43.26957" lon="0.65233">
        <ele>289.01</ele>
        <time>2015-06-27T13:33:45Z</time>
      </trkpt>
      <trkpt lat="43.26987" lon="0.65234">
        <ele>289.97</ele>
        <time>2015-06-27T13:33:54Z</time>
      </trkpt>
      <trkpt lat="43.27012" lon="0.65235">
        <ele>290.94</ele>
        <time>2015-06-27T13:34:02Z</time>
      </trkpt>
      <trkpt lat="43.2703" lon="0.65238">
        <ele>291.42</ele>
        <time>2015-06-27T13:34:10Z</time>
      </trkpt>
      <trkpt lat="43.27045" lon="0.65239">
        <ele>291.9</ele>
        <time>2015-06-27T13:34:17Z</time>
      </trkpt>
      <trkpt lat="43.27066" lon="0.65239">
        <ele>292.86</ele>
        <time>2015-06-27T13:34:27Z</time>
      </trkpt>
      <trkpt lat="43.27082" lon="0.65241">
        <ele>293.34</ele>
        <time>2015-06-27T13:34:35Z</time>
      </trkpt>
      <trkpt lat="43.27107" lon="0.65244">
        <ele>295.26</ele>
        <time>2015-06-27T13:34:46Z</time>
      </trkpt>
      <trkpt lat="43.27122" lon="0.65249">
        <ele>295.74</ele>
        <time>2015-06-27T13:34:54Z</time>
      </trkpt>
      <trkpt lat="43.27135" lon="0.65256">
        <ele>296.22</ele>
        <time>2015-06-27T13:35:02Z</time>
      </trkpt>
      <trkpt lat="43.27149" lon="0.65266">
        <ele>297.18</ele>
        <time>2015-06-27T13:35:11Z</time>
      </trkpt>
      <trkpt lat="43.27163" lon="0.65275">
        <ele>298.15</ele>
        <time>2015-06-27T13:35:19Z</time>
      </trkpt>
      <trkpt lat="43.27177" lon="0.65284">
        <ele>299.11</ele>
        <time>2015-06-27T13:35:28Z</time>
      </trkpt>
      <trkpt lat="43.2719" lon="0.65289">
        <ele>299.59</ele>
        <time>2015-06-27T13:35:36Z</time>
      </trkpt>
      <trkpt lat="43.27205" lon="0.65294">
        <ele>300.55</ele>
        <time>2015-06-27T13:35:44Z</time>
      </trkpt>
      <trkpt lat="43.27219" lon="0.65293">
        <ele>301.03</ele>
        <time>2015-06-27T13:35:51Z</time>
      </trkpt>
      <trkpt lat="43.27238" lon="0.65289">
        <ele>301.51</ele>
        <time>2015-06-27T13:35:59Z</time>
      </trkpt>
      <trkpt lat="43.27259" lon="0.65287">
        <ele>301.99</ele>
        <time>2015-06-27T13:36:07Z</time>
      </trkpt>
      <trkpt lat="43.2728" lon="0.65286">
        <ele>301.99</ele>
        <time>2015-06-27T13:36:16Z</time>
      </trkpt>
      <trkpt lat="43.27301" lon="0.65282">
        <ele>302.95</ele>
        <time>2015-06-27T13:36:25Z</time>
      </trkpt>
      <trkpt lat="43.27328" lon="0.65277">
        <ele>303.91</ele>
        <time>2015-06-27T13:36:36Z</time>
      </trkpt>
      <trkpt lat="43.27353" lon="0.65275">
        <ele>306.32</ele>
        <time>2015-06-27T13:36:46Z</time>
      </trkpt>
      <trkpt lat="43.27381" lon="0.65271">
        <ele>305.36</ele>
        <time>2015-06-27T13:36:55Z</time>
      </trkpt>
      <trkpt lat="43.27413" lon="0.65265">
        <ele>305.84</ele>
        <time>2015-06-27T13:37:05Z</time>
      </trkpt>
      <trkpt lat="43.27448" lon="0.65261">
        <ele>306.32</ele>
        <time>2015-06-27T13:37:16Z</time>
      </trkpt>
      <trkpt lat="43.27481" lon="0.65257">
        <ele>306.8</ele>
        <time>2015-06-27T13:37:25Z</time>
      </trkpt>
      <trkpt lat="43.27517" lon="0.65251">
        <ele>306.8</ele>
        <time>2015-06-27T13:37:35Z</time>
      </trkpt>
      <trkpt lat="43.2754" lon="0.65247">
        <ele>307.28</ele>
        <time>2015-06-27T13:37:42Z</time>
      </trkpt>
      <trkpt lat="43.27567" lon="0.65243">
        <ele>307.28</ele>
        <time>2015-06-27T13:37:50Z</time>
      </trkpt>
      <trkpt lat="43.27602" lon="0.65238">
        <ele>306.8</ele>
        <time>2015-06-27T13:38:00Z</time>
      </trkpt>
      <trkpt lat="43.27633" lon="0.65233">
        <ele>307.28</ele>
        <time>2015-06-27T13:38:09Z</time>
      </trkpt>
      <trkpt lat="43.27664" lon="0.65229">
        <ele>307.28</ele>
        <time>2015-06-27T13:38:17Z</time>
      </trkpt>
      <trkpt lat="43.27676" lon="0.65228">
        <ele>307.28</ele>
        <time>2015-06-27T13:38:20Z</time>
      </trkpt>
      <trkpt lat="43.2768" lon="0.65228">
        <ele>307.28</ele>
        <time>2015-06-27T13:38:21Z</time>
      </trkpt>
      <trkpt lat="43.27708" lon="0.65224">
        <ele>307.28</ele>
        <time>2015-06-27T13:38:29Z</time>
      </trkpt>
      <trkpt lat="43.27732" lon="0.6522">
        <ele>307.76</ele>
        <time>2015-06-27T13:38:37Z</time>
      </trkpt>
      <trkpt lat="43.27756" lon="0.65216">
        <ele>308.72</ele>
        <time>2015-06-27T13:38:46Z</time>
      </trkpt>
      <trkpt lat="43.27773" lon="0.65212">
        <ele>309.2</ele>
        <time>2015-06-27T13:38:53Z</time>
      </trkpt>
      <trkpt lat="43.27796" lon="0.65209">
        <ele>310.16</ele>
        <time>2015-06-27T13:39:02Z</time>
      </trkpt>
      <trkpt lat="43.27816" lon="0.65206">
        <ele>311.12</ele>
        <time>2015-06-27T13:39:11Z</time>
      </trkpt>
      <trkpt lat="43.27836" lon="0.65204">
        <ele>311.6</ele>
        <time>2015-06-27T13:39:20Z</time>
      </trkpt>
      <trkpt lat="43.2786" lon="0.65201">
        <ele>313.05</ele>
        <time>2015-06-27T13:39:30Z</time>
      </trkpt>
      <trkpt lat="43.27879" lon="0.65197">
        <ele>313.53</ele>
        <time>2015-06-27T13:39:39Z</time>
      </trkpt>
      <trkpt lat="43.27892" lon="0.65194">
        <ele>313.53</ele>
        <time>2015-06-27T13:39:46Z</time>
      </trkpt>
      <trkpt lat="43.27911" lon="0.65193">
        <ele>313.05</ele>
        <time>2015-06-27T13:39:53Z</time>
      </trkpt>
      <trkpt lat="43.27933" lon="0.65191">
        <ele>312.09</ele>
        <time>2015-06-27T13:39:58Z</time>
      </trkpt>
      <trkpt lat="43.2797" lon="0.65191">
        <ele>310.64</ele>
        <time>2015-06-27T13:40:05Z</time>
      </trkpt>
      <trkpt lat="43.27988" lon="0.65195">
        <ele>309.68</ele>
        <time>2015-06-27T13:40:08Z</time>
      </trkpt>
      <trkpt lat="43.28038" lon="0.65206">
        <ele>307.28</ele>
        <time>2015-06-27T13:40:16Z</time>
      </trkpt>
      <trkpt lat="43.28051" lon="0.65206">
        <ele>306.32</ele>
        <time>2015-06-27T13:40:18Z</time>
      </trkpt>
      <trkpt lat="43.28064" lon="0.65204">
        <ele>305.36</ele>
        <time>2015-06-27T13:40:20Z</time>
      </trkpt>
      <trkpt lat="43.28071" lon="0.65202">
        <ele>304.88</ele>
        <time>2015-06-27T13:40:21Z</time>
      </trkpt>
      <trkpt lat="43.28078" lon="0.65198">
        <ele>304.39</ele>
        <time>2015-06-27T13:40:22Z</time>
      </trkpt>
      <trkpt lat="43.28111" lon="0.65183">
        <ele>301.99</ele>
        <time>2015-06-27T13:40:26Z</time>
      </trkpt>
      <trkpt lat="43.28122" lon="0.65181">
        <ele>301.51</ele>
        <time>2015-06-27T13:40:27Z</time>
      </trkpt>
      <trkpt lat="43.28134" lon="0.65182">
        <ele>301.03</ele>
        <time>2015-06-27T13:40:28Z</time>
      </trkpt>
      <trkpt lat="43.28155" lon="0.65185">
        <ele>301.03</ele>
        <time>2015-06-27T13:40:30Z</time>
      </trkpt>
      <trkpt lat="43.28188" lon="0.65195">
        <ele>299.59</ele>
        <time>2015-06-27T13:40:33Z</time>
      </trkpt>
      <trkpt lat="43.28197" lon="0.652">
        <ele>299.59</ele>
        <time>2015-06-27T13:40:34Z</time>
      </trkpt>
      <trkpt lat="43.28205" lon="0.65206">
        <ele>299.59</ele>
        <time>2015-06-27T13:40:35Z</time>
      </trkpt>
      <trkpt lat="43.28212" lon="0.65214">
        <ele>299.59</ele>
        <time>2015-06-27T13:40:36Z</time>
      </trkpt>
      <trkpt lat="43.28217" lon="0.65223">
        <ele>299.59</ele>
        <time>2015-06-27T13:40:37Z</time>
      </trkpt>
      <trkpt lat="43.28221" lon="0.65231">
        <ele>299.59</ele>
        <time>2015-06-27T13:40:38Z</time>
      </trkpt>
      <trkpt lat="43.28225" lon="0.6524">
        <ele>299.59</ele>
        <time>2015-06-27T13:40:39Z</time>
      </trkpt>
      <trkpt lat="43.28228" lon="0.65249">
        <ele>300.07</ele>
        <time>2015-06-27T13:40:40Z</time>
      </trkpt>
      <trkpt lat="43.28242" lon="0.65298">
        <ele>300.07</ele>
        <time>2015-06-27T13:40:47Z</time>
      </trkpt>
      <trkpt lat="43.28254" lon="0.6535">
        <ele>301.99</ele>
        <time>2015-06-27T13:40:56Z</time>
      </trkpt>
      <trkpt lat="43.2826" lon="0.65375">
        <ele>302.95</ele>
        <time>2015-06-27T13:41:02Z</time>
      </trkpt>
      <trkpt lat="43.2827" lon="0.65404">
        <ele>304.39</ele>
        <time>2015-06-27T13:41:11Z</time>
      </trkpt>
      <trkpt lat="43.2828" lon="0.65425">
        <ele>304.88</ele>
        <time>2015-06-27T13:41:19Z</time>
      </trkpt>
      <trkpt lat="43.28292" lon="0.65444">
        <ele>306.32</ele>
        <time>2015-06-27T13:41:28Z</time>
      </trkpt>
      <trkpt lat="43.28306" lon="0.65458">
        <ele>306.8</ele>
        <time>2015-06-27T13:41:37Z</time>
      </trkpt>
      <trkpt lat="43.28321" lon="0.65465">
        <ele>307.76</ele>
        <time>2015-06-27T13:41:45Z</time>
      </trkpt>
      <trkpt lat="43.28337" lon="0.65471">
        <ele>308.24</ele>
        <time>2015-06-27T13:41:53Z</time>
      </trkpt>
      <trkpt lat="43.28353" lon="0.65473">
        <ele>309.2</ele>
        <time>2015-06-27T13:42:01Z</time>
      </trkpt>
      <trkpt lat="43.28368" lon="0.65471">
        <ele>310.16</ele>
        <time>2015-06-27T13:42:10Z</time>
      </trkpt>
      <trkpt lat="43.28386" lon="0.65464">
        <ele>311.12</ele>
        <time>2015-06-27T13:42:19Z</time>
      </trkpt>
      <trkpt lat="43.28401" lon="0.65455">
        <ele>311.6</ele>
        <time>2015-06-27T13:42:26Z</time>
      </trkpt>
      <trkpt lat="43.28412" lon="0.65442">
        <ele>312.09</ele>
        <time>2015-06-27T13:42:34Z</time>
      </trkpt>
      <trkpt lat="43.28424" lon="0.65427">
        <ele>313.05</ele>
        <time>2015-06-27T13:42:42Z</time>
      </trkpt>
      <trkpt lat="43.28436" lon="0.65412">
        <ele>314.97</ele>
        <time>2015-06-27T13:42:49Z</time>
      </trkpt>
      <trkpt lat="43.28444" lon="0.65386">
        <ele>314.97</ele>
        <time>2015-06-27T13:42:58Z</time>
      </trkpt>
      <trkpt lat="43.28455" lon="0.65353">
        <ele>315.93</ele>
        <time>2015-06-27T13:43:11Z</time>
      </trkpt>
      <trkpt lat="43.28456" lon="0.65352">
        <ele>316.41</ele>
        <time>2015-06-27T13:43:12Z</time>
      </trkpt>
      <trkpt lat="43.28465" lon="0.65352">
        <ele>316.89</ele>
        <time>2015-06-27T13:43:16Z</time>
      </trkpt>
      <trkpt lat="43.28467" lon="0.65354">
        <ele>316.89</ele>
        <time>2015-06-27T13:43:17Z</time>
      </trkpt>
      <trkpt lat="43.2848" lon="0.65374">
        <ele>316.89</ele>
        <time>2015-06-27T13:43:24Z</time>
      </trkpt>
      <trkpt lat="43.28484" lon="0.65406">
        <ele>316.41</ele>
        <time>2015-06-27T13:43:31Z</time>
      </trkpt>
      <trkpt lat="43.2848" lon="0.65455">
        <ele>315.45</ele>
        <time>2015-06-27T13:43:40Z</time>
      </trkpt>
      <trkpt lat="43.2848" lon="0.6546">
        <ele>315.45</ele>
        <time>2015-06-27T13:43:41Z</time>
      </trkpt>
      <trkpt lat="43.28481" lon="0.65466">
        <ele>315.45</ele>
        <time>2015-06-27T13:43:42Z</time>
      </trkpt>
      <trkpt lat="43.28484" lon="0.65471">
        <ele>315.45</ele>
        <time>2015-06-27T13:43:43Z</time>
      </trkpt>
      <trkpt lat="43.28486" lon="0.65474">
        <ele>314.97</ele>
        <time>2015-06-27T13:43:44Z</time>
      </trkpt>
      <trkpt lat="43.2849" lon="0.65477">
        <ele>315.45</ele>
        <time>2015-06-27T13:43:45Z</time>
      </trkpt>
      <trkpt lat="43.28493" lon="0.65479">
        <ele>315.45</ele>
        <time>2015-06-27T13:43:46Z</time>
      </trkpt>
      <trkpt lat="43.28529" lon="0.65497">
        <ele>315.45</ele>
        <time>2015-06-27T13:43:57Z</time>
      </trkpt>
      <trkpt lat="43.28566" lon="0.65512">
        <ele>314.97</ele>
        <time>2015-06-27T13:44:05Z</time>
      </trkpt>
      <trkpt lat="43.28619" lon="0.65533">
        <ele>314.01</ele>
        <time>2015-06-27T13:44:16Z</time>
      </trkpt>
      <trkpt lat="43.28632" lon="0.65538">
        <ele>314.49</ele>
        <time>2015-06-27T13:44:19Z</time>
      </trkpt>
      <trkpt lat="43.28659" lon="0.65553">
        <ele>314.01</ele>
        <time>2015-06-27T13:44:27Z</time>
      </trkpt>
      <trkpt lat="43.2866" lon="0.65557">
        <ele>314.01</ele>
        <time>2015-06-27T13:44:28Z</time>
      </trkpt>
      <trkpt lat="43.2866" lon="0.65561">
        <ele>314.49</ele>
        <time>2015-06-27T13:44:29Z</time>
      </trkpt>
      <trkpt lat="43.2866" lon="0.65565">
        <ele>314.49</ele>
        <time>2015-06-27T13:44:30Z</time>
      </trkpt>
      <trkpt lat="43.2866" lon="0.65568">
        <ele>314.49</ele>
        <time>2015-06-27T13:44:31Z</time>
      </trkpt>
      <trkpt lat="43.28661" lon="0.6557">
        <ele>314.49</ele>
        <time>2015-06-27T13:44:32Z</time>
      </trkpt>
      <trkpt lat="43.28663" lon="0.65572">
        <ele>314.49</ele>
        <time>2015-06-27T13:44:33Z</time>
      </trkpt>
      <trkpt lat="43.28664" lon="0.65573">
        <ele>314.49</ele>
        <time>2015-06-27T13:44:34Z</time>
      </trkpt>
      <trkpt lat="43.28666" lon="0.65574">
        <ele>314.49</ele>
        <time>2015-06-27T13:44:35Z</time>
      </trkpt>
      <trkpt lat="43.28667" lon="0.65575">
        <ele>314.49</ele>
        <time>2015-06-27T13:44:36Z</time>
      </trkpt>
      <trkpt lat="43.28669" lon="0.65576">
        <ele>314.49</ele>
        <time>2015-06-27T13:44:37Z</time>
      </trkpt>
      <trkpt lat="43.2867" lon="0.65577">
        <ele>314.49</ele>
        <time>2015-06-27T13:44:38Z</time>
      </trkpt>
      <trkpt lat="43.28673" lon="0.65579">
        <ele>314.49</ele>
        <time>2015-06-27T13:44:39Z</time>
      </trkpt>
      <trkpt lat="43.28675" lon="0.65579">
        <ele>314.01</ele>
        <time>2015-06-27T13:44:40Z</time>
      </trkpt>
      <trkpt lat="43.28678" lon="0.6558">
        <ele>314.01</ele>
        <time>2015-06-27T13:44:41Z</time>
      </trkpt>
      <trkpt lat="43.28681" lon="0.65582">
        <ele>314.01</ele>
        <time>2015-06-27T13:44:42Z</time>
      </trkpt>
      <trkpt lat="43.28682" lon="0.65586">
        <ele>314.01</ele>
        <time>2015-06-27T13:44:43Z</time>
      </trkpt>
      <trkpt lat="43.28681" lon="0.65589">
        <ele>314.01</ele>
        <time>2015-06-27T13:44:44Z</time>
      </trkpt>
      <trkpt lat="43.28679" lon="0.65589">
        <ele>314.01</ele>
        <time>2015-06-27T13:44:45Z</time>
      </trkpt>
      <trkpt lat="43.28679" lon="0.65588">
        <ele>314.49</ele>
        <time>2015-06-27T13:44:49Z</time>
      </trkpt>
      <trkpt lat="43.28679" lon="0.65588">
        <ele>314.01</ele>
        <time>2015-06-27T13:44:55Z</time>
      </trkpt>
      <trkpt lat="43.28681" lon="0.65589">
        <ele>314.49</ele>
        <time>2015-06-27T13:45:11Z</time>
      </trkpt>
      <trkpt lat="43.28679" lon="0.6559">
        <ele>314.49</ele>
        <time>2015-06-27T13:45:29Z</time>
      </trkpt>
      <trkpt lat="43.28678" lon="0.65589">
        <ele>314.49</ele>
        <time>2015-06-27T13:45:50Z</time>
      </trkpt>
      <trkpt lat="43.28675" lon="0.6559">
        <ele>314.49</ele>
        <time>2015-06-27T13:46:13Z</time>
      </trkpt>
      <trkpt lat="43.28675" lon="0.65592">
        <ele>314.49</ele>
        <time>2015-06-27T13:46:34Z</time>
      </trkpt>
      <trkpt lat="43.28675" lon="0.65592">
        <ele>314.49</ele>
        <time>2015-06-27T13:46:52Z</time>
      </trkpt>
      <trkpt lat="43.28674" lon="0.65593">
        <ele>314.49</ele>
        <time>2015-06-27T13:47:08Z</time>
      </trkpt>
      <trkpt lat="43.28674" lon="0.65593">
        <ele>314.49</ele>
        <time>2015-06-27T13:47:26Z</time>
      </trkpt>
      <trkpt lat="43.28674" lon="0.65593">
        <ele>314.49</ele>
        <time>2015-06-27T13:47:46Z</time>
      </trkpt>
      <trkpt lat="43.28673" lon="0.65594">
        <ele>314.97</ele>
        <time>2015-06-27T13:48:04Z</time>
      </trkpt>
      <trkpt lat="43.28673" lon="0.65593">
        <ele>314.97</ele>
        <time>2015-06-27T13:48:16Z</time>
      </trkpt>
      <trkpt lat="43.28673" lon="0.65592">
        <ele>314.97</ele>
        <time>2015-06-27T13:48:25Z</time>
      </trkpt>
      <trkpt lat="43.28674" lon="0.65592">
        <ele>314.97</ele>
        <time>2015-06-27T13:48:35Z</time>
      </trkpt>
      <trkpt lat="43.28674" lon="0.65592">
        <ele>314.97</ele>
        <time>2015-06-27T13:48:44Z</time>
      </trkpt>
      <trkpt lat="43.28674" lon="0.65592">
        <ele>314.97</ele>
        <time>2015-06-27T13:48:56Z</time>
      </trkpt>
      <trkpt lat="43.28677" lon="0.6559">
        <ele>314.97</ele>
        <time>2015-06-27T13:49:08Z</time>
      </trkpt>
      <trkpt lat="43.28685" lon="0.6559">
        <ele>314.97</ele>
        <time>2015-06-27T13:49:19Z</time>
      </trkpt>
      <trkpt lat="43.28689" lon="0.65592">
        <ele>314.97</ele>
        <time>2015-06-27T13:49:29Z</time>
      </trkpt>
      <trkpt lat="43.28691" lon="0.65592">
        <ele>314.97</ele>
        <time>2015-06-27T13:49:39Z</time>
      </trkpt>
      <trkpt lat="43.28686" lon="0.65603">
        <ele>315.45</ele>
        <time>2015-06-27T13:49:49Z</time>
      </trkpt>
      <trkpt lat="43.28686" lon="0.656">
        <ele>315.45</ele>
        <time>2015-06-27T13:50:00Z</time>
      </trkpt>
      <trkpt lat="43.28686" lon="0.65596">
        <ele>315.45</ele>
        <time>2015-06-27T13:50:12Z</time>
      </trkpt>
      <trkpt lat="43.2869" lon="0.65594">
        <ele>315.45</ele>
        <time>2015-06-27T13:50:25Z</time>
      </trkpt>
      <trkpt lat="43.28687" lon="0.65586">
        <ele>315.45</ele>
        <time>2015-06-27T13:50:37Z</time>
      </trkpt>
      <trkpt lat="43.28685" lon="0.65579">
        <ele>315.45</ele>
        <time>2015-06-27T13:50:46Z</time>
      </trkpt>
      <trkpt lat="43.28685" lon="0.65578">
        <ele>315.45</ele>
        <time>2015-06-27T13:50:57Z</time>
      </trkpt>
      <trkpt lat="43.28685" lon="0.65577">
        <ele>315.93</ele>
        <time>2015-06-27T13:51:09Z</time>
      </trkpt>
      <trkpt lat="43.28683" lon="0.65575">
        <ele>315.45</ele>
        <time>2015-06-27T13:51:20Z</time>
      </trkpt>
      <trkpt lat="43.2868" lon="0.65576">
        <ele>315.45</ele>
        <time>2015-06-27T13:51:36Z</time>
      </trkpt>
      <trkpt lat="43.2868" lon="0.65575">
        <ele>315.93</ele>
        <time>2015-06-27T13:51:50Z</time>
      </trkpt>
      <trkpt lat="43.28679" lon="0.65573">
        <ele>315.93</ele>
        <time>2015-06-27T13:52:00Z</time>
      </trkpt>
      <trkpt lat="43.28678" lon="0.6557">
        <ele>315.93</ele>
        <time>2015-06-27T13:52:09Z</time>
      </trkpt>
      <trkpt lat="43.28678" lon="0.65569">
        <ele>315.93</ele>
        <time>2015-06-27T13:52:17Z</time>
      </trkpt>
    </trkseg>
  </trk>
</gpx>